# Wetter Temperatur Luftdruck Luftfeuchtigkeit Sichtweite Windgeschwindigkeit Windrichtung Zeit
1 Clouds 14 1017 63 10000 8.23 70 11:48 22.04.2021
2 Clouds 14 1017 67 10000 7.2 70 11:24 22.04.2021
3 Clouds 14 1017 67 10000 7.2 60 10:46 22.04.2021
4 Clouds 14 1017 67 10000 7.2 60 10:46 22.04.2021
5 Clouds 13 1017 71 10000 5.66 60 10:27 22.04.2021
6 Clouds 13 1017 76 10000 4.63 60 09:58 22.04.2021
7 Clouds 12 1017 76 10000 4.12 40 09:31 22.04.2021
8 Clouds 12 1016 82 10000 2.57 350 08:45 22.04.2021
9 Clouds 11 1016 82 10000 2.57 330 08:23 22.04.2021
10 Clouds 11 1016 87 10000 3.09 330 07:47 22.04.2021
11 Clouds 11 1016 87 10000 2.57 320 07:29 22.04.2021
12 Clouds 11 1015 87 10000 3.09 340 06:41 22.04.2021
13 Clouds 11 1015 87 10000 2.57 340 05:53 22.04.2021
14 Clouds 11 1016 82 10000 2.06 330 05:20 22.04.2021
15 Clouds 11 1016 82 10000 2.57 30 01:41 22.04.2021
16 Clouds 12 1016 82 10000 3.6 60 23:54 21.04.2021
17 Clouds 12 1016 82 10000 4.12 60 23:35 21.04.2021
18 Clouds 12 1016 82 10000 4.12 60 22:45 21.04.2021
19 Clouds 12 1016 76 10000 4.63 70 22:25 21.04.2021
20 Clouds 12 1016 76 10000 4.63 80 21:57 21.04.2021
21 Clouds 12 1015 82 10000 5.66 80 21:38 21.04.2021
22 Clouds 12 1015 82 10000 5.66 80 21:18 21.04.2021
23 Clouds 13 1015 76 10000 6.17 60 20:24 21.04.2021
24 Clouds 13 1015 77 10000 5.66 70 19:46 21.04.2021
25 Clouds 13 1014 77 10000 6.17 70 19:27 21.04.2021
26 Clouds 14 1014 77 10000 6.17 70 18:50 21.04.2021
27 Clouds 14 1014 77 10000 6.17 70 18:31 21.04.2021
28 Clouds 14 1014 77 10000 6.17 70 18:31 21.04.2021
29 Clouds 14 1014 72 10000 5.66 80 17:57 21.04.2021
30 Clouds 14 1014 77 10000 5.14 70 17:39 21.04.2021
31 Clouds 14 1014 77 10000 5.14 80 17:19 21.04.2021
32 Clouds 13 1014 77 10000 5.14 90 16:38 21.04.2021
33 Clouds 13 1014 82 10000 5.14 90 15:46 21.04.2021
34 Clouds 13 1014 77 10000 6.17 100 15:20 21.04.2021
35 Clouds 13 1014 82 10000 6.17 70 14:44 21.04.2021
36 Clouds 13 1014 77 10000 6.17 70 14:24 21.04.2021
37 Clouds 13 1015 77 10000 6.69 70 13:49 21.04.2021
38 Clouds 13 1014 77 10000 6.17 90 13:21 21.04.2021
39 Clouds 13 1014 82 10000 2.57 60 12:41 21.04.2021
40 Clouds 13 1014 82 10000 2.57 60 12:18 21.04.2021
41 Clouds 14 1014 72 10000 4.12 50 11:41 21.04.2021
42 Clouds 14 1014 72 10000 3.6 70 11:22 21.04.2021
43 Clouds 13 1014 76 9000 1.03 0 10:39 21.04.2021
44 Clouds 12 1014 87 9000 1.03 0 09:56 21.04.2021
45 Clouds 12 1013 88 9000 1.03 50 09:21 21.04.2021
46 Clouds 12 1013 94 9000 4.12 70 08:44 21.04.2021
47 Clouds 12 1013 88 10000 4.12 70 08:23 21.04.2021
48 Clouds 12 1012 94 10000 4.63 70 07:52 21.04.2021
49 Rain 12 1012 94 9000 4.63 60 07:28 21.04.2021
50 Rain 12 1012 94 9000 3.6 70 05:57 21.04.2021
51 Clouds 14 1014 82 10000 4.12 50 01:51 21.04.2021
52 Clouds 14 1014 88 10000 3.6 60 00:20 21.04.2021
53 Clouds 14 1014 82 10000 4.63 60 23:39 20.04.2021
54 Clouds 14 1014 82 10000 4.12 60 22:49 20.04.2021
55 Clouds 14 1014 82 10000 4.12 60 22:24 20.04.2021
56 Clouds 14 1014 88 10000 4.12 60 21:56 20.04.2021
57 Clouds 14 1014 82 10000 4.12 70 21:33 20.04.2021
58 Clouds 14 1014 82 10000 4.12 80 20:59 20.04.2021
59 Clouds 14 1014 88 10000 4.12 80 20:38 20.04.2021
60 Clouds 14 1014 88 10000 4.12 80 20:18 20.04.2021
61 Clouds 14 1014 88 10000 4.63 80 19:46 20.04.2021
62 Clouds 15 1014 88 10000 5.14 80 19:28 20.04.2021
63 Clouds 15 1014 82 10000 5.66 80 18:46 20.04.2021
64 Clouds 15 1014 82 10000 7.2 80 18:28 20.04.2021
65 Clouds 15 1014 67 10000 3.6 120 17:41 20.04.2021
66 Clouds 16 1014 67 10000 6.17 80 16:51 20.04.2021
67 Clouds 16 1014 67 10000 6.17 90 16:28 20.04.2021
68 Clouds 16 1014 67 10000 5.66 80 15:36 20.04.2021
69 Clouds 16 1015 72 10000 5.66 80 15:18 20.04.2021
70 Clouds 16 1015 72 10000 5.14 100 14:39 20.04.2021
71 Clouds 16 1015 72 10000 5.14 100 14:20 20.04.2021
72 Clouds 16 1015 67 10000 4.12 100 13:27 20.04.2021
73 Clouds 15 1015 72 10000 3.6 100 12:53 20.04.2021
74 Clouds 15 1015 67 10000 3.6 110 12:24 20.04.2021
75 Clouds 15 1015 67 10000 1.54 30 11:46 20.04.2021
76 Clouds 15 1015 67 10000 3.09 310 11:25 20.04.2021
77 Clouds 14 1015 67 10000 2.06 330 10:48 20.04.2021
78 Clouds 14 1015 72 10000 3.09 340 10:24 20.04.2021
79 Clouds 13 1015 71 10000 3.6 330 09:47 20.04.2021
80 Clouds 13 1015 82 10000 3.09 340 09:18 20.04.2021
81 Clouds 13 1015 82 10000 3.09 330 08:42 20.04.2021
82 Clouds 12 1015 87 10000 4.12 330 07:53 20.04.2021
83 Clouds 12 1015 82 10000 3.6 330 07:31 20.04.2021
84 Clouds 12 1015 82 10000 3.09 330 05:42 20.04.2021
85 Clouds 12 1016 82 10000 3.09 330 04:43 20.04.2021
86 Clouds 12 1016 87 10000 2.57 330 03:41 20.04.2021
87 Clouds 13 1017 88 10000 3.09 60 00:51 20.04.2021
88 Clouds 13 1017 82 10000 3.09 50 23:54 19.04.2021
89 Clouds 13 1017 82 10000 3.6 60 23:31 19.04.2021
90 Clouds 13 1017 82 10000 4.63 60 22:43 19.04.2021
91 Clouds 13 1017 82 10000 4.12 60 22:22 19.04.2021
92 Clouds 14 1017 82 10000 5.14 60 21:42 19.04.2021
93 Clouds 14 1017 82 10000 5.14 60 21:20 19.04.2021
94 Clouds 14 1016 82 10000 4.63 70 20:41 19.04.2021
95 Clouds 14 1017 82 10000 4.12 80 20:20 19.04.2021
96 Clouds 14 1016 77 10000 4.63 80 19:48 19.04.2021
97 Clouds 15 1016 77 10000 6.17 90 19:26 19.04.2021
98 Clouds 15 1016 77 10000 5.66 100 18:56 19.04.2021
99 Clouds 15 1016 72 10000 6.69 90 18:37 19.04.2021
100 Clouds 15 1016 72 10000 6.69 90 18:18 19.04.2021
101 Clouds 15 1016 72 10000 6.69 90 17:43 19.04.2021
102 Clouds 15 1016 72 10000 6.69 90 17:22 19.04.2021
103 Clouds 16 1016 67 10000 7.2 90 16:41 19.04.2021
104 Clouds 16 1017 67 10000 7.72 100 16:22 19.04.2021
105 Clouds 16 1017 67 10000 6.69 90 15:41 19.04.2021
106 Clouds 16 1017 67 10000 6.17 100 15:23 19.04.2021
107 Clouds 16 1017 67 10000 6.17 100 14:43 19.04.2021
108 Clouds 16 1017 67 10000 6.17 100 14:23 19.04.2021
109 Clouds 16 1017 67 10000 6.17 100 13:48 19.04.2021
110 Clouds 16 1017 67 10000 6.17 100 13:26 19.04.2021
111 Clouds 15 1018 67 10000 5.66 90 12:45 19.04.2021
112 Clouds 15 1018 72 10000 5.14 90 12:26 19.04.2021
113 Clouds 15 1018 72 10000 5.14 80 11:55 19.04.2021
114 Clouds 14 1018 72 10000 4.63 70 11:26 19.04.2021
115 Clouds 14 1018 58 10000 3.09 60 10:55 19.04.2021
116 Clouds 13 1018 67 10000 1.54 350 10:36 19.04.2021
117 Clouds 13 1018 67 10000 1.54 350 10:18 19.04.2021
118 Clouds 13 1018 71 10000 2.57 330 09:38 19.04.2021
119 Clouds 12 1018 71 10000 3.6 340 09:19 19.04.2021
120 Clouds 10 1018 76 10000 3.09 340 08:30 19.04.2021
121 Clouds 10 1018 76 10000 2.57 330 07:49 19.04.2021
122 Clouds 10 1018 76 10000 3.6 340 07:20 19.04.2021
123 Clouds 10 1018 81 10000 3.09 330 06:38 19.04.2021
124 Clear 11 1020 71 10000 1.03 310 02:37 19.04.2021
125 Clear 11 1020 71 10000 2.57 320 01:29 19.04.2021
126 Clear 12 1020 66 10000 2.11 210 00:30 19.04.2021
127 Clear 12 1020 71 10000 3.6 230 23:19 18.04.2021
128 Clear 13 1020 67 10000 3.09 220 22:52 18.04.2021
129 Clear 12 1020 62 10000 4.63 230 22:31 18.04.2021
130 Clear 13 1019 62 10000 4.63 230 21:45 18.04.2021
131 Clear 13 1019 62 10000 4.63 230 21:23 18.04.2021
132 Clear 13 1019 62 10000 4.63 230 21:23 18.04.2021
133 Clear 13 1019 58 10000 6.69 220 20:40 18.04.2021
134 Clear 14 1019 58 10000 6.69 220 20:21 18.04.2021
135 Clouds 14 1019 51 10000 5.66 220 19:56 18.04.2021
136 Clouds 15 1019 51 10000 6.17 220 19:35 18.04.2021
137 Clouds 15 1018 51 10000 6.17 200 18:54 18.04.2021
138 Clouds 15 1018 51 10000 6.17 200 18:31 18.04.2021
139 Clouds 16 1018 47 10000 6.69 200 17:59 18.04.2021
140 Clouds 16 1018 47 10000 6.69 210 17:41 18.04.2021
141 Clouds 16 1018 47 10000 6.69 210 17:23 18.04.2021
142 Clouds 15 1018 41 10000 7.2 200 16:41 18.04.2021
143 Clouds 15 1019 41 10000 6.17 200 16:18 18.04.2021
144 Clouds 16 1019 51 10000 5.66 190 15:39 18.04.2021
145 Clouds 16 1019 44 10000 5.14 180 15:20 18.04.2021
146 Clouds 16 1019 44 10000 5.14 180 14:42 18.04.2021
147 Clouds 16 1019 41 10000 5.14 200 14:20 18.04.2021
148 Clouds 16 1019 29 10000 3.6 210 13:54 18.04.2021
149 Clouds 16 1019 31 10000 3.09 190 13:31 18.04.2021
150 Clouds 15 1019 44 10000 4.12 200 12:44 18.04.2021
151 Clouds 15 1019 44 10000 4.12 200 12:44 18.04.2021
152 Clouds 15 1020 38 10000 2.57 210 12:23 18.04.2021
153 Clouds 14 1019 35 10000 5.66 310 11:41 18.04.2021
154 Clouds 14 1019 35 10000 5.66 310 11:20 18.04.2021
155 Clouds 12 1019 46 10000 6.69 310 10:46 18.04.2021
156 Clouds 12 1019 46 10000 6.69 310 10:21 18.04.2021
157 Clouds 10 1019 50 10000 6.17 310 09:45 18.04.2021
158 Clear 9 1019 57 10000 6.17 310 09:26 18.04.2021
159 Clear 9 1019 61 10000 6.69 330 08:54 18.04.2021
160 Clear 8 1018 65 10000 6.17 340 08:29 18.04.2021
161 Clear 8 1018 65 10000 6.17 340 07:53 18.04.2021
162 Clear 8 1018 70 10000 5.66 330 07:35 18.04.2021
163 Clear 8 1018 81 10000 4.12 330 05:40 18.04.2021
164 Clear 8 1018 81 10000 4.12 330 05:22 18.04.2021
165 Clouds 9 1018 76 10000 3.6 340 02:25 18.04.2021
166 Clouds 10 1018 76 10000 2.57 300 01:41 18.04.2021
167 Clouds 10 1018 76 10000 2.06 10 00:36 18.04.2021
168 Clouds 10 1018 82 10000 3.09 230 23:31 17.04.2021
169 Clouds 11 1018 76 10000 3.6 220 22:50 17.04.2021
170 Clouds 11 1018 71 10000 3.6 210 22:30 17.04.2021
171 Clouds 11 1018 71 10000 3.6 210 22:30 17.04.2021
172 Clouds 11 1017 66 10000 2.57 200 21:46 17.04.2021
173 Clouds 11 1017 66 10000 2.06 180 21:28 17.04.2021
174 Clouds 11 1017 58 10000 2.57 170 20:43 17.04.2021
175 Clouds 12 1017 58 10000 2.57 120 20:24 17.04.2021
176 Clouds 12 1016 50 10000 4.12 110 19:43 17.04.2021
177 Clouds 12 1016 50 10000 4.12 110 19:20 17.04.2021
178 Clouds 12 1016 50 10000 4.12 110 19:20 17.04.2021
179 Clouds 12 1016 54 10000 4.63 90 18:53 17.04.2021
180 Clouds 12 1016 54 10000 4.63 120 18:25 17.04.2021
181 Clouds 12 1016 50 10000 6.17 90 17:49 17.04.2021
182 Clouds 12 1016 54 10000 5.66 90 17:30 17.04.2021
183 Clouds 12 1016 54 10000 6.17 100 16:42 17.04.2021
184 Clouds 13 1016 51 10000 3.09 150 16:23 17.04.2021
185 Clouds 13 1016 47 10000 3.6 140 15:38 17.04.2021
186 Clouds 13 1015 47 10000 4.12 190 14:44 17.04.2021
187 Clouds 14 1016 44 10000 4.63 180 14:20 17.04.2021
188 Clouds 14 1016 47 10000 4.63 160 13:44 17.04.2021
189 Clouds 13 1016 30 10000 2.06 330 12:55 17.04.2021
190 Clouds 13 1017 38 10000 4.12 320 12:34 17.04.2021
191 Clouds 13 1017 54 10000 2.57 330 11:58 17.04.2021
192 Clouds 12 1017 58 10000 4.12 330 11:38 17.04.2021
193 Clouds 11 1017 58 10000 4.12 330 11:19 17.04.2021
194 Clouds 10 1017 71 10000 4.12 310 10:39 17.04.2021
195 Clouds 9 1017 76 10000 3.09 330 09:51 17.04.2021
196 Clouds 7 1017 81 10000 4.12 300 08:55 17.04.2021
197 Clouds 7 1017 81 10000 4.12 300 08:55 17.04.2021
198 Clouds 7 1017 81 10000 4.12 320 08:33 17.04.2021
199 Clouds 7 1017 81 10000 4.12 320 08:33 17.04.2021
200 Clouds 7 1017 76 10000 2.57 310 07:54 17.04.2021
201 Clouds 7 1017 81 10000 4.63 320 06:34 17.04.2021
202 Clouds 8 1018 81 10000 3.09 320 03:48 17.04.2021
203 Clouds 9 1020 87 10000 4.63 330 01:35 17.04.2021
204 Drizzle 9 1020 93 10000 3.09 330 00:40 17.04.2021
205 Drizzle 9 1020 93 10000 3.09 330 00:19 17.04.2021
206 Rain 9 1020 87 10000 4.12 360 23:35 16.04.2021
207 Rain 9 1020 81 10000 5.14 10 22:52 16.04.2021
208 Rain 9 1020 81 10000 6.17 10 22:25 16.04.2021
209 Rain 9 1019 76 10000 7.2 20 21:58 16.04.2021
210 Rain 10 1018 62 10000 6.17 360 21:40 16.04.2021
211 Rain 9 1018 76 9000 3.6 330 21:21 16.04.2021
212 Clouds 10 1018 54 10000 6.17 20 20:45 16.04.2021
213 Clouds 10 1018 76 9000 2.57 10 20:18 16.04.2021
214 Clouds 11 1017 50 10000 8.23 50 19:47 16.04.2021
215 Clouds 12 1016 51 10000 6.69 70 19:20 16.04.2021
216 Clouds 12 1016 47 10000 6.17 80 18:28 16.04.2021
217 Clouds 13 1016 62 10000 1.03 110 17:51 16.04.2021
218 Clouds 13 1016 62 10000 1.03 110 17:20 16.04.2021
219 Clouds 13 1016 51 10000 7.2 80 16:56 16.04.2021
220 Clouds 13 1016 51 10000 6.17 80 16:38 16.04.2021
221 Clouds 13 1017 51 10000 7.2 100 16:19 16.04.2021
222 Clouds 13 1016 47 10000 2.57 120 15:39 16.04.2021
223 Clouds 13 1016 41 10000 2.57 120 14:47 16.04.2021
224 Clouds 14 1016 41 10000 2.57 120 14:28 16.04.2021
225 Clouds 14 1017 36 10000 6.69 80 13:58 16.04.2021
226 Clouds 14 1017 38 10000 5.66 60 13:23 16.04.2021
227 Clouds 14 1017 38 10000 5.14 70 12:58 16.04.2021
228 Clouds 14 1017 35 10000 5.14 70 12:39 16.04.2021
229 Clouds 14 1017 35 10000 5.14 70 12:21 16.04.2021
230 Clear 14 1017 41 10000 4.63 80 11:42 16.04.2021
231 Clear 13 1017 41 10000 4.63 70 11:21 16.04.2021
232 Clear 12 1017 47 10000 4.12 50 10:42 16.04.2021
233 Clear 12 1017 54 10000 4.12 50 10:23 16.04.2021
234 Clear 11 1017 62 10000 3.6 40 09:44 16.04.2021
235 Clear 11 1017 71 10000 4.12 50 09:22 16.04.2021
236 Clear 11 1017 66 10000 3.6 30 08:45 16.04.2021
237 Clear 11 1017 66 10000 3.09 30 08:24 16.04.2021
238 Clouds 11 1017 71 10000 3.6 40 07:45 16.04.2021
239 Clouds 11 1016 71 10000 1.54 360 07:25 16.04.2021
240 Rain 10 1017 66 10000 2.57 320 06:41 16.04.2021
241 Clouds 11 1017 66 10000 4.12 320 05:32 16.04.2021
242 Clouds 11 1017 54 10000 4.12 330 03:31 16.04.2021
243 Clouds 12 1018 58 10000 1.03 0 00:46 16.04.2021
244 Clouds 12 1018 58 10000 1.03 0 00:22 16.04.2021
245 Clouds 12 1018 54 10000 1.03 60 23:57 15.04.2021
246 Clouds 12 1018 50 10000 2.57 60 23:34 15.04.2021
247 Clouds 12 1018 58 10000 3.6 60 22:50 15.04.2021
248 Clouds 12 1018 58 10000 3.6 60 22:24 15.04.2021
249 Clouds 12 1018 54 10000 3.6 70 21:47 15.04.2021
250 Clear 12 1017 54 10000 4.12 70 21:29 15.04.2021
251 Clouds 12 1017 54 10000 3.6 80 20:56 15.04.2021
252 Clouds 13 1017 54 10000 4.12 80 20:37 15.04.2021
253 Clouds 13 1017 54 10000 4.12 80 20:18 15.04.2021
254 Clear 13 1017 54 10000 5.66 90 19:41 15.04.2021
255 Clear 13 1017 47 10000 5.14 90 19:21 15.04.2021
256 Clear 14 1017 47 10000 6.17 100 18:41 15.04.2021
257 Clear 14 1017 47 10000 6.17 100 18:19 15.04.2021
258 Clear 14 1017 51 10000 6.69 80 17:54 15.04.2021
259 Clear 14 1017 47 10000 6.69 90 17:31 15.04.2021
260 Clouds 14 1018 51 10000 6.17 100 16:44 15.04.2021
261 Clear 14 1018 51 10000 6.69 100 16:25 15.04.2021
262 Clouds 14 1018 51 10000 6.69 100 15:51 15.04.2021
263 Clouds 15 1018 51 10000 7.2 100 15:28 15.04.2021
264 Clouds 15 1019 44 10000 6.69 100 14:45 15.04.2021
265 Clouds 15 1019 44 10000 6.69 100 14:27 15.04.2021
266 Clear 15 1019 47 10000 7.2 90 13:57 15.04.2021
267 Clouds 15 1019 38 10000 7.2 90 13:39 15.04.2021
268 Clouds 14 1019 47 10000 6.69 90 12:54 15.04.2021
269 Clouds 14 1020 51 10000 6.17 80 12:27 15.04.2021
270 Clouds 14 1020 54 10000 6.17 80 11:59 15.04.2021
271 Clouds 14 1019 51 10000 6.17 80 11:39 15.04.2021
272 Clouds 13 1019 51 10000 6.17 80 11:21 15.04.2021
273 Clouds 13 1019 54 10000 6.17 70 10:43 15.04.2021
274 Clouds 12 1019 54 10000 6.17 70 10:25 15.04.2021
275 Clouds 12 1019 62 10000 5.14 70 09:33 15.04.2021
276 Clouds 11 1019 62 10000 6.17 70 08:54 15.04.2021
277 Clouds 11 1019 66 10000 6.69 70 08:36 15.04.2021
278 Clear 11 1019 76 10000 5.14 70 07:48 15.04.2021
279 Clear 11 1019 76 10000 5.14 70 07:22 15.04.2021
280 Clear 11 1019 81 10000 2.57 330 06:37 15.04.2021
281 Clear 11 1019 81 10000 2.57 330 06:19 15.04.2021
282 Clear 11 1019 81 10000 3.09 340 04:23 15.04.2021
283 Clear 12 1020 76 10000 1.54 310 00:24 15.04.2021
284 Clear 11 1020 66 10000 1.72 68 23:37 14.04.2021
285 Clear 12 1020 66 10000 1.96 67 23:18 14.04.2021
286 Clear 12 1020 66 10000 1.54 60 22:43 14.04.2021
287 Clouds 12 1020 71 10000 2.57 70 22:22 14.04.2021
288 Clouds 12 1020 62 10000 2.06 70 21:43 14.04.2021
289 Clouds 12 1020 62 10000 3.09 70 21:23 14.04.2021
290 Clouds 12 1019 67 10000 2.06 80 20:55 14.04.2021
291 Clouds 12 1019 67 10000 2.57 100 20:32 14.04.2021
292 Clouds 13 1019 67 10000 3.09 100 19:51 14.04.2021
293 Clouds 13 1019 62 10000 3.6 110 19:20 14.04.2021
294 Clouds 13 1019 62 10000 3.6 110 18:56 14.04.2021
295 Clouds 13 1019 58 10000 4.12 110 18:21 14.04.2021
296 Clouds 13 1019 62 10000 4.12 110 17:58 14.04.2021
297 Clouds 14 1020 58 10000 4.63 110 17:25 14.04.2021
298 Clouds 14 1020 58 10000 5.66 120 16:54 14.04.2021
299 Clouds 14 1020 58 10000 4.63 120 16:25 14.04.2021
300 Clouds 14 1020 62 10000 4.63 120 15:42 14.04.2021
301 Clouds 14 1020 58 10000 4.63 110 15:23 14.04.2021
302 Clouds 15 1021 58 10000 4.63 100 14:48 14.04.2021
303 Clouds 14 1021 58 10000 5.14 90 14:25 14.04.2021
304 Clouds 14 1021 58 10000 5.14 90 14:25 14.04.2021
305 Clouds 14 1021 58 10000 5.66 90 13:57 14.04.2021
306 Clouds 14 1021 58 10000 5.66 90 13:36 14.04.2021
307 Clouds 14 1022 58 10000 5.66 100 12:39 14.04.2021
308 Clouds 13 1022 58 10000 5.66 80 11:43 14.04.2021
309 Clouds 13 1022 58 10000 5.66 80 11:25 14.04.2021
310 Clouds 13 1022 58 10000 5.66 80 10:55 14.04.2021
311 Clouds 13 1021 62 10000 5.66 70 10:33 14.04.2021
312 Clouds 12 1021 62 10000 5.14 70 09:42 14.04.2021
313 Clouds 12 1021 66 10000 6.17 70 09:21 14.04.2021
314 Clouds 12 1021 66 10000 5.14 70 08:46 14.04.2021
315 Clouds 12 1021 71 10000 5.66 70 08:22 14.04.2021
316 Clouds 12 1021 71 10000 4.63 70 07:25 14.04.2021
317 Clouds 12 1021 87 10000 1.03 0 06:26 14.04.2021
318 Clouds 12 1021 87 10000 1.54 320 04:53 14.04.2021
319 Clouds 13 1022 88 10000 0.51 280 01:54 14.04.2021
320 Clouds 13 1022 88 10000 1.54 270 00:46 14.04.2021
321 Clouds 13 1022 82 10000 2.57 240 23:59 13.04.2021
322 Clouds 13 1022 82 10000 3.09 230 23:30 13.04.2021
323 Clouds 13 1022 82 10000 2.57 200 22:44 13.04.2021
324 Clouds 13 1022 82 10000 2.57 200 22:19 13.04.2021
325 Clouds 13 1022 82 10000 3.6 200 21:47 13.04.2021
326 Clouds 13 1022 82 10000 4.12 200 21:29 13.04.2021
327 Clouds 13 1022 77 10000 3.6 190 20:43 13.04.2021
328 Clouds 14 1022 72 10000 4.12 190 20:24 13.04.2021
329 Clouds 13 1022 72 10000 4.12 190 19:50 13.04.2021
330 Clouds 14 1022 72 10000 3.6 200 19:25 13.04.2021
331 Clouds 14 1022 72 10000 3.6 200 19:25 13.04.2021
332 Clouds 14 1022 72 10000 4.12 180 18:44 13.04.2021
333 Clouds 14 1023 67 10000 3.6 190 18:25 13.04.2021
334 Clouds 14 1023 62 10000 4.12 180 17:40 13.04.2021
335 Clouds 15 1023 62 10000 4.12 180 17:18 13.04.2021
336 Clouds 15 1024 58 10000 3.6 160 16:45 13.04.2021
337 Clouds 15 1024 58 10000 3.6 150 16:23 13.04.2021
338 Clouds 15 1024 58 10000 4.12 140 15:53 13.04.2021
339 Clouds 15 1025 54 10000 4.12 140 15:34 13.04.2021
340 Clouds 14 1025 58 10000 3.6 120 14:47 13.04.2021
341 Clouds 14 1025 58 10000 3.6 120 14:22 13.04.2021
342 Clouds 14 1025 58 10000 4.12 110 13:45 13.04.2021
343 Clouds 14 1025 67 10000 4.12 110 13:26 13.04.2021
344 Clouds 14 1026 58 10000 3.6 110 12:58 13.04.2021
345 Clouds 14 1026 58 10000 4.63 90 12:31 13.04.2021
346 Clouds 13 1026 58 10000 4.63 90 11:59 13.04.2021
347 Clouds 13 1026 62 10000 4.12 90 11:31 13.04.2021
348 Clouds 13 1025 67 10000 4.63 90 10:56 13.04.2021
349 Clouds 12 1025 71 10000 3.09 80 10:24 13.04.2021
350 Clouds 11 1025 76 10000 2.57 350 09:59 13.04.2021
351 Clouds 11 1025 81 10000 2.57 340 09:40 13.04.2021
352 Clouds 11 1025 81 10000 2.57 340 09:18 13.04.2021
353 Clouds 9 1025 81 10000 4.12 330 08:41 13.04.2021
354 Clouds 10 1025 81 10000 4.12 330 08:20 13.04.2021
355 Clouds 9 1024 87 10000 3.6 330 07:36 13.04.2021
356 Clouds 9 1024 87 10000 3.09 330 06:51 13.04.2021
357 Clouds 9 1024 81 10000 3.6 330 04:52 13.04.2021
358 Clouds 10 1025 76 10000 3.09 330 02:47 13.04.2021
359 Clouds 11 1025 71 10000 0.51 0 00:39 13.04.2021
360 Clouds 11 1025 76 10000 2.06 260 23:49 12.04.2021
361 Clouds 12 1025 71 10000 4.12 240 23:27 12.04.2021
362 Clouds 12 1025 67 10000 4.12 230 22:43 12.04.2021
363 Clear 12 1024 62 10000 3.6 230 22:23 12.04.2021
364 Clouds 12 1025 67 10000 4.12 230 22:23 12.04.2021
365 Clear 12 1024 62 10000 3.6 230 21:46 12.04.2021
366 Clear 12 1024 62 10000 3.6 230 21:46 12.04.2021
367 Clear 12 1024 62 10000 5.66 240 21:21 12.04.2021
368 Clear 13 1023 62 10000 5.14 220 20:41 12.04.2021
369 Clear 13 1023 62 10000 5.14 220 20:23 12.04.2021
370 Clear 14 1023 58 10000 4.63 210 19:57 12.04.2021
371 Clear 14 1023 54 10000 5.14 210 19:38 12.04.2021
372 Clear 14 1023 54 10000 5.14 210 19:19 12.04.2021
373 Clear 14 1023 54 10000 5.14 200 18:44 12.04.2021
374 Clear 14 1023 54 10000 6.17 200 18:25 12.04.2021
375 Clouds 14 1023 54 10000 6.17 200 17:44 12.04.2021
376 Clouds 14 1023 54 10000 6.17 200 17:24 12.04.2021
377 Clouds 14 1023 54 10000 7.2 200 16:47 12.04.2021
378 Clouds 14 1023 54 10000 7.2 200 16:27 12.04.2021
379 Clouds 14 1023 58 10000 6.69 200 15:49 12.04.2021
380 Clouds 14 1024 51 10000 6.69 200 15:31 12.04.2021
381 Clouds 14 1024 58 10000 6.17 200 14:53 12.04.2021
382 Clouds 14 1024 58 10000 5.14 200 14:35 12.04.2021
383 Clouds 14 1024 54 10000 5.66 210 13:49 12.04.2021
384 Clouds 14 1024 62 10000 5.14 230 13:29 12.04.2021
385 Clouds 13 1024 71 10000 4.63 200 12:51 12.04.2021
386 Clouds 13 1024 71 10000 2.57 180 12:27 12.04.2021
387 Clouds 12 1024 76 10000 1.03 0 11:59 12.04.2021
388 Clouds 11 1024 81 10000 2.06 330 11:24 12.04.2021
389 Clouds 10 1024 87 10000 2.57 340 10:47 12.04.2021
390 Clouds 10 1023 100 10000 1.54 360 10:27 12.04.2021
391 Drizzle 9 1023 93 10000 1.54 330 09:50 12.04.2021
392 Drizzle 9 1023 93 10000 3.09 330 09:21 12.04.2021
393 Drizzle 9 1022 93 4500 2.57 340 08:39 12.04.2021
394 Drizzle 9 1022 93 6000 1.54 90 07:42 12.04.2021
395 Drizzle 9 1021 93 7000 2.57 100 07:21 12.04.2021
396 Drizzle 9 1021 93 10000 3.09 100 06:25 12.04.2021
397 Drizzle 10 1020 93 10000 3.6 110 05:41 12.04.2021
398 Rain 11 1019 87 10000 4.12 90 01:40 12.04.2021
399 Rain 11 1019 87 10000 4.12 90 01:40 12.04.2021
400 Clouds 12 1018 94 10000 6.17 80 00:26 12.04.2021
401 Clouds 12 1018 88 10000 6.69 70 23:49 11.04.2021
402 Clouds 12 1018 88 10000 6.69 50 23:30 11.04.2021
403 Clouds 13 1017 94 10000 2.06 230 22:48 11.04.2021
404 Clouds 13 1017 94 10000 3.09 230 22:26 11.04.2021
405 Clouds 14 1016 94 10000 3.6 230 21:52 11.04.2021
406 Clouds 14 1015 94 10000 3.6 220 21:30 11.04.2021
407 Clouds 14 1015 94 10000 3.6 220 21:30 11.04.2021
408 Clouds 14 1015 94 10000 3.6 210 20:58 11.04.2021
409 Clouds 15 1015 88 10000 3.6 220 20:31 11.04.2021
410 Clouds 15 1014 88 10000 3.6 220 19:58 11.04.2021
411 Clouds 15 1014 82 10000 4.12 220 19:39 11.04.2021
412 Clouds 15 1014 82 10000 4.63 220 19:19 11.04.2021
413 Clouds 15 1014 82 10000 4.63 220 18:45 11.04.2021
414 Clouds 15 1014 82 10000 5.66 220 18:26 11.04.2021
415 Clouds 16 1013 88 10000 6.17 220 17:49 11.04.2021
416 Clouds 16 1013 82 10000 6.17 210 17:28 11.04.2021
417 Clouds 16 1013 82 10000 5.66 210 16:53 11.04.2021
418 Clouds 16 1013 88 10000 5.14 190 16:27 11.04.2021
419 Clouds 16 1013 82 10000 5.14 210 15:58 11.04.2021
420 Clouds 16 1013 82 10000 5.14 210 15:38 11.04.2021
421 Clouds 16 1013 82 10000 5.14 210 15:20 11.04.2021
422 Clouds 15 1013 88 10000 5.66 210 14:47 11.04.2021
423 Clouds 15 1013 88 10000 6.17 220 14:18 11.04.2021
424 Clouds 15 1014 88 10000 6.17 220 13:39 11.04.2021
425 Clouds 15 1014 88 10000 6.17 220 13:21 11.04.2021
426 Clouds 14 1013 88 10000 3.09 230 12:25 11.04.2021
427 Clouds 14 1014 94 10000 2.06 230 11:53 11.04.2021
428 Clouds 14 1013 94 10000 2.06 260 11:33 11.04.2021
429 Drizzle 13 1013 100 6000 3.09 230 10:56 11.04.2021
430 Drizzle 14 1013 94 6000 0.51 0 10:38 11.04.2021
431 Drizzle 13 1013 94 6000 0.51 0 10:20 11.04.2021
432 Clouds 13 1013 100 8000 0.51 0 09:38 11.04.2021
433 Clouds 12 1013 100 8000 0.51 0 09:20 11.04.2021
434 Clouds 12 1013 94 6000 1.03 340 08:38 11.04.2021
435 Clouds 11 1013 100 6000 1.03 330 07:37 11.04.2021
436 Clouds 11 1013 94 7000 2.3 265 07:18 11.04.2021
437 Clouds 11 1013 93 7000 0.51 0 05:44 11.04.2021
438 Clouds 11 1013 93 7000 0.51 0 05:21 11.04.2021
439 Clouds 11 1013 100 8000 0.51 0 04:35 11.04.2021
440 Clouds 10 1013 93 8000 1.03 300 03:20 11.04.2021
441 Clouds 11 1013 93 8000 0.51 280 00:49 11.04.2021
442 Clouds 11 1014 93 8000 0.51 240 00:25 11.04.2021
443 Clouds 12 1014 94 8000 1.54 280 23:33 10.04.2021
444 Clouds 12 1014 94 8000 2.06 290 22:54 10.04.2021
445 Clouds 12 1014 94 10000 1.54 220 22:26 10.04.2021
446 Clouds 12 1014 88 10000 1.75 222 21:52 10.04.2021
447 Clouds 13 1013 88 10000 1.95 216 21:24 10.04.2021
448 Clouds 13 1013 88 10000 1.97 216 20:53 10.04.2021
449 Clouds 13 1013 88 10000 0.51 0 20:32 10.04.2021
450 Clouds 14 1014 88 10000 1.03 0 19:49 10.04.2021
451 Clouds 14 1013 88 10000 1.54 320 19:30 10.04.2021
452 Clouds 13 1013 88 10000 2.06 320 18:57 10.04.2021
453 Clouds 13 1013 94 10000 2.06 340 18:39 10.04.2021
454 Clouds 13 1014 94 10000 2.57 320 18:20 10.04.2021
455 Clouds 13 1014 88 10000 2.06 360 17:34 10.04.2021
456 Clouds 13 1014 88 10000 1.03 0 16:32 10.04.2021
457 Clouds 13 1015 88 10000 2.06 350 15:56 10.04.2021
458 Clouds 13 1015 88 10000 1.54 30 15:36 10.04.2021
459 Drizzle 13 1015 82 10000 1.54 330 14:51 10.04.2021
460 Drizzle 13 1015 88 10000 1.54 330 14:30 10.04.2021
461 Clouds 13 1015 88 10000 2.57 330 13:54 10.04.2021
462 Drizzle 13 1016 82 10000 2.57 330 13:34 10.04.2021
463 Drizzle 13 1016 87 10000 2.57 340 12:39 10.04.2021
464 Rain 13 1016 87 10000 2.57 340 12:18 10.04.2021
465 Rain 13 1016 76 10000 3.6 330 11:44 10.04.2021
466 Clouds 13 1016 76 10000 3.6 330 11:20 10.04.2021
467 Clouds 12 1016 76 10000 3.6 330 10:44 10.04.2021
468 Clouds 12 1016 76 10000 3.6 330 10:26 10.04.2021
469 Clouds 12 1016 76 10000 4.12 330 09:30 10.04.2021
470 Clouds 12 1016 76 10000 4.12 330 09:30 10.04.2021
471 Clouds 12 1016 76 10000 3.6 320 08:59 10.04.2021
472 Clouds 12 1016 76 10000 3.6 330 08:33 10.04.2021
473 Clouds 12 1016 76 10000 3.09 330 07:55 10.04.2021
474 Clouds 11 1016 82 10000 3.09 330 07:25 10.04.2021
475 Clouds 11 1016 82 10000 2.57 340 06:27 10.04.2021
476 Clouds 12 1017 87 10000 3.09 340 04:49 10.04.2021
477 Clouds 12 1018 82 10000 3.09 320 03:19 10.04.2021
478 Clouds 12 1018 82 10000 3.09 10 02:42 10.04.2021
479 Clouds 12 1019 82 10000 2.06 320 00:59 10.04.2021
480 Clouds 12 1019 82 10000 1.54 330 00:30 10.04.2021
481 Clouds 12 1020 82 10000 1.54 20 23:50 09.04.2021
482 Clouds 12 1020 82 10000 1.54 60 23:27 09.04.2021
483 Clouds 13 1020 77 10000 1.54 90 22:47 09.04.2021
484 Clouds 12 1020 77 10000 2.06 110 22:28 09.04.2021
485 Clouds 13 1020 77 10000 2.57 110 21:40 09.04.2021
486 Clouds 13 1020 77 10000 2.57 110 21:20 09.04.2021
487 Clouds 13 1020 77 10000 3.6 130 20:46 09.04.2021
488 Clouds 13 1019 77 10000 7.2 100 20:23 09.04.2021
489 Clouds 13 1019 77 10000 3.6 110 19:58 09.04.2021
490 Clouds 13 1020 77 10000 4.12 100 19:39 09.04.2021
491 Clouds 13 1020 77 10000 4.12 100 19:21 09.04.2021
492 Clouds 13 1020 77 10000 4.12 110 18:42 09.04.2021
493 Clouds 14 1020 72 10000 5.66 80 18:23 09.04.2021
494 Clouds 14 1020 67 10000 5.14 80 17:47 09.04.2021
495 Clouds 14 1020 67 10000 5.14 80 17:29 09.04.2021
496 Rain 14 1021 67 10000 4.12 70 16:44 09.04.2021
497 Clouds 14 1021 67 10000 4.12 70 16:23 09.04.2021
498 Clouds 13 1021 67 10000 4.12 90 15:43 09.04.2021
499 Clouds 14 1022 67 10000 4.12 90 15:23 09.04.2021
500 Clouds 14 1022 62 10000 4.12 120 14:46 09.04.2021
501 Clouds 14 1022 62 10000 4.12 120 14:22 09.04.2021
502 Clouds 13 1022 62 10000 4.12 120 13:45 09.04.2021
503 Clouds 14 1023 62 10000 4.12 120 13:22 09.04.2021
504 Clouds 14 1023 67 10000 4.12 90 12:47 09.04.2021
505 Clouds 14 1023 58 10000 4.63 70 12:23 09.04.2021
506 Clouds 14 1023 58 10000 1.54 270 11:42 09.04.2021
507 Clouds 13 1023 58 10000 1.54 270 11:20 09.04.2021
508 Clouds 13 1023 62 10000 3.6 330 10:37 09.04.2021
509 Clouds 12 1023 66 10000 4.63 330 09:58 09.04.2021
510 Clouds 10 1023 76 10000 4.63 340 09:27 09.04.2021
511 Clouds 10 1023 76 10000 4.63 330 08:56 09.04.2021
512 Clouds 9 1023 81 10000 4.12 330 08:31 09.04.2021
513 Clouds 9 1023 81 10000 3.09 340 07:22 09.04.2021
514 Clouds 9 1023 76 10000 3.6 330 06:28 09.04.2021
515 Clouds 9 1022 76 10000 4.12 330 05:36 09.04.2021
516 Clear 9 1023 76 10000 3.6 340 03:42 09.04.2021
517 Clear 11 1024 66 10000 2.12 202 00:39 09.04.2021
518 Clear 11 1024 66 10000 2.71 207 00:21 09.04.2021
519 Clear 11 1024 66 10000 2.71 207 00:21 09.04.2021
520 Clear 11 1024 71 10000 2.57 220 23:38 08.04.2021
521 Clear 11 1024 66 10000 3.09 220 22:56 08.04.2021
522 Clear 11 1024 62 10000 3.6 220 22:27 08.04.2021
523 Clear 12 1023 62 10000 3.6 230 21:59 08.04.2021
524 Clear 12 1023 62 10000 3.6 230 21:41 08.04.2021
525 Clear 12 1023 62 10000 3.6 230 21:22 08.04.2021
526 Clear 12 1023 62 10000 4.63 220 20:58 08.04.2021
527 Clear 12 1023 54 10000 5.66 220 20:39 08.04.2021
528 Clear 13 1023 54 10000 5.66 220 20:19 08.04.2021
529 Clear 13 1023 51 10000 6.17 220 19:40 08.04.2021
530 Clear 14 1023 51 10000 6.17 220 19:19 08.04.2021
531 Clear 14 1023 51 10000 6.69 210 18:42 08.04.2021
532 Clear 14 1023 51 10000 6.69 220 18:42 08.04.2021
533 Clouds 14 1023 47 10000 6.69 210 18:19 08.04.2021
534 Clouds 14 1023 47 10000 7.2 220 17:42 08.04.2021
535 Clouds 14 1023 47 10000 7.2 220 17:20 08.04.2021
536 Clouds 15 1024 47 10000 7.2 210 16:45 08.04.2021
537 Clouds 15 1024 47 10000 7.72 210 16:22 08.04.2021
538 Clouds 15 1025 47 10000 7.72 220 15:46 08.04.2021
539 Clouds 15 1025 47 10000 7.72 220 15:26 08.04.2021
540 Clouds 15 1025 47 10000 7.72 210 14:43 08.04.2021
541 Clouds 15 1025 47 10000 7.72 210 14:21 08.04.2021
542 Clouds 14 1026 47 10000 7.2 220 13:49 08.04.2021
543 Clouds 14 1026 47 10000 7.2 220 13:24 08.04.2021
544 Clouds 14 1026 47 10000 7.2 220 12:58 08.04.2021
545 Clouds 14 1026 47 10000 6.69 210 12:34 08.04.2021
546 Clouds 14 1026 47 10000 5.66 210 11:57 08.04.2021
547 Clouds 14 1026 50 10000 4.63 220 11:27 08.04.2021
548 Clouds 13 1026 50 10000 4.12 210 10:56 08.04.2021
549 Clouds 12 1026 50 10000 2.06 240 10:26 08.04.2021
550 Clouds 11 1026 76 10000 3.09 320 09:46 08.04.2021
551 Clouds 11 1026 76 10000 3.09 320 09:27 08.04.2021
552 Clouds 10 1026 71 10000 2.57 320 08:44 08.04.2021
553 Clouds 8 1026 71 10000 2.57 320 08:22 08.04.2021
554 Clouds 9 1026 71 10000 2.57 330 07:46 08.04.2021
555 Clouds 8 1026 71 10000 3.09 330 06:46 08.04.2021
556 Clouds 9 1026 76 10000 1.54 310 01:28 08.04.2021
557 Clouds 9 1026 71 10000 2.06 320 00:32 08.04.2021
558 Clouds 9 1026 71 10000 1.54 320 23:50 07.04.2021
559 Clouds 10 1026 71 10000 1.03 0 23:27 07.04.2021
560 Clear 10 1026 66 10000 1.54 200 22:58 07.04.2021
561 Clear 10 1025 62 10000 1.54 210 22:39 07.04.2021
562 Clear 10 1025 62 10000 1.54 210 22:21 07.04.2021
563 Clear 11 1024 58 10000 2.06 210 21:35 07.04.2021
564 Clear 11 1024 58 10000 2.57 200 20:59 07.04.2021
565 Clear 11 1024 54 10000 2.57 210 20:40 07.04.2021
566 Clear 11 1024 54 10000 2.57 210 20:19 07.04.2021
567 Clear 12 1024 50 10000 3.09 180 19:41 07.04.2021
568 Clear 12 1023 50 10000 2.57 170 19:22 07.04.2021
569 Clear 13 1023 50 10000 3.09 170 18:42 07.04.2021
570 Clouds 12 1023 47 10000 3.09 180 18:18 07.04.2021
571 Clouds 12 1023 44 10000 3.6 140 17:48 07.04.2021
572 Clouds 13 1023 44 10000 3.6 140 17:30 07.04.2021
573 Clouds 12 1023 44 10000 3.6 150 16:47 07.04.2021
574 Clouds 12 1023 44 10000 3.6 150 16:47 07.04.2021
575 Clouds 13 1023 44 10000 3.6 140 16:22 07.04.2021
576 Clouds 12 1023 47 10000 4.12 140 15:56 07.04.2021
577 Clouds 12 1023 50 10000 4.12 120 15:38 07.04.2021
578 Clouds 12 1022 54 10000 3.09 150 14:50 07.04.2021
579 Clouds 11 1022 58 10000 3.09 130 14:25 07.04.2021
580 Clouds 11 1022 58 10000 3.6 100 13:46 07.04.2021
581 Clouds 10 1022 58 10000 3.6 100 13:21 07.04.2021
582 Clouds 9 1022 62 10000 3.6 60 12:48 07.04.2021
583 Clouds 9 1022 66 10000 2.06 30 12:21 07.04.2021
584 Clouds 9 1021 66 10000 2.57 20 11:45 07.04.2021
585 Clouds 9 1021 62 10000 2.57 50 11:24 07.04.2021
586 Clouds 9 1020 62 10000 3.09 90 10:50 07.04.2021
587 Clouds 9 1019 62 10000 2.06 110 09:51 07.04.2021
588 Clouds 9 1019 62 10000 1.54 120 09:30 07.04.2021
589 Clouds 9 1019 62 10000 1.54 120 09:30 07.04.2021
590 Clouds 9 1019 62 10000 1.54 120 09:30 07.04.2021
591 Clouds 9 1018 62 10000 2.06 110 08:59 07.04.2021
592 Clouds 9 1018 62 10000 3.09 110 08:33 07.04.2021
593 Clouds 9 1017 62 10000 1.54 100 07:56 07.04.2021
594 Clouds 9 1017 66 10000 3.09 100 07:29 07.04.2021
595 Clouds 9 1016 71 10000 3.09 90 06:59 07.04.2021
596 Clouds 9 1016 71 10000 3.6 90 06:18 07.04.2021
597 Clouds 10 1014 93 9000 2.06 210 03:35 07.04.2021
598 Clouds 13 1013 72 10000 3.6 150 23:52 06.04.2021
599 Clouds 13 1013 72 10000 3.6 150 23:23 06.04.2021
600 Clouds 13 1013 72 10000 3.6 150 22:59 06.04.2021
601 Clouds 13 1012 72 10000 3.6 140 22:22 06.04.2021
602 Clouds 13 1012 72 10000 4.12 130 21:59 06.04.2021
603 Clouds 13 1012 72 10000 4.12 130 21:59 06.04.2021
604 Clouds 14 1012 72 10000 2.57 150 21:39 06.04.2021
605 Clouds 14 1011 72 10000 3.09 140 21:21 06.04.2021
606 Clouds 14 1011 72 10000 3.09 140 20:51 06.04.2021
607 Clouds 14 1011 72 10000 3.09 140 20:21 06.04.2021
608 Clouds 14 1011 72 10000 3.6 140 19:49 06.04.2021
609 Clouds 14 1011 72 10000 3.6 140 19:31 06.04.2021
610 Clouds 14 1010 67 10000 4.12 140 18:48 06.04.2021
611 Clouds 14 1010 67 10000 4.12 160 18:24 06.04.2021
612 Clouds 15 1010 67 10000 3.6 150 17:52 06.04.2021
613 Clouds 15 1010 67 10000 4.63 160 17:30 06.04.2021
614 Clouds 15 1010 63 10000 5.14 180 16:56 06.04.2021
615 Clouds 15 1011 63 10000 4.63 180 16:38 06.04.2021
616 Clouds 15 1011 67 10000 4.63 170 15:41 06.04.2021
617 Clouds 15 1011 67 10000 4.12 170 15:20 06.04.2021
618 Clouds 15 1012 72 10000 3.09 200 14:39 06.04.2021
619 Clouds 15 1012 72 10000 3.09 200 14:39 06.04.2021
620 Clouds 15 1012 72 10000 3.09 200 14:18 06.04.2021
621 Clouds 15 1012 72 10000 3.6 180 13:43 06.04.2021
622 Clouds 15 1012 72 10000 3.09 170 13:23 06.04.2021
623 Clouds 15 1012 67 10000 2.57 150 12:42 06.04.2021
624 Clouds 15 1012 72 10000 2.57 180 12:22 06.04.2021
625 Clouds 14 1012 67 10000 1.54 110 11:51 06.04.2021
626 Clouds 14 1012 55 10000 1.03 350 11:21 06.04.2021
627 Clouds 14 1012 44 10000 5.14 330 10:47 06.04.2021
628 Clouds 14 1012 47 10000 4.63 330 10:28 06.04.2021
629 Clouds 13 1012 54 10000 6.69 330 09:49 06.04.2021
630 Clouds 12 1011 54 10000 7.2 340 09:30 06.04.2021
631 Clouds 12 1011 62 10000 6.17 330 08:45 06.04.2021
632 Clear 12 1011 71 10000 6.69 330 08:18 06.04.2021
633 Clouds 12 1010 87 8000 4.12 340 06:55 06.04.2021
634 Clouds 12 1010 87 7000 4.63 330 05:41 06.04.2021
635 Clouds 13 1012 88 10000 4.63 240 02:57 06.04.2021
636 Clouds 14 1013 94 10000 5.66 230 00:45 06.04.2021
637 Clouds 14 1013 94 10000 6.17 240 00:21 06.04.2021
638 Clear 15 1013 88 10000 5.66 230 23:43 05.04.2021
639 Clear 15 1013 88 10000 6.17 220 23:20 05.04.2021
640 Clouds 15 1014 88 10000 7.2 230 22:48 05.04.2021
641 Clouds 15 1014 82 10000 7.72 240 22:26 05.04.2021
642 Clear 16 1014 82 10000 8.75 230 21:44 05.04.2021
643 Clear 15 1014 82 10000 8.75 230 21:22 05.04.2021
644 Clear 16 1013 82 10000 10.29 230 20:45 05.04.2021
645 Clear 16 1013 82 10000 10.29 230 20:26 05.04.2021
646 Clear 17 1013 48 10000 3.6 210 19:43 05.04.2021
647 Clear 17 1014 77 10000 9.77 230 19:22 05.04.2021
648 Clear 18 1014 72 10000 9.77 230 18:54 05.04.2021
649 Clear 18 1014 67 10000 10.29 230 18:36 05.04.2021
650 Clear 18 1014 67 10000 10.29 230 18:18 05.04.2021
651 Clear 19 1014 67 10000 9.77 220 17:42 05.04.2021
652 Clear 19 1014 67 10000 10.29 230 17:19 05.04.2021
653 Clear 19 1015 63 10000 9.26 220 16:43 05.04.2021
654 Clear 19 1015 59 10000 9.26 220 16:20 05.04.2021
655 Clouds 19 1015 59 10000 9.77 220 15:52 05.04.2021
656 Clouds 19 1016 52 10000 9.77 220 15:29 05.04.2021
657 Clouds 19 1016 59 10000 9.26 220 14:50 05.04.2021
658 Clouds 19 1016 59 10000 7.2 210 14:28 05.04.2021
659 Clouds 18 1017 72 10000 5.14 200 13:31 05.04.2021
660 Clear 18 1017 42 10000 3.09 210 12:50 05.04.2021
661 Clear 18 1017 48 10000 2.57 200 12:27 05.04.2021
662 Clear 17 1018 55 10000 1.54 240 11:56 05.04.2021
663 Clear 17 1018 55 10000 1.54 290 11:34 05.04.2021
664 Clear 16 1018 58 10000 3.09 320 10:59 05.04.2021
665 Clear 15 1018 67 10000 3.6 320 10:41 05.04.2021
666 Clear 14 1018 67 10000 3.6 320 10:22 05.04.2021
667 Clear 14 1018 71 10000 5.66 320 09:47 05.04.2021
668 Clear 13 1018 71 10000 4.63 320 09:22 05.04.2021
669 Clear 12 1018 76 10000 4.63 330 08:43 05.04.2021
670 Clear 12 1017 76 10000 4.12 320 08:24 05.04.2021
671 Clear 12 1017 76 10000 4.12 320 07:36 05.04.2021
672 Clear 13 1017 76 10000 2.57 330 06:20 05.04.2021
673 Clear 13 1018 66 10000 2.57 330 01:41 05.04.2021
674 Clear 13 1018 66 10000 1.03 300 00:49 05.04.2021
675 Clear 13 1018 67 10000 1.03 0 23:51 04.04.2021
676 Clear 13 1018 67 10000 1.03 0 23:24 04.04.2021
677 Clear 14 1018 71 10000 1.54 260 22:51 04.04.2021
678 Clear 14 1018 71 10000 2.57 250 22:30 04.04.2021
679 Clear 14 1017 76 10000 3.09 250 21:28 04.04.2021
680 Clear 15 1017 67 10000 2.57 240 20:57 04.04.2021
681 Clear 15 1017 67 10000 2.06 210 20:30 04.04.2021
682 Clear 16 1017 59 10000 2.57 200 19:57 04.04.2021
683 Clear 16 1016 55 10000 2.57 170 19:36 04.04.2021
684 Clear 16 1016 55 10000 2.57 170 19:18 04.04.2021
685 Clear 16 1016 55 10000 2.57 170 19:18 04.04.2021
686 Clear 17 1016 59 10000 3.09 180 18:42 04.04.2021
687 Clear 17 1016 51 10000 3.09 180 18:21 04.04.2021
688 Clear 17 1016 51 10000 3.09 180 18:21 04.04.2021
689 Clear 17 1016 51 10000 3.09 180 17:44 04.04.2021
690 Clouds 17 1016 51 10000 3.09 180 17:23 04.04.2021
691 Clouds 17 1016 55 10000 3.09 180 16:44 04.04.2021
692 Clouds 17 1016 51 10000 3.6 170 16:19 04.04.2021
693 Clouds 17 1017 51 10000 3.6 170 15:34 04.04.2021
694 Clouds 17 1017 48 10000 2.57 170 14:46 04.04.2021
695 Clouds 16 1017 51 10000 2.57 140 14:27 04.04.2021
696 Clouds 16 1017 55 10000 2.57 140 13:50 04.04.2021
697 Clouds 16 1017 55 10000 2.06 140 13:24 04.04.2021
698 Clouds 16 1017 59 10000 2.57 140 12:43 04.04.2021
699 Clouds 16 1017 59 10000 2.57 140 12:24 04.04.2021
700 Clouds 15 1016 62 10000 3.6 340 11:42 04.04.2021
701 Clouds 15 1016 62 10000 3.6 340 11:23 04.04.2021
702 Clouds 15 1016 58 10000 4.63 340 10:45 04.04.2021
703 Clear 14 1016 67 10000 4.12 330 09:57 04.04.2021
704 Clear 13 1016 82 10000 3.6 340 09:26 04.04.2021
705 Clear 13 1015 87 10000 3.6 340 08:55 04.04.2021
706 Clear 13 1015 82 10000 4.63 330 08:37 04.04.2021
707 Clear 13 1015 82 10000 4.63 330 08:19 04.04.2021
708 Clear 13 1014 82 10000 3.6 330 06:38 04.04.2021
709 Clear 13 1014 72 10000 1.03 0 05:33 04.04.2021
710 Clouds 15 1014 77 10000 1.03 0 01:30 04.04.2021
711 Clouds 15 1013 77 10000 1.09 229 00:23 04.04.2021
712 Clouds 15 1013 77 10000 1.03 0 23:51 03.04.2021
713 Clouds 15 1013 72 10000 0.51 0 23:32 03.04.2021
714 Clouds 16 1012 72 10000 1.03 0 22:53 03.04.2021
715 Clouds 15 1012 72 10000 2.06 60 22:22 03.04.2021
716 Clouds 16 1011 67 10000 1.54 180 21:54 03.04.2021
717 Clouds 16 1011 82 10000 1.03 0 21:25 03.04.2021
718 Clouds 16 1011 77 10000 1.54 110 20:59 03.04.2021
719 Clouds 16 1010 77 10000 2.06 120 20:29 03.04.2021
720 Clear 17 1010 72 10000 3.09 110 19:51 03.04.2021
721 Clear 17 1010 72 10000 4.12 110 19:29 03.04.2021
722 Clear 18 1009 68 10000 2.57 130 18:57 03.04.2021
723 Clear 18 1009 63 10000 2.06 190 18:36 03.04.2021
724 Clouds 19 1009 68 10000 4.12 200 17:57 03.04.2021
725 Clouds 20 1009 63 10000 4.12 200 17:27 03.04.2021
726 Clouds 20 1009 59 10000 5.66 210 16:58 03.04.2021
727 Clouds 20 1009 59 10000 6.69 220 16:31 03.04.2021
728 Clouds 21 1010 59 10000 6.17 210 15:53 03.04.2021
729 Clouds 21 1010 59 10000 5.14 210 15:32 03.04.2021
730 Clouds 21 1010 55 10000 5.66 220 14:59 03.04.2021
731 Clouds 22 1010 49 10000 5.66 210 14:27 03.04.2021
732 Clouds 22 1010 49 10000 5.66 210 14:27 03.04.2021
733 Clouds 22 1011 45 10000 4.63 210 13:59 03.04.2021
734 Clear 22 1011 43 10000 4.12 220 13:40 03.04.2021
735 Clear 22 1011 43 10000 4.12 220 13:20 03.04.2021
736 Clear 21 1011 45 10000 2.57 190 12:40 03.04.2021
737 Clear 21 1011 45 10000 2.57 190 12:19 03.04.2021
738 Clear 20 1011 45 10000 1.54 310 11:32 03.04.2021
739 Clear 18 1011 48 10000 3.09 320 10:49 03.04.2021
740 Clear 17 1011 51 10000 3.09 320 10:30 03.04.2021
741 Clear 16 1011 58 10000 4.12 310 09:50 03.04.2021
742 Clear 16 1011 62 10000 5.66 310 09:27 03.04.2021
743 Clear 14 1011 62 10000 4.63 310 08:40 03.04.2021
744 Clear 13 1011 62 10000 4.63 310 08:21 03.04.2021
745 Clouds 13 1011 58 10000 3.6 320 07:27 03.04.2021
746 Clouds 14 1011 58 10000 2.06 330 05:33 03.04.2021
747 Clouds 15 1012 54 10000 0.51 180 03:18 03.04.2021
748 Clouds 15 1012 51 10000 2.06 330 02:35 03.04.2021
749 Clouds 15 1012 51 10000 2.57 340 01:45 03.04.2021
750 Clear 15 1013 63 10000 2.06 40 00:19 03.04.2021
751 Clear 15 1013 59 10000 1.54 50 23:46 02.04.2021
752 Clear 16 1013 48 10000 1.03 0 23:24 02.04.2021
753 Clear 16 1013 48 10000 1.54 40 22:50 02.04.2021
754 Clear 16 1013 59 10000 2.06 60 22:32 02.04.2021
755 Clear 16 1013 59 10000 3.6 60 21:42 02.04.2021
756 Clear 16 1013 59 10000 3.09 40 21:22 02.04.2021
757 Clear 16 1012 59 10000 4.63 60 20:48 02.04.2021
758 Clear 17 1012 59 10000 4.63 70 20:27 02.04.2021
759 Clear 17 1012 51 10000 5.66 80 19:56 02.04.2021
760 Clear 17 1012 45 10000 6.69 70 19:37 02.04.2021
761 Clear 18 1012 42 10000 5.66 70 19:19 02.04.2021
762 Clear 19 1012 42 10000 5.66 70 18:38 02.04.2021
763 Clear 19 1012 42 10000 5.66 70 18:19 02.04.2021
764 Clear 19 1012 48 10000 6.69 70 17:37 02.04.2021
765 Clear 19 1013 55 10000 8.23 60 16:48 02.04.2021
766 Clear 18 1013 59 10000 7.72 70 15:54 02.04.2021
767 Clear 19 1013 59 10000 7.72 70 15:32 02.04.2021
768 Clear 19 1014 63 10000 7.72 70 14:48 02.04.2021
769 Clear 18 1014 68 10000 7.72 70 14:27 02.04.2021
770 Clear 18 1014 68 10000 8.23 70 13:42 02.04.2021
771 Clear 18 1014 68 10000 7.72 70 13:19 02.04.2021
772 Clear 17 1015 67 10000 7.72 70 12:40 02.04.2021
773 Clear 18 1015 67 10000 7.72 70 12:20 02.04.2021
774 Clear 18 1015 67 10000 7.72 70 12:20 02.04.2021
775 Clear 17 1015 67 10000 6.69 50 11:53 02.04.2021
776 Clear 17 1015 67 10000 5.66 60 11:20 02.04.2021
777 Clear 17 1015 67 10000 5.66 60 11:20 02.04.2021
778 Clear 16 1015 63 10000 6.17 60 10:45 02.04.2021
779 Clear 16 1015 55 10000 2.06 360 10:27 02.04.2021
780 Clear 15 1015 58 10000 2.57 340 09:52 02.04.2021
781 Clear 14 1014 58 10000 3.09 330 09:26 02.04.2021
782 Clear 14 1014 62 10000 3.6 330 08:51 02.04.2021
783 Clear 13 1014 62 10000 3.09 330 08:29 02.04.2021
784 Clouds 13 1014 62 10000 4.12 340 07:23 02.04.2021
785 Clouds 13 1015 62 10000 2.57 340 06:47 02.04.2021
786 Clear 14 1015 54 10000 2.06 360 04:49 02.04.2021
787 Clear 15 1016 54 10000 3.09 340 02:27 02.04.2021
788 Clear 15 1017 54 10000 1.54 50 00:47 02.04.2021
789 Clear 14 1017 62 10000 1.54 50 00:18 02.04.2021
790 Clear 14 1017 62 10000 1.54 50 00:18 02.04.2021
791 Clear 15 1017 58 10000 1.03 0 23:35 01.04.2021
792 Clear 15 1017 55 10000 1.27 66 22:55 01.04.2021
793 Clear 15 1017 55 10000 0.51 50 22:19 01.04.2021
794 Clear 15 1017 55 10000 2.06 40 21:49 01.04.2021
795 Clear 16 1017 51 10000 1.54 30 21:26 01.04.2021
796 Clear 16 1017 51 10000 0.51 0 20:44 01.04.2021
797 Clear 17 1017 51 10000 0.51 0 20:24 01.04.2021
798 Clear 18 1017 51 10000 1.03 0 19:54 01.04.2021
799 Clear 18 1017 45 10000 1.54 100 19:35 01.04.2021
800 Clear 18 1017 45 10000 1.54 100 19:35 01.04.2021
801 Clear 18 1017 48 10000 2.06 90 18:45 01.04.2021
802 Clear 18 1017 45 10000 3.6 70 18:18 01.04.2021
803 Clear 18 1017 45 10000 3.6 70 17:51 01.04.2021
804 Clear 18 1017 48 10000 3.09 80 17:32 01.04.2021
805 Clear 19 1018 48 10000 3.6 90 16:51 01.04.2021
806 Clear 19 1018 48 10000 3.09 90 16:28 01.04.2021
807 Clear 19 1019 45 10000 3.09 100 15:47 01.04.2021
808 Clear 19 1019 39 10000 3.6 100 15:20 01.04.2021
809 Clear 19 1019 45 10000 4.12 100 14:45 01.04.2021
810 Clear 19 1019 45 10000 3.6 90 14:45 01.04.2021
811 Clear 19 1019 45 10000 4.12 100 14:26 01.04.2021
812 Clear 19 1020 48 10000 4.12 100 13:56 01.04.2021
813 Clear 18 1020 48 10000 4.63 100 13:31 01.04.2021
814 Clear 18 1020 51 10000 3.09 80 12:54 01.04.2021
815 Clear 18 1020 45 10000 3.09 100 12:32 01.04.2021
816 Clear 17 1020 41 10000 2.57 350 11:51 01.04.2021
817 Clear 16 1021 44 10000 3.09 340 11:25 01.04.2021
818 Clear 15 1021 50 10000 4.12 340 10:58 01.04.2021
819 Clear 14 1021 50 10000 5.14 330 10:40 01.04.2021
820 Clear 13 1021 50 10000 5.14 330 10:21 01.04.2021
821 Clear 11 1021 61 10000 5.66 330 09:30 01.04.2021
822 Clear 11 1021 61 10000 5.66 330 09:30 01.04.2021
823 Clear 11 1020 66 10000 6.17 330 08:40 01.04.2021
824 Clear 11 1020 66 10000 6.17 330 08:19 01.04.2021
825 Clear 10 1020 66 10000 5.66 330 07:21 01.04.2021
826 Clear 10 1020 66 10000 6.17 330 06:50 01.04.2021
827 Clear 11 1021 66 10000 4.63 330 04:56 01.04.2021
828 Clear 12 1023 71 10000 4.12 330 02:29 01.04.2021
829 Clear 13 1023 71 10000 1.54 320 23:52 31.03.2021
830 Clear 12 1023 82 10000 0.46 79 23:32 31.03.2021
831 Clear 13 1023 82 10000 1.03 350 22:43 31.03.2021
832 Clear 13 1023 82 10000 1.03 350 22:21 31.03.2021
833 Clear 13 1023 88 10000 0.77 141 21:47 31.03.2021
834 Clear 14 1023 82 10000 1.54 100 21:24 31.03.2021
835 Clear 14 1023 88 10000 2.06 110 20:58 31.03.2021
836 Clear 14 1023 82 10000 2.06 110 20:40 31.03.2021
837 Clear 15 1023 82 10000 2.06 110 20:19 31.03.2021
838 Clear 16 1023 77 10000 3.09 110 19:42 31.03.2021
839 Clear 16 1023 67 10000 2.57 120 19:19 31.03.2021
840 Clear 17 1023 67 10000 2.57 120 18:52 31.03.2021
841 Clear 17 1023 67 10000 2.57 120 18:26 31.03.2021
842 Clear 17 1024 67 10000 3.09 110 17:38 31.03.2021
843 Clear 17 1024 67 10000 3.09 110 17:19 31.03.2021
844 Clear 17 1024 67 10000 3.09 140 16:50 31.03.2021
845 Clear 17 1024 67 10000 3.6 120 16:30 31.03.2021
846 Clear 18 1024 67 10000 3.09 140 15:52 31.03.2021
847 Clear 17 1025 72 10000 3.6 130 15:20 31.03.2021
848 Clear 17 1025 72 10000 3.6 130 14:49 31.03.2021
849 Clear 17 1025 72 10000 3.6 120 14:24 31.03.2021
850 Clear 18 1025 42 10000 2.06 110 13:53 31.03.2021
851 Clear 17 1026 72 10000 3.6 130 13:22 31.03.2021
852 Clear 17 1026 55 10000 1.03 120 12:40 31.03.2021
853 Clear 17 1026 55 10000 1.03 120 12:18 31.03.2021
854 Clear 15 1026 55 10000 0.51 0 11:22 31.03.2021
855 Clear 15 1026 55 10000 0.51 0 11:22 31.03.2021
856 Clear 15 1026 58 10000 1.03 0 10:50 31.03.2021
857 Clear 14 1026 58 10000 2.06 330 10:27 31.03.2021
858 Clear 14 1026 62 10000 3.09 340 09:54 31.03.2021
859 Clear 13 1026 66 10000 3.6 330 09:29 31.03.2021
860 Clear 12 1026 66 10000 3.6 330 08:46 31.03.2021
861 Clear 11 1026 71 10000 3.09 330 08:26 31.03.2021
862 Clouds 9 1026 71 10000 3.09 330 07:36 31.03.2021
863 Clouds 11 1026 76 10000 2.57 320 04:46 31.03.2021
864 Clouds 12 1027 76 10000 1.54 340 02:37 31.03.2021
865 Clouds 13 1028 82 10000 1.03 0 00:54 31.03.2021
866 Clouds 13 1028 94 10000 1.54 60 00:25 31.03.2021
867 Clouds 13 1028 94 10000 1.54 70 23:57 30.03.2021
868 Clouds 13 1028 88 10000 1.03 40 23:25 30.03.2021
869 Clouds 13 1028 94 10000 1.39 77 22:50 30.03.2021
870 Clouds 14 1028 94 10000 1.03 90 22:30 30.03.2021
871 Clouds 14 1028 94 10000 2.57 90 21:57 30.03.2021
872 Clouds 14 1028 88 10000 3.09 80 21:31 30.03.2021
873 Clouds 14 1027 88 10000 3.6 80 20:59 30.03.2021
874 Clear 14 1028 88 10000 2.57 80 20:40 30.03.2021
875 Clear 15 1028 88 10000 2.57 80 20:20 30.03.2021
876 Clear 16 1028 77 10000 2.57 70 19:43 30.03.2021
877 Clouds 17 1028 82 10000 2.06 100 18:58 30.03.2021
878 Clouds 17 1028 67 10000 3.09 90 18:30 30.03.2021
879 Clouds 17 1028 67 10000 3.09 100 17:48 30.03.2021
880 Clouds 17 1028 72 10000 3.6 110 17:30 30.03.2021
881 Fog 17 1029 82 10000 4.12 90 16:47 30.03.2021
882 Fog 17 1029 77 10000 3.6 100 16:28 30.03.2021
883 Clouds 18 1030 72 10000 4.63 110 15:39 30.03.2021
884 Clouds 17 1030 72 10000 4.63 110 15:19 30.03.2021
885 Clouds 18 1030 72 10000 4.12 90 14:45 30.03.2021
886 Clouds 18 1030 67 10000 4.63 110 14:21 30.03.2021
887 Clouds 18 1030 72 10000 5.14 80 13:49 30.03.2021
888 Clear 18 1031 67 10000 4.63 80 13:26 30.03.2021
889 Clear 18 1031 67 10000 4.12 90 12:41 30.03.2021
890 Clear 18 1031 72 10000 4.12 80 12:21 30.03.2021
891 Clouds 17 1031 72 10000 4.63 80 11:47 30.03.2021
892 Clouds 16 1031 67 10000 3.6 60 11:19 30.03.2021
893 Clouds 14 1031 62 10000 3.09 40 10:42 30.03.2021
894 Clouds 14 1031 62 10000 3.09 40 10:19 30.03.2021
895 Clear 13 1031 71 10000 3.09 330 09:41 30.03.2021
896 Clear 13 1031 71 10000 3.09 330 09:21 30.03.2021
897 Clear 13 1031 66 10000 3.09 330 08:43 30.03.2021
898 Clear 11 1030 66 10000 3.6 330 07:56 30.03.2021
899 Clear 11 1030 66 10000 3.6 340 07:31 30.03.2021
900 Clear 11 1030 66 10000 3.6 340 06:30 30.03.2021
901 Clear 12 1030 71 10000 3.09 340 05:25 30.03.2021
902 Clear 13 1031 58 10000 2.57 350 01:47 30.03.2021
903 Clear 13 1031 76 10000 2.06 30 23:54 29.03.2021
904 Clear 14 1031 82 10000 3.09 50 23:22 29.03.2021
905 Clear 14 1031 82 10000 3.09 50 22:43 29.03.2021
906 Clear 14 1031 77 10000 3.09 70 21:57 29.03.2021
907 Clear 14 1031 67 10000 3.09 70 21:35 29.03.2021
908 Clear 15 1031 63 10000 3.09 70 20:51 29.03.2021
909 Clear 15 1031 48 10000 3.09 70 20:33 29.03.2021
910 Clear 16 1031 55 10000 3.6 60 19:56 29.03.2021
911 Clear 16 1031 55 10000 4.12 70 19:32 29.03.2021
912 Clear 16 1031 59 10000 5.14 80 18:57 29.03.2021
913 Clear 17 1031 48 10000 5.14 80 18:38 29.03.2021
914 Clear 17 1031 48 10000 5.14 80 18:19 29.03.2021
915 Clear 17 1031 42 10000 5.66 80 17:37 29.03.2021
916 Clear 17 1031 34 10000 6.17 80 16:54 29.03.2021
917 Clear 18 1031 39 10000 5.66 70 16:34 29.03.2021
918 Clear 18 1031 39 10000 5.66 90 15:47 29.03.2021
919 Clear 18 1032 36 10000 5.66 70 15:28 29.03.2021
920 Clear 18 1032 36 10000 6.17 70 14:49 29.03.2021
921 Clear 17 1032 36 10000 5.14 80 14:28 29.03.2021
922 Clear 17 1032 39 10000 5.66 70 13:47 29.03.2021
923 Clear 17 1033 45 10000 5.14 80 13:22 29.03.2021
924 Clear 18 1033 45 10000 5.14 80 12:49 29.03.2021
925 Clear 16 1033 48 10000 4.12 60 11:49 29.03.2021
926 Clear 16 1033 58 10000 4.12 40 11:30 29.03.2021
927 Clear 15 1032 58 10000 2.06 360 10:52 29.03.2021
928 Clear 14 1032 62 10000 3.09 350 10:34 29.03.2021
929 Clear 13 1032 71 10000 3.6 330 09:37 29.03.2021
930 Clear 10 1032 76 10000 4.63 340 08:51 29.03.2021
931 Clear 11 1032 81 10000 4.12 340 08:28 29.03.2021
932 Clear 10 1031 76 10000 3.6 330 07:28 29.03.2021
933 Clear 10 1031 76 10000 4.12 340 06:27 29.03.2021
934 Clouds 11 1031 76 10000 4.12 330 03:43 29.03.2021
935 Clear 12 1032 76 10000 3.09 340 01:43 29.03.2021
936 Clear 12 1032 71 10000 2.06 320 00:22 29.03.2021
937 Clear 12 1032 66 10000 2.06 330 23:42 28.03.2021
938 Clear 13 1032 71 10000 0.47 120 23:19 28.03.2021
939 Clear 13 1031 76 10000 1.03 0 22:39 28.03.2021
940 Clear 13 1031 76 10000 1.03 0 22:20 28.03.2021
941 Clear 14 1031 77 10000 1.03 60 21:41 28.03.2021
942 Clear 14 1031 77 10000 1.03 60 21:22 28.03.2021
943 Clear 14 1031 77 10000 0.51 110 20:48 28.03.2021
944 Clear 14 1031 72 10000 1.03 120 20:29 28.03.2021
945 Clear 15 1031 72 10000 1.54 150 19:44 28.03.2021
946 Clear 15 1031 72 10000 2.06 130 19:23 28.03.2021
947 Clear 16 1031 67 10000 2.57 140 18:58 28.03.2021
948 Clear 16 1030 63 10000 3.09 120 18:27 28.03.2021
949 Clear 16 1030 63 10000 3.09 130 17:47 28.03.2021
950 Clear 16 1031 67 10000 3.6 120 17:27 28.03.2021
951 Clear 16 1031 72 10000 4.12 120 16:46 28.03.2021
952 Clear 16 1031 72 10000 4.12 120 16:23 28.03.2021
953 Clear 16 1031 72 10000 4.63 120 15:42 28.03.2021
954 Clear 16 1031 72 10000 5.14 120 15:18 28.03.2021
955 Clear 17 1031 72 10000 4.12 110 14:31 28.03.2021
956 Clear 17 1031 72 10000 4.12 100 13:48 28.03.2021
957 Clear 17 1031 59 10000 4.12 100 13:24 28.03.2021
958 Clear 17 1032 63 10000 3.6 100 12:52 28.03.2021
959 Clear 17 1032 67 10000 3.09 110 12:33 28.03.2021
960 Clear 15 1031 67 10000 1.54 10 11:46 28.03.2021
961 Clear 15 1031 67 10000 1.54 10 11:26 28.03.2021
962 Clear 14 1031 71 10000 2.57 330 10:45 28.03.2021
963 Clear 14 1031 76 10000 4.12 320 10:26 28.03.2021
964 Clear 13 1030 82 10000 4.12 320 09:47 28.03.2021
965 Clear 11 1030 87 10000 4.63 320 09:25 28.03.2021
966 Clear 11 1030 87 10000 3.6 320 08:47 28.03.2021
967 Clear 10 1029 93 10000 3.09 330 07:52 28.03.2021
968 Clear 10 1029 93 10000 3.09 320 07:33 28.03.2021
969 Clouds 11 1029 87 10000 2.57 320 04:54 28.03.2021
970 Clouds 12 1029 87 10000 1.03 330 01:38 28.03.2021
971 Clouds 12 1029 82 10000 1.68 245 00:22 28.03.2021
972 Clouds 12 1029 82 10000 1.54 210 23:44 27.03.2021
973 Clouds 12 1029 82 10000 1.54 210 23:21 27.03.2021
974 Clouds 13 1029 76 10000 1.57 223 22:38 27.03.2021
975 Clouds 13 1029 76 10000 1.03 0 21:59 27.03.2021
976 Clouds 13 1028 76 10000 1.59 206 21:40 27.03.2021
977 Clouds 13 1028 76 10000 1.39 194 21:19 27.03.2021
978 Clouds 13 1028 76 10000 1.03 150 20:50 27.03.2021
979 Clouds 13 1028 76 10000 1.03 150 20:31 27.03.2021
980 Clouds 13 1028 76 10000 1.03 140 19:45 27.03.2021
981 Clouds 13 1028 77 10000 2.06 130 19:23 27.03.2021
982 Clouds 14 1028 77 10000 2.06 130 18:50 27.03.2021
983 Clouds 14 1028 77 9000 2.57 130 18:31 27.03.2021
984 Clouds 14 1027 72 9000 3.09 120 17:56 27.03.2021
985 Clouds 14 1027 72 9000 3.09 130 17:26 27.03.2021
986 Clouds 14 1027 72 9000 3.09 120 16:53 27.03.2021
987 Clouds 15 1027 67 10000 3.09 120 16:30 27.03.2021
988 Clouds 15 1027 67 10000 4.12 120 15:56 27.03.2021
989 Clouds 15 1028 67 10000 4.63 110 15:36 27.03.2021
990 Clouds 16 1028 67 10000 4.12 130 14:54 27.03.2021
991 Clouds 16 1028 67 10000 3.6 140 14:19 27.03.2021
992 Clouds 16 1028 67 10000 3.09 140 13:27 27.03.2021
993 Clouds 16 1028 67 10000 3.09 120 12:59 27.03.2021
994 Clouds 16 1028 72 10000 2.57 130 12:33 27.03.2021
995 Clouds 16 1028 72 10000 3.09 140 11:47 27.03.2021
996 Clouds 16 1028 77 10000 4.12 120 11:27 27.03.2021
997 Clouds 15 1028 77 10000 3.09 160 10:48 27.03.2021
998 Clouds 15 1028 77 10000 3.09 160 10:25 27.03.2021
999 Clouds 15 1027 77 10000 1.03 0 09:41 27.03.2021
1000 Clouds 14 1027 88 9000 1.54 310 09:18 27.03.2021
1001 Clouds 13 1026 94 9000 1.54 320 08:33 27.03.2021
1002 Clouds 12 1026 94 9000 2.06 300 07:36 27.03.2021
1003 Clouds 12 1025 94 9000 1.03 0 06:58 27.03.2021
1004 Clouds 12 1025 94 9000 0.71 40 06:37 27.03.2021
1005 Clouds 13 1024 88 10000 2.06 90 04:40 27.03.2021
1006 Clouds 13 1023 88 9000 3.6 50 01:28 27.03.2021
1007 Clouds 13 1023 88 9000 1.03 40 00:32 27.03.2021
1008 Clouds 13 1023 88 9000 1.54 20 23:59 26.03.2021
1009 Clouds 13 1023 88 10000 1.54 350 23:23 26.03.2021
1010 Clouds 13 1022 88 10000 2.06 220 22:37 26.03.2021
1011 Clouds 13 1022 88 10000 3.6 220 21:41 26.03.2021
1012 Clouds 13 1022 88 10000 3.6 220 21:22 26.03.2021
1013 Clouds 13 1021 88 8000 3.6 210 20:49 26.03.2021
1014 Clouds 14 1021 82 8000 4.63 220 20:31 26.03.2021
1015 Clouds 14 1021 88 8000 4.63 220 19:51 26.03.2021
1016 Clouds 14 1020 88 9000 3.6 220 19:32 26.03.2021
1017 Clouds 14 1021 82 9000 4.63 220 18:49 26.03.2021
1018 Clouds 15 1020 82 8000 5.66 210 18:30 26.03.2021
1019 Clouds 15 1020 77 8000 6.17 210 17:50 26.03.2021
1020 Clouds 16 1020 77 9000 5.66 210 17:23 26.03.2021
1021 Clouds 16 1020 77 8000 5.14 200 16:34 26.03.2021
1022 Clouds 16 1021 77 10000 5.66 200 15:59 26.03.2021
1023 Clouds 16 1021 77 9000 5.66 200 15:28 26.03.2021
1024 Clouds 16 1021 77 9000 5.14 200 14:44 26.03.2021
1025 Clouds 17 1022 72 9000 5.66 200 13:51 26.03.2021
1026 Clouds 17 1022 72 10000 5.14 200 13:22 26.03.2021
1027 Clouds 16 1023 77 8000 3.6 220 12:35 26.03.2021
1028 Clouds 15 1023 72 8000 4.12 220 11:48 26.03.2021
1029 Clouds 15 1023 72 9000 3.6 220 11:29 26.03.2021
1030 Clouds 15 1023 77 9000 3.6 210 10:43 26.03.2021
1031 Clouds 14 1023 77 8000 2.57 200 10:19 26.03.2021
1032 Clouds 14 1023 72 8000 0.51 220 09:41 26.03.2021
1033 Clouds 13 1022 76 10000 2.57 340 08:49 26.03.2021
1034 Clouds 12 1022 82 9000 2.57 340 08:29 26.03.2021
1035 Clouds 12 1022 76 10000 2.06 320 07:44 26.03.2021
1036 Clouds 12 1022 82 10000 2.57 320 07:22 26.03.2021
1037 Clouds 12 1021 82 10000 2.57 320 06:55 26.03.2021
1038 Clouds 12 1021 82 10000 2.57 310 05:32 26.03.2021
1039 Clouds 12 1021 76 10000 2.06 320 04:18 26.03.2021
1040 Clouds 13 1023 82 10000 3.09 250 00:52 26.03.2021
1041 Clouds 13 1024 82 10000 4.12 240 23:51 25.03.2021
1042 Clouds 13 1024 82 10000 3.09 240 23:33 25.03.2021
1043 Clouds 13 1024 82 10000 2.06 280 22:41 25.03.2021
1044 Clouds 13 1024 82 10000 3.09 250 22:19 25.03.2021
1045 Clouds 13 1024 82 10000 3.09 250 22:19 25.03.2021
1046 Clouds 13 1024 88 10000 3.6 240 21:45 25.03.2021
1047 Clouds 13 1024 82 10000 3.6 240 21:24 25.03.2021
1048 Clouds 13 1023 82 10000 3.6 240 20:38 25.03.2021
1049 Clouds 13 1023 82 10000 3.6 240 20:18 25.03.2021
1050 Clouds 14 1023 82 10000 3.6 220 19:40 25.03.2021
1051 Clouds 14 1023 82 10000 3.6 220 19:21 25.03.2021
1052 Clouds 14 1023 82 10000 4.12 220 18:43 25.03.2021
1053 Clouds 15 1023 77 10000 4.63 220 18:25 25.03.2021
1054 Clouds 15 1023 82 10000 4.12 210 17:40 25.03.2021
1055 Clouds 15 1023 82 10000 4.12 210 17:21 25.03.2021
1056 Clouds 15 1023 82 10000 4.63 220 16:37 25.03.2021
1057 Clouds 16 1023 82 10000 4.63 220 16:19 25.03.2021
1058 Clouds 16 1023 77 10000 5.14 210 15:41 25.03.2021
1059 Clear 16 1022 63 10000 5.14 130 15:19 25.03.2021
1060 Clouds 16 1024 77 10000 5.14 210 14:41 25.03.2021
1061 Clouds 16 1024 77 10000 5.14 200 13:40 25.03.2021
1062 Clouds 16 1024 77 10000 5.14 200 13:20 25.03.2021
1063 Clouds 16 1025 82 10000 4.12 210 12:38 25.03.2021
1064 Clear 16 1024 59 10000 1.54 130 12:19 25.03.2021
1065 Clear 16 1024 59 10000 1.54 130 11:45 25.03.2021
1066 Clear 16 1024 59 10000 1.54 130 11:26 25.03.2021
1067 Clear 15 1024 63 10000 1.03 0 10:50 25.03.2021
1068 Clouds 14 1024 82 10000 3.09 210 10:24 25.03.2021
1069 Clouds 15 1024 82 10000 1.54 260 09:54 25.03.2021
1070 Clouds 14 1024 82 10000 1.54 290 09:36 25.03.2021
1071 Clouds 13 1024 76 10000 2.57 310 08:42 25.03.2021
1072 Clouds 11 1023 81 10000 3.09 310 07:57 25.03.2021
1073 Clouds 10 1023 76 10000 3.09 280 06:59 25.03.2021
1074 Clouds 10 1023 81 10000 2.57 290 06:25 25.03.2021
1075 Clouds 10 1022 81 10000 2.57 300 05:48 25.03.2021
1076 Clouds 11 1023 93 8000 2.57 290 02:48 25.03.2021
1077 Clear 12 1024 87 10000 2.57 260 00:21 25.03.2021
1078 Clear 12 1024 87 10000 2.57 260 00:21 25.03.2021
1079 Clear 12 1024 94 10000 2.57 270 23:51 24.03.2021
1080 Clear 13 1024 94 10000 4.12 250 23:28 24.03.2021
1081 Clear 13 1024 94 10000 4.12 240 22:47 24.03.2021
1082 Clear 13 1024 94 10000 4.63 240 22:26 24.03.2021
1083 Clear 13 1024 88 10000 5.14 240 21:42 24.03.2021
1084 Clear 13 1024 88 10000 6.17 230 21:22 24.03.2021
1085 Clear 13 1023 94 10000 5.66 220 20:41 24.03.2021
1086 Clear 14 1023 88 10000 6.17 220 20:20 24.03.2021
1087 Clear 14 1023 88 10000 6.69 220 19:39 24.03.2021
1088 Clear 15 1023 88 10000 6.69 220 19:20 24.03.2021
1089 Clear 15 1023 88 10000 7.2 220 18:43 24.03.2021
1090 Clear 16 1023 82 10000 7.72 220 18:20 24.03.2021
1091 Clear 17 1023 77 10000 7.72 220 17:43 24.03.2021
1092 Clear 17 1023 77 10000 7.72 220 17:25 24.03.2021
1093 Clear 17 1023 77 10000 7.72 220 16:51 24.03.2021
1094 Clouds 17 1023 77 10000 8.23 220 16:27 24.03.2021
1095 Clear 17 1023 77 10000 7.72 220 15:49 24.03.2021
1096 Clear 17 1024 72 10000 8.23 220 15:30 24.03.2021
1097 Clear 17 1024 72 10000 7.72 220 14:47 24.03.2021
1098 Clear 17 1024 77 10000 7.2 220 14:25 24.03.2021
1099 Clear 17 1024 77 10000 7.2 220 14:25 24.03.2021
1100 Clear 17 1024 77 10000 6.17 200 13:53 24.03.2021
1101 Clear 17 1025 72 10000 5.66 210 13:27 24.03.2021
1102 Clear 17 1025 72 10000 4.12 200 12:42 24.03.2021
1103 Clear 17 1025 63 10000 3.6 200 12:22 24.03.2021
1104 Clear 16 1025 58 10000 2.06 200 11:43 24.03.2021
1105 Clear 16 1025 51 10000 2.06 310 10:58 24.03.2021
1106 Clear 15 1025 62 10000 3.6 310 10:38 24.03.2021
1107 Clear 14 1025 62 10000 3.6 310 10:20 24.03.2021
1108 Clear 14 1025 66 10000 5.14 310 09:51 24.03.2021
1109 Clear 12 1024 76 10000 5.66 320 09:20 24.03.2021
1110 Clear 11 1024 81 10000 5.14 320 08:50 24.03.2021
1111 Clear 10 1024 81 10000 5.14 320 08:25 24.03.2021
1112 Clear 10 1024 81 10000 4.63 320 07:37 24.03.2021
1113 Clear 9 1024 81 10000 5.66 320 06:52 24.03.2021
1114 Clear 10 1024 87 10000 4.63 320 03:57 24.03.2021
1115 Clear 11 1024 87 10000 3.6 320 00:48 24.03.2021
1116 Clear 11 1024 82 10000 1.54 330 23:59 23.03.2021
1117 Clear 11 1024 87 10000 1.03 0 23:22 23.03.2021
1118 Clear 11 1024 82 10000 1.03 30 22:54 23.03.2021
1119 Clear 11 1024 87 10000 1.54 40 22:36 23.03.2021
1120 Clouds 12 1024 87 10000 3.09 50 21:54 23.03.2021
1121 Clouds 12 1024 82 10000 4.12 60 21:34 23.03.2021
1122 Clouds 12 1024 76 10000 4.12 60 20:56 23.03.2021
1123 Clouds 12 1023 76 10000 3.6 70 20:38 23.03.2021
1124 Clouds 13 1023 76 10000 3.6 70 20:19 23.03.2021
1125 Clouds 13 1023 82 10000 3.09 90 19:41 23.03.2021
1126 Clouds 13 1023 82 10000 3.09 90 19:22 23.03.2021
1127 Clouds 14 1022 77 10000 2.06 160 18:38 23.03.2021
1128 Clouds 14 1022 77 10000 2.06 160 18:19 23.03.2021
1129 Clouds 14 1022 77 10000 2.06 160 18:19 23.03.2021
1130 Clear 14 1021 72 10000 3.09 210 17:43 23.03.2021
1131 Clear 15 1021 67 10000 3.6 190 17:21 23.03.2021
1132 Clear 15 1021 62 10000 4.12 200 16:26 23.03.2021
1133 Clear 15 1021 67 10000 3.09 190 15:51 23.03.2021
1134 Clear 15 1021 72 10000 4.12 200 15:25 23.03.2021
1135 Clouds 15 1022 72 10000 4.12 190 14:49 23.03.2021
1136 Clouds 15 1022 72 10000 4.12 190 14:49 23.03.2021
1137 Clouds 15 1022 67 10000 3.6 170 14:20 23.03.2021
1138 Clouds 15 1022 67 10000 3.6 170 13:48 23.03.2021
1139 Clouds 15 1022 58 10000 3.09 140 13:25 23.03.2021
1140 Clouds 15 1022 58 10000 3.09 130 12:46 23.03.2021
1141 Clouds 15 1022 55 10000 2.57 130 12:26 23.03.2021
1142 Clouds 15 1022 55 10000 3.09 110 11:49 23.03.2021
1143 Clouds 14 1022 55 10000 3.09 110 11:30 23.03.2021
1144 Clouds 14 1022 51 10000 1.54 20 10:43 23.03.2021
1145 Clouds 13 1022 54 10000 3.6 340 10:21 23.03.2021
1146 Clear 13 1022 66 10000 5.14 340 09:54 23.03.2021
1147 Clear 11 1022 71 10000 5.14 340 09:25 23.03.2021
1148 Clear 11 1021 76 10000 5.66 340 08:56 23.03.2021
1149 Clear 10 1021 76 10000 5.14 330 08:38 23.03.2021
1150 Clear 10 1021 76 10000 5.14 330 08:19 23.03.2021
1151 Clear 9 1020 76 10000 5.66 320 07:28 23.03.2021
1152 Clouds 9 1020 81 10000 5.14 340 06:54 23.03.2021
1153 Clouds 10 1019 87 10000 4.12 330 04:58 23.03.2021
1154 Clouds 10 1020 81 10000 3.6 320 03:20 23.03.2021
1155 Clear 11 1019 87 10000 2.06 300 00:22 23.03.2021
1156 Clear 11 1019 82 10000 2.57 210 23:23 22.03.2021
1157 Clear 12 1019 76 10000 2.57 180 22:44 22.03.2021
1158 Clear 12 1019 76 10000 2.57 180 22:22 22.03.2021
1159 Clear 12 1019 76 10000 2.06 190 21:51 22.03.2021
1160 Clear 12 1019 76 10000 1.54 180 21:27 22.03.2021
1161 Clear 13 1018 76 10000 2.06 210 20:54 22.03.2021
1162 Clear 13 1018 76 10000 3.6 230 20:30 22.03.2021
1163 Clear 13 1018 76 10000 3.6 220 19:58 22.03.2021
1164 Clear 13 1017 72 10000 3.09 180 19:40 22.03.2021
1165 Clear 14 1017 72 10000 3.09 140 19:21 22.03.2021
1166 Clear 13 1017 72 10000 3.09 180 19:21 22.03.2021
1167 Clear 14 1017 72 10000 3.09 140 18:42 22.03.2021
1168 Clear 14 1016 63 10000 2.06 130 18:23 22.03.2021
1169 Clear 15 1016 63 10000 3.6 210 17:51 22.03.2021
1170 Clouds 15 1015 59 10000 5.14 210 17:23 22.03.2021
1171 Clouds 15 1015 59 10000 5.14 210 16:58 22.03.2021
1172 Clouds 16 1015 48 10000 5.66 220 16:39 22.03.2021
1173 Clouds 16 1015 51 10000 5.66 220 15:55 22.03.2021
1174 Clear 17 1015 51 10000 6.69 220 15:37 22.03.2021
1175 Clear 17 1015 48 10000 6.69 220 15:18 22.03.2021
1176 Clear 17 1015 47 10000 6.17 230 14:44 22.03.2021
1177 Clear 16 1015 47 10000 6.17 230 14:24 22.03.2021
1178 Clear 16 1016 41 10000 5.14 220 13:38 22.03.2021
1179 Clear 16 1016 41 10000 5.14 220 13:18 22.03.2021
1180 Clear 16 1016 44 10000 3.09 210 12:41 22.03.2021
1181 Clear 16 1015 31 10000 1.03 300 12:19 22.03.2021
1182 Clear 15 1016 44 10000 2.06 310 11:44 22.03.2021
1183 Clear 15 1016 44 10000 2.06 310 11:21 22.03.2021
1184 Clear 13 1016 44 10000 3.6 320 10:43 22.03.2021
1185 Clear 13 1016 44 10000 4.63 330 10:24 22.03.2021
1186 Clouds 11 1015 57 10000 5.14 320 09:39 22.03.2021
1187 Clouds 10 1015 57 10000 5.14 320 09:20 22.03.2021
1188 Clouds 10 1015 57 10000 4.63 320 08:42 22.03.2021
1189 Clouds 9 1015 57 10000 4.63 320 08:24 22.03.2021
1190 Clouds 9 1015 61 10000 3.09 320 07:44 22.03.2021
1191 Clear 9 1015 61 10000 3.6 310 06:52 22.03.2021
1192 Clear 8 1015 65 10000 3.6 330 05:43 22.03.2021
1193 Clouds 9 1015 81 10000 3.6 340 02:32 22.03.2021
1194 Clear 10 1014 87 10000 2.06 340 00:29 22.03.2021
1195 Clear 10 1015 81 10000 3.09 320 23:53 21.03.2021
1196 Clear 10 1015 81 10000 3.09 320 23:53 21.03.2021
1197 Clear 10 1014 81 10000 1.03 0 23:19 21.03.2021
1198 Clear 11 1014 81 10000 1.03 0 22:56 21.03.2021
1199 Clear 11 1014 71 10000 1.03 0 21:59 21.03.2021
1200 Clear 11 1014 71 10000 1.03 0 21:40 21.03.2021
1201 Clear 11 1014 71 10000 1.03 0 21:22 21.03.2021
1202 Clear 11 1014 71 10000 2.06 150 20:43 21.03.2021
1203 Clear 11 1014 71 10000 2.06 150 20:43 21.03.2021
1204 Clear 12 1014 67 10000 2.06 150 20:24 21.03.2021
1205 Clear 12 1014 67 10000 2.06 150 19:52 21.03.2021
1206 Clear 12 1014 67 10000 2.57 130 19:21 21.03.2021
1207 Clear 13 1014 62 10000 3.09 120 18:48 21.03.2021
1208 Clear 13 1014 62 10000 3.09 160 18:27 21.03.2021
1209 Clear 14 1014 62 10000 3.6 170 17:48 21.03.2021
1210 Clear 14 1014 58 10000 4.12 180 17:21 21.03.2021
1211 Clear 14 1014 51 10000 5.14 200 16:58 21.03.2021
1212 Clear 14 1014 44 10000 5.14 190 16:33 21.03.2021
1213 Clear 14 1015 47 10000 5.14 210 15:58 21.03.2021
1214 Clear 14 1015 47 10000 5.14 190 15:39 21.03.2021
1215 Clear 14 1016 47 10000 4.63 200 15:19 21.03.2021
1216 Clear 14 1017 50 10000 4.12 190 14:46 21.03.2021
1217 Clear 14 1017 50 10000 4.12 190 14:26 21.03.2021
1218 Clear 14 1017 50 10000 4.12 190 13:54 21.03.2021
1219 Clear 14 1017 47 10000 4.63 190 13:25 21.03.2021
1220 Clear 14 1017 38 10000 2.57 270 12:42 21.03.2021
1221 Clear 13 1017 38 10000 2.57 270 12:23 21.03.2021
1222 Clear 13 1018 43 10000 3.09 200 12:23 21.03.2021
1223 Clear 13 1018 40 10000 2.06 270 11:37 21.03.2021
1224 Clear 12 1018 40 10000 2.06 270 11:19 21.03.2021
1225 Clear 11 1018 43 10000 4.12 320 10:42 21.03.2021
1226 Clear 10 1018 46 10000 4.63 330 10:23 21.03.2021
1227 Clear 10 1018 49 10000 5.66 330 09:46 21.03.2021
1228 Clear 8 1019 57 10000 6.69 340 09:27 21.03.2021
1229 Clear 7 1019 61 10000 6.69 330 08:44 21.03.2021
1230 Clear 7 1019 60 10000 5.66 340 08:26 21.03.2021
1231 Clouds 5 1018 70 10000 6.17 340 07:39 21.03.2021
1232 Clouds 5 1018 70 10000 4.63 330 06:56 21.03.2021
1233 Clouds 5 1018 65 10000 4.12 330 05:54 21.03.2021
1234 Clouds 8 1018 61 10000 3.09 320 02:34 21.03.2021
1235 Clouds 8 1019 57 10000 3.6 320 00:43 21.03.2021
1236 Clouds 7 1019 61 10000 3.6 340 00:24 21.03.2021
1237 Clouds 9 1019 53 10000 4.12 330 23:50 20.03.2021
1238 Clouds 10 1019 53 10000 4.12 330 23:24 20.03.2021
1239 Clouds 10 1019 53 10000 3.6 340 22:57 20.03.2021
1240 Clouds 10 1018 53 10000 3.09 340 22:23 20.03.2021
1241 Clouds 10 1018 46 10000 2.06 10 21:47 20.03.2021
1242 Clouds 11 1018 37 10000 5.66 70 21:25 20.03.2021
1243 Clouds 11 1017 37 10000 7.72 70 20:48 20.03.2021
1244 Clouds 11 1017 37 10000 7.72 70 20:23 20.03.2021
1245 Clouds 11 1017 32 10000 7.2 80 19:51 20.03.2021
1246 Clouds 11 1017 32 10000 9.26 80 19:29 20.03.2021
1247 Clouds 12 1016 35 10000 8.75 80 18:51 20.03.2021
1248 Clouds 12 1016 30 10000 8.75 80 18:28 20.03.2021
1249 Clouds 12 1016 41 10000 8.23 80 17:58 20.03.2021
1250 Clouds 13 1016 35 10000 9.26 80 17:40 20.03.2021
1251 Clouds 13 1016 38 10000 8.75 80 17:20 20.03.2021
1252 Clouds 13 1016 35 10000 8.23 90 16:39 20.03.2021
1253 Clouds 13 1016 35 10000 8.23 90 16:18 20.03.2021
1254 Clouds 14 1015 41 10000 9.77 90 15:40 20.03.2021
1255 Clouds 13 1015 41 10000 9.77 90 15:22 20.03.2021
1256 Clouds 13 1016 38 10000 9.77 80 14:32 20.03.2021
1257 Clouds 13 1016 41 10000 10.29 80 13:59 20.03.2021
1258 Clouds 13 1016 44 10000 9.77 80 13:30 20.03.2021
1259 Clouds 13 1016 44 10000 9.77 80 13:30 20.03.2021
1260 Clouds 13 1016 41 10000 7.2 70 12:39 20.03.2021
1261 Clouds 13 1016 41 10000 7.2 70 12:20 20.03.2021
1262 Clouds 12 1017 40 10000 5.66 60 11:43 20.03.2021
1263 Clouds 12 1017 40 10000 5.66 60 11:21 20.03.2021
1264 Clouds 11 1017 43 10000 2.06 310 10:45 20.03.2021
1265 Clear 10 1017 53 10000 3.09 340 10:23 20.03.2021
1266 Clouds 10 1016 57 10000 4.63 310 09:44 20.03.2021
1267 Clouds 9 1016 57 10000 4.63 310 09:22 20.03.2021
1268 Clouds 8 1016 65 10000 4.12 330 08:51 20.03.2021
1269 Clouds 7 1016 70 10000 5.14 330 08:19 20.03.2021
1270 Clouds 7 1015 70 10000 4.63 330 07:48 20.03.2021
1271 Clouds 7 1015 70 10000 5.14 330 07:29 20.03.2021
1272 Clouds 7 1014 70 10000 5.66 330 06:40 20.03.2021
1273 Clouds 7 1013 70 10000 5.14 320 05:29 20.03.2021
1274 Clouds 7 1014 81 10000 6.69 320 03:45 20.03.2021
1275 Clouds 8 1014 87 10000 3.09 330 01:43 20.03.2021
1276 Clouds 8 1014 87 10000 2.57 340 23:48 19.03.2021
1277 Clouds 8 1014 87 10000 3.09 330 23:20 19.03.2021
1278 Clouds 8 1013 87 10000 3.6 330 22:45 19.03.2021
1279 Clouds 7 1013 87 10000 3.09 330 22:24 19.03.2021
1280 Clouds 8 1013 87 10000 3.09 330 21:51 19.03.2021
1281 Clouds 8 1013 93 10000 4.63 320 21:21 19.03.2021
1282 Clouds 7 1012 87 10000 3.6 320 20:46 19.03.2021
1283 Clouds 8 1012 87 10000 3.09 330 20:27 19.03.2021
1284 Clouds 8 1012 87 10000 2.57 340 19:52 19.03.2021
1285 Clouds 8 1012 87 10000 2.57 290 19:24 19.03.2021
1286 Clouds 8 1012 87 10000 2.57 270 18:56 19.03.2021
1287 Clouds 8 1011 87 10000 3.09 260 18:36 19.03.2021
1288 Clouds 8 1011 87 10000 3.6 270 18:18 19.03.2021
1289 Clouds 8 1011 87 10000 3.6 270 17:42 19.03.2021
1290 Clouds 9 1012 76 10000 3.6 290 17:22 19.03.2021
1291 Clouds 9 1011 66 10000 3.6 210 16:44 19.03.2021
1292 Clouds 9 1010 66 10000 5.66 210 16:26 19.03.2021
1293 Clouds 11 1011 62 10000 6.69 230 15:34 19.03.2021
1294 Clouds 11 1011 62 10000 5.66 220 14:54 19.03.2021
1295 Clouds 11 1011 62 10000 4.12 230 14:35 19.03.2021
1296 Clouds 11 1011 66 10000 3.6 210 13:54 19.03.2021
1297 Clouds 10 1012 66 10000 3.09 240 13:21 19.03.2021
1298 Clouds 10 1012 71 10000 4.12 240 12:48 19.03.2021
1299 Clouds 10 1012 76 10000 4.12 240 12:24 19.03.2021
1300 Clouds 10 1013 76 10000 4.12 260 11:36 19.03.2021
1301 Clouds 9 1013 76 10000 3.09 250 10:53 19.03.2021
1302 Clouds 8 1013 81 10000 3.6 250 10:26 19.03.2021
1303 Clouds 8 1014 81 10000 4.12 240 09:47 19.03.2021
1304 Clouds 8 1013 87 10000 2.57 220 09:27 19.03.2021
1305 Clouds 7 1014 87 10000 1.03 0 08:53 19.03.2021
1306 Clouds 7 1013 87 10000 2.06 60 08:30 19.03.2021
1307 Clouds 7 1013 87 10000 0.51 0 07:51 19.03.2021
1308 Clouds 7 1013 87 10000 1.03 210 07:32 19.03.2021
1309 Clouds 7 1014 87 10000 0.51 0 06:36 19.03.2021
1310 Clouds 7 1016 93 10000 2.06 30 02:45 19.03.2021
1311 Rain 7 1017 87 6000 5.14 70 23:58 18.03.2021
1312 Rain 7 1017 87 8000 5.66 80 23:30 18.03.2021
1313 Rain 8 1017 87 10000 5.14 90 22:58 18.03.2021
1314 Rain 8 1016 87 9000 5.14 90 22:38 18.03.2021
1315 Clouds 8 1017 93 7000 5.66 90 22:18 18.03.2021
1316 Clouds 10 1016 93 7000 6.17 80 21:39 18.03.2021
1317 Rain 11 1015 71 10000 7.2 180 20:43 18.03.2021
1318 Rain 11 1015 71 10000 7.2 180 20:24 18.03.2021
1319 Clouds 12 1015 71 10000 6.17 180 19:45 18.03.2021
1320 Clouds 12 1015 71 10000 7.72 200 19:25 18.03.2021
1321 Clouds 12 1016 62 10000 7.2 210 18:55 18.03.2021
1322 Clouds 12 1016 62 10000 6.69 210 18:33 18.03.2021
1323 Clouds 13 1016 67 10000 6.69 200 17:50 18.03.2021
1324 Clouds 13 1016 67 10000 6.69 200 17:25 18.03.2021
1325 Clouds 13 1016 67 10000 6.69 200 16:48 18.03.2021
1326 Clouds 13 1016 62 10000 7.2 200 16:29 18.03.2021
1327 Clouds 14 1016 54 10000 6.69 210 15:47 18.03.2021
1328 Clouds 14 1016 54 10000 6.69 200 15:26 18.03.2021
1329 Clouds 14 1017 47 10000 5.66 210 14:55 18.03.2021
1330 Clouds 14 1017 54 10000 5.14 190 14:32 18.03.2021
1331 Clouds 14 1017 51 10000 5.14 200 13:53 18.03.2021
1332 Clouds 14 1018 51 10000 5.66 210 13:26 18.03.2021
1333 Clouds 14 1018 41 10000 5.66 170 12:44 18.03.2021
1334 Clouds 13 1018 67 10000 5.14 130 12:26 18.03.2021
1335 Clouds 13 1019 67 10000 3.6 110 11:55 18.03.2021
1336 Drizzle 12 1019 62 10000 4.63 140 11:33 18.03.2021
1337 Clouds 12 1019 66 10000 5.14 120 10:49 18.03.2021
1338 Clouds 12 1019 76 10000 4.63 140 10:27 18.03.2021
1339 Clouds 12 1019 71 10000 4.63 150 09:57 18.03.2021
1340 Clouds 12 1019 76 10000 0.51 0 09:30 18.03.2021
1341 Clouds 11 1019 76 10000 1.03 0 08:55 18.03.2021
1342 Clouds 10 1019 81 10000 2.57 300 08:33 18.03.2021
1343 Clouds 10 1019 81 10000 1.03 330 07:55 18.03.2021
1344 Clouds 10 1019 81 10000 1.03 330 07:55 18.03.2021
1345 Clouds 9 1019 81 10000 1.03 0 07:29 18.03.2021
1346 Clouds 9 1019 81 10000 2.57 300 06:40 18.03.2021
1347 Clouds 10 1018 81 10000 1.54 0 06:19 18.03.2021
1348 Clouds 10 1019 81 10000 4.12 310 04:27 18.03.2021
1349 Clear 12 1021 82 10000 2.06 290 00:38 18.03.2021
1350 Clouds 13 1020 76 10000 1.54 290 23:18 17.03.2021
1351 Clear 13 1020 76 10000 2.57 230 22:38 17.03.2021
1352 Clear 13 1020 76 10000 2.57 230 22:19 17.03.2021
1353 Clouds 13 1020 71 10000 3.09 210 21:48 17.03.2021
1354 Clouds 13 1020 71 10000 3.6 230 21:30 17.03.2021
1355 Clouds 13 1019 71 10000 3.6 200 20:45 17.03.2021
1356 Clouds 13 1019 71 10000 4.12 190 20:26 17.03.2021
1357 Clouds 13 1019 71 10000 3.6 170 19:57 17.03.2021
1358 Clouds 13 1019 67 10000 2.57 150 19:25 17.03.2021
1359 Clouds 13 1019 77 10000 3.6 160 18:59 17.03.2021
1360 Clouds 14 1018 67 10000 3.6 160 18:40 17.03.2021
1361 Clouds 14 1018 67 10000 4.12 160 17:59 17.03.2021
1362 Clouds 15 1019 67 10000 3.09 150 17:32 17.03.2021
1363 Clouds 15 1019 67 10000 3.6 140 16:57 17.03.2021
1364 Clouds 15 1019 63 10000 3.09 110 16:38 17.03.2021
1365 Clouds 15 1019 63 10000 3.09 110 16:19 17.03.2021
1366 Clouds 15 1020 67 10000 3.09 90 15:40 17.03.2021
1367 Clouds 15 1020 67 10000 5.66 80 14:46 17.03.2021
1368 Clouds 15 1020 72 10000 7.2 90 14:28 17.03.2021
1369 Clear 15 1020 58 10000 7.2 80 13:58 17.03.2021
1370 Clear 15 1019 51 10000 7.2 80 13:40 17.03.2021
1371 Clear 15 1019 51 10000 7.2 80 13:18 17.03.2021
1372 Clear 16 1019 55 10000 5.14 200 12:36 17.03.2021
1373 Clear 17 1019 55 10000 5.14 200 12:18 17.03.2021
1374 Clear 17 1019 55 10000 5.14 200 12:18 17.03.2021
1375 Clear 17 1020 51 10000 1.54 290 11:37 17.03.2021
1376 Clear 17 1020 51 10000 1.54 290 11:18 17.03.2021
1377 Clear 15 1021 54 10000 3.09 340 10:40 17.03.2021
1378 Clear 14 1021 58 10000 4.12 350 10:19 17.03.2021
1379 Clear 13 1021 58 10000 4.12 350 09:42 17.03.2021
1380 Clear 13 1021 62 10000 3.6 330 09:20 17.03.2021
1381 Clear 12 1021 66 10000 2.06 310 08:45 17.03.2021
1382 Clear 11 1021 71 10000 3.6 320 08:25 17.03.2021
1383 Clear 10 1022 76 10000 3.09 340 07:38 17.03.2021
1384 Clear 10 1022 76 10000 4.12 320 06:48 17.03.2021
1385 Clear 10 1022 76 10000 4.12 320 06:27 17.03.2021
1386 Clouds 11 1023 81 10000 3.6 320 03:32 17.03.2021
1387 Clouds 11 1024 81 10000 2.06 290 01:58 17.03.2021
1388 Clear 12 1024 87 10000 3.6 250 00:33 17.03.2021
1389 Clear 11 1025 87 10000 3.09 250 23:27 16.03.2021
1390 Clear 12 1025 82 10000 3.6 230 22:45 16.03.2021
1391 Clear 12 1025 82 10000 3.6 230 22:27 16.03.2021
1392 Clear 13 1024 82 10000 3.09 220 21:44 16.03.2021
1393 Clear 13 1024 82 10000 3.09 220 21:26 16.03.2021
1394 Clear 13 1024 82 10000 3.09 220 20:57 16.03.2021
1395 Clear 13 1024 76 10000 3.09 220 20:20 16.03.2021
1396 Clear 13 1024 76 10000 3.09 220 20:20 16.03.2021
1397 Clear 13 1024 76 10000 3.09 220 19:51 16.03.2021
1398 Clear 13 1024 76 10000 2.06 210 19:29 16.03.2021
1399 Clear 14 1024 72 10000 2.57 210 18:57 16.03.2021
1400 Clear 14 1023 72 10000 2.06 200 18:39 16.03.2021
1401 Clear 15 1023 72 10000 2.57 170 17:59 16.03.2021
1402 Clear 15 1023 72 10000 2.57 170 17:59 16.03.2021
1403 Clear 15 1024 72 10000 2.57 180 17:40 16.03.2021
1404 Clear 15 1024 72 10000 2.57 180 17:21 16.03.2021
1405 Clear 15 1024 67 10000 3.6 190 16:47 16.03.2021
1406 Clouds 15 1024 67 10000 3.09 180 16:25 16.03.2021
1407 Clouds 15 1024 62 10000 4.12 180 15:46 16.03.2021
1408 Clouds 15 1024 55 10000 4.12 170 15:20 16.03.2021
1409 Clouds 16 1024 55 10000 4.12 170 14:57 16.03.2021
1410 Clouds 16 1024 58 10000 4.63 160 14:38 16.03.2021
1411 Clouds 16 1024 58 10000 4.63 160 14:18 16.03.2021
1412 Clouds 16 1024 55 10000 3.6 140 13:44 16.03.2021
1413 Clouds 16 1025 55 10000 3.6 120 13:21 16.03.2021
1414 Clouds 15 1025 58 10000 2.57 140 12:46 16.03.2021
1415 Clouds 15 1025 62 10000 3.6 120 12:27 16.03.2021
1416 Clouds 14 1025 44 10000 2.57 130 11:38 16.03.2021
1417 Clouds 14 1025 51 10000 3.6 340 10:53 16.03.2021
1418 Clouds 13 1025 54 10000 5.14 340 10:24 16.03.2021
1419 Clouds 12 1024 62 10000 4.12 330 09:47 16.03.2021
1420 Clouds 12 1024 62 10000 5.14 330 09:29 16.03.2021
1421 Clouds 11 1024 71 10000 4.12 340 08:58 16.03.2021
1422 Clouds 10 1024 66 10000 4.63 320 08:40 16.03.2021
1423 Clouds 10 1024 66 10000 4.63 320 08:19 16.03.2021
1424 Clouds 9 1023 76 10000 4.63 330 07:35 16.03.2021
1425 Clouds 9 1023 76 10000 3.6 340 06:39 16.03.2021
1426 Clouds 9 1023 81 10000 3.6 330 05:52 16.03.2021
1427 Clouds 10 1023 87 10000 4.12 310 05:34 16.03.2021
1428 Clear 10 1023 87 10000 4.63 330 02:45 16.03.2021
1429 Clear 10 1023 87 10000 2.57 330 02:24 16.03.2021
1430 Clear 11 1022 82 10000 2.06 60 23:57 15.03.2021
1431 Clear 11 1022 76 10000 3.09 50 23:29 15.03.2021
1432 Clear 12 1022 76 10000 3.09 50 23:29 15.03.2021
1433 Clear 12 1021 76 10000 2.57 70 22:51 15.03.2021
1434 Clear 12 1021 76 10000 3.09 60 22:33 15.03.2021
1435 Clear 12 1021 76 10000 3.09 60 22:33 15.03.2021
1436 Clear 12 1021 76 10000 2.57 70 21:55 15.03.2021
1437 Clear 12 1021 82 10000 3.09 70 21:35 15.03.2021
1438 Clear 12 1021 82 10000 3.6 50 20:59 15.03.2021
1439 Clear 12 1021 76 10000 3.09 10 20:40 15.03.2021
1440 Clear 12 1021 76 10000 3.09 10 20:22 15.03.2021
1441 Clear 13 1021 67 10000 2.06 220 19:51 15.03.2021
1442 Clear 13 1021 71 10000 0.51 240 19:32 15.03.2021
1443 Clear 14 1020 72 10000 6.17 220 18:57 15.03.2021
1444 Clear 14 1020 72 10000 7.72 220 18:32 15.03.2021
1445 Clear 14 1020 67 10000 8.23 220 17:56 15.03.2021
1446 Clear 15 1020 67 10000 8.23 220 17:32 15.03.2021
1447 Clear 15 1020 59 10000 7.2 210 16:55 15.03.2021
1448 Clear 15 1020 63 10000 8.23 230 16:35 15.03.2021
1449 Clear 16 1020 55 10000 8.75 230 15:47 15.03.2021
1450 Clear 16 1021 44 10000 8.23 230 15:26 15.03.2021
1451 Clear 16 1021 55 10000 7.2 220 14:45 15.03.2021
1452 Clouds 16 1022 51 10000 5.66 200 14:24 15.03.2021
1453 Clear 15 1022 58 10000 5.66 190 13:53 15.03.2021
1454 Clear 15 1023 54 10000 3.6 210 13:34 15.03.2021
1455 Clear 14 1023 50 10000 4.12 210 12:51 15.03.2021
1456 Clear 14 1023 58 10000 4.63 190 12:20 15.03.2021
1457 Clear 14 1024 62 10000 5.14 200 11:56 15.03.2021
1458 Clear 14 1024 62 10000 4.63 210 11:38 15.03.2021
1459 Clear 13 1024 62 10000 4.63 210 11:18 15.03.2021
1460 Clear 12 1024 54 10000 5.14 320 10:34 15.03.2021
1461 Clear 11 1024 58 10000 6.17 320 09:59 15.03.2021
1462 Clouds 11 1024 62 10000 7.2 320 09:40 15.03.2021
1463 Clouds 11 1024 62 10000 7.2 320 09:20 15.03.2021
1464 Clouds 9 1024 71 10000 6.69 340 08:41 15.03.2021
1465 Clouds 9 1024 71 10000 6.69 340 08:19 15.03.2021
1466 Clouds 8 1023 71 10000 6.17 340 07:33 15.03.2021
1467 Clouds 8 1023 66 10000 7.2 330 06:45 15.03.2021
1468 Clouds 10 1023 62 10000 7.2 330 05:35 15.03.2021
1469 Clouds 11 1025 87 10000 3.6 320 03:19 15.03.2021
1470 Clouds 12 1025 71 10000 2.06 200 00:21 15.03.2021
1471 Clouds 12 1024 67 10000 2.57 190 23:23 14.03.2021
1472 Clouds 13 1024 67 10000 2.57 210 22:49 14.03.2021
1473 Clouds 12 1024 67 10000 1.54 190 22:27 14.03.2021
1474 Clouds 12 1024 67 10000 1.54 190 21:52 14.03.2021
1475 Clouds 12 1023 67 10000 2.57 160 21:23 14.03.2021
1476 Clouds 12 1023 67 10000 2.57 160 20:52 14.03.2021
1477 Clouds 12 1023 67 10000 2.06 180 20:29 14.03.2021
1478 Clouds 12 1022 67 10000 2.57 150 19:58 14.03.2021
1479 Clouds 12 1022 67 10000 3.09 150 19:40 14.03.2021
1480 Clouds 12 1022 67 10000 3.09 150 19:18 14.03.2021
1481 Clouds 13 1021 71 10000 3.6 120 18:36 14.03.2021
1482 Clouds 13 1021 62 10000 4.63 130 17:54 14.03.2021
1483 Clouds 13 1021 67 10000 4.63 150 17:36 14.03.2021
1484 Clouds 13 1021 62 10000 4.63 140 17:18 14.03.2021
1485 Clouds 13 1021 67 10000 5.14 140 16:40 14.03.2021
1486 Clouds 13 1021 67 10000 5.14 140 16:19 14.03.2021
1487 Clouds 14 1020 67 10000 5.66 170 15:42 14.03.2021
1488 Clouds 14 1020 67 10000 6.17 170 14:51 14.03.2021
1489 Clouds 15 1020 72 10000 6.17 180 14:30 14.03.2021
1490 Clouds 14 1021 72 10000 4.12 170 13:53 14.03.2021
1491 Clouds 15 1021 67 10000 4.12 130 13:34 14.03.2021
1492 Clouds 15 1021 67 10000 4.12 130 12:58 14.03.2021
1493 Clouds 15 1021 63 10000 3.6 130 12:40 14.03.2021
1494 Clouds 15 1021 63 10000 3.6 130 12:22 14.03.2021
1495 Clouds 15 1020 58 10000 2.57 90 11:38 14.03.2021
1496 Clouds 15 1020 58 10000 2.57 90 11:19 14.03.2021
1497 Clouds 14 1020 47 10000 2.57 330 10:38 14.03.2021
1498 Clouds 13 1020 50 10000 4.63 320 10:19 14.03.2021
1499 Clouds 13 1020 50 10000 4.63 320 09:56 14.03.2021
1500 Clear 12 1020 58 10000 5.14 320 09:38 14.03.2021
1501 Clear 12 1020 58 10000 5.14 320 09:20 14.03.2021
1502 Clear 11 1019 61 10000 4.63 360 08:36 14.03.2021
1503 Clouds 10 1019 66 10000 3.09 310 07:56 14.03.2021
1504 Clouds 9 1018 66 10000 3.6 300 07:27 14.03.2021
1505 Clouds 10 1018 71 10000 4.63 320 05:34 14.03.2021
1506 Clouds 11 1019 87 10000 3.09 300 01:25 14.03.2021
1507 Clouds 12 1019 88 10000 5.66 220 00:20 14.03.2021
1508 Clouds 12 1020 88 10000 5.66 230 23:59 13.03.2021
1509 Clouds 12 1020 88 10000 6.17 230 23:39 13.03.2021
1510 Clouds 12 1020 88 10000 6.17 220 23:18 13.03.2021
1511 Clouds 13 1020 88 10000 6.17 220 22:46 13.03.2021
1512 Clear 13 1020 88 10000 6.17 230 22:18 13.03.2021
1513 Clear 13 1020 82 10000 5.66 230 21:35 13.03.2021
1514 Clear 14 1019 76 10000 5.66 230 20:59 13.03.2021
1515 Clear 13 1019 76 10000 6.69 220 20:41 13.03.2021
1516 Clear 14 1019 76 10000 6.69 220 20:41 13.03.2021
1517 Clear 13 1019 76 10000 6.69 220 20:41 13.03.2021
1518 Clear 14 1019 67 10000 7.2 230 20:22 13.03.2021
1519 Clear 15 1019 67 10000 7.72 220 19:38 13.03.2021
1520 Clear 15 1019 67 10000 7.72 220 19:20 13.03.2021
1521 Clouds 16 1018 67 10000 8.75 230 18:42 13.03.2021
1522 Clouds 16 1018 67 10000 8.75 230 18:20 13.03.2021
1523 Clouds 16 1019 77 10000 7.72 220 17:49 13.03.2021
1524 Clouds 16 1018 72 10000 9.26 230 17:49 13.03.2021
1525 Clouds 17 1019 77 10000 7.72 220 17:31 13.03.2021
1526 Clouds 16 1019 77 10000 7.72 220 17:31 13.03.2021
1527 Clouds 17 1019 77 10000 8.23 220 16:53 13.03.2021
1528 Clouds 17 1019 77 10000 9.26 220 16:35 13.03.2021
1529 Clouds 17 1019 67 10000 9.26 230 15:56 13.03.2021
1530 Clouds 17 1019 63 10000 10.29 230 15:18 13.03.2021
1531 Clouds 17 1020 59 10000 10.29 230 14:41 13.03.2021
1532 Clouds 17 1020 67 10000 10.29 220 14:21 13.03.2021
1533 Clouds 16 1021 58 10000 8.23 220 13:28 13.03.2021
1534 Clouds 16 1022 55 10000 8.23 220 12:53 13.03.2021
1535 Clouds 15 1022 58 10000 7.72 220 12:35 13.03.2021
1536 Clouds 15 1022 55 10000 6.69 240 11:57 13.03.2021
1537 Clouds 14 1022 62 10000 4.63 220 11:38 13.03.2021
1538 Clouds 13 1022 62 10000 1.54 280 11:19 13.03.2021
1539 Clouds 12 1022 76 10000 3.6 320 10:31 13.03.2021
1540 Clouds 12 1022 76 10000 4.63 330 09:59 13.03.2021
1541 Clouds 11 1022 81 10000 4.12 320 09:33 13.03.2021
1542 Clouds 10 1022 87 10000 4.63 320 08:54 13.03.2021
1543 Clouds 10 1022 87 10000 4.63 320 08:54 13.03.2021
1544 Clouds 10 1022 87 10000 4.12 320 08:21 13.03.2021
1545 Clouds 9 1021 87 10000 3.6 320 07:57 13.03.2021
1546 Clouds 9 1021 87 10000 2.57 320 07:38 13.03.2021
1547 Clouds 10 1021 93 10000 3.09 310 05:30 13.03.2021
1548 Clouds 10 1022 81 10000 3.09 320 02:42 13.03.2021
1549 Clouds 11 1022 87 10000 1.54 280 00:36 13.03.2021
1550 Clouds 10 1022 87 10000 1.54 260 23:46 12.03.2021
1551 Clouds 11 1022 87 10000 1.89 147 23:28 12.03.2021
1552 Clouds 11 1022 76 10000 1.03 170 22:41 12.03.2021
1553 Clouds 11 1022 76 10000 1.03 170 22:21 12.03.2021
1554 Clouds 11 1022 76 10000 0.51 0 21:38 12.03.2021
1555 Clouds 11 1022 76 10000 0.51 0 21:20 12.03.2021
1556 Clouds 12 1022 76 10000 2.06 110 20:54 12.03.2021
1557 Clouds 12 1021 76 10000 4.12 110 20:31 12.03.2021
1558 Clouds 12 1021 76 10000 3.09 110 19:48 12.03.2021
1559 Clouds 12 1021 76 10000 3.09 110 19:48 12.03.2021
1560 Clouds 12 1020 76 10000 4.12 110 19:30 12.03.2021
1561 Clouds 12 1020 76 10000 4.12 120 18:54 12.03.2021
1562 Clouds 13 1020 71 10000 3.09 120 18:33 12.03.2021
1563 Clouds 13 1019 71 10000 4.63 120 17:47 12.03.2021
1564 Clouds 13 1019 67 10000 4.12 120 17:29 12.03.2021
1565 Clouds 14 1019 67 10000 4.12 130 16:54 12.03.2021
1566 Clouds 14 1019 67 10000 2.57 110 16:33 12.03.2021
1567 Clouds 13 1019 72 10000 3.09 110 15:50 12.03.2021
1568 Clouds 13 1019 72 10000 3.09 110 15:25 12.03.2021
1569 Clouds 13 1020 67 10000 3.6 110 14:47 12.03.2021
1570 Clouds 13 1020 67 10000 3.6 110 14:20 12.03.2021
1571 Clouds 14 1020 67 10000 4.12 120 13:42 12.03.2021
1572 Clouds 14 1020 67 10000 4.12 120 13:21 12.03.2021
1573 Clouds 14 1021 72 10000 4.12 100 12:56 12.03.2021
1574 Clouds 14 1021 72 10000 3.6 110 12:36 12.03.2021
1575 Clouds 14 1021 72 10000 3.6 110 12:18 12.03.2021
1576 Clouds 14 1021 72 10000 3.09 110 11:40 12.03.2021
1577 Clouds 14 1021 72 10000 4.12 100 11:19 12.03.2021
1578 Clouds 13 1021 72 10000 4.12 100 10:45 12.03.2021
1579 Clouds 13 1021 72 10000 3.6 90 10:22 12.03.2021
1580 Clouds 13 1021 72 10000 3.6 80 09:37 12.03.2021
1581 Clouds 13 1021 72 10000 3.6 80 09:19 12.03.2021
1582 Clouds 13 1020 76 10000 3.6 80 08:39 12.03.2021
1583 Clouds 12 1020 94 10000 3.09 80 07:51 12.03.2021
1584 Clouds 12 1020 87 10000 2.06 70 07:29 12.03.2021
1585 Clouds 12 1019 87 10000 0.51 120 06:44 12.03.2021
1586 Clouds 12 1019 82 10000 1.54 20 05:52 12.03.2021
1587 Clear 13 1020 87 10000 1.54 350 00:59 12.03.2021
1588 Clear 13 1020 87 10000 2.06 280 23:56 11.03.2021
1589 Clear 13 1020 82 10000 4.12 200 22:59 11.03.2021
1590 Clear 13 1020 88 10000 4.12 200 22:39 11.03.2021
1591 Clear 14 1020 88 10000 4.12 210 22:20 11.03.2021
1592 Clear 14 1020 88 10000 4.12 210 21:46 11.03.2021
1593 Clear 14 1020 94 10000 3.6 210 21:25 11.03.2021
1594 Clear 14 1020 94 10000 5.14 210 20:49 11.03.2021
1595 Clear 15 1019 44 10000 3.6 260 20:23 11.03.2021
1596 Clear 15 1019 41 10000 3.09 230 19:54 11.03.2021
1597 Clear 16 1019 82 10000 7.72 230 19:36 11.03.2021
1598 Clear 16 1018 42 10000 4.63 190 18:53 11.03.2021
1599 Clear 17 1018 42 10000 5.14 220 18:35 11.03.2021
1600 Clear 17 1019 82 10000 10.8 240 17:54 11.03.2021
1601 Clear 17 1019 72 10000 10.29 230 17:36 11.03.2021
1602 Clear 18 1019 77 10000 8.23 220 16:38 11.03.2021
1603 Clear 18 1019 77 10000 8.23 220 16:19 11.03.2021
1604 Clear 18 1020 82 10000 8.75 220 15:44 11.03.2021
1605 Clear 18 1020 82 10000 9.77 220 15:20 11.03.2021
1606 Clear 18 1021 82 10000 7.72 220 14:45 11.03.2021
1607 Clear 17 1021 77 10000 6.69 220 14:18 11.03.2021
1608 Clear 17 1021 77 10000 6.69 220 13:45 11.03.2021
1609 Clear 17 1022 82 10000 6.17 230 13:22 11.03.2021
1610 Clear 17 1022 72 10000 6.69 220 12:55 11.03.2021
1611 Clear 16 1022 67 10000 5.14 230 12:30 11.03.2021
1612 Clear 16 1022 67 10000 5.14 230 12:30 11.03.2021
1613 Clear 17 1023 72 10000 4.63 220 11:48 11.03.2021
1614 Clear 15 1023 72 10000 4.12 230 11:30 11.03.2021
1615 Clear 14 1023 77 10000 2.06 280 10:57 11.03.2021
1616 Clear 14 1023 71 10000 2.57 300 10:28 11.03.2021
1617 Clear 13 1023 71 10000 3.09 320 09:53 11.03.2021
1618 Clear 11 1023 71 10000 3.6 320 09:33 11.03.2021
1619 Clear 11 1023 76 10000 4.12 320 08:51 11.03.2021
1620 Clear 10 1022 76 10000 4.12 310 08:32 11.03.2021
1621 Clear 10 1022 76 10000 4.12 320 07:50 11.03.2021
1622 Clouds 9 1022 76 10000 4.12 320 07:21 11.03.2021
1623 Clouds 9 1022 81 10000 4.63 320 06:47 11.03.2021
1624 Clouds 10 1022 81 10000 1.54 310 06:23 11.03.2021
1625 Clear 10 1023 81 10000 2.57 310 02:48 11.03.2021
1626 Clear 10 1023 81 10000 1.54 260 00:34 11.03.2021
1627 Clear 10 1023 81 10000 3.09 260 23:23 10.03.2021
1628 Clear 11 1023 71 10000 2.57 290 22:43 10.03.2021
1629 Clear 11 1023 71 10000 4.12 250 22:23 10.03.2021
1630 Clear 12 1023 71 10000 7.2 250 21:45 10.03.2021
1631 Clear 12 1023 71 10000 7.2 250 21:44 10.03.2021
1632 Clear 12 1023 71 10000 7.2 250 21:21 10.03.2021
1633 Clear 12 1022 71 10000 6.69 250 20:45 10.03.2021
1634 Clear 12 1022 71 10000 7.2 240 20:27 10.03.2021
1635 Clear 13 1021 66 10000 6.69 230 19:43 10.03.2021
1636 Clear 13 1020 62 10000 2.57 190 19:24 10.03.2021
1637 Clear 14 1021 67 10000 6.17 220 18:44 10.03.2021
1638 Clear 14 1021 62 10000 7.2 220 18:24 10.03.2021
1639 Clear 14 1021 58 10000 7.2 220 17:55 10.03.2021
1640 Clear 15 1021 58 10000 6.69 210 17:36 10.03.2021
1641 Clear 15 1021 58 10000 6.69 210 17:18 10.03.2021
1642 Clear 15 1021 54 10000 6.69 210 16:41 10.03.2021
1643 Clear 14 1021 54 10000 6.69 210 16:22 10.03.2021
1644 Clear 14 1021 62 10000 7.2 220 15:44 10.03.2021
1645 Clear 15 1021 58 10000 7.2 220 15:22 10.03.2021
1646 Clear 15 1021 58 10000 7.2 220 14:46 10.03.2021
1647 Clear 15 1022 54 10000 6.17 220 14:20 10.03.2021
1648 Clear 15 1022 54 10000 5.14 200 13:51 10.03.2021
1649 Clear 15 1022 54 10000 5.14 200 13:27 10.03.2021
1650 Clear 14 1022 54 10000 4.12 210 12:45 10.03.2021
1651 Clear 14 1022 41 10000 2.57 340 12:19 10.03.2021
1652 Clear 13 1022 54 10000 5.66 340 11:32 10.03.2021
1653 Clear 12 1022 54 10000 6.69 320 10:59 10.03.2021
1654 Clear 12 1022 54 10000 6.69 330 10:41 10.03.2021
1655 Clear 11 1022 54 10000 6.69 330 10:23 10.03.2021
1656 Clear 10 1022 57 10000 7.2 330 09:45 10.03.2021
1657 Clear 9 1022 61 10000 8.23 330 09:24 10.03.2021
1658 Clear 9 1022 61 10000 8.23 330 09:24 10.03.2021
1659 Clear 9 1022 61 10000 8.23 330 09:24 10.03.2021
1660 Clear 9 1022 61 10000 8.23 330 09:24 10.03.2021
1661 Clear 9 1022 61 10000 8.23 330 09:24 10.03.2021
1662 Clear 9 1021 66 10000 7.72 330 08:57 10.03.2021
1663 Clear 8 1021 70 10000 8.23 330 08:39 10.03.2021
1664 Clear 8 1021 70 10000 8.23 330 08:20 10.03.2021
1665 Clouds 8 1020 70 10000 5.66 330 07:31 10.03.2021
1666 Clouds 7 1020 70 10000 5.66 330 06:57 10.03.2021
1667 Clouds 8 1020 70 10000 5.66 330 06:32 10.03.2021
1668 Clear 10 1020 66 10000 4.12 320 02:42 10.03.2021
1669 Clear 11 1019 81 10000 3.6 340 23:52 09.03.2021
1670 Clouds 11 1018 81 10000 2.06 310 23:25 09.03.2021
1671 Clouds 11 1018 82 10000 2.57 360 22:44 09.03.2021
1672 Clouds 11 1018 82 10000 2.57 360 22:26 09.03.2021
1673 Clouds 11 1018 82 10000 3.09 40 21:55 09.03.2021
1674 Clouds 12 1018 76 10000 3.6 50 21:36 09.03.2021
1675 Clouds 12 1017 76 10000 4.12 60 21:18 09.03.2021
1676 Clouds 12 1017 76 10000 3.6 70 20:41 09.03.2021
1677 Clouds 12 1017 76 10000 3.6 70 20:21 09.03.2021
1678 Clouds 12 1017 76 10000 3.6 60 19:53 09.03.2021
1679 Clouds 13 1016 76 10000 1.03 130 19:27 09.03.2021
1680 Clouds 13 1016 76 10000 2.06 250 18:51 09.03.2021
1681 Clouds 14 1015 67 10000 2.06 210 18:28 09.03.2021
1682 Clouds 13 1015 76 10000 2.57 200 17:54 09.03.2021
1683 Clouds 13 1016 71 10000 3.6 210 17:34 09.03.2021
1684 Clouds 14 1016 71 10000 4.12 210 16:55 09.03.2021
1685 Clouds 14 1016 67 10000 5.14 230 16:37 09.03.2021
1686 Clouds 14 1016 67 10000 5.14 230 16:19 09.03.2021
1687 Clouds 15 1016 58 10000 5.14 220 15:44 09.03.2021
1688 Clouds 15 1016 67 10000 5.66 200 15:22 09.03.2021
1689 Clouds 14 1016 62 10000 4.63 190 14:36 09.03.2021
1690 Clouds 14 1016 62 10000 4.63 190 14:18 09.03.2021
1691 Clear 15 1016 51 10000 4.63 270 13:38 09.03.2021
1692 Clouds 14 1017 58 10000 4.12 210 13:19 09.03.2021
1693 Clouds 14 1017 58 10000 4.63 330 12:40 09.03.2021
1694 Clouds 13 1017 58 10000 4.63 330 12:21 09.03.2021
1695 Clouds 13 1017 62 10000 5.66 340 11:42 09.03.2021
1696 Clouds 12 1017 62 10000 5.66 340 11:21 09.03.2021
1697 Clouds 12 1017 66 10000 4.63 340 10:55 09.03.2021
1698 Clouds 11 1017 71 10000 3.6 330 10:36 09.03.2021
1699 Clouds 11 1017 71 10000 3.6 330 10:18 09.03.2021
1700 Clouds 11 1017 76 10000 1.54 340 09:43 09.03.2021
1701 Clouds 10 1017 76 10000 1.54 340 09:24 09.03.2021
1702 Clouds 10 1016 81 10000 5.14 320 08:46 09.03.2021
1703 Clouds 10 1016 81 10000 5.14 320 08:23 09.03.2021
1704 Clouds 9 1016 87 10000 6.17 320 07:40 09.03.2021
1705 Clouds 9 1016 87 10000 6.17 320 07:21 09.03.2021
1706 Clouds 10 1015 87 10000 5.66 320 05:55 09.03.2021
1707 Clouds 11 1015 81 10000 5.14 320 05:37 09.03.2021
1708 Clouds 11 1016 76 10000 4.12 320 00:34 09.03.2021
1709 Clouds 11 1016 81 10000 3.6 320 23:45 08.03.2021
1710 Clouds 11 1016 81 10000 3.6 340 23:27 08.03.2021
1711 Clouds 11 1016 82 10000 3.6 340 22:51 08.03.2021
1712 Clouds 11 1016 82 10000 3.6 340 22:32 08.03.2021
1713 Clouds 11 1015 82 10000 3.09 340 21:57 08.03.2021
1714 Clouds 12 1015 87 10000 2.57 340 21:35 08.03.2021
1715 Clouds 11 1015 87 10000 2.06 260 20:48 08.03.2021
1716 Clouds 12 1015 93 10000 3.09 250 20:28 08.03.2021
1717 Clouds 12 1015 93 10000 3.09 250 20:28 08.03.2021
1718 Clouds 12 1015 87 10000 4.12 240 19:59 08.03.2021
1719 Clouds 12 1015 87 10000 4.12 240 19:37 08.03.2021
1720 Clouds 12 1014 87 10000 4.12 240 18:44 08.03.2021
1721 Clouds 13 1014 87 10000 4.12 240 18:23 08.03.2021
1722 Clouds 13 1014 76 10000 4.12 250 17:56 08.03.2021
1723 Clouds 13 1014 76 10000 3.09 230 17:38 08.03.2021
1724 Clouds 13 1014 76 10000 1.54 220 16:56 08.03.2021
1725 Clouds 13 1014 71 10000 0.51 0 16:33 08.03.2021
1726 Clouds 13 1014 76 10000 2.06 120 15:57 08.03.2021
1727 Clouds 13 1014 76 10000 2.57 110 15:30 08.03.2021
1728 Clouds 13 1014 76 10000 2.06 110 14:59 08.03.2021
1729 Clouds 13 1014 76 10000 2.57 90 14:21 08.03.2021
1730 Clouds 13 1014 76 10000 3.6 80 13:44 08.03.2021
1731 Clouds 13 1015 71 10000 3.09 50 13:22 08.03.2021
1732 Drizzle 13 1015 76 10000 3.6 60 12:49 08.03.2021
1733 Drizzle 12 1015 76 10000 4.63 50 12:29 08.03.2021
1734 Drizzle 12 1015 76 10000 4.63 30 11:44 08.03.2021
1735 Clouds 12 1015 76 10000 5.66 40 11:20 08.03.2021
1736 Rain 12 1015 82 10000 5.14 60 10:45 08.03.2021
1737 Drizzle 12 1015 82 10000 5.66 70 10:27 08.03.2021
1738 Rain 11 1015 82 10000 5.14 60 09:45 08.03.2021
1739 Rain 11 1015 93 10000 3.6 60 09:25 08.03.2021
1740 Drizzle 11 1014 93 10000 1.03 340 08:31 08.03.2021
1741 Drizzle 11 1014 93 10000 2.06 40 07:49 08.03.2021
1742 Clouds 11 1014 93 10000 2.57 80 07:21 08.03.2021
1743 Clouds 11 1014 93 10000 2.06 350 05:19 08.03.2021
1744 Clouds 12 1016 94 10000 3.6 60 01:28 08.03.2021
1745 Clouds 12 1016 82 10000 3.6 70 00:41 08.03.2021
1746 Clouds 12 1017 94 10000 3.6 80 23:53 07.03.2021
1747 Clouds 12 1017 87 10000 2.57 80 23:20 07.03.2021
1748 Clouds 12 1017 87 10000 2.06 70 22:45 07.03.2021
1749 Clouds 12 1017 87 10000 2.57 60 22:26 07.03.2021
1750 Clouds 12 1017 87 10000 2.06 70 21:49 07.03.2021
1751 Drizzle 12 1017 88 10000 2.06 60 21:31 07.03.2021
1752 Clouds 12 1017 94 10000 1.54 70 20:55 07.03.2021
1753 Clouds 13 1017 82 10000 1.03 90 20:37 07.03.2021
1754 Clouds 13 1017 82 10000 1.03 90 20:18 07.03.2021
1755 Clouds 12 1017 82 10000 2.06 90 19:39 07.03.2021
1756 Clouds 13 1017 82 10000 2.06 90 19:21 07.03.2021
1757 Clouds 13 1017 82 10000 3.09 80 18:50 07.03.2021
1758 Clouds 13 1017 82 10000 3.6 80 18:20 07.03.2021
1759 Clouds 13 1017 82 10000 3.6 80 17:57 07.03.2021
1760 Clouds 13 1017 82 10000 3.6 90 17:37 07.03.2021
1761 Clouds 14 1017 77 10000 4.12 90 17:18 07.03.2021
1762 Clouds 14 1017 82 10000 3.6 90 17:18 07.03.2021
1763 Clouds 14 1017 77 10000 4.12 90 16:42 07.03.2021
1764 Clouds 14 1017 77 10000 4.63 80 16:20 07.03.2021
1765 Clouds 14 1018 77 10000 4.12 80 15:47 07.03.2021
1766 Clouds 14 1018 77 10000 4.12 80 15:29 07.03.2021
1767 Clouds 14 1019 77 10000 4.63 80 14:47 07.03.2021
1768 Clouds 14 1019 77 10000 4.63 70 14:28 07.03.2021
1769 Clouds 14 1020 77 10000 4.63 70 13:45 07.03.2021
1770 Clouds 14 1020 77 10000 4.12 80 13:26 07.03.2021
1771 Clouds 14 1020 77 10000 4.12 70 12:48 07.03.2021
1772 Clouds 14 1020 82 9000 4.63 70 12:29 07.03.2021
1773 Clouds 13 1021 82 9000 3.6 70 11:53 07.03.2021
1774 Clouds 13 1021 82 9000 2.57 40 11:23 07.03.2021
1775 Clouds 12 1021 82 9000 3.6 20 10:51 07.03.2021
1776 Clouds 11 1021 87 9000 2.57 10 10:33 07.03.2021
1777 Rain 11 1021 87 10000 3.6 340 09:52 07.03.2021
1778 Rain 11 1021 82 7000 3.6 330 09:27 07.03.2021
1779 Rain 11 1021 82 10000 3.09 320 08:55 07.03.2021
1780 Clouds 11 1021 82 10000 2.57 330 08:37 07.03.2021
1781 Clouds 11 1021 82 10000 2.57 330 08:19 07.03.2021
1782 Clouds 11 1021 82 10000 1.54 320 04:57 07.03.2021
1783 Clouds 11 1023 82 10000 2.06 320 02:26 07.03.2021
1784 Clouds 11 1024 82 10000 3.09 80 00:33 07.03.2021
1785 Clouds 11 1024 82 10000 3.09 70 23:40 06.03.2021
1786 Clouds 12 1024 82 10000 3.09 70 23:20 06.03.2021
1787 Clouds 12 1024 82 10000 3.09 70 22:45 06.03.2021
1788 Clouds 12 1024 76 10000 3.09 60 22:21 06.03.2021
1789 Clouds 12 1024 76 10000 3.09 80 21:46 06.03.2021
1790 Clouds 12 1023 76 10000 3.6 70 21:20 06.03.2021
1791 Clouds 12 1023 76 10000 3.6 80 20:42 06.03.2021
1792 Clear 13 1023 71 10000 2.57 80 19:59 06.03.2021
1793 Clear 12 1023 71 10000 3.09 90 19:37 06.03.2021
1794 Clear 13 1023 71 10000 3.09 90 19:18 06.03.2021
1795 Clouds 13 1023 71 10000 4.12 80 18:41 06.03.2021
1796 Clouds 13 1023 71 10000 4.12 80 18:20 06.03.2021
1797 Clouds 13 1023 67 10000 4.12 90 17:49 06.03.2021
1798 Clouds 14 1023 67 10000 3.6 90 17:30 06.03.2021
1799 Clouds 14 1023 67 10000 4.12 80 16:57 06.03.2021
1800 Clouds 14 1023 67 10000 4.63 100 16:32 06.03.2021
1801 Clouds 14 1023 67 10000 5.14 90 15:56 06.03.2021
1802 Clouds 14 1023 67 10000 5.14 100 15:38 06.03.2021
1803 Clouds 14 1023 67 10000 4.63 90 15:18 06.03.2021
1804 Clouds 14 1023 67 10000 5.14 90 14:31 06.03.2021
1805 Clouds 14 1024 62 10000 4.63 80 13:52 06.03.2021
1806 Clouds 14 1024 62 10000 4.63 80 13:33 06.03.2021
1807 Clouds 14 1024 67 10000 5.14 80 12:58 06.03.2021
1808 Clouds 14 1024 62 10000 4.63 90 12:38 06.03.2021
1809 Clouds 14 1024 62 10000 4.63 90 12:18 06.03.2021
1810 Clouds 14 1024 62 10000 4.63 90 12:18 06.03.2021
1811 Clouds 13 1024 67 10000 5.14 80 11:38 06.03.2021
1812 Clouds 13 1024 67 10000 5.14 80 11:18 06.03.2021
1813 Clouds 13 1024 67 10000 4.63 80 10:42 06.03.2021
1814 Clouds 12 1023 67 10000 5.66 70 09:57 06.03.2021
1815 Clouds 12 1023 67 10000 5.66 70 09:57 06.03.2021
1816 Clouds 12 1023 76 9000 5.14 70 09:26 06.03.2021
1817 Clouds 12 1022 71 9000 4.63 70 08:54 06.03.2021
1818 Clouds 12 1022 82 9000 5.66 70 08:30 06.03.2021
1819 Clouds 12 1022 82 9000 5.66 70 08:30 06.03.2021
1820 Clouds 12 1022 93 7000 5.14 70 07:43 06.03.2021
1821 Clouds 12 1021 87 7000 2.57 340 07:21 06.03.2021
1822 Clouds 11 1020 87 7000 0.51 0 05:50 06.03.2021
1823 Clouds 11 1020 87 7000 2.57 330 03:47 06.03.2021
1824 Clouds 11 1020 87 9000 2.57 310 01:32 06.03.2021
1825 Clouds 11 1020 87 9000 2.06 300 00:46 06.03.2021
1826 Clouds 11 1020 87 9000 2.57 310 23:44 05.03.2021
1827 Clouds 12 1020 93 9000 2.06 310 23:19 05.03.2021
1828 Clouds 12 1020 93 9000 1.54 300 22:43 05.03.2021
1829 Clouds 12 1019 87 9000 1.54 270 22:21 05.03.2021
1830 Clouds 12 1019 87 9000 1.54 270 21:43 05.03.2021
1831 Clouds 12 1019 93 10000 1.54 230 21:25 05.03.2021
1832 Clouds 12 1019 87 9000 2.57 220 20:47 05.03.2021
1833 Clouds 12 1019 87 10000 2.06 220 20:25 05.03.2021
1834 Clouds 13 1019 82 10000 1.03 210 19:49 05.03.2021
1835 Clouds 13 1018 82 10000 1.03 200 19:25 05.03.2021
1836 Clear 13 1018 82 10000 2.06 200 18:52 05.03.2021
1837 Clouds 13 1018 82 10000 2.06 220 18:27 05.03.2021
1838 Clouds 14 1017 82 10000 2.06 210 17:56 05.03.2021
1839 Clouds 14 1017 77 10000 2.57 190 17:33 05.03.2021
1840 Clouds 14 1017 77 10000 2.57 190 16:44 05.03.2021
1841 Clouds 14 1017 77 10000 2.57 190 16:24 05.03.2021
1842 Clouds 15 1017 77 10000 3.09 200 15:55 05.03.2021
1843 Clouds 14 1017 77 10000 3.09 190 15:28 05.03.2021
1844 Clouds 15 1017 77 10000 3.09 210 14:53 05.03.2021
1845 Clouds 15 1018 77 10000 3.09 200 14:34 05.03.2021
1846 Clouds 15 1018 77 10000 3.6 200 13:46 05.03.2021
1847 Clouds 15 1018 77 10000 3.6 200 13:21 05.03.2021
1848 Clear 15 1018 82 9000 3.09 210 12:47 05.03.2021
1849 Clear 13 1018 76 8000 1.54 290 11:40 05.03.2021
1850 Clear 13 1018 76 8000 1.54 290 11:21 05.03.2021
1851 Clear 13 1018 82 8000 3.09 320 10:57 05.03.2021
1852 Clear 13 1018 82 8000 3.09 320 10:57 05.03.2021
1853 Clear 12 1018 76 8000 3.09 330 10:37 05.03.2021
1854 Clear 12 1018 76 8000 3.09 330 10:19 05.03.2021
1855 Clear 12 1018 82 8000 3.6 330 09:45 05.03.2021
1856 Clear 11 1018 87 8000 3.6 330 09:26 05.03.2021
1857 Clear 10 1017 87 8000 4.63 330 08:39 05.03.2021
1858 Clear 10 1017 87 8000 4.63 330 08:20 05.03.2021
1859 Clouds 10 1017 87 8000 3.6 330 07:36 05.03.2021
1860 Clouds 10 1018 93 8000 3.6 330 06:44 05.03.2021
1861 Clouds 10 1018 93 8000 3.6 330 06:26 05.03.2021
1862 Clouds 11 1019 82 10000 2.06 330 01:40 05.03.2021
1863 Clouds 12 1020 87 10000 1.03 320 23:55 04.03.2021
1864 Clouds 11 1020 87 9000 1.03 300 23:25 04.03.2021
1865 Clouds 12 1020 87 9000 1.03 300 22:31 04.03.2021
1866 Clouds 12 1020 87 9000 1.03 230 21:55 04.03.2021
1867 Clouds 13 1020 88 9000 1.03 200 21:33 04.03.2021
1868 Clouds 12 1020 88 10000 1.03 200 20:59 04.03.2021
1869 Clouds 13 1020 82 10000 1.54 200 20:40 04.03.2021
1870 Clouds 13 1020 82 10000 1.54 200 20:21 04.03.2021
1871 Clouds 13 1020 88 10000 1.03 210 19:51 04.03.2021
1872 Clouds 13 1020 88 10000 1.54 200 19:26 04.03.2021
1873 Clouds 13 1020 88 10000 2.06 210 18:52 04.03.2021
1874 Clouds 13 1020 88 10000 2.06 200 18:30 04.03.2021
1875 Clouds 13 1020 82 10000 2.57 190 17:50 04.03.2021
1876 Clouds 14 1021 82 10000 3.09 180 17:31 04.03.2021
1877 Clouds 14 1021 82 10000 3.09 190 16:56 04.03.2021
1878 Clouds 14 1021 82 10000 3.09 190 16:38 04.03.2021
1879 Clouds 14 1021 82 10000 3.09 190 16:19 04.03.2021
1880 Clouds 14 1022 82 10000 3.6 180 15:45 04.03.2021
1881 Clouds 14 1022 82 10000 3.6 180 15:24 04.03.2021
1882 Clouds 15 1022 77 10000 3.6 170 14:40 04.03.2021
1883 Clouds 15 1023 72 10000 3.6 170 13:59 04.03.2021
1884 Clouds 15 1023 72 10000 3.09 180 13:40 04.03.2021
1885 Clouds 15 1023 72 10000 3.09 180 13:19 04.03.2021
1886 Clouds 15 1023 67 10000 3.09 180 12:41 04.03.2021
1887 Clouds 15 1024 72 10000 2.06 180 11:51 04.03.2021
1888 Clouds 14 1024 72 9000 0.51 350 11:32 04.03.2021
1889 Clouds 13 1024 77 9000 1.54 310 10:58 04.03.2021
1890 Clouds 13 1025 76 8000 2.06 340 10:36 04.03.2021
1891 Clouds 12 1025 87 7000 3.09 330 09:51 04.03.2021
1892 Clouds 12 1024 82 7000 2.57 320 09:27 04.03.2021
1893 Clouds 11 1024 87 6000 1.03 0 08:49 04.03.2021
1894 Clouds 11 1024 87 7000 2.06 320 08:24 04.03.2021
1895 Clouds 11 1025 87 7000 3.6 330 07:35 04.03.2021
1896 Clouds 11 1025 87 8000 3.09 330 06:31 04.03.2021
1897 Clouds 10 1025 87 8000 3.09 330 05:57 04.03.2021
1898 Clouds 11 1027 87 9000 2.06 320 02:29 04.03.2021
1899 Clouds 12 1028 93 10000 1.03 0 23:42 03.03.2021
1900 Clouds 12 1029 94 10000 1.54 90 22:29 03.03.2021
1901 Clouds 12 1029 94 10000 1.54 70 21:59 03.03.2021
1902 Clouds 12 1029 94 10000 1.54 70 21:41 03.03.2021
1903 Clouds 12 1029 94 10000 1.54 70 21:22 03.03.2021
1904 Clouds 12 1029 88 10000 1.54 90 20:53 03.03.2021
1905 Clouds 13 1029 88 10000 1.54 90 20:35 03.03.2021
1906 Clear 13 1029 88 10000 1.54 100 19:48 03.03.2021
1907 Clear 13 1029 88 10000 1.03 70 19:30 03.03.2021
1908 Clear 13 1029 88 10000 2.57 80 18:55 03.03.2021
1909 Clear 13 1029 88 10000 2.57 90 18:35 03.03.2021
1910 Clouds 13 1029 82 10000 4.12 100 17:58 03.03.2021
1911 Clouds 14 1029 82 10000 4.63 100 17:22 03.03.2021
1912 Clouds 14 1029 82 10000 4.63 100 16:54 03.03.2021
1913 Clouds 14 1029 82 10000 5.14 110 16:27 03.03.2021
1914 Clouds 14 1029 82 10000 4.63 100 15:54 03.03.2021
1915 Clouds 15 1029 77 10000 4.63 110 15:32 03.03.2021
1916 Clouds 15 1029 72 10000 4.63 100 14:50 03.03.2021
1917 Clouds 15 1029 72 10000 4.63 100 14:27 03.03.2021
1918 Clouds 15 1030 77 10000 4.63 100 13:46 03.03.2021
1919 Clouds 15 1030 77 10000 4.12 90 13:26 03.03.2021
1920 Clouds 15 1030 77 10000 4.12 80 12:43 03.03.2021
1921 Clouds 14 1031 72 10000 3.09 80 12:23 03.03.2021
1922 Clouds 14 1031 77 10000 1.54 40 11:45 03.03.2021
1923 Clouds 13 1031 76 10000 1.03 0 11:27 03.03.2021
1924 Clouds 13 1031 76 10000 2.06 340 10:45 03.03.2021
1925 Clouds 12 1031 82 10000 2.06 330 10:22 03.03.2021
1926 Clouds 12 1031 82 10000 2.06 330 09:43 03.03.2021
1927 Clouds 12 1031 82 10000 2.06 320 08:55 03.03.2021
1928 Clouds 12 1030 87 10000 2.06 320 08:37 03.03.2021
1929 Clouds 11 1030 87 10000 2.06 320 08:18 03.03.2021
1930 Clouds 11 1030 87 10000 1.54 330 07:34 03.03.2021
1931 Clouds 11 1030 87 10000 1.54 340 06:46 03.03.2021
1932 Clouds 11 1030 87 10000 2.06 330 05:45 03.03.2021
1933 Clouds 11 1030 87 10000 2.06 340 04:50 03.03.2021
1934 Clouds 11 1030 93 10000 2.06 340 04:24 03.03.2021
1935 Clouds 12 1031 88 10000 4.12 50 00:39 03.03.2021
1936 Clouds 13 1031 88 10000 4.12 60 23:44 02.03.2021
1937 Clouds 12 1031 94 10000 3.6 60 22:58 02.03.2021
1938 Clear 12 1031 94 10000 4.12 60 22:40 02.03.2021
1939 Clear 13 1031 88 10000 3.6 60 22:18 02.03.2021
1940 Clear 13 1031 88 10000 4.12 60 21:38 02.03.2021
1941 Clear 13 1031 88 10000 4.12 60 21:18 02.03.2021
1942 Clear 13 1030 88 10000 5.14 80 20:44 02.03.2021
1943 Clear 13 1030 88 10000 5.14 80 20:22 02.03.2021
1944 Clear 13 1030 88 10000 5.66 80 19:50 02.03.2021
1945 Clear 13 1030 88 10000 5.14 80 19:32 02.03.2021
1946 Clear 13 1030 88 10000 4.63 80 18:58 02.03.2021
1947 Clear 13 1029 82 10000 6.17 80 18:39 02.03.2021
1948 Clear 14 1029 82 10000 6.17 80 18:19 02.03.2021
1949 Clear 14 1029 77 10000 6.17 70 17:40 02.03.2021
1950 Clear 14 1029 77 10000 6.17 70 17:20 02.03.2021
1951 Clouds 14 1029 72 10000 6.17 70 16:48 02.03.2021
1952 Clouds 15 1029 72 10000 6.69 70 16:20 02.03.2021
1953 Clouds 15 1029 72 10000 6.69 70 15:47 02.03.2021
1954 Clouds 15 1029 72 10000 8.23 60 15:21 02.03.2021
1955 Clouds 15 1029 72 10000 8.23 60 14:21 02.03.2021
1956 Clouds 15 1029 72 10000 8.75 50 13:48 02.03.2021
1957 Clouds 15 1029 72 10000 8.75 50 13:28 02.03.2021
1958 Clouds 15 1030 72 10000 8.23 50 12:51 02.03.2021
1959 Clouds 14 1029 72 10000 8.23 50 12:26 02.03.2021
1960 Clouds 14 1030 72 10000 7.2 50 11:53 02.03.2021
1961 Clouds 14 1030 72 10000 6.69 50 11:29 02.03.2021
1962 Clear 14 1029 71 10000 8.23 60 10:55 02.03.2021
1963 Clear 13 1029 71 10000 7.72 60 10:31 02.03.2021
1964 Clear 13 1029 71 10000 7.72 60 10:31 02.03.2021
1965 Clear 13 1028 71 10000 7.72 60 09:44 02.03.2021
1966 Clouds 13 1028 71 10000 7.72 60 09:24 02.03.2021
1967 Clouds 12 1028 71 10000 6.69 60 08:56 02.03.2021
1968 Clouds 12 1027 71 10000 6.17 60 08:33 02.03.2021
1969 Clouds 12 1027 71 10000 5.66 60 07:52 02.03.2021
1970 Clouds 12 1027 76 10000 6.17 60 06:39 02.03.2021
1971 Clouds 12 1027 82 10000 6.69 60 05:52 02.03.2021
1972 Clouds 12 1026 76 10000 6.17 60 05:33 02.03.2021
1973 Clouds 12 1027 76 10000 5.66 60 04:39 02.03.2021
1974 Clouds 12 1027 82 10000 7.72 60 01:43 02.03.2021
1975 Clouds 12 1027 82 10000 7.72 60 01:43 02.03.2021
1976 Clouds 12 1027 82 10000 7.72 60 01:43 02.03.2021
1977 Clouds 12 1027 82 10000 7.72 60 01:43 02.03.2021
1978 Clouds 12 1027 76 10000 8.23 50 01:22 02.03.2021
1979 Clouds 12 1027 82 10000 6.17 60 23:40 01.03.2021
1980 Clouds 13 1027 82 10000 6.17 60 23:19 01.03.2021
1981 Clouds 13 1026 82 10000 6.17 60 22:38 01.03.2021
1982 Clouds 13 1026 82 10000 6.17 60 22:19 01.03.2021
1983 Clouds 13 1026 88 10000 5.66 60 21:42 01.03.2021
1984 Clouds 13 1026 88 10000 5.66 50 21:23 01.03.2021
1985 Clouds 13 1026 82 10000 5.66 70 20:45 01.03.2021
1986 Clouds 13 1026 82 10000 5.14 70 20:26 01.03.2021
1987 Clouds 13 1026 82 10000 5.66 80 19:45 01.03.2021
1988 Clouds 13 1026 76 10000 5.14 70 19:26 01.03.2021
1989 Clouds 13 1026 77 10000 5.66 80 18:44 01.03.2021
1990 Clouds 13 1025 77 10000 6.17 80 18:23 01.03.2021
1991 Clouds 14 1025 77 10000 5.14 90 17:48 01.03.2021
1992 Clouds 14 1025 72 10000 6.69 90 17:23 01.03.2021
1993 Clouds 14 1025 72 10000 7.72 100 16:47 01.03.2021
1994 Clouds 14 1025 72 10000 7.72 100 16:47 01.03.2021
1995 Clouds 14 1025 77 10000 7.2 100 16:29 01.03.2021
1996 Clouds 14 1025 72 10000 7.2 90 15:56 01.03.2021
1997 Clouds 14 1025 77 10000 6.69 90 15:36 01.03.2021
1998 Clouds 14 1025 77 10000 6.69 90 15:18 01.03.2021
1999 Clouds 14 1025 67 10000 8.23 70 14:39 01.03.2021
2000 Clouds 14 1026 72 10000 8.23 70 13:57 01.03.2021
2001 Clouds 14 1026 63 10000 6.69 70 13:37 01.03.2021
2002 Clouds 15 1026 63 10000 6.69 70 13:19 01.03.2021
2003 Clouds 14 1026 67 10000 6.69 70 12:42 01.03.2021
2004 Clouds 14 1026 67 10000 7.2 70 12:24 01.03.2021
2005 Clouds 14 1026 67 10000 7.2 70 12:24 01.03.2021
2006 Clouds 14 1026 72 10000 7.2 70 11:56 01.03.2021
2007 Clouds 14 1026 72 10000 7.2 60 11:26 01.03.2021
2008 Clouds 13 1026 67 10000 5.66 70 10:42 01.03.2021
2009 Clouds 13 1026 67 10000 5.14 60 10:22 01.03.2021
2010 Clouds 12 1026 67 10000 4.12 60 09:50 01.03.2021
2011 Clouds 12 1026 71 10000 3.6 50 09:31 01.03.2021
2012 Clouds 12 1026 67 10000 4.12 50 08:56 01.03.2021
2013 Clouds 11 1026 67 10000 4.12 50 08:32 01.03.2021
2014 Clouds 11 1026 67 10000 4.12 60 07:32 01.03.2021
2015 Clouds 11 1025 71 10000 5.14 40 06:25 01.03.2021
2016 Clouds 12 1026 76 10000 4.63 50 02:40 01.03.2021
2017 Clouds 12 1026 87 10000 6.69 60 23:47 28.02.2021
2018 Clouds 12 1026 87 10000 6.69 60 23:20 28.02.2021
2019 Clouds 12 1026 82 10000 6.17 60 22:42 28.02.2021
2020 Clouds 12 1026 76 10000 7.2 70 22:20 28.02.2021
2021 Clouds 12 1026 82 10000 6.17 70 21:45 28.02.2021
2022 Clouds 12 1026 76 10000 6.69 70 21:23 28.02.2021
2023 Clouds 12 1026 76 10000 6.69 80 20:45 28.02.2021
2024 Clouds 13 1025 76 10000 6.69 80 20:26 28.02.2021
2025 Clouds 13 1025 82 10000 6.69 80 19:46 28.02.2021
2026 Clouds 13 1025 82 10000 4.63 80 19:27 28.02.2021
2027 Clouds 13 1025 82 10000 5.14 90 18:47 28.02.2021
2028 Clear 13 1025 72 10000 5.14 90 18:26 28.02.2021
2029 Clear 14 1025 72 10000 6.17 90 17:56 28.02.2021
2030 Clouds 14 1025 72 10000 7.2 100 17:37 28.02.2021
2031 Clouds 14 1025 72 10000 7.2 100 17:19 28.02.2021
2032 Clouds 14 1025 63 10000 6.69 100 16:46 28.02.2021
2033 Clouds 15 1024 63 10000 7.2 100 16:26 28.02.2021
2034 Clouds 15 1024 63 10000 6.69 100 15:51 28.02.2021
2035 Clouds 15 1025 59 10000 6.17 80 15:28 28.02.2021
2036 Clouds 15 1025 63 10000 5.66 90 14:58 28.02.2021
2037 Clouds 15 1025 67 10000 6.17 100 14:35 28.02.2021
2038 Clouds 15 1025 67 10000 6.17 90 13:59 28.02.2021
2039 Clouds 14 1026 67 10000 6.17 90 13:38 28.02.2021
2040 Clouds 14 1026 62 10000 6.17 90 13:19 28.02.2021
2041 Clouds 14 1026 62 10000 6.17 90 12:53 28.02.2021
2042 Clouds 14 1026 62 10000 7.2 80 12:35 28.02.2021
2043 Clouds 14 1026 62 10000 6.17 70 11:57 28.02.2021
2044 Clouds 13 1026 62 10000 6.17 70 11:39 28.02.2021
2045 Clouds 13 1026 67 10000 5.14 80 11:19 28.02.2021
2046 Clear 13 1026 76 10000 3.6 100 10:40 28.02.2021
2047 Clear 13 1026 76 10000 3.6 100 10:20 28.02.2021
2048 Clear 12 1025 82 10000 2.06 330 09:39 28.02.2021
2049 Clear 11 1025 82 10000 2.06 330 09:20 28.02.2021
2050 Clear 11 1025 87 10000 2.06 350 08:43 28.02.2021
2051 Clear 10 1025 87 10000 2.57 350 08:24 28.02.2021
2052 Clear 10 1024 87 10000 3.09 320 07:46 28.02.2021
2053 Clear 10 1024 87 10000 3.09 340 07:25 28.02.2021
2054 Clouds 10 1024 87 9000 2.06 330 06:24 28.02.2021
2055 Clear 11 1024 87 10000 3.09 340 05:20 28.02.2021
2056 Clouds 11 1025 87 10000 2.06 320 02:29 28.02.2021
2057 Clouds 11 1025 87 10000 1.54 330 01:35 28.02.2021
2058 Clouds 12 1025 87 9000 2.06 260 00:42 28.02.2021
2059 Clouds 12 1025 87 9000 1.54 210 23:58 27.02.2021
2060 Clouds 13 1025 87 10000 1.03 200 23:39 27.02.2021
2061 Clouds 13 1025 87 10000 1.03 200 23:18 27.02.2021
2062 Clouds 13 1025 82 10000 0.51 0 22:42 27.02.2021
2063 Clouds 13 1025 87 10000 0.51 0 22:18 27.02.2021
2064 Clouds 13 1025 88 10000 2.09 206 21:38 27.02.2021
2065 Clouds 13 1025 88 10000 1.72 183 21:18 27.02.2021
2066 Clouds 13 1025 82 10000 1.72 183 20:46 27.02.2021
2067 Clouds 13 1024 82 10000 1.03 230 20:25 27.02.2021
2068 Clouds 14 1024 82 10000 2.57 220 19:43 27.02.2021
2069 Clouds 14 1024 82 10000 2.57 220 19:24 27.02.2021
2070 Clouds 14 1023 82 10000 3.6 210 18:42 27.02.2021
2071 Clouds 14 1023 82 10000 3.6 210 18:21 27.02.2021
2072 Clouds 14 1023 77 10000 3.6 210 17:45 27.02.2021
2073 Clouds 15 1023 77 10000 4.12 200 17:21 27.02.2021
2074 Clouds 15 1024 77 9000 4.63 200 16:59 27.02.2021
2075 Clouds 15 1024 77 9000 4.63 200 16:41 27.02.2021
2076 Clouds 15 1024 77 9000 4.63 200 16:23 27.02.2021
2077 Clouds 15 1024 72 10000 8.23 220 15:39 27.02.2021
2078 Clouds 16 1024 67 10000 8.75 220 14:52 27.02.2021
2079 Clouds 16 1024 72 9000 7.2 220 14:33 27.02.2021
2080 Clear 16 1024 59 10000 3.6 250 13:56 27.02.2021
2081 Clear 16 1025 63 10000 5.14 270 13:37 27.02.2021
2082 Clear 16 1025 67 10000 4.63 220 12:58 27.02.2021
2083 Clear 15 1026 72 10000 3.09 220 12:38 27.02.2021
2084 Clouds 14 1026 67 10000 2.57 300 12:19 27.02.2021
2085 Clouds 14 1026 76 10000 4.12 330 11:42 27.02.2021
2086 Clouds 14 1026 76 10000 4.12 330 11:24 27.02.2021
2087 Clouds 13 1026 76 10000 4.12 340 10:46 27.02.2021
2088 Clouds 12 1026 82 10000 4.63 340 10:28 27.02.2021
2089 Clear 11 1026 87 10000 4.63 320 09:51 27.02.2021
2090 Clear 11 1026 87 10000 4.63 320 09:26 27.02.2021
2091 Clear 10 1026 81 10000 5.14 310 08:42 27.02.2021
2092 Clear 10 1026 81 10000 5.14 310 08:21 27.02.2021
2093 Clear 10 1026 87 10000 6.17 320 07:42 27.02.2021
2094 Clear 10 1026 87 10000 5.14 320 05:18 27.02.2021
2095 Clear 11 1028 87 7000 1.54 300 01:18 27.02.2021
2096 Clear 11 1028 93 8000 2.57 280 23:58 26.02.2021
2097 Clear 11 1028 93 8000 2.57 280 23:40 26.02.2021
2098 Clouds 11 1028 87 8000 2.06 290 23:18 26.02.2021
2099 Clouds 11 1028 87 9000 1.03 300 22:30 26.02.2021
2100 Clear 11 1028 93 10000 2.06 290 21:49 26.02.2021
2101 Clear 12 1028 87 10000 3.09 260 21:30 26.02.2021
2102 Clear 12 1028 82 10000 2.57 230 20:45 26.02.2021
2103 Clear 12 1028 82 10000 2.57 230 20:24 26.02.2021
2104 Clear 12 1028 82 10000 2.57 230 19:52 26.02.2021
2105 Clear 13 1028 82 10000 2.57 220 19:25 26.02.2021
2106 Clear 13 1028 76 10000 3.09 220 18:48 26.02.2021
2107 Clear 14 1028 82 10000 3.6 220 18:24 26.02.2021
2108 Clear 14 1028 72 10000 3.6 210 17:48 26.02.2021
2109 Clear 15 1028 72 10000 4.12 210 17:29 26.02.2021
2110 Clouds 15 1029 77 10000 3.6 190 16:57 26.02.2021
2111 Clouds 15 1029 72 10000 3.6 190 16:38 26.02.2021
2112 Clouds 15 1029 67 10000 3.09 180 16:20 26.02.2021
2113 Clouds 15 1029 63 10000 2.57 170 15:43 26.02.2021
2114 Clouds 15 1029 63 10000 2.57 170 15:23 26.02.2021
2115 Clouds 15 1030 63 10000 1.54 130 14:51 26.02.2021
2116 Clouds 15 1030 67 10000 2.57 160 14:32 26.02.2021
2117 Clouds 15 1030 67 10000 3.09 150 13:47 26.02.2021
2118 Clouds 15 1031 67 10000 2.57 120 13:28 26.02.2021
2119 Clouds 14 1031 67 10000 3.09 110 12:48 26.02.2021
2120 Clouds 14 1031 72 10000 2.57 90 12:26 26.02.2021
2121 Clouds 14 1031 82 10000 1.54 310 11:40 26.02.2021
2122 Clouds 13 1031 76 9000 2.06 320 10:55 26.02.2021
2123 Clouds 13 1031 76 9000 2.57 320 10:25 26.02.2021
2124 Clouds 12 1031 82 8000 2.57 330 09:47 26.02.2021
2125 Clouds 12 1031 87 8000 3.09 320 09:27 26.02.2021
2126 Clouds 12 1031 87 6000 3.09 320 08:35 26.02.2021
2127 Clouds 12 1030 87 6000 3.09 320 07:57 26.02.2021
2128 Clouds 11 1030 87 6000 2.57 320 07:22 26.02.2021
2129 Clouds 12 1030 87 6000 1.54 330 06:31 26.02.2021
2130 Clouds 12 1030 87 6000 2.06 320 05:18 26.02.2021
2131 Clouds 12 1031 93 9000 2.06 330 02:38 26.02.2021
2132 Clouds 11 1031 93 10000 3.09 330 00:33 26.02.2021
2133 Clouds 12 1031 93 10000 1.54 310 23:39 25.02.2021
2134 Clouds 12 1031 93 10000 1.54 310 23:19 25.02.2021
2135 Clouds 12 1031 87 10000 2.06 240 22:38 25.02.2021
2136 Clouds 12 1031 94 10000 1.54 240 21:53 25.02.2021
2137 Clouds 12 1031 88 10000 3.09 230 21:33 25.02.2021
2138 Clouds 12 1031 88 10000 3.09 230 20:56 25.02.2021
2139 Clear 13 1030 88 10000 3.09 220 20:37 25.02.2021
2140 Clear 13 1030 88 10000 3.09 220 20:18 25.02.2021
2141 Clear 13 1030 88 10000 4.63 220 19:47 25.02.2021
2142 Clear 14 1030 88 10000 5.14 220 19:19 25.02.2021
2143 Clear 14 1029 82 10000 4.63 220 18:44 25.02.2021
2144 Clear 14 1029 82 10000 4.63 220 18:18 25.02.2021
2145 Clear 15 1029 82 10000 6.17 220 17:42 25.02.2021
2146 Clear 15 1029 82 10000 6.17 220 17:22 25.02.2021
2147 Clouds 16 1030 77 10000 7.2 220 16:34 25.02.2021
2148 Clouds 16 1030 72 10000 5.14 220 15:51 25.02.2021
2149 Clouds 16 1030 72 10000 5.14 220 15:28 25.02.2021
2150 Clouds 16 1030 72 10000 6.17 210 14:40 25.02.2021
2151 Clouds 16 1030 72 10000 6.17 210 14:21 25.02.2021
2152 Clouds 15 1031 67 10000 6.17 220 13:44 25.02.2021
2153 Clouds 15 1031 72 10000 4.63 200 13:23 25.02.2021
2154 Clouds 15 1032 72 10000 3.09 180 12:39 25.02.2021
2155 Clouds 15 1032 72 10000 3.09 180 12:20 25.02.2021
2156 Clouds 15 1032 72 10000 0.51 120 11:43 25.02.2021
2157 Clouds 14 1032 72 10000 1.03 0 10:54 25.02.2021
2158 Clouds 13 1032 76 10000 2.57 350 10:36 25.02.2021
2159 Clouds 13 1032 76 10000 3.09 340 09:53 25.02.2021
2160 Clouds 12 1032 82 10000 2.57 330 09:34 25.02.2021
2161 Clouds 11 1031 87 10000 3.6 340 08:46 25.02.2021
2162 Clouds 11 1031 87 10000 3.09 330 08:21 25.02.2021
2163 Clouds 11 1031 82 10000 3.6 330 07:42 25.02.2021
2164 Clouds 11 1031 87 10000 4.12 330 07:18 25.02.2021
2165 Clouds 10 1031 93 10000 4.12 330 05:55 25.02.2021
2166 Clouds 11 1033 87 10000 3.09 320 01:52 25.02.2021
2167 Clouds 11 1033 93 10000 2.06 10 01:27 25.02.2021
2168 Clouds 11 1033 87 10000 2.06 310 00:33 25.02.2021
2169 Clouds 12 1033 87 10000 0.51 0 23:40 24.02.2021
2170 Clouds 12 1033 87 10000 0.51 0 22:56 24.02.2021
2171 Clouds 12 1033 88 10000 1.23 164 22:30 24.02.2021
2172 Clouds 13 1033 88 10000 1.54 159 21:56 24.02.2021
2173 Clouds 12 1033 88 10000 1.55 160 21:34 24.02.2021
2174 Clouds 13 1033 88 10000 1.96 154 20:51 24.02.2021
2175 Clouds 13 1032 88 10000 2.04 156 20:29 24.02.2021
2176 Clouds 13 1032 88 10000 1.03 0 19:51 24.02.2021
2177 Clouds 13 1032 88 10000 3.09 90 19:24 24.02.2021
2178 Clouds 14 1032 82 10000 1.54 150 18:54 24.02.2021
2179 Clouds 14 1032 82 10000 3.09 150 18:32 24.02.2021
2180 Clear 15 1032 82 10000 3.09 120 17:45 24.02.2021
2181 Clear 15 1033 82 10000 3.6 130 17:25 24.02.2021
2182 Clear 16 1033 77 10000 3.6 130 16:49 24.02.2021
2183 Clear 16 1033 72 10000 3.6 150 16:22 24.02.2021
2184 Clear 16 1033 72 10000 3.09 150 15:56 24.02.2021
2185 Clear 17 1034 67 10000 1.54 130 15:35 24.02.2021
2186 Clouds 16 1034 67 10000 1.54 140 14:52 24.02.2021
2187 Clouds 16 1034 72 10000 1.54 140 14:30 24.02.2021
2188 Clouds 16 1035 72 10000 2.57 120 13:55 24.02.2021
2189 Clouds 16 1035 77 10000 2.57 150 13:37 24.02.2021
2190 Clouds 16 1035 77 10000 2.57 150 13:19 24.02.2021
2191 Clouds 16 1036 77 10000 3.09 130 12:42 24.02.2021
2192 Clouds 15 1036 88 10000 3.6 120 12:23 24.02.2021
2193 Clouds 15 1036 88 10000 3.6 120 12:23 24.02.2021
2194 Clouds 15 1036 82 10000 3.09 110 11:39 24.02.2021
2195 Clouds 15 1036 77 10000 2.57 100 10:47 24.02.2021
2196 Clouds 14 1036 88 10000 3.09 110 10:26 24.02.2021
2197 Clouds 13 1036 88 10000 2.06 80 09:30 24.02.2021
2198 Clouds 13 1036 88 10000 0.5 64 08:52 24.02.2021
2199 Clouds 12 1035 94 10000 0.5 64 08:33 24.02.2021
2200 Clouds 12 1035 88 9000 2.06 330 07:47 24.02.2021
2201 Clouds 12 1035 94 8000 1.03 0 07:19 24.02.2021
2202 Clouds 12 1035 94 10000 1.54 60 05:49 24.02.2021
2203 Clouds 13 1036 94 10000 2.06 70 02:44 24.02.2021
2204 Clouds 14 1037 94 10000 2.06 70 23:55 23.02.2021
2205 Clouds 14 1036 94 9000 2.57 50 22:51 23.02.2021
2206 Clouds 14 1036 94 9000 2.57 50 22:23 23.02.2021
2207 Clouds 14 1036 94 9000 3.09 60 21:56 23.02.2021
2208 Clouds 14 1036 94 9000 3.09 60 21:37 23.02.2021
2209 Clouds 14 1036 94 9000 3.09 60 21:18 23.02.2021
2210 Clouds 14 1036 94 9000 3.6 50 20:45 23.02.2021
2211 Clouds 14 1036 94 9000 3.09 50 20:27 23.02.2021
2212 Clouds 14 1035 94 9000 3.09 60 19:47 23.02.2021
2213 Clouds 14 1035 94 9000 3.6 70 19:26 23.02.2021
2214 Clouds 14 1035 94 9000 4.12 70 18:47 23.02.2021
2215 Clouds 14 1034 94 10000 4.12 70 18:29 23.02.2021
2216 Clouds 15 1034 88 10000 4.63 80 17:54 23.02.2021
2217 Clouds 15 1034 88 10000 4.12 90 17:29 23.02.2021
2218 Clouds 16 1034 82 10000 3.6 110 16:47 23.02.2021
2219 Clouds 17 1034 82 10000 3.6 110 16:25 23.02.2021
2220 Clouds 17 1034 77 10000 3.09 80 15:52 23.02.2021
2221 Clouds 17 1034 72 10000 4.12 90 15:34 23.02.2021
2222 Clouds 17 1034 72 10000 4.12 100 14:59 23.02.2021
2223 Clouds 17 1034 63 10000 3.09 90 14:40 23.02.2021
2224 Clouds 17 1034 63 10000 3.09 90 14:20 23.02.2021
2225 Clouds 16 1034 77 10000 3.09 50 13:43 23.02.2021
2226 Clouds 16 1034 77 10000 3.09 50 13:21 23.02.2021
2227 Clouds 16 1035 77 10000 3.6 80 12:49 23.02.2021
2228 Clouds 16 1035 77 10000 4.12 80 12:20 23.02.2021
2229 Clouds 15 1034 82 10000 3.09 80 11:45 23.02.2021
2230 Clouds 15 1034 82 10000 3.09 80 11:20 23.02.2021
2231 Clouds 14 1033 88 10000 2.57 60 10:40 23.02.2021
2232 Clouds 14 1033 88 10000 2.57 60 10:19 23.02.2021
2233 Clouds 13 1033 94 9000 2.57 60 09:42 23.02.2021
2234 Clouds 13 1033 94 9000 2.57 60 09:21 23.02.2021
2235 Clouds 13 1032 94 9000 2.06 70 08:48 23.02.2021
2236 Clouds 13 1032 94 10000 3.09 60 08:21 23.02.2021
2237 Clouds 13 1031 94 10000 3.09 60 07:48 23.02.2021
2238 Clouds 13 1030 94 10000 3.6 70 05:30 23.02.2021
2239 Clouds 13 1029 94 10000 5.14 60 04:25 23.02.2021
2240 Clouds 13 1028 94 10000 4.63 70 02:34 23.02.2021
2241 Clouds 12 1027 100 10000 3.09 40 00:20 23.02.2021
2242 Clouds 12 1026 94 10000 2.57 30 23:46 22.02.2021
2243 Clouds 13 1026 94 10000 2.57 30 23:20 22.02.2021
2244 Drizzle 12 1025 94 10000 1.54 360 22:39 22.02.2021
2245 Drizzle 12 1025 94 10000 1.54 360 22:20 22.02.2021
2246 Clouds 13 1024 94 10000 2.06 350 21:40 22.02.2021
2247 Clouds 13 1024 94 10000 2.06 350 21:21 22.02.2021
2248 Clouds 12 1024 94 10000 1.54 360 20:49 22.02.2021
2249 Clouds 12 1023 94 10000 1.54 340 20:27 22.02.2021
2250 Drizzle 12 1023 94 3000 1.03 0 19:51 22.02.2021
2251 Drizzle 12 1022 94 4500 3.15 93 19:30 22.02.2021
2252 Mist 13 1021 94 4000 0.51 0 18:49 22.02.2021
2253 Rain 13 1021 94 3500 1.03 0 18:30 22.02.2021
2254 Mist 13 1020 100 3500 2.57 120 17:54 22.02.2021
2255 Mist 13 1020 88 3500 2.06 130 17:22 22.02.2021
2256 Mist 13 1020 88 3500 2.06 130 17:22 22.02.2021
2257 Mist 13 1020 88 3500 2.06 130 17:22 22.02.2021
2258 Mist 13 1020 88 3500 2.06 130 17:22 22.02.2021
2259 Rain 13 1020 88 3000 2.06 120 16:53 22.02.2021
2260 Mist 14 1019 88 3000 2.06 120 16:31 22.02.2021
2261 Rain 14 1019 82 4500 3.09 120 15:42 22.02.2021
2262 Clouds 13 1018 77 6000 1.03 130 15:21 22.02.2021
2263 Clouds 13 1018 82 6000 2.06 90 14:44 22.02.2021
2264 Drizzle 13 1018 88 6000 4.12 80 14:22 22.02.2021
2265 Clouds 14 1017 88 6000 4.12 60 13:46 22.02.2021
2266 Clouds 14 1018 88 6000 4.12 60 12:56 22.02.2021
2267 Mist 13 1017 94 3500 3.6 50 12:23 22.02.2021
2268 Mist 13 1017 94 3500 3.6 50 11:57 22.02.2021
2269 Rain 13 1017 94 2500 3.6 60 11:38 22.02.2021
2270 Mist 13 1017 94 2500 3.6 60 11:20 22.02.2021
2271 Mist 13 1017 100 2000 1.54 70 10:41 22.02.2021
2272 Rain 13 1017 100 2000 1.54 70 10:21 22.02.2021
2273 Rain 13 1016 100 2000 2.57 60 09:40 22.02.2021
2274 Rain 13 1016 100 3000 3.6 70 09:22 22.02.2021
2275 Rain 13 1016 100 3000 3.6 70 08:49 22.02.2021
2276 Rain 14 1015 88 3000 1.54 60 08:23 22.02.2021
2277 Rain 14 1015 88 4000 1.03 0 07:50 22.02.2021
2278 Mist 14 1015 88 5000 2.57 180 07:23 22.02.2021
2279 Mist 14 1013 94 4000 4.12 80 06:28 22.02.2021
2280 Mist 14 1012 94 5000 7.72 60 05:21 22.02.2021
2281 Clouds 14 1011 88 6000 8.75 50 03:24 22.02.2021
2282 Clouds 14 1012 82 8000 4.12 30 02:31 22.02.2021
2283 Clouds 15 1011 82 8000 10.8 60 00:44 22.02.2021
2284 Clouds 15 1011 77 9000 12.86 60 00:19 22.02.2021
2285 Clouds 14 1012 77 9000 12.35 60 23:27 21.02.2021
2286 Clouds 15 1012 82 9000 11.83 60 22:37 21.02.2021
2287 Clouds 15 1012 82 10000 12.35 60 21:59 21.02.2021
2288 Clouds 14 1011 82 10000 13.38 60 21:35 21.02.2021
2289 Clouds 14 1011 82 10000 13.89 60 20:58 21.02.2021
2290 Clouds 14 1011 82 10000 13.38 60 20:39 21.02.2021
2291 Clouds 14 1011 82 10000 13.38 60 20:19 21.02.2021
2292 Clouds 14 1011 82 10000 13.89 60 19:49 21.02.2021
2293 Clouds 14 1011 82 10000 13.38 60 19:30 21.02.2021
2294 Clouds 14 1011 82 10000 12.35 60 18:40 21.02.2021
2295 Clouds 14 1011 82 10000 12.35 60 18:22 21.02.2021
2296 Clouds 14 1011 82 10000 12.86 60 17:29 21.02.2021
2297 Clouds 14 1012 82 10000 11.83 60 16:55 21.02.2021
2298 Clouds 14 1012 82 10000 12.35 60 16:34 21.02.2021
2299 Clouds 14 1013 82 10000 11.83 70 15:54 21.02.2021
2300 Clouds 14 1012 82 10000 11.83 70 15:22 21.02.2021
2301 Clouds 14 1013 82 10000 11.32 60 14:50 21.02.2021
2302 Clouds 14 1013 82 10000 12.86 70 14:28 21.02.2021
2303 Clouds 14 1014 82 10000 13.38 60 13:46 21.02.2021
2304 Clouds 14 1014 82 10000 11.83 60 13:23 21.02.2021
2305 Clouds 14 1015 77 10000 12.35 70 12:32 21.02.2021
2306 Clouds 14 1015 77 10000 13.89 60 11:55 21.02.2021
2307 Clouds 14 1015 82 10000 12.35 60 11:36 21.02.2021
2308 Clouds 13 1016 82 10000 10.8 60 10:26 21.02.2021
2309 Clouds 13 1016 88 7000 9.26 60 09:57 21.02.2021
2310 Clouds 13 1016 88 7000 9.77 60 09:39 21.02.2021
2311 Clouds 13 1016 88 7000 9.77 60 09:19 21.02.2021
2312 Clouds 12 1016 82 8000 8.23 60 08:32 21.02.2021
2313 Clouds 11 1016 82 8000 8.23 60 07:43 21.02.2021
2314 Clouds 11 1016 82 8000 7.72 40 07:21 21.02.2021
2315 Clouds 11 1017 82 10000 6.69 50 04:57 21.02.2021
2316 Clouds 11 1018 87 10000 4.12 30 02:32 21.02.2021
2317 Clouds 11 1019 87 10000 3.09 330 00:52 21.02.2021
2318 Clouds 11 1019 93 10000 3.09 350 00:20 21.02.2021
2319 Clouds 11 1019 87 10000 2.57 350 23:29 20.02.2021
2320 Clouds 11 1019 87 10000 3.09 10 22:54 20.02.2021
2321 Clouds 11 1020 87 10000 2.57 30 22:31 20.02.2021
2322 Clouds 11 1020 82 10000 2.57 30 21:47 20.02.2021
2323 Clouds 12 1020 82 10000 2.57 50 21:27 20.02.2021
2324 Clouds 12 1020 82 10000 2.06 70 20:54 20.02.2021
2325 Clouds 12 1019 76 10000 2.57 80 20:35 20.02.2021
2326 Clouds 12 1019 82 10000 2.57 90 19:59 20.02.2021
2327 Clouds 12 1019 76 10000 2.57 110 19:40 20.02.2021
2328 Clouds 12 1019 76 10000 2.06 100 18:48 20.02.2021
2329 Clouds 13 1019 76 10000 2.57 80 18:29 20.02.2021
2330 Clouds 13 1019 76 10000 2.06 110 17:45 20.02.2021
2331 Clouds 13 1019 67 10000 1.54 150 17:26 20.02.2021
2332 Clouds 14 1019 67 10000 1.03 0 16:48 20.02.2021
2333 Clouds 14 1019 67 10000 2.57 190 16:23 20.02.2021
2334 Clouds 14 1020 67 10000 2.06 210 15:41 20.02.2021
2335 Clouds 14 1021 72 10000 3.09 230 14:52 20.02.2021
2336 Clouds 14 1021 72 10000 3.09 230 14:25 20.02.2021
2337 Clouds 14 1021 67 10000 2.57 240 13:58 20.02.2021
2338 Clouds 14 1021 71 10000 2.06 190 13:38 20.02.2021
2339 Clouds 14 1021 71 10000 2.06 190 13:19 20.02.2021
2340 Mist 13 1021 76 4000 1.03 0 12:35 20.02.2021
2341 Mist 13 1021 76 4000 1.01 201 11:51 20.02.2021
2342 Mist 13 1021 76 4000 1.02 201 11:31 20.02.2021
2343 Mist 12 1021 82 4000 0.52 185 10:50 20.02.2021
2344 Mist 11 1021 82 4000 1.03 0 10:24 20.02.2021
2345 Mist 11 1021 87 4000 1.54 330 09:47 20.02.2021
2346 Mist 10 1021 87 4000 2.06 330 08:56 20.02.2021
2347 Mist 10 1020 87 4100 1.03 0 08:24 20.02.2021
2348 Mist 9 1020 87 4500 2.06 320 07:19 20.02.2021
2349 Mist 9 1020 93 3600 2.06 310 02:32 20.02.2021
2350 Mist 10 1020 93 3600 2.06 290 01:58 20.02.2021
2351 Mist 9 1020 93 4000 2.57 320 01:18 20.02.2021
2352 Mist 9 1020 93 4000 2.57 320 01:18 20.02.2021
2353 Mist 10 1021 93 5000 1.03 0 00:37 20.02.2021
2354 Clouds 9 1021 93 6000 4.12 240 23:30 19.02.2021
2355 Clouds 10 1021 93 7000 3.6 240 22:48 19.02.2021
2356 Clouds 10 1021 87 7000 4.63 230 22:25 19.02.2021
2357 Clouds 11 1020 93 7000 3.6 230 21:44 19.02.2021
2358 Clouds 10 1020 87 8000 3.6 230 21:25 19.02.2021
2359 Clouds 11 1020 87 10000 3.6 240 20:44 19.02.2021
2360 Clouds 11 1020 87 10000 3.6 240 20:26 19.02.2021
2361 Clouds 12 1020 87 10000 4.63 220 19:49 19.02.2021
2362 Clouds 12 1020 87 10000 4.63 220 19:20 19.02.2021
2363 Clouds 12 1020 87 10000 5.14 220 18:51 19.02.2021
2364 Clouds 12 1019 82 10000 5.66 220 18:28 19.02.2021
2365 Clouds 14 1019 76 9000 6.17 220 17:43 19.02.2021
2366 Clouds 15 1019 76 8000 6.17 210 16:44 19.02.2021
2367 Clouds 15 1019 76 8000 6.17 210 16:22 19.02.2021
2368 Clouds 14 1020 76 8000 5.66 210 15:55 19.02.2021
2369 Clear 14 1020 76 8000 6.17 220 15:30 19.02.2021
2370 Clouds 14 1020 76 8000 5.66 210 14:55 19.02.2021
2371 Clouds 14 1020 72 8000 2.57 260 14:34 19.02.2021
2372 Clouds 14 1021 76 7000 4.12 220 13:56 19.02.2021
2373 Clouds 14 1021 76 7000 4.12 220 13:56 19.02.2021
2374 Clouds 13 1021 76 7000 3.09 200 13:36 19.02.2021
2375 Mist 13 1021 82 5000 1.54 200 12:58 19.02.2021
2376 Mist 13 1022 82 5000 2.06 240 12:38 19.02.2021
2377 Mist 13 1022 82 5000 2.06 240 12:20 19.02.2021
2378 Mist 12 1022 87 4500 1.54 270 11:41 19.02.2021
2379 Mist 12 1022 87 4500 1.54 270 11:18 19.02.2021
2380 Mist 11 1022 87 3000 3.09 300 10:34 19.02.2021
2381 Mist 11 1022 93 3000 3.09 310 09:59 19.02.2021
2382 Mist 10 1022 87 3000 3.6 320 09:29 19.02.2021
2383 Mist 10 1021 87 3000 3.6 310 08:58 19.02.2021
2384 Mist 10 1021 93 3000 3.09 310 08:40 19.02.2021
2385 Mist 10 1021 93 3000 3.09 310 08:21 19.02.2021
2386 Mist 10 1021 93 3000 3.09 310 08:21 19.02.2021
2387 Mist 10 1021 93 4000 3.6 310 07:43 19.02.2021
2388 Mist 10 1021 93 5000 3.6 320 07:25 19.02.2021
2389 Mist 10 1020 93 5000 2.57 320 06:44 19.02.2021
2390 Mist 9 1019 93 5000 3.09 340 04:42 19.02.2021
2391 Clouds 9 1020 87 8000 2.57 330 02:50 19.02.2021
2392 Clouds 9 1020 93 9000 3.09 330 01:46 19.02.2021
2393 Clouds 10 1020 87 10000 1.54 330 00:36 19.02.2021
2394 Clouds 10 1020 87 10000 2.06 310 23:48 18.02.2021
2395 Clouds 10 1020 87 10000 2.57 300 23:30 18.02.2021
2396 Clouds 10 1020 87 10000 1.54 270 22:42 18.02.2021
2397 Clouds 10 1020 87 10000 2.06 290 22:24 18.02.2021
2398 Clouds 11 1019 82 10000 1.54 240 21:42 18.02.2021
2399 Clouds 11 1019 82 10000 1.54 240 21:24 18.02.2021
2400 Clouds 12 1019 82 10000 1.54 230 20:40 18.02.2021
2401 Clouds 12 1019 82 10000 1.54 230 20:21 18.02.2021
2402 Clouds 12 1019 82 10000 2.06 220 19:46 18.02.2021
2403 Clouds 12 1019 82 10000 2.57 210 19:21 18.02.2021
2404 Clouds 12 1018 82 10000 3.09 210 18:51 18.02.2021
2405 Clouds 13 1018 76 10000 4.12 210 18:26 18.02.2021
2406 Clouds 13 1018 76 10000 4.12 210 17:52 18.02.2021
2407 Clouds 14 1018 76 10000 4.63 200 17:25 18.02.2021
2408 Clouds 14 1018 76 10000 5.14 200 16:51 18.02.2021
2409 Clouds 15 1018 76 10000 5.14 200 16:32 18.02.2021
2410 Clouds 14 1018 76 10000 4.63 200 15:43 18.02.2021
2411 Clouds 15 1018 72 10000 4.63 200 15:24 18.02.2021
2412 Clouds 15 1018 72 10000 4.63 200 15:24 18.02.2021
2413 Clouds 14 1019 72 10000 4.63 190 14:56 18.02.2021
2414 Clouds 15 1019 72 10000 3.6 210 14:36 18.02.2021
2415 Clouds 14 1019 76 10000 3.09 210 13:50 18.02.2021
2416 Clouds 14 1020 72 10000 4.12 210 13:22 18.02.2021
2417 Clouds 14 1020 76 10000 3.6 230 12:56 18.02.2021
2418 Clouds 14 1020 82 8000 1.03 300 12:36 18.02.2021
2419 Clouds 13 1020 76 7000 1.54 330 11:48 18.02.2021
2420 Mist 12 1020 82 5000 2.06 330 11:28 18.02.2021
2421 Mist 12 1020 87 5000 2.06 320 10:59 18.02.2021
2422 Mist 11 1020 87 5000 2.06 320 10:41 18.02.2021
2423 Mist 11 1020 87 4800 1.54 330 10:23 18.02.2021
2424 Mist 10 1020 87 5000 2.57 320 09:39 18.02.2021
2425 Mist 10 1020 87 5000 2.57 320 09:20 18.02.2021
2426 Mist 9 1019 93 5000 1.03 0 08:37 18.02.2021
2427 Mist 9 1019 93 5000 1.03 0 08:19 18.02.2021
2428 Mist 10 1019 93 5000 2.06 320 07:30 18.02.2021
2429 Mist 9 1019 93 5000 2.06 300 06:29 18.02.2021
2430 Clouds 11 1021 93 6000 2.06 270 01:20 18.02.2021
2431 Clouds 11 1021 93 8000 4.63 250 23:48 17.02.2021
2432 Clouds 11 1021 87 10000 5.14 240 23:20 17.02.2021
2433 Clouds 11 1021 87 10000 4.63 230 22:46 17.02.2021
2434 Clouds 12 1021 87 10000 5.66 230 22:22 17.02.2021
2435 Clouds 11 1021 93 10000 5.66 240 21:48 17.02.2021
2436 Clouds 12 1021 93 10000 6.17 230 21:21 17.02.2021
2437 Clouds 12 1021 87 10000 6.17 230 20:45 17.02.2021
2438 Clouds 12 1021 87 10000 6.17 230 20:25 17.02.2021
2439 Clouds 12 1021 87 10000 5.14 220 19:41 17.02.2021
2440 Clouds 12 1021 87 10000 5.14 220 19:22 17.02.2021
2441 Clear 13 1021 87 10000 5.14 220 18:41 17.02.2021
2442 Clear 13 1021 87 10000 5.14 220 18:22 17.02.2021
2443 Clear 14 1021 82 10000 6.17 210 17:40 17.02.2021
2444 Clear 14 1021 82 10000 6.17 210 17:18 17.02.2021
2445 Clear 15 1022 82 10000 6.17 210 16:43 17.02.2021
2446 Clouds 15 1022 82 10000 6.17 220 16:22 17.02.2021
2447 Clouds 15 1022 76 10000 6.69 220 15:44 17.02.2021
2448 Clouds 15 1022 76 10000 6.17 220 15:23 17.02.2021
2449 Clouds 15 1023 76 10000 6.69 220 14:46 17.02.2021
2450 Clouds 15 1023 82 10000 6.17 210 14:28 17.02.2021
2451 Clouds 16 1024 82 10000 5.66 220 13:45 17.02.2021
2452 Clouds 15 1024 82 10000 5.14 220 13:27 17.02.2021
2453 Clouds 16 1024 77 10000 5.14 210 12:47 17.02.2021
2454 Clouds 15 1024 82 10000 4.63 220 12:23 17.02.2021
2455 Clouds 14 1025 72 10000 1.54 230 11:44 17.02.2021
2456 Clouds 14 1025 72 10000 2.57 280 11:20 17.02.2021
2457 Clouds 14 1025 76 10000 3.6 310 10:46 17.02.2021
2458 Clouds 13 1025 76 10000 3.6 320 10:26 17.02.2021
2459 Clouds 12 1024 87 8000 3.09 330 09:47 17.02.2021
2460 Clouds 11 1024 87 8000 3.09 330 09:29 17.02.2021
2461 Clouds 10 1024 87 6000 4.12 320 08:44 17.02.2021
2462 Clouds 9 1024 93 6000 4.63 320 08:22 17.02.2021
2463 Mist 9 1024 87 5000 3.6 330 07:34 17.02.2021
2464 Mist 9 1024 87 5000 3.09 330 06:35 17.02.2021
2465 Clouds 9 1025 93 6000 3.09 340 03:40 17.02.2021
2466 Clouds 9 1025 93 10000 3.09 340 02:30 17.02.2021
2467 Clouds 9 1025 93 10000 3.09 330 01:30 17.02.2021
2468 Clouds 10 1025 93 10000 3.09 70 00:24 17.02.2021
2469 Clouds 10 1025 87 10000 1.03 40 23:38 16.02.2021
2470 Clouds 10 1024 87 10000 4.12 250 22:45 16.02.2021
2471 Clouds 10 1024 87 10000 4.63 250 22:26 16.02.2021
2472 Clouds 11 1024 87 10000 5.66 240 21:58 16.02.2021
2473 Clouds 11 1024 82 10000 5.66 240 21:39 16.02.2021
2474 Clouds 11 1024 82 10000 5.66 240 21:20 16.02.2021
2475 Clouds 11 1024 87 10000 7.72 240 20:46 16.02.2021
2476 Clouds 12 1024 87 10000 7.72 240 20:24 16.02.2021
2477 Clouds 12 1024 87 10000 8.23 240 19:47 16.02.2021
2478 Clouds 12 1024 87 10000 8.75 240 19:28 16.02.2021
2479 Clouds 12 1024 87 10000 8.75 240 19:28 16.02.2021
2480 Clouds 12 1024 82 10000 8.75 230 18:47 16.02.2021
2481 Clouds 13 1023 82 10000 9.77 230 18:23 16.02.2021
2482 Clouds 13 1024 76 10000 10.8 230 17:53 16.02.2021
2483 Clouds 14 1024 76 10000 10.8 230 17:53 16.02.2021
2484 Clouds 14 1024 76 10000 10.8 230 17:27 16.02.2021
2485 Clouds 14 1024 76 10000 11.83 230 16:57 16.02.2021
2486 Clouds 14 1025 72 10000 11.32 230 16:38 16.02.2021
2487 Clouds 14 1025 72 10000 11.83 230 16:19 16.02.2021
2488 Clouds 15 1025 72 10000 10.8 230 15:36 16.02.2021
2489 Clouds 14 1026 76 10000 10.8 240 15:18 16.02.2021
2490 Clouds 14 1026 72 10000 10.8 230 14:40 16.02.2021
2491 Clouds 14 1026 72 10000 10.8 230 14:21 16.02.2021
2492 Clouds 14 1027 76 10000 9.26 240 13:45 16.02.2021
2493 Clouds 14 1028 76 10000 8.75 240 12:59 16.02.2021
2494 Clouds 14 1028 76 10000 8.75 240 12:41 16.02.2021
2495 Clouds 13 1028 77 10000 9.77 240 12:19 16.02.2021
2496 Clouds 13 1028 77 10000 9.77 240 11:40 16.02.2021
2497 Clouds 12 1028 77 10000 9.77 240 11:20 16.02.2021
2498 Clouds 12 1028 82 10000 8.75 240 10:46 16.02.2021
2499 Clouds 12 1028 82 10000 8.75 230 10:27 16.02.2021
2500 Clouds 12 1028 82 10000 8.23 240 09:53 16.02.2021
2501 Clouds 12 1028 87 10000 7.72 240 09:28 16.02.2021
2502 Clouds 12 1028 87 10000 7.72 240 09:28 16.02.2021
2503 Clouds 12 1028 87 10000 6.69 240 08:52 16.02.2021
2504 Clouds 11 1028 87 10000 7.2 230 08:29 16.02.2021
2505 Clouds 11 1028 87 10000 6.69 230 07:54 16.02.2021
2506 Clouds 11 1029 87 10000 7.2 230 06:58 16.02.2021
2507 Clouds 10 1032 82 10000 6.69 230 02:47 16.02.2021
2508 Clouds 10 1033 93 10000 3.6 280 00:23 16.02.2021
2509 Drizzle 10 1034 100 6000 1.03 300 23:30 15.02.2021
2510 Drizzle 10 1034 100 6000 1.03 300 23:30 15.02.2021
2511 Drizzle 10 1034 100 7000 1.54 280 22:51 15.02.2021
2512 Drizzle 10 1034 100 7000 2.57 270 22:30 15.02.2021
2513 Drizzle 10 1034 100 7000 2.57 270 22:30 15.02.2021
2514 Drizzle 10 1034 93 4500 3.09 250 21:50 15.02.2021
2515 Drizzle 11 1034 93 3500 1.54 250 21:26 15.02.2021
2516 Drizzle 11 1034 93 4000 2.57 250 20:57 15.02.2021
2517 Clouds 11 1034 93 10000 4.12 250 20:39 15.02.2021
2518 Clouds 11 1034 76 10000 2.57 250 19:51 15.02.2021
2519 Clouds 11 1034 76 10000 2.57 250 19:30 15.02.2021
2520 Clouds 11 1034 76 10000 1.54 250 18:59 15.02.2021
2521 Clouds 11 1034 76 10000 2.06 230 18:30 15.02.2021
2522 Clouds 11 1034 76 10000 2.06 220 17:59 15.02.2021
2523 Clouds 11 1034 76 10000 2.57 230 17:40 15.02.2021
2524 Clouds 11 1035 66 10000 2.57 220 17:21 15.02.2021
2525 Clouds 11 1035 71 10000 2.57 250 16:47 15.02.2021
2526 Clouds 11 1035 71 10000 2.57 250 16:26 15.02.2021
2527 Clouds 11 1035 66 10000 3.09 250 15:46 15.02.2021
2528 Clouds 11 1035 66 10000 2.06 230 15:20 15.02.2021
2529 Clouds 11 1035 71 10000 0.51 0 14:49 15.02.2021
2530 Clouds 11 1035 71 10000 1.03 0 14:21 15.02.2021
2531 Clouds 11 1036 71 10000 1.03 0 13:50 15.02.2021
2532 Clouds 11 1036 71 10000 0.51 0 13:27 15.02.2021
2533 Clouds 10 1036 76 10000 1.54 330 12:52 15.02.2021
2534 Clouds 10 1037 76 10000 1.54 330 12:33 15.02.2021
2535 Clouds 10 1037 81 10000 1.54 320 11:54 15.02.2021
2536 Clouds 10 1037 76 10000 1.54 320 11:27 15.02.2021
2537 Clouds 9 1036 76 10000 1.03 0 10:58 15.02.2021
2538 Clouds 9 1036 76 10000 1.54 330 10:40 15.02.2021
2539 Clouds 9 1036 76 10000 1.54 320 10:21 15.02.2021
2540 Clouds 9 1036 76 10000 1.54 320 09:51 15.02.2021
2541 Clouds 9 1036 76 10000 2.57 330 09:32 15.02.2021
2542 Clouds 8 1035 81 10000 2.57 330 08:32 15.02.2021
2543 Clouds 8 1035 81 10000 1.54 340 07:32 15.02.2021
2544 Clouds 8 1035 81 10000 1.54 330 06:42 15.02.2021
2545 Clouds 8 1036 81 10000 1.54 330 04:59 15.02.2021
2546 Clouds 8 1036 81 10000 1.03 0 02:21 15.02.2021
2547 Clouds 8 1037 81 10000 2.57 330 00:32 15.02.2021
2548 Clouds 8 1036 81 10000 2.06 340 23:32 14.02.2021
2549 Clouds 8 1037 81 10000 3.09 320 22:52 14.02.2021
2550 Clouds 8 1036 81 10000 2.06 320 22:34 14.02.2021
2551 Clouds 8 1036 62 10000 0.51 0 21:56 14.02.2021
2552 Clouds 8 1036 71 10000 1.54 90 21:36 14.02.2021
2553 Clouds 8 1036 66 10000 2.57 100 20:56 14.02.2021
2554 Clouds 8 1036 71 10000 2.57 100 20:32 14.02.2021
2555 Clouds 8 1036 76 10000 2.57 110 19:59 14.02.2021
2556 Drizzle 8 1036 66 10000 3.6 90 19:36 14.02.2021
2557 Clouds 8 1036 71 10000 2.06 80 18:47 14.02.2021
2558 Clouds 9 1036 66 10000 2.57 90 18:28 14.02.2021
2559 Clouds 9 1036 71 10000 4.12 90 17:48 14.02.2021
2560 Clouds 8 1036 71 10000 4.63 80 17:28 14.02.2021
2561 Clouds 9 1036 71 10000 5.14 90 16:42 14.02.2021
2562 Clouds 9 1035 76 10000 6.17 90 16:23 14.02.2021
2563 Clouds 9 1035 76 10000 6.17 90 15:45 14.02.2021
2564 Clouds 9 1035 76 10000 6.17 70 15:25 14.02.2021
2565 Drizzle 9 1035 76 9000 7.72 80 14:33 14.02.2021
2566 Drizzle 9 1035 76 9000 6.17 70 13:59 14.02.2021
2567 Clouds 9 1035 76 10000 5.66 80 13:38 14.02.2021
2568 Clouds 9 1035 76 10000 5.66 80 13:20 14.02.2021
2569 Clouds 9 1035 81 10000 5.14 80 12:23 14.02.2021
2570 Clouds 9 1035 87 9000 5.66 70 11:52 14.02.2021
2571 Clouds 9 1034 87 7000 6.17 70 11:28 14.02.2021
2572 Drizzle 9 1034 93 8000 5.66 70 10:59 14.02.2021
2573 Drizzle 9 1033 87 8000 6.69 60 10:21 14.02.2021
2574 Drizzle 9 1032 87 7000 7.2 50 09:40 14.02.2021
2575 Rain 9 1032 87 7000 7.2 50 09:21 14.02.2021
2576 Clouds 9 1032 81 10000 6.17 60 08:56 14.02.2021
2577 Clouds 10 1031 81 10000 6.17 50 07:58 14.02.2021
2578 Clouds 9 1030 81 10000 6.69 60 06:54 14.02.2021
2579 Clouds 10 1030 81 10000 6.69 60 05:43 14.02.2021
2580 Clouds 10 1029 82 10000 7.2 80 03:57 14.02.2021
2581 Clouds 11 1028 93 10000 6.17 100 02:29 14.02.2021
2582 Clouds 12 1028 82 10000 4.63 130 00:57 14.02.2021
2583 Clouds 12 1027 82 10000 3.6 140 00:37 14.02.2021
2584 Clouds 12 1027 88 10000 3.09 130 23:49 13.02.2021
2585 Clouds 12 1027 88 10000 3.09 130 23:25 13.02.2021
2586 Clouds 12 1027 82 10000 2.06 130 22:50 13.02.2021
2587 Clouds 12 1027 88 10000 2.57 140 22:21 13.02.2021
2588 Clouds 12 1026 82 10000 3.09 150 21:49 13.02.2021
2589 Clouds 12 1026 82 10000 3.09 150 21:26 13.02.2021
2590 Clouds 12 1026 82 10000 3.6 150 20:44 13.02.2021
2591 Clouds 12 1025 82 10000 3.6 150 20:24 13.02.2021
2592 Clouds 12 1025 88 10000 3.6 140 19:48 13.02.2021
2593 Clouds 13 1025 82 10000 2.57 150 19:23 13.02.2021
2594 Clouds 13 1024 88 10000 2.57 150 18:49 13.02.2021
2595 Clouds 13 1024 88 10000 3.6 160 18:24 13.02.2021
2596 Clouds 13 1023 76 10000 2.57 180 17:43 13.02.2021
2597 Clouds 14 1023 77 10000 3.6 180 17:23 13.02.2021
2598 Clouds 14 1023 72 10000 3.6 190 16:50 13.02.2021
2599 Clouds 15 1023 77 10000 3.6 180 16:31 13.02.2021
2600 Clouds 14 1022 77 10000 5.14 170 15:43 13.02.2021
2601 Clouds 15 1022 77 10000 5.14 170 15:24 13.02.2021
2602 Clouds 15 1022 82 10000 5.66 170 14:34 13.02.2021
2603 Clouds 15 1023 72 10000 4.63 180 13:49 13.02.2021
2604 Clouds 15 1023 58 10000 5.14 220 13:26 13.02.2021
2605 Clouds 15 1023 67 10000 4.12 210 12:52 13.02.2021
2606 Clouds 14 1023 67 10000 2.57 0 12:21 13.02.2021
2607 Clouds 14 1023 82 10000 3.6 220 11:47 13.02.2021
2608 Clouds 13 1023 76 10000 1.54 270 11:21 13.02.2021
2609 Clouds 12 1023 82 10000 3.09 320 10:58 13.02.2021
2610 Clouds 12 1022 87 10000 3.6 320 10:40 13.02.2021
2611 Clouds 11 1022 87 10000 3.09 330 10:21 13.02.2021
2612 Clouds 11 1022 87 10000 3.09 330 09:45 13.02.2021
2613 Clouds 10 1022 93 10000 4.12 340 09:22 13.02.2021
2614 Clouds 9 1022 93 10000 3.6 340 08:42 13.02.2021
2615 Clouds 9 1021 93 10000 3.6 330 07:56 13.02.2021
2616 Clouds 10 1021 93 10000 3.6 320 06:44 13.02.2021
2617 Clouds 10 1020 93 10000 2.57 330 06:19 13.02.2021
2618 Clouds 11 1019 100 10000 3.09 320 04:26 13.02.2021
2619 Clouds 11 1017 93 10000 1.03 360 02:25 13.02.2021
2620 Clouds 11 1017 94 10000 1.03 240 00:54 13.02.2021
2621 Clouds 12 1017 94 10000 1.03 0 23:55 12.02.2021
2622 Clouds 12 1017 94 10000 1.54 180 23:34 12.02.2021
2623 Clouds 12 1016 94 10000 1.54 190 22:59 12.02.2021
2624 Clouds 12 1016 94 9000 1.54 160 22:30 12.02.2021
2625 Clouds 12 1016 94 8000 1.54 150 21:54 12.02.2021
2626 Clouds 12 1015 94 8000 1.54 200 21:35 12.02.2021
2627 Clouds 12 1015 94 7000 2.52 84 20:59 12.02.2021
2628 Clouds 12 1015 94 7000 2.57 100 20:39 12.02.2021
2629 Clouds 12 1015 94 7000 2.57 100 20:19 12.02.2021
2630 Drizzle 12 1015 94 8000 2.57 90 19:48 12.02.2021
2631 Drizzle 12 1014 94 6000 4.12 70 19:26 12.02.2021
2632 Clouds 14 1013 82 10000 4.63 70 18:30 12.02.2021
2633 Clouds 15 1012 59 10000 5.66 330 17:51 12.02.2021
2634 Clouds 15 1012 67 10000 5.66 320 17:31 12.02.2021
2635 Clouds 16 1012 67 10000 5.66 310 16:41 12.02.2021
2636 Clouds 16 1012 59 10000 3.6 230 15:47 12.02.2021
2637 Clouds 16 1013 77 10000 1.54 180 15:22 12.02.2021
2638 Clouds 15 1013 77 10000 2.06 180 14:53 12.02.2021
2639 Clouds 15 1013 77 10000 0.51 70 14:30 12.02.2021
2640 Clouds 15 1014 77 10000 2.57 120 13:42 12.02.2021
2641 Clouds 15 1014 77 10000 2.57 120 13:24 12.02.2021
2642 Clouds 15 1014 63 10000 1.54 80 12:51 12.02.2021
2643 Clouds 14 1014 67 10000 1.54 40 12:33 12.02.2021
2644 Clouds 14 1015 71 10000 1.54 360 11:46 12.02.2021
2645 Clouds 14 1015 71 10000 2.57 350 11:20 12.02.2021
2646 Clouds 13 1015 71 10000 3.6 340 10:47 12.02.2021
2647 Clouds 13 1015 76 10000 2.57 330 09:56 12.02.2021
2648 Clouds 12 1015 76 10000 4.12 320 09:38 12.02.2021
2649 Clouds 11 1015 81 10000 4.63 320 09:19 12.02.2021
2650 Clouds 11 1015 81 10000 4.63 320 08:40 12.02.2021
2651 Clouds 11 1015 81 10000 4.63 320 08:18 12.02.2021
2652 Clouds 10 1015 76 10000 3.6 320 07:51 12.02.2021
2653 Clouds 10 1016 81 10000 4.12 320 06:58 12.02.2021
2654 Clouds 10 1016 81 10000 3.09 330 05:51 12.02.2021
2655 Clouds 10 1016 81 10000 4.12 330 05:26 12.02.2021
2656 Clouds 11 1017 76 10000 2.57 320 01:57 12.02.2021
2657 Clear 11 1018 76 10000 1.03 340 23:58 11.02.2021
2658 Clear 11 1018 76 10000 1.03 340 23:23 11.02.2021
2659 Clear 12 1018 82 10000 1.03 50 22:58 11.02.2021
2660 Clear 12 1018 76 10000 0.51 0 22:40 11.02.2021
2661 Clear 12 1018 76 10000 0.51 0 22:21 11.02.2021
2662 Clear 13 1018 82 10000 3.09 260 21:42 11.02.2021
2663 Clear 13 1017 82 10000 3.09 250 21:23 11.02.2021
2664 Clear 13 1017 76 10000 3.6 240 20:46 11.02.2021
2665 Clear 13 1017 76 10000 3.6 240 20:23 11.02.2021
2666 Clear 14 1017 82 10000 5.14 230 19:51 11.02.2021
2667 Clear 14 1017 76 10000 5.14 240 19:33 11.02.2021
2668 Clear 14 1016 67 10000 6.17 240 18:59 11.02.2021
2669 Clouds 14 1016 67 10000 6.17 250 18:31 11.02.2021
2670 Clear 14 1016 67 10000 6.69 250 17:58 11.02.2021
2671 Clear 15 1016 62 10000 6.17 230 17:37 11.02.2021
2672 Clear 15 1016 62 10000 6.17 230 17:19 11.02.2021
2673 Clear 15 1016 63 10000 5.14 210 16:41 11.02.2021
2674 Clear 15 1016 58 10000 4.12 180 16:23 11.02.2021
2675 Clear 15 1016 62 10000 4.12 190 15:44 11.02.2021
2676 Clear 15 1016 62 10000 4.12 190 15:26 11.02.2021
2677 Clear 15 1017 58 10000 3.6 200 14:51 11.02.2021
2678 Clear 15 1017 58 10000 3.6 200 14:30 11.02.2021
2679 Clear 15 1017 54 10000 3.6 220 13:42 11.02.2021
2680 Clear 15 1018 47 10000 2.06 260 13:19 11.02.2021
2681 Clear 14 1018 47 10000 2.06 260 12:53 11.02.2021
2682 Clear 13 1018 51 10000 3.09 320 12:30 11.02.2021
2683 Clear 12 1018 58 10000 4.12 330 11:47 11.02.2021
2684 Clear 12 1018 58 10000 4.12 330 11:25 11.02.2021
2685 Clear 11 1018 62 10000 4.12 330 10:45 11.02.2021
2686 Clear 10 1017 66 10000 5.14 340 10:26 11.02.2021
2687 Clear 10 1017 66 10000 4.12 330 09:54 11.02.2021
2688 Clear 9 1017 71 10000 5.14 330 09:24 11.02.2021
2689 Clear 8 1017 76 10000 4.63 330 08:54 11.02.2021
2690 Clear 8 1017 76 10000 4.12 340 08:28 11.02.2021
2691 Clear 8 1017 76 10000 5.66 340 07:39 11.02.2021
2692 Clear 8 1016 71 10000 4.63 340 06:41 11.02.2021
2693 Clear 9 1016 71 10000 4.12 320 05:38 11.02.2021
2694 Clear 10 1016 66 10000 2.57 280 02:29 11.02.2021
2695 Clear 10 1015 62 10000 1.03 0 01:29 11.02.2021
2696 Clear 11 1014 58 10000 2.06 30 00:22 11.02.2021
2697 Clouds 11 1014 47 10000 3.07 317 23:45 10.02.2021
2698 Clouds 12 1013 54 10000 4.63 290 23:18 10.02.2021
2699 Clouds 12 1012 50 10000 6.69 310 22:42 10.02.2021
2700 Clouds 12 1012 54 10000 7.72 310 22:18 10.02.2021
2701 Clouds 12 1011 54 10000 8.23 310 21:38 10.02.2021
2702 Clouds 13 1011 54 10000 8.23 310 21:19 10.02.2021
2703 Clouds 13 1011 51 10000 8.75 310 20:42 10.02.2021
2704 Clouds 13 1011 54 10000 5.14 290 20:24 10.02.2021
2705 Clouds 13 1011 51 10000 5.14 290 19:47 10.02.2021
2706 Clouds 13 1010 51 10000 5.14 280 19:26 10.02.2021
2707 Clouds 14 1009 51 10000 4.63 300 18:47 10.02.2021
2708 Clouds 14 1009 51 10000 4.63 300 18:24 10.02.2021
2709 Clouds 14 1009 51 10000 4.63 300 17:57 10.02.2021
2710 Clouds 15 1008 51 10000 5.14 300 17:26 10.02.2021
2711 Clouds 15 1007 51 10000 6.69 310 16:57 10.02.2021
2712 Clouds 15 1007 47 10000 6.69 320 16:37 10.02.2021
2713 Clouds 15 1007 47 10000 6.69 320 16:19 10.02.2021
2714 Clouds 15 1006 51 10000 7.72 310 15:24 10.02.2021
2715 Clouds 15 1006 51 10000 7.72 310 15:24 10.02.2021
2716 Clouds 15 1005 48 10000 9.26 310 14:52 10.02.2021
2717 Clouds 14 1005 51 10000 8.23 310 14:34 10.02.2021
2718 Clouds 14 1005 54 10000 7.72 300 13:53 10.02.2021
2719 Clouds 13 1005 71 10000 6.17 270 13:30 10.02.2021
2720 Clouds 12 1004 58 10000 7.2 310 12:53 10.02.2021
2721 Clouds 12 1004 62 10000 6.17 300 12:30 10.02.2021
2722 Clouds 11 1004 66 10000 5.14 310 11:57 10.02.2021
2723 Clouds 11 1003 76 10000 1.54 340 11:39 10.02.2021
2724 Clouds 11 1003 76 10000 1.54 340 11:20 10.02.2021
2725 Clouds 10 1003 76 10000 1.03 330 10:24 10.02.2021
2726 Clouds 10 1003 76 10000 2.57 340 09:56 10.02.2021
2727 Clouds 10 1002 71 10000 3.6 300 09:32 10.02.2021
2728 Clear 10 1002 66 10000 1.54 260 08:56 10.02.2021
2729 Clear 10 1001 62 10000 5.14 330 08:33 10.02.2021
2730 Clouds 10 1001 62 10000 5.14 280 07:37 10.02.2021
2731 Clouds 10 1002 54 10000 2.57 250 06:21 10.02.2021
2732 Clouds 12 1002 71 10000 4.12 280 01:28 10.02.2021
2733 Clouds 12 1002 71 10000 3.09 300 00:22 10.02.2021
2734 Clear 12 1001 76 10000 5.66 260 23:33 09.02.2021
2735 Clear 12 1001 87 10000 6.17 250 22:49 09.02.2021
2736 Clear 13 1001 87 10000 6.17 250 22:24 09.02.2021
2737 Clouds 13 1000 87 10000 7.2 240 21:52 09.02.2021
2738 Clouds 13 1000 82 10000 7.72 240 21:25 09.02.2021
2739 Clouds 13 1000 76 10000 8.23 220 20:45 09.02.2021
2740 Clouds 13 1002 76 9000 9.77 250 20:25 09.02.2021
2741 Rain 14 1001 72 10000 5.66 240 19:53 09.02.2021
2742 Clouds 14 1001 72 10000 6.69 240 19:30 09.02.2021
2743 Clouds 14 1001 67 10000 6.17 250 18:56 09.02.2021
2744 Clouds 14 1001 67 10000 6.69 240 18:35 09.02.2021
2745 Clouds 14 1001 71 10000 6.69 230 17:56 09.02.2021
2746 Clouds 14 1001 71 10000 8.23 240 17:36 09.02.2021
2747 Clouds 14 1001 71 10000 8.23 240 17:18 09.02.2021
2748 Clouds 14 1002 76 10000 6.69 240 16:38 09.02.2021
2749 Clouds 13 1002 71 10000 8.23 240 16:18 09.02.2021
2750 Clouds 14 1003 76 10000 9.77 240 15:41 09.02.2021
2751 Clouds 14 1003 76 10000 9.77 240 15:23 09.02.2021
2752 Clouds 14 1003 72 10000 8.75 230 14:48 09.02.2021
2753 Clouds 15 1004 77 10000 7.72 230 14:26 09.02.2021
2754 Clouds 14 1004 72 10000 7.2 240 13:43 09.02.2021
2755 Clouds 14 1004 67 10000 7.2 230 13:21 09.02.2021
2756 Clouds 14 1005 67 10000 7.72 230 12:48 09.02.2021
2757 Clouds 14 1005 67 10000 7.72 230 12:28 09.02.2021
2758 Clouds 14 1005 62 10000 6.69 230 11:44 09.02.2021
2759 Clouds 14 1005 62 10000 6.69 230 11:44 09.02.2021
2760 Clouds 13 1005 58 10000 5.66 260 11:23 09.02.2021
2761 Clouds 12 1005 62 10000 5.66 270 10:58 09.02.2021
2762 Clouds 12 1005 62 10000 4.12 260 10:38 09.02.2021
2763 Clouds 12 1005 62 10000 4.12 260 10:18 09.02.2021
2764 Clear 11 1005 66 10000 1.03 0 09:41 09.02.2021
2765 Clear 11 1005 66 10000 1.03 0 09:21 09.02.2021
2766 Clouds 10 1005 66 10000 2.57 220 08:34 09.02.2021
2767 Clear 10 1005 62 10000 2.06 180 07:57 09.02.2021
2768 Clear 10 1004 66 10000 5.66 210 05:55 09.02.2021
2769 Clear 10 1003 81 10000 1.03 0 03:50 09.02.2021
2770 Clear 10 1003 66 10000 3.09 280 02:27 09.02.2021
2771 Clear 10 1002 71 10000 2.06 310 00:33 09.02.2021
2772 Clear 10 1002 76 10000 2.57 280 23:57 08.02.2021
2773 Clear 10 1002 76 10000 5.66 230 23:20 08.02.2021
2774 Clear 11 1001 66 10000 5.14 260 22:43 08.02.2021
2775 Clouds 10 1001 71 10000 4.12 250 22:24 08.02.2021
2776 Clouds 10 1001 76 10000 3.6 260 21:54 08.02.2021
2777 Clouds 11 1000 81 10000 4.63 270 21:31 08.02.2021
2778 Clouds 11 1000 76 10000 4.12 270 20:59 08.02.2021
2779 Clouds 11 1000 87 10000 2.57 290 20:38 08.02.2021
2780 Clouds 11 1000 87 10000 2.57 290 20:20 08.02.2021
2781 Clouds 11 999 82 10000 5.66 250 19:42 08.02.2021
2782 Clouds 12 999 82 10000 5.66 250 19:22 08.02.2021
2783 Clouds 12 999 82 10000 5.66 250 18:48 08.02.2021
2784 Clouds 12 998 67 10000 2.06 270 18:23 08.02.2021
2785 Clouds 13 997 67 10000 2.06 240 17:45 08.02.2021
2786 Clouds 13 997 76 10000 4.63 240 17:25 08.02.2021
2787 Clouds 12 997 82 10000 4.12 270 16:44 08.02.2021
2788 Clouds 12 997 82 10000 5.14 240 16:21 08.02.2021
2789 Drizzle 11 997 87 10000 3.09 270 15:43 08.02.2021
2790 Rain 11 998 87 10000 5.66 270 15:20 08.02.2021
2791 Rain 11 998 87 10000 6.69 250 14:52 08.02.2021
2792 Rain 12 999 87 10000 8.75 250 14:32 08.02.2021
2793 Rain 12 999 82 10000 5.14 250 13:57 08.02.2021
2794 Clouds 12 999 82 10000 6.69 250 13:38 08.02.2021
2795 Clouds 12 999 82 10000 6.69 250 13:20 08.02.2021
2796 Rain 13 999 76 10000 6.69 230 12:37 08.02.2021
2797 Clouds 13 1000 76 10000 3.6 250 11:51 08.02.2021
2798 Rain 13 999 62 10000 5.14 280 11:22 08.02.2021
2799 Clear 12 999 62 10000 5.14 270 10:45 08.02.2021
2800 Clouds 12 999 58 10000 3.09 300 10:24 08.02.2021
2801 Clouds 12 999 66 10000 4.63 240 09:54 08.02.2021
2802 Clouds 11 1000 71 10000 3.6 270 09:36 08.02.2021
2803 Clouds 10 1000 66 10000 1.03 70 08:51 08.02.2021
2804 Clouds 10 1000 62 10000 0.51 360 08:23 08.02.2021
2805 Clouds 10 1000 62 10000 4.12 280 07:36 08.02.2021
2806 Clouds 10 1000 62 10000 6.69 270 06:30 08.02.2021
2807 Clouds 10 1001 58 10000 4.12 240 03:58 08.02.2021
2808 Clouds 10 1002 62 10000 4.12 250 01:51 08.02.2021
2809 Clouds 10 1002 71 10000 4.12 250 00:23 08.02.2021
2810 Clouds 10 1003 76 10000 1.03 260 23:52 07.02.2021
2811 Clouds 10 1003 81 10000 0.51 0 23:27 07.02.2021
2812 Clouds 9 1003 81 10000 3.09 320 22:55 07.02.2021
2813 Clouds 9 1003 76 10000 2.06 310 22:37 07.02.2021
2814 Clouds 10 1003 76 10000 2.06 310 22:19 07.02.2021
2815 Clouds 9 1003 76 10000 1.03 0 21:47 07.02.2021
2816 Clouds 9 1003 76 10000 1.03 0 21:21 07.02.2021
2817 Clouds 10 1003 81 10000 2.57 70 20:48 07.02.2021
2818 Clouds 10 1003 81 10000 2.57 70 20:27 07.02.2021
2819 Clouds 10 1003 71 10000 2.57 60 19:45 07.02.2021
2820 Clouds 10 1003 71 10000 2.57 60 19:27 07.02.2021
2821 Clouds 10 1003 71 10000 2.06 70 18:44 07.02.2021
2822 Clouds 10 1003 66 10000 2.06 90 18:26 07.02.2021
2823 Clouds 11 1003 58 10000 3.09 110 17:45 07.02.2021
2824 Clouds 11 1003 58 10000 3.09 110 17:23 07.02.2021
2825 Clouds 11 1003 58 10000 3.09 170 16:59 07.02.2021
2826 Clouds 11 1003 54 10000 3.6 190 16:41 07.02.2021
2827 Clouds 11 1003 54 10000 3.6 190 16:20 07.02.2021
2828 Clouds 12 1003 50 10000 1.03 230 15:44 07.02.2021
2829 Clouds 12 1003 50 10000 1.03 230 15:21 07.02.2021
2830 Clouds 12 1003 54 10000 3.09 350 14:44 07.02.2021
2831 Clouds 12 1003 50 10000 3.09 360 14:26 07.02.2021
2832 Clouds 12 1003 54 10000 2.57 0 13:45 07.02.2021
2833 Clouds 12 1003 54 10000 1.54 190 13:27 07.02.2021
2834 Clouds 11 1003 58 10000 1.54 0 12:42 07.02.2021
2835 Clouds 11 1003 58 10000 1.54 0 12:21 07.02.2021
2836 Clear 10 1004 62 10000 4.12 310 11:43 07.02.2021
2837 Clear 10 1003 62 10000 4.63 310 11:24 07.02.2021
2838 Clouds 9 1003 66 10000 6.17 320 10:42 07.02.2021
2839 Clear 9 1003 66 10000 5.14 320 10:42 07.02.2021
2840 Clouds 9 1003 66 10000 6.17 320 10:22 07.02.2021
2841 Clouds 9 1003 66 10000 4.63 320 09:43 07.02.2021
2842 Clouds 9 1003 66 10000 4.63 310 09:20 07.02.2021
2843 Clouds 10 1002 71 10000 5.14 340 08:22 07.02.2021
2844 Clouds 10 1001 71 10000 5.14 330 06:34 07.02.2021
2845 Clouds 10 1001 76 10000 7.2 340 05:56 07.02.2021
2846 Clouds 11 1002 71 10000 3.6 340 03:39 07.02.2021
2847 Clouds 13 1001 71 10000 5.14 300 01:24 07.02.2021
2848 Clouds 12 1001 76 10000 5.66 340 00:29 07.02.2021
2849 Clouds 13 1001 82 10000 2.57 340 23:44 06.02.2021
2850 Clouds 13 1001 94 9000 3.6 240 22:40 06.02.2021
2851 Clouds 13 1001 94 9000 3.6 230 21:39 06.02.2021
2852 Clouds 13 1001 94 9000 3.6 230 21:21 06.02.2021
2853 Clouds 13 1001 94 7000 4.63 240 20:50 06.02.2021
2854 Clouds 13 1001 94 7000 4.12 220 20:25 06.02.2021
2855 Clouds 13 1001 94 8000 4.63 230 19:56 06.02.2021
2856 Clouds 14 1000 94 8000 6.69 220 19:30 06.02.2021
2857 Clouds 14 1000 94 10000 6.69 230 18:47 06.02.2021
2858 Clouds 15 1000 88 10000 7.2 220 18:28 06.02.2021
2859 Clouds 15 1000 82 10000 6.69 230 17:46 06.02.2021
2860 Clouds 16 1000 77 10000 8.75 230 17:22 06.02.2021
2861 Clouds 16 1000 77 10000 8.75 230 16:59 06.02.2021
2862 Clouds 16 1000 77 10000 9.26 240 16:40 06.02.2021
2863 Clouds 17 999 77 6000 3.6 120 16:22 06.02.2021
2864 Clouds 16 1000 77 8000 9.77 240 15:45 06.02.2021
2865 Clouds 16 1000 88 6000 7.72 240 15:21 06.02.2021
2866 Clouds 16 1000 82 6000 4.63 230 14:45 06.02.2021
2867 Clouds 16 1000 88 6000 2.57 210 14:25 06.02.2021
2868 Clouds 16 1000 72 6000 1.03 0 13:49 06.02.2021
2869 Clouds 16 1001 72 6000 1.54 90 13:21 06.02.2021
2870 Clouds 15 1002 88 7000 4.63 200 12:22 06.02.2021
2871 Clouds 15 1002 82 7000 3.09 140 11:48 06.02.2021
2872 Clouds 15 1001 82 8000 2.57 120 11:25 06.02.2021
2873 Clouds 15 1001 82 9000 1.54 90 10:57 06.02.2021
2874 Clouds 15 1002 77 9000 3.09 100 10:39 06.02.2021
2875 Clouds 15 1002 77 9000 3.09 100 10:20 06.02.2021
2876 Clouds 14 1001 82 8000 6.69 80 09:37 06.02.2021
2877 Clouds 14 1001 82 8000 6.69 80 09:18 06.02.2021
2878 Clouds 14 1001 82 8000 6.69 80 09:18 06.02.2021
2879 Clouds 14 1001 82 9000 6.69 70 08:39 06.02.2021
2880 Clouds 14 1001 82 9000 6.69 70 08:20 06.02.2021
2881 Clouds 14 1001 72 9000 8.23 70 06:29 06.02.2021
2882 Clouds 14 1003 72 10000 8.75 70 04:37 06.02.2021
2883 Clouds 14 1004 76 10000 2.06 20 02:34 06.02.2021
2884 Clouds 14 1006 87 10000 2.57 10 00:49 06.02.2021
2885 Clouds 13 1006 88 10000 4.63 60 00:20 06.02.2021
2886 Clouds 13 1006 88 10000 4.63 60 23:50 05.02.2021
2887 Clouds 13 1007 88 10000 5.66 60 23:27 05.02.2021
2888 Clouds 13 1007 94 10000 5.66 60 22:48 05.02.2021
2889 Clouds 13 1007 88 10000 6.69 40 22:23 05.02.2021
2890 Clouds 13 1007 88 10000 5.66 50 21:51 05.02.2021
2891 Clouds 13 1007 88 10000 6.17 60 21:29 05.02.2021
2892 Clouds 13 1008 88 10000 5.14 70 20:48 05.02.2021
2893 Clouds 14 1008 88 10000 4.63 60 19:53 05.02.2021
2894 Clouds 14 1008 88 10000 5.14 60 19:22 05.02.2021
2895 Clouds 14 1008 88 10000 5.14 60 19:22 05.02.2021
2896 Clouds 14 1007 88 10000 5.14 70 18:54 05.02.2021
2897 Clouds 14 1007 82 10000 5.66 60 18:28 05.02.2021
2898 Clouds 14 1008 82 10000 5.14 70 17:56 05.02.2021
2899 Clouds 15 1008 82 10000 6.69 90 17:33 05.02.2021
2900 Clouds 15 1008 77 10000 6.69 80 16:57 05.02.2021
2901 Clouds 15 1008 77 10000 6.69 80 16:38 05.02.2021
2902 Clouds 15 1008 77 10000 6.69 80 16:19 05.02.2021
2903 Clouds 16 1009 77 10000 5.66 80 15:31 05.02.2021
2904 Clouds 16 1010 72 10000 5.14 70 14:59 05.02.2021
2905 Clouds 16 1010 72 10000 7.2 70 14:38 05.02.2021
2906 Clouds 16 1010 72 10000 6.69 70 14:18 05.02.2021
2907 Clouds 16 1010 72 10000 6.69 70 13:42 05.02.2021
2908 Clouds 15 1011 72 10000 8.75 70 13:20 05.02.2021
2909 Clouds 15 1011 67 10000 7.72 70 12:41 05.02.2021
2910 Clouds 14 1012 77 10000 7.72 80 11:59 05.02.2021
2911 Clouds 14 1012 82 10000 7.72 70 11:38 05.02.2021
2912 Clouds 14 1012 82 10000 7.72 70 11:19 05.02.2021
2913 Clouds 13 1012 82 10000 5.66 60 10:46 05.02.2021
2914 Clouds 13 1012 82 10000 4.63 50 10:24 05.02.2021
2915 Clouds 12 1012 82 10000 3.6 50 09:42 05.02.2021
2916 Clouds 12 1011 82 10000 4.63 30 09:23 05.02.2021
2917 Clouds 11 1011 82 10000 4.12 20 08:41 05.02.2021
2918 Clouds 12 1012 87 10000 3.09 40 07:42 05.02.2021
2919 Clouds 12 1012 87 10000 3.09 40 07:22 05.02.2021
2920 Clouds 12 1012 87 9000 1.54 60 06:32 05.02.2021
2921 Clouds 11 1012 87 9000 2.57 50 05:33 05.02.2021
2922 Clouds 12 1012 82 9000 1.03 0 02:26 05.02.2021
2923 Clouds 12 1013 87 10000 0.41 279 01:28 05.02.2021
2924 Clouds 12 1013 87 10000 1.03 0 00:36 05.02.2021
2925 Clouds 12 1013 87 10000 1.03 0 00:18 05.02.2021
2926 Clouds 12 1013 87 10000 0.51 110 23:42 04.02.2021
2927 Clouds 12 1013 87 10000 0.51 110 23:42 04.02.2021
2928 Clouds 12 1013 87 10000 0.51 80 23:23 04.02.2021
2929 Clouds 12 1013 87 10000 0.51 40 22:54 04.02.2021
2930 Clouds 12 1013 87 10000 0.84 200 22:35 04.02.2021
2931 Clouds 12 1013 87 10000 0.51 180 21:58 04.02.2021
2932 Clouds 12 1013 87 9000 0.51 0 21:39 04.02.2021
2933 Clouds 12 1013 87 8000 0.51 0 20:58 04.02.2021
2934 Clouds 12 1013 87 8000 1.03 0 20:34 04.02.2021
2935 Clouds 12 1013 87 8000 1.03 0 20:34 04.02.2021
2936 Clouds 12 1012 87 8000 1.54 20 19:53 04.02.2021
2937 Clouds 12 1012 87 8000 1.03 0 19:27 04.02.2021
2938 Mist 12 1012 87 5000 0.51 0 18:51 04.02.2021
2939 Mist 12 1012 87 5000 1.54 130 18:24 04.02.2021
2940 Mist 12 1012 87 5000 1.03 0 17:50 04.02.2021
2941 Mist 13 1012 94 5000 1.03 0 17:24 04.02.2021
2942 Clouds 13 1012 94 7000 1.03 0 16:51 04.02.2021
2943 Clouds 13 1012 87 7000 2.06 160 16:21 04.02.2021
2944 Clouds 13 1012 87 7000 2.06 160 16:21 04.02.2021
2945 Clouds 14 1011 87 7000 2.57 120 15:58 04.02.2021
2946 Clouds 14 1012 94 7000 2.57 130 15:38 04.02.2021
2947 Clouds 15 1012 82 7000 2.57 130 15:20 04.02.2021
2948 Clouds 15 1012 88 8000 3.6 140 14:40 04.02.2021
2949 Clouds 15 1012 88 8000 3.6 140 14:20 04.02.2021
2950 Clouds 16 1013 88 9000 3.09 130 13:44 04.02.2021
2951 Clouds 15 1014 82 8000 3.6 120 12:58 04.02.2021
2952 Clouds 15 1014 82 8000 1.03 50 12:36 04.02.2021
2953 Clouds 14 1014 82 8000 1.03 0 11:54 04.02.2021
2954 Clouds 14 1014 88 8000 1.03 0 11:33 04.02.2021
2955 Clouds 13 1014 82 9000 0.51 0 10:53 04.02.2021
2956 Clouds 13 1014 82 9000 1.2 69 10:32 04.02.2021
2957 Clouds 12 1013 76 10000 2.06 320 09:45 04.02.2021
2958 Clouds 12 1013 76 10000 2.06 320 09:19 04.02.2021
2959 Clear 11 1013 81 10000 1.03 0 08:50 04.02.2021
2960 Clear 12 1013 81 10000 2.57 340 08:25 04.02.2021
2961 Clear 11 1013 81 10000 2.57 320 07:51 04.02.2021
2962 Clear 11 1013 81 10000 2.06 340 07:32 04.02.2021
2963 Clear 11 1013 81 10000 3.09 330 06:45 04.02.2021
2964 Clear 12 1013 82 10000 3.09 340 05:32 04.02.2021
2965 Clear 12 1014 87 10000 1.03 360 02:30 04.02.2021
2966 Clear 12 1014 94 10000 2.57 50 01:24 04.02.2021
2967 Clear 13 1014 88 10000 3.6 40 23:55 03.02.2021
2968 Clear 13 1014 88 10000 3.6 50 23:30 03.02.2021
2969 Clear 13 1014 82 10000 5.14 40 22:38 03.02.2021
2970 Clear 14 1014 82 10000 5.14 40 22:20 03.02.2021
2971 Clear 14 1014 88 10000 5.14 50 21:46 03.02.2021
2972 Clear 14 1013 88 10000 4.63 60 21:24 03.02.2021
2973 Clear 15 1013 88 10000 0.51 210 20:51 03.02.2021
2974 Clear 15 1013 62 10000 0.51 0 20:31 03.02.2021
2975 Clear 15 1013 82 10000 3.6 230 19:55 03.02.2021
2976 Clear 16 1012 51 10000 1.03 0 19:25 03.02.2021
2977 Clear 17 1012 48 10000 2.06 330 18:58 03.02.2021
2978 Clear 17 1012 52 10000 3.6 280 18:37 03.02.2021
2979 Clear 18 1012 52 10000 3.6 280 18:19 03.02.2021
2980 Clear 18 1011 45 10000 4.12 240 17:44 03.02.2021
2981 Clear 18 1011 45 10000 4.12 240 17:24 03.02.2021
2982 Clear 19 1011 48 10000 4.63 250 16:43 03.02.2021
2983 Clear 19 1011 42 10000 4.12 240 16:23 03.02.2021
2984 Clear 19 1011 42 10000 5.66 240 15:41 03.02.2021
2985 Clear 19 1011 42 10000 5.66 240 15:22 03.02.2021
2986 Clear 19 1011 59 10000 8.23 230 14:47 03.02.2021
2987 Clear 19 1011 59 10000 8.23 230 14:23 03.02.2021
2988 Clear 19 1011 45 10000 5.14 240 13:48 03.02.2021
2989 Clear 19 1011 45 10000 5.14 240 13:21 03.02.2021
2990 Clear 18 1012 63 10000 6.17 230 12:45 03.02.2021
2991 Clear 18 1012 59 10000 6.17 260 12:21 03.02.2021
2992 Clear 18 1012 72 10000 5.14 230 11:43 03.02.2021
2993 Clear 17 1012 72 10000 4.12 220 11:24 03.02.2021
2994 Clear 16 1012 59 10000 5.14 250 10:42 03.02.2021
2995 Clear 15 1012 62 10000 5.14 250 10:20 03.02.2021
2996 Clear 15 1012 87 10000 2.06 210 09:45 03.02.2021
2997 Clear 14 1012 93 10000 1.03 0 09:27 03.02.2021
2998 Clear 14 1011 62 10000 5.66 270 08:48 03.02.2021
2999 Clouds 13 1011 93 10000 2.06 210 07:59 03.02.2021
3000 Clouds 14 1011 87 10000 1.03 0 07:26 03.02.2021
3001 Clouds 13 1011 93 10000 1.54 270 06:38 03.02.2021
3002 Clouds 13 1011 87 10000 1.54 290 04:50 03.02.2021
3003 Clouds 13 1011 87 10000 1.03 0 04:27 03.02.2021
3004 Clouds 12 1012 87 10000 2.06 260 02:43 03.02.2021
3005 Clear 13 1013 87 10000 2.57 250 01:58 03.02.2021
3006 Clear 13 1013 82 10000 0.51 0 00:27 03.02.2021
3007 Clear 14 1013 72 10000 3.09 230 23:47 02.02.2021
3008 Clear 14 1013 72 10000 3.6 230 23:28 02.02.2021
3009 Clear 14 1014 72 10000 3.09 250 22:54 02.02.2021
3010 Clear 14 1013 72 10000 1.54 270 22:22 02.02.2021
3011 Clear 14 1013 72 10000 1.54 270 22:22 02.02.2021
3012 Clear 15 1014 77 10000 3.6 270 21:54 02.02.2021
3013 Clear 15 1014 77 10000 4.12 220 21:29 02.02.2021
3014 Clear 15 1013 77 10000 5.14 230 20:59 02.02.2021
3015 Clear 15 1013 72 10000 5.66 230 20:41 02.02.2021
3016 Clear 15 1013 72 10000 6.69 230 20:18 02.02.2021
3017 Clear 15 1013 72 10000 5.66 230 20:18 02.02.2021
3018 Clear 15 1013 72 10000 6.17 230 19:42 02.02.2021
3019 Clear 16 1013 72 10000 6.17 230 19:23 02.02.2021
3020 Clear 16 1013 67 10000 6.17 230 18:44 02.02.2021
3021 Clear 16 1013 67 10000 6.17 230 18:25 02.02.2021
3022 Clear 17 1013 67 10000 4.63 210 17:49 02.02.2021
3023 Clear 17 1012 72 10000 2.06 190 17:22 02.02.2021
3024 Clear 17 1012 67 10000 2.57 200 16:56 02.02.2021
3025 Clear 17 1013 72 10000 3.09 160 16:37 02.02.2021
3026 Clear 18 1013 72 10000 3.6 180 15:59 02.02.2021
3027 Clear 18 1013 67 10000 3.09 180 15:40 02.02.2021
3028 Clear 18 1013 63 10000 3.6 200 15:21 02.02.2021
3029 Clear 18 1014 63 10000 4.63 210 14:40 02.02.2021
3030 Clear 18 1014 63 10000 4.63 210 14:18 02.02.2021
3031 Clear 18 1014 55 10000 4.63 210 13:44 02.02.2021
3032 Clear 17 1014 55 10000 4.12 200 13:26 02.02.2021
3033 Clear 17 1015 55 10000 0.51 250 12:55 02.02.2021
3034 Clear 17 1015 55 10000 2.57 310 12:26 02.02.2021
3035 Clear 16 1015 63 10000 5.14 330 11:41 02.02.2021
3036 Clear 15 1015 63 10000 5.14 330 11:20 02.02.2021
3037 Clear 15 1015 67 10000 6.17 340 10:49 02.02.2021
3038 Clear 14 1014 67 10000 5.14 320 10:26 02.02.2021
3039 Clear 13 1014 67 10000 4.12 310 09:46 02.02.2021
3040 Clear 12 1014 71 10000 5.14 330 09:24 02.02.2021
3041 Clear 12 1013 71 10000 5.14 320 08:45 02.02.2021
3042 Clouds 11 1013 71 10000 3.6 340 07:58 02.02.2021
3043 Clouds 12 1013 71 10000 4.63 330 07:27 02.02.2021
3044 Clouds 11 1013 71 10000 1.54 60 06:41 02.02.2021
3045 Clouds 11 1012 67 10000 2.57 330 05:51 02.02.2021
3046 Clouds 13 1012 67 10000 1.03 0 04:36 02.02.2021
3047 Clouds 13 1011 48 10000 1.54 310 02:25 02.02.2021
3048 Clouds 13 1011 48 10000 4.63 240 01:23 02.02.2021
3049 Clouds 14 1010 54 10000 3.6 290 00:18 02.02.2021
3050 Clouds 15 1009 55 10000 4.63 300 23:18 01.02.2021
3051 Clouds 15 1010 55 10000 4.12 270 22:39 01.02.2021
3052 Clouds 15 1010 55 10000 4.12 270 22:21 01.02.2021
3053 Clouds 16 1009 51 10000 3.6 270 21:48 01.02.2021
3054 Clouds 16 1009 51 10000 3.6 270 21:48 01.02.2021
3055 Clouds 16 1009 51 10000 4.63 300 21:24 01.02.2021
3056 Clouds 16 1009 48 10000 2.57 230 20:45 01.02.2021
3057 Clouds 16 1008 48 10000 1.54 270 20:25 01.02.2021
3058 Clouds 17 1007 45 10000 7.2 300 19:49 01.02.2021
3059 Clouds 16 1007 48 10000 6.69 300 19:22 01.02.2021
3060 Clouds 16 1007 42 10000 2.06 220 18:59 01.02.2021
3061 Clouds 17 1006 39 10000 1.54 80 18:40 01.02.2021
3062 Clouds 17 1006 39 10000 1.54 80 18:22 01.02.2021
3063 Clouds 18 1006 39 10000 2.06 280 17:44 01.02.2021
3064 Clouds 18 1006 39 10000 5.14 280 17:21 01.02.2021
3065 Clouds 19 1005 37 10000 7.2 300 16:41 01.02.2021
3066 Clouds 19 1005 37 10000 8.23 300 16:22 01.02.2021
3067 Clouds 19 1004 37 10000 8.75 320 15:40 01.02.2021
3068 Clouds 19 1004 37 10000 8.23 320 15:19 01.02.2021
3069 Clouds 19 1004 37 10000 8.23 320 14:51 01.02.2021
3070 Clear 19 1004 39 10000 10.8 310 14:23 01.02.2021
3071 Clear 18 1004 42 10000 12.86 310 13:42 01.02.2021
3072 Clear 18 1004 42 10000 12.86 310 13:24 01.02.2021
3073 Clear 17 1004 45 10000 12.86 320 12:44 01.02.2021
3074 Clouds 17 1004 45 10000 11.83 310 12:24 01.02.2021
3075 Clouds 16 1004 48 10000 8.75 320 11:43 01.02.2021
3076 Clouds 16 1003 48 10000 9.26 310 11:20 01.02.2021
3077 Clouds 15 1003 51 10000 10.8 310 10:47 01.02.2021
3078 Clouds 15 1003 55 10000 9.26 310 10:21 01.02.2021
3079 Clouds 14 1003 48 10000 5.66 290 09:49 01.02.2021
3080 Clouds 14 1003 51 10000 2.06 270 09:25 01.02.2021
3081 Clouds 14 1002 51 10000 2.57 260 08:56 01.02.2021
3082 Clouds 14 1002 51 10000 2.57 260 08:56 01.02.2021
3083 Clouds 14 1002 51 10000 3.6 270 08:22 01.02.2021
3084 Clouds 13 1001 62 10000 1.54 330 06:51 01.02.2021
3085 Clouds 13 1001 62 10000 3.6 300 04:32 01.02.2021
3086 Clouds 13 1002 82 10000 1.54 240 02:38 01.02.2021
3087 Clouds 13 1002 62 10000 1.03 0 23:52 31.01.2021
3088 Clouds 14 1003 62 10000 5.14 320 22:56 31.01.2021
3089 Clouds 14 1002 55 10000 4.63 300 22:37 31.01.2021
3090 Clouds 14 1002 51 10000 5.66 270 22:18 31.01.2021
3091 Clouds 15 1002 51 10000 5.66 270 21:46 31.01.2021
3092 Clouds 15 1002 55 10000 6.69 270 21:19 31.01.2021
3093 Clouds 15 1002 55 10000 6.69 270 21:19 31.01.2021
3094 Clouds 15 1002 55 10000 6.17 280 20:42 31.01.2021
3095 Clouds 15 1003 51 10000 3.6 260 20:20 31.01.2021
3096 Clouds 15 1003 51 10000 5.66 260 19:38 31.01.2021
3097 Clouds 15 1003 51 10000 5.66 260 19:19 31.01.2021
3098 Clouds 15 1003 55 10000 5.66 260 18:55 31.01.2021
3099 Clouds 15 1003 48 10000 6.17 290 18:37 31.01.2021
3100 Clouds 16 1003 48 10000 6.17 290 18:18 31.01.2021
3101 Clear 17 1002 42 10000 8.75 310 17:39 31.01.2021
3102 Clear 17 1002 42 10000 8.75 310 17:20 31.01.2021
3103 Clouds 17 1002 42 10000 9.77 300 16:42 31.01.2021
3104 Clouds 17 1002 42 10000 9.77 300 16:20 31.01.2021
3105 Clouds 17 1003 45 10000 10.29 300 15:49 31.01.2021
3106 Clouds 17 1003 45 10000 5.66 300 15:25 31.01.2021
3107 Clouds 16 1003 48 10000 5.66 290 14:39 31.01.2021
3108 Clouds 16 1004 48 10000 8.23 300 14:18 31.01.2021
3109 Clouds 15 1004 51 10000 8.23 300 13:44 31.01.2021
3110 Clouds 15 1004 51 10000 8.23 300 13:19 31.01.2021
3111 Clouds 15 1004 47 10000 10.8 300 12:47 31.01.2021
3112 Clouds 14 1004 48 10000 9.26 310 12:21 31.01.2021
3113 Clouds 14 1003 51 10000 10.8 320 11:40 31.01.2021
3114 Clouds 13 1003 51 10000 10.8 320 11:21 31.01.2021
3115 Clouds 13 1003 51 10000 11.83 310 10:48 31.01.2021
3116 Clouds 12 1003 54 10000 13.38 310 10:29 31.01.2021
3117 Clouds 12 1003 58 10000 13.38 310 09:47 31.01.2021
3118 Clouds 11 1003 58 10000 13.38 310 08:55 31.01.2021
3119 Clouds 11 1003 54 10000 11.83 310 08:31 31.01.2021
3120 Clear 11 1002 54 10000 9.26 310 06:51 31.01.2021
3121 Clear 11 1002 54 10000 7.72 300 05:30 31.01.2021
3122 Clear 11 1004 44 10000 3.09 270 00:40 31.01.2021
3123 Clear 11 1004 44 10000 3.09 270 00:21 31.01.2021
3124 Clear 11 1004 50 10000 5.66 300 23:28 30.01.2021
3125 Clouds 12 1004 50 10000 3.09 290 22:49 30.01.2021
3126 Clouds 12 1003 54 10000 5.66 280 22:28 30.01.2021
3127 Clear 12 1003 50 10000 5.66 280 21:39 30.01.2021
3128 Clouds 13 1003 51 10000 6.69 290 21:20 30.01.2021
3129 Clouds 13 1003 44 10000 6.17 280 20:44 30.01.2021
3130 Clouds 14 1003 44 10000 5.14 300 20:26 30.01.2021
3131 Clouds 14 1003 47 10000 3.6 270 19:43 30.01.2021
3132 Clouds 15 1003 47 10000 3.6 270 19:24 30.01.2021
3133 Clouds 15 1003 55 10000 4.12 270 18:41 30.01.2021
3134 Clouds 15 1003 55 10000 4.12 270 18:21 30.01.2021
3135 Clouds 15 1003 62 10000 10.8 300 17:57 30.01.2021
3136 Rain 16 1002 39 10000 9.77 280 17:19 30.01.2021
3137 Clouds 17 1002 39 10000 8.75 270 16:44 30.01.2021
3138 Clouds 18 1002 45 10000 7.2 270 16:24 30.01.2021
3139 Clouds 18 1002 45 10000 9.26 270 15:55 30.01.2021
3140 Clouds 18 1002 42 10000 11.83 270 15:37 30.01.2021
3141 Clouds 18 1002 42 10000 11.83 270 15:19 30.01.2021
3142 Clouds 18 1002 42 10000 12.35 270 14:42 30.01.2021
3143 Clouds 18 1003 45 10000 9.77 280 14:19 30.01.2021
3144 Clouds 18 1004 52 10000 7.72 260 13:30 30.01.2021
3145 Clouds 17 1004 48 10000 6.69 270 12:49 30.01.2021
3146 Clouds 16 1005 55 10000 6.17 260 12:28 30.01.2021
3147 Clouds 16 1005 63 10000 6.17 230 11:57 30.01.2021
3148 Clouds 16 1005 55 10000 5.66 280 11:28 30.01.2021
3149 Clouds 17 1006 59 10000 9.77 280 10:48 30.01.2021
3150 Clouds 15 1006 67 10000 1.54 270 09:48 30.01.2021
3151 Clouds 14 1007 93 10000 1.54 290 09:30 30.01.2021
3152 Clear 13 1007 100 10000 2.57 270 08:47 30.01.2021
3153 Clear 13 1007 93 10000 2.57 260 07:48 30.01.2021
3154 Clear 12 1008 93 10000 3.09 270 06:51 30.01.2021
3155 Clear 12 1010 93 10000 2.06 310 05:43 30.01.2021
3156 Clear 12 1012 93 10000 1.54 250 03:35 30.01.2021
3157 Clear 12 1013 93 10000 2.06 340 02:24 30.01.2021
3158 Clear 12 1014 93 10000 2.06 360 01:29 30.01.2021
3159 Clear 13 1014 94 10000 0.59 1 00:39 30.01.2021
3160 Clear 13 1014 94 10000 1.42 30 00:20 30.01.2021
3161 Clear 13 1014 94 10000 0.51 0 23:45 29.01.2021
3162 Clear 13 1014 94 10000 0.51 0 23:21 29.01.2021
3163 Clear 13 1015 94 10000 1.03 0 22:44 29.01.2021
3164 Clear 14 1015 88 10000 0.51 0 22:20 29.01.2021
3165 Clouds 14 1015 88 10000 3.6 70 21:29 29.01.2021
3166 Clouds 14 1015 88 10000 3.09 70 20:59 29.01.2021
3167 Clouds 14 1014 82 10000 4.63 40 20:40 29.01.2021
3168 Clouds 15 1014 82 10000 4.63 40 20:18 29.01.2021
3169 Clouds 15 1014 88 10000 4.12 60 19:38 29.01.2021
3170 Clouds 16 1014 72 10000 3.6 80 19:18 29.01.2021
3171 Clouds 18 1014 67 10000 3.6 210 18:30 29.01.2021
3172 Clear 18 1013 68 10000 5.66 220 17:40 29.01.2021
3173 Clear 19 1013 68 10000 5.66 220 17:22 29.01.2021
3174 Clouds 20 1014 63 10000 7.2 220 16:46 29.01.2021
3175 Clouds 20 1013 59 10000 7.72 230 16:24 29.01.2021
3176 Clouds 20 1014 63 10000 9.77 230 15:51 29.01.2021
3177 Clouds 20 1014 59 10000 8.75 240 15:31 29.01.2021
3178 Clouds 20 1014 59 10000 10.29 240 14:48 29.01.2021
3179 Clouds 20 1014 52 10000 6.69 250 14:18 29.01.2021
3180 Clouds 20 1015 59 10000 10.8 240 13:44 29.01.2021
3181 Clouds 20 1015 59 10000 10.8 240 13:26 29.01.2021
3182 Clouds 19 1016 52 10000 3.6 330 12:29 29.01.2021
3183 Clouds 18 1016 60 10000 3.6 330 11:51 29.01.2021
3184 Clouds 18 1016 63 10000 2.06 360 11:20 29.01.2021
3185 Clouds 17 1016 72 10000 2.06 310 10:53 29.01.2021
3186 Clouds 16 1016 77 10000 3.09 290 10:35 29.01.2021
3187 Clouds 15 1016 77 10000 1.03 0 09:50 29.01.2021
3188 Clouds 15 1016 77 10000 1.03 0 09:28 29.01.2021
3189 Clouds 15 1015 77 10000 1.03 0 08:47 29.01.2021
3190 Clouds 15 1015 77 10000 1.03 0 08:25 29.01.2021
3191 Clouds 15 1015 77 10000 2.06 290 07:42 29.01.2021
3192 Clouds 16 1014 72 10000 3.6 280 07:22 29.01.2021
3193 Clouds 14 1015 88 10000 3.6 270 06:29 29.01.2021
3194 Clouds 14 1016 94 10000 4.68 270 03:52 29.01.2021
3195 Clear 12 1017 93 10000 1.54 320 00:46 29.01.2021
3196 Clear 12 1017 93 10000 1.03 300 00:22 29.01.2021
3197 Clear 12 1018 93 10000 1.18 276 23:47 28.01.2021
3198 Clear 12 1018 93 10000 0.3 248 23:27 28.01.2021
3199 Clear 12 1018 93 10000 0.51 10 22:57 28.01.2021
3200 Clear 12 1018 93 10000 1.54 20 22:37 28.01.2021
3201 Clear 12 1018 93 10000 1.54 20 22:18 28.01.2021
3202 Clear 12 1018 94 10000 1.54 60 21:41 28.01.2021
3203 Clear 13 1018 94 10000 1.54 60 21:20 28.01.2021
3204 Clear 13 1019 88 10000 2.57 70 20:40 28.01.2021
3205 Clear 13 1019 88 10000 2.57 70 20:19 28.01.2021
3206 Clear 14 1018 88 10000 1.54 70 19:48 28.01.2021
3207 Clear 14 1018 88 10000 1.54 70 19:27 28.01.2021
3208 Clear 14 1018 88 10000 2.06 80 18:49 28.01.2021
3209 Clear 15 1018 88 10000 2.06 80 18:29 28.01.2021
3210 Clear 15 1018 88 10000 2.06 80 18:29 28.01.2021
3211 Clear 15 1018 77 10000 4.12 70 17:48 28.01.2021
3212 Clear 15 1018 77 10000 4.12 70 17:48 28.01.2021
3213 Clear 16 1018 77 10000 4.12 70 17:30 28.01.2021
3214 Clear 16 1018 72 10000 3.09 90 16:57 28.01.2021
3215 Clear 16 1018 68 10000 1.54 90 16:37 28.01.2021
3216 Clear 17 1018 68 10000 1.54 90 16:18 28.01.2021
3217 Clear 17 1018 72 10000 1.03 0 15:25 28.01.2021
3218 Clear 17 1018 77 10000 3.09 180 14:47 28.01.2021
3219 Clear 17 1019 67 10000 3.6 180 14:26 28.01.2021
3220 Clear 18 1019 77 10000 4.12 180 13:55 28.01.2021
3221 Clear 17 1020 67 10000 2.06 150 13:23 28.01.2021
3222 Clear 17 1020 67 10000 2.06 120 12:50 28.01.2021
3223 Clear 17 1020 67 10000 1.03 0 12:28 28.01.2021
3224 Clear 17 1020 72 10000 0.51 0 11:55 28.01.2021
3225 Clear 16 1020 77 10000 2.71 292 11:36 28.01.2021
3226 Clear 15 1020 77 10000 2.81 293 11:18 28.01.2021
3227 Clear 15 1020 87 10000 1.03 0 10:40 28.01.2021
3228 Clear 13 1020 87 10000 1.03 0 10:22 28.01.2021
3229 Clear 14 1019 77 10000 0.51 190 09:39 28.01.2021
3230 Clear 13 1019 77 10000 0.51 190 09:19 28.01.2021
3231 Clear 12 1019 87 10000 0.51 260 08:44 28.01.2021
3232 Clear 11 1019 87 10000 1.54 260 07:50 28.01.2021
3233 Clear 11 1019 93 10000 2.06 260 07:21 28.01.2021
3234 Clear 11 1019 93 10000 1.54 300 06:48 28.01.2021
3235 Clear 11 1020 93 10000 3.6 330 04:31 28.01.2021
3236 Clear 11 1020 87 10000 3.6 340 02:46 28.01.2021
3237 Clear 10 1021 87 10000 2.57 330 00:45 28.01.2021
3238 Clouds 11 1021 76 10000 1.54 330 23:41 27.01.2021
3239 Clouds 11 1021 76 10000 0.51 286 23:22 27.01.2021
3240 Clouds 11 1021 76 10000 1.54 270 22:40 27.01.2021
3241 Clouds 11 1021 76 10000 1.54 270 22:19 27.01.2021
3242 Clouds 11 1020 76 10000 2.57 310 21:42 27.01.2021
3243 Clouds 12 1021 71 10000 1.03 54 21:22 27.01.2021
3244 Clouds 12 1021 76 10000 1.03 54 20:42 27.01.2021
3245 Clouds 12 1021 76 10000 0.9 42 20:18 27.01.2021
3246 Clouds 12 1020 71 10000 1.54 50 19:41 27.01.2021
3247 Clouds 12 1020 71 10000 1.54 50 19:21 27.01.2021
3248 Clouds 12 1020 71 10000 0.51 0 18:44 27.01.2021
3249 Clouds 13 1020 71 10000 1.54 100 18:23 27.01.2021
3250 Clouds 13 1020 76 10000 1.54 120 17:51 27.01.2021
3251 Clouds 14 1020 62 10000 2.06 100 17:31 27.01.2021
3252 Clouds 14 1019 62 10000 2.06 120 16:54 27.01.2021
3253 Clouds 14 1019 62 10000 2.57 130 16:36 27.01.2021
3254 Clouds 14 1019 62 10000 2.57 130 16:18 27.01.2021
3255 Clouds 14 1019 62 10000 2.57 110 15:41 27.01.2021
3256 Clouds 14 1019 62 10000 2.57 110 15:23 27.01.2021
3257 Clouds 15 1019 62 10000 2.57 150 14:23 27.01.2021
3258 Clouds 15 1019 62 10000 3.09 130 13:49 27.01.2021
3259 Clouds 15 1020 55 10000 1.54 50 13:29 27.01.2021
3260 Clouds 14 1020 58 10000 5.14 320 12:42 27.01.2021
3261 Clouds 14 1020 58 10000 5.14 320 12:22 27.01.2021
3262 Clouds 13 1020 62 10000 5.66 310 11:46 27.01.2021
3263 Clouds 12 1020 66 10000 5.14 310 11:23 27.01.2021
3264 Clouds 12 1020 66 10000 5.14 310 11:23 27.01.2021
3265 Clouds 11 1020 66 10000 5.14 350 10:42 27.01.2021
3266 Clouds 10 1020 66 10000 5.14 340 10:21 27.01.2021
3267 Clouds 9 1020 76 10000 5.14 340 09:51 27.01.2021
3268 Clouds 9 1020 70 10000 4.63 320 09:27 27.01.2021
3269 Clouds 8 1019 75 10000 4.63 320 08:40 27.01.2021
3270 Clouds 8 1019 75 10000 4.63 330 07:46 27.01.2021
3271 Clouds 8 1019 75 10000 4.63 330 07:21 27.01.2021
3272 Clouds 8 1019 75 10000 5.66 330 06:24 27.01.2021
3273 Clouds 8 1020 75 10000 5.14 330 05:49 27.01.2021
3274 Clouds 8 1020 70 10000 4.63 330 04:57 27.01.2021
3275 Clouds 8 1021 66 10000 4.63 320 02:24 27.01.2021
3276 Clouds 9 1021 66 10000 4.63 330 01:57 27.01.2021
3277 Clouds 9 1021 66 10000 3.09 330 00:56 27.01.2021
3278 Clouds 9 1021 76 10000 3.09 320 00:18 27.01.2021
3279 Clouds 9 1021 87 10000 1.54 350 23:32 26.01.2021
3280 Clouds 10 1021 87 10000 3.09 250 22:58 26.01.2021
3281 Clouds 10 1022 87 10000 4.12 270 22:37 26.01.2021
3282 Clouds 10 1022 87 10000 4.12 270 22:18 26.01.2021
3283 Clouds 11 1021 93 10000 3.6 250 21:46 26.01.2021
3284 Clouds 11 1021 93 10000 3.6 250 21:21 26.01.2021
3285 Clouds 11 1022 87 10000 3.09 250 20:41 26.01.2021
3286 Clouds 11 1022 87 10000 4.63 250 20:23 26.01.2021
3287 Clouds 11 1021 87 10000 5.66 240 19:50 26.01.2021
3288 Clouds 11 1021 87 10000 5.66 240 19:29 26.01.2021
3289 Clouds 12 1021 82 10000 6.69 240 18:57 26.01.2021
3290 Clouds 12 1021 82 10000 4.12 230 18:39 26.01.2021
3291 Clouds 12 1021 82 10000 4.12 230 18:19 26.01.2021
3292 Clouds 12 1022 76 10000 4.12 230 17:46 26.01.2021
3293 Clouds 12 1022 71 10000 5.14 230 17:22 26.01.2021
3294 Clouds 13 1022 66 10000 6.17 230 16:42 26.01.2021
3295 Clouds 13 1022 66 10000 6.17 230 16:42 26.01.2021
3296 Clouds 12 1022 62 10000 5.66 230 16:20 26.01.2021
3297 Clouds 12 1022 62 10000 4.12 220 15:49 26.01.2021
3298 Clouds 12 1022 66 10000 3.09 220 15:27 26.01.2021
3299 Clouds 12 1022 66 10000 1.54 190 14:49 26.01.2021
3300 Clouds 12 1023 66 10000 2.57 140 14:29 26.01.2021
3301 Clouds 11 1023 76 10000 3.6 100 13:42 26.01.2021
3302 Clouds 11 1023 76 10000 3.6 100 13:24 26.01.2021
3303 Clouds 11 1024 76 10000 3.09 90 12:45 26.01.2021
3304 Clouds 11 1024 76 10000 3.6 90 12:25 26.01.2021
3305 Clouds 10 1024 76 10000 3.6 90 11:59 26.01.2021
3306 Clouds 10 1024 81 10000 4.12 90 11:39 26.01.2021
3307 Clouds 9 1024 81 10000 3.6 90 10:50 26.01.2021
3308 Clouds 9 1023 81 10000 3.6 90 10:31 26.01.2021
3309 Clouds 9 1023 76 10000 3.6 80 09:48 26.01.2021
3310 Clouds 9 1022 81 10000 3.09 330 09:28 26.01.2021
3311 Clouds 9 1022 81 10000 2.57 340 08:53 26.01.2021
3312 Clouds 9 1021 81 10000 2.57 220 08:33 26.01.2021
3313 Clouds 9 1021 71 10000 1.03 110 07:47 26.01.2021
3314 Clouds 9 1019 93 10000 1.03 0 06:23 26.01.2021
3315 Clouds 9 1019 81 10000 1.03 0 05:43 26.01.2021
3316 Clouds 9 1018 93 10000 1.54 300 04:28 26.01.2021
3317 Clouds 9 1018 87 10000 4.12 240 02:46 26.01.2021
3318 Clouds 10 1016 71 10000 1.54 160 00:57 26.01.2021
3319 Clouds 10 1015 66 10000 4.63 90 23:40 25.01.2021
3320 Clouds 10 1015 66 10000 4.63 90 23:18 25.01.2021
3321 Clouds 10 1014 71 10000 4.12 90 22:39 25.01.2021
3322 Clouds 10 1014 66 10000 4.63 90 21:58 25.01.2021
3323 Clouds 10 1013 66 10000 5.66 80 21:39 25.01.2021
3324 Clouds 11 1012 66 10000 5.66 70 20:53 25.01.2021
3325 Clouds 11 1012 71 10000 5.14 90 20:33 25.01.2021
3326 Clouds 11 1011 71 10000 5.66 80 19:52 25.01.2021
3327 Clouds 11 1011 71 10000 4.63 80 19:32 25.01.2021
3328 Clouds 11 1010 76 10000 5.14 80 18:59 25.01.2021
3329 Clouds 11 1010 76 10000 5.14 80 18:41 25.01.2021
3330 Clouds 12 1009 76 10000 7.72 80 18:21 25.01.2021
3331 Clouds 12 1009 76 10000 7.72 80 17:42 25.01.2021
3332 Clouds 12 1008 76 10000 8.75 70 17:23 25.01.2021
3333 Clouds 13 1007 72 10000 2.57 250 16:41 25.01.2021
3334 Clouds 13 1007 67 10000 4.63 230 16:23 25.01.2021
3335 Clouds 14 1006 72 10000 4.12 230 15:53 25.01.2021
3336 Clouds 14 1006 67 10000 4.12 240 15:32 25.01.2021
3337 Clouds 15 1006 67 10000 4.12 240 14:51 25.01.2021
3338 Clouds 14 1007 71 10000 4.63 240 14:20 25.01.2021
3339 Clouds 14 1007 71 10000 6.17 240 13:54 25.01.2021
3340 Clouds 14 1007 62 10000 7.2 240 13:35 25.01.2021
3341 Clouds 14 1008 55 10000 6.17 250 12:49 25.01.2021
3342 Clouds 13 1008 62 10000 6.17 250 12:24 25.01.2021
3343 Clouds 13 1008 62 10000 6.69 230 11:57 25.01.2021
3344 Clouds 12 1008 62 10000 4.63 230 11:22 25.01.2021
3345 Clouds 11 1008 58 10000 5.66 260 10:44 25.01.2021
3346 Clouds 11 1008 58 10000 5.66 260 10:21 25.01.2021
3347 Clouds 11 1008 54 10000 7.2 270 09:47 25.01.2021
3348 Clear 10 1008 62 10000 6.17 270 09:28 25.01.2021
3349 Clear 9 1008 66 10000 4.63 290 08:33 25.01.2021
3350 Clear 9 1008 66 10000 5.14 310 07:51 25.01.2021
3351 Clear 10 1007 66 10000 5.66 310 07:27 25.01.2021
3352 Clear 10 1008 62 10000 4.12 300 06:25 25.01.2021
3353 Clouds 11 1009 58 10000 5.14 260 01:37 25.01.2021
3354 Clouds 11 1010 62 10000 7.2 260 00:35 25.01.2021
3355 Clouds 11 1010 62 10000 6.69 250 23:20 24.01.2021
3356 Clouds 12 1010 66 10000 6.69 250 22:48 24.01.2021
3357 Clouds 12 1010 58 10000 7.72 240 22:28 24.01.2021
3358 Clouds 12 1010 58 10000 7.72 240 22:27 24.01.2021
3359 Clouds 12 1010 54 10000 8.23 250 21:55 24.01.2021
3360 Clouds 12 1010 54 10000 9.77 250 21:27 24.01.2021
3361 Clouds 12 1010 47 10000 8.23 230 20:47 24.01.2021
3362 Clouds 13 1010 47 10000 6.69 250 20:23 24.01.2021
3363 Clouds 13 1010 47 10000 6.69 250 20:23 24.01.2021
3364 Clouds 13 1010 47 10000 4.63 270 19:57 24.01.2021
3365 Clouds 13 1010 47 10000 2.57 290 19:38 24.01.2021
3366 Clouds 13 1010 47 10000 2.57 290 19:19 24.01.2021
3367 Clouds 13 1009 44 10000 4.63 290 18:41 24.01.2021
3368 Clouds 14 1009 44 10000 6.69 280 18:21 24.01.2021
3369 Clouds 13 1009 47 10000 6.17 260 17:57 24.01.2021
3370 Clouds 14 1009 44 10000 6.69 300 17:38 24.01.2021
3371 Clouds 14 1009 44 10000 6.69 300 17:18 24.01.2021
3372 Clouds 14 1008 39 10000 5.66 280 16:41 24.01.2021
3373 Clouds 14 1008 39 10000 2.57 260 16:20 24.01.2021
3374 Clouds 15 1008 39 10000 2.57 110 15:45 24.01.2021
3375 Clouds 14 1007 51 10000 2.06 100 15:20 24.01.2021
3376 Clouds 14 1007 58 10000 4.63 170 14:51 24.01.2021
3377 Clouds 14 1008 67 10000 5.66 170 14:26 24.01.2021
3378 Clouds 14 1008 67 10000 5.14 190 13:36 24.01.2021
3379 Clouds 13 1007 67 10000 5.14 150 12:52 24.01.2021
3380 Clouds 13 1007 51 10000 4.63 280 12:24 24.01.2021
3381 Clouds 13 1007 58 10000 4.63 320 11:59 24.01.2021
3382 Clouds 13 1007 58 10000 4.63 320 11:41 24.01.2021
3383 Clouds 12 1006 58 10000 5.14 290 11:20 24.01.2021
3384 Clouds 12 1005 62 10000 5.14 60 10:35 24.01.2021
3385 Clear 12 1003 58 10000 9.77 320 09:50 24.01.2021
3386 Clear 11 1002 62 10000 10.29 320 09:20 24.01.2021
3387 Clear 11 1001 58 10000 10.29 320 08:51 24.01.2021
3388 Clear 13 999 71 10000 1.03 200 05:18 24.01.2021
3389 Clouds 11 999 76 10000 1.54 320 02:21 24.01.2021
3390 Clear 11 1000 71 10000 2.06 290 00:58 24.01.2021
3391 Clear 11 1001 71 10000 1.54 290 00:22 24.01.2021
3392 Clear 11 1002 66 10000 2.57 290 23:46 23.01.2021
3393 Clear 11 1002 66 10000 2.57 290 23:22 23.01.2021
3394 Clouds 11 1003 58 10000 4.63 240 22:41 23.01.2021
3395 Clouds 11 1003 58 10000 4.63 240 22:21 23.01.2021
3396 Clouds 11 1003 62 10000 4.12 220 21:47 23.01.2021
3397 Clouds 12 1004 54 10000 2.57 250 21:19 23.01.2021
3398 Clear 12 1004 54 10000 2.57 230 20:40 23.01.2021
3399 Clear 12 1004 54 10000 2.57 230 20:21 23.01.2021
3400 Clear 13 1005 54 10000 5.14 260 19:45 23.01.2021
3401 Clouds 13 1004 50 10000 7.2 250 19:20 23.01.2021
3402 Clouds 13 1005 50 10000 7.2 250 18:44 23.01.2021
3403 Clouds 13 1005 47 10000 9.26 270 18:24 23.01.2021
3404 Clouds 13 1005 47 10000 9.26 260 17:45 23.01.2021
3405 Clouds 14 1005 67 10000 8.75 230 17:26 23.01.2021
3406 Clouds 14 1006 71 10000 10.8 230 16:47 23.01.2021
3407 Clouds 14 1006 71 10000 10.8 230 16:25 23.01.2021
3408 Clouds 14 1007 41 10000 9.26 270 15:40 23.01.2021
3409 Clouds 14 1007 41 10000 9.26 270 15:20 23.01.2021
3410 Clouds 14 1008 41 10000 10.29 260 14:31 23.01.2021
3411 Clouds 14 1008 44 10000 8.75 260 13:54 23.01.2021
3412 Clouds 13 1008 44 10000 8.75 240 13:35 23.01.2021
3413 Clouds 13 1009 47 10000 8.75 250 12:57 23.01.2021
3414 Clouds 13 1009 44 10000 8.75 250 12:27 23.01.2021
3415 Clouds 12 1010 54 10000 9.77 240 11:45 23.01.2021
3416 Clouds 12 1010 54 10000 9.77 240 11:25 23.01.2021
3417 Clouds 11 1010 54 10000 9.77 240 10:50 23.01.2021
3418 Clouds 10 1010 54 10000 8.23 240 10:21 23.01.2021
3419 Clouds 10 1010 54 10000 7.72 240 09:47 23.01.2021
3420 Clouds 10 1010 57 10000 7.72 250 08:54 23.01.2021
3421 Clouds 9 1010 54 10000 7.2 240 08:31 23.01.2021
3422 Clouds 9 1010 53 10000 4.63 280 07:25 23.01.2021
3423 Clouds 9 1010 50 10000 2.06 150 03:36 23.01.2021
3424 Clear 9 1009 46 10000 8.23 300 00:42 23.01.2021
3425 Clear 10 1008 46 10000 7.72 310 23:41 22.01.2021
3426 Clear 10 1008 46 10000 7.72 310 23:18 22.01.2021
3427 Clear 10 1007 46 10000 6.17 300 22:38 22.01.2021
3428 Clear 10 1006 46 10000 7.72 290 21:47 22.01.2021
3429 Clear 11 1006 50 10000 5.14 250 21:28 22.01.2021
3430 Clear 11 1005 57 10000 8.23 260 20:57 22.01.2021
3431 Clear 11 1005 54 10000 7.72 260 20:38 22.01.2021
3432 Clear 12 1004 50 10000 8.23 270 19:56 22.01.2021
3433 Clear 12 1003 54 10000 6.69 270 19:24 22.01.2021
3434 Clear 12 1002 50 10000 6.69 290 18:57 22.01.2021
3435 Clouds 13 1002 50 10000 9.26 280 18:39 22.01.2021
3436 Clouds 13 1002 50 10000 9.26 280 18:20 22.01.2021
3437 Clouds 13 1002 47 10000 6.69 260 17:43 22.01.2021
3438 Clouds 13 1000 47 10000 4.63 320 17:20 22.01.2021
3439 Clouds 13 999 47 10000 4.12 290 16:39 22.01.2021
3440 Clouds 13 999 47 10000 4.12 290 16:19 22.01.2021
3441 Clouds 13 999 51 10000 11.32 280 15:28 22.01.2021
3442 Clouds 14 999 54 10000 11.83 270 14:58 22.01.2021
3443 Clouds 14 999 48 10000 9.26 280 14:30 22.01.2021
3444 Clouds 14 999 48 10000 9.26 280 14:30 22.01.2021
3445 Clear 15 999 55 10000 10.29 250 13:47 22.01.2021
3446 Clear 14 999 55 10000 10.29 250 13:28 22.01.2021
3447 Clear 14 999 71 10000 8.75 240 12:45 22.01.2021
3448 Clear 13 999 71 10000 8.75 240 12:22 22.01.2021
3449 Clouds 12 999 71 10000 3.09 230 11:46 22.01.2021
3450 Clouds 10 999 76 2000 3.09 270 10:55 22.01.2021
3451 Clouds 10 1001 76 2000 9.77 280 10:35 22.01.2021
3452 Rain 13 999 82 10000 10.29 240 09:58 22.01.2021
3453 Rain 14 998 82 10000 8.23 230 09:29 22.01.2021
3454 Clouds 14 999 82 10000 8.75 230 08:50 22.01.2021
3455 Clouds 14 1000 77 10000 8.23 240 08:25 22.01.2021
3456 Clouds 14 1002 82 10000 11.32 240 07:31 22.01.2021
3457 Clouds 13 1007 71 10000 6.69 230 03:38 22.01.2021
3458 Clouds 12 1009 82 10000 5.66 270 00:39 22.01.2021
3459 Clouds 12 1009 93 10000 5.66 260 23:52 21.01.2021
3460 Clouds 12 1009 94 10000 5.14 240 23:32 21.01.2021
3461 Clouds 12 1009 94 10000 4.12 250 22:53 21.01.2021
3462 Clouds 12 1009 94 10000 4.12 240 22:35 21.01.2021
3463 Clouds 12 1009 94 10000 3.09 280 21:43 21.01.2021
3464 Clouds 13 1010 88 10000 2.57 290 21:22 21.01.2021
3465 Clouds 12 1010 87 10000 2.57 270 20:51 21.01.2021
3466 Clouds 13 1010 87 10000 3.09 280 20:31 21.01.2021
3467 Clouds 13 1010 94 10000 4.63 240 19:52 21.01.2021
3468 Clouds 13 1010 87 10000 4.12 250 19:30 21.01.2021
3469 Clouds 14 1009 82 10000 4.63 220 18:59 21.01.2021
3470 Clouds 14 1010 76 10000 5.14 250 18:40 21.01.2021
3471 Clouds 14 1010 76 10000 5.14 250 18:20 21.01.2021
3472 Clouds 15 1010 67 10000 6.69 250 17:51 21.01.2021
3473 Clouds 15 1009 72 10000 6.69 250 17:21 21.01.2021
3474 Clouds 15 1009 67 10000 8.75 240 16:50 21.01.2021
3475 Clouds 15 1009 67 10000 8.75 240 16:28 21.01.2021
3476 Clear 16 1009 67 10000 7.72 220 15:59 21.01.2021
3477 Clear 16 1009 67 10000 7.72 220 15:59 21.01.2021
3478 Clear 15 1009 67 10000 8.75 230 15:39 21.01.2021
3479 Clear 16 1010 63 10000 8.75 230 15:21 21.01.2021
3480 Clear 15 1010 63 10000 7.72 230 14:37 21.01.2021
3481 Clear 16 1010 67 10000 7.2 220 13:52 21.01.2021
3482 Clear 15 1011 67 10000 6.69 220 13:33 21.01.2021
3483 Clear 15 1011 62 10000 7.72 230 12:58 21.01.2021
3484 Clear 15 1011 62 10000 7.72 230 12:39 21.01.2021
3485 Clear 14 1011 62 10000 7.72 230 12:21 21.01.2021
3486 Clear 14 1012 62 10000 7.2 240 11:49 21.01.2021
3487 Clear 14 1012 62 10000 3.6 230 11:27 21.01.2021
3488 Clear 13 1011 71 10000 4.12 230 10:51 21.01.2021
3489 Clear 12 1011 76 10000 6.69 230 10:31 21.01.2021
3490 Clear 11 1011 87 10000 2.57 270 09:44 21.01.2021
3491 Clear 10 1011 93 10000 0.51 0 09:25 21.01.2021
3492 Clear 10 1011 87 10000 0.51 0 08:45 21.01.2021
3493 Clouds 10 1010 87 10000 1.54 330 08:24 21.01.2021
3494 Clouds 10 1010 81 10000 2.06 270 07:28 21.01.2021
3495 Clouds 10 1010 81 10000 4.63 300 06:54 21.01.2021
3496 Clouds 10 1009 93 8000 3.09 300 05:22 21.01.2021
3497 Clouds 9 1009 87 10000 0.51 350 02:40 21.01.2021
3498 Clouds 9 1010 87 10000 1.54 230 00:54 21.01.2021
3499 Clouds 10 1010 87 10000 0.51 110 23:54 20.01.2021
3500 Clouds 10 1010 87 10000 1.03 60 23:33 20.01.2021
3501 Clouds 11 1010 87 10000 2.06 250 22:58 20.01.2021
3502 Clouds 10 1010 93 10000 1.03 0 22:37 20.01.2021
3503 Clouds 11 1010 93 10000 3.6 250 21:59 20.01.2021
3504 Clouds 11 1010 93 10000 3.6 250 21:41 20.01.2021
3505 Clouds 11 1010 87 10000 5.14 240 21:41 20.01.2021
3506 Clouds 11 1010 87 10000 5.14 240 21:20 20.01.2021
3507 Clouds 11 1010 82 10000 4.12 230 20:49 20.01.2021
3508 Clouds 11 1010 82 10000 2.06 230 20:18 20.01.2021
3509 Clouds 11 1010 87 10000 3.09 260 19:43 20.01.2021
3510 Clouds 11 1010 87 10000 3.09 260 19:43 20.01.2021
3511 Rain 11 1010 87 10000 3.6 270 19:24 20.01.2021
3512 Rain 11 1010 87 10000 3.09 230 18:42 20.01.2021
3513 Clouds 11 1010 82 10000 5.14 230 18:18 20.01.2021
3514 Clouds 12 1010 82 10000 4.63 220 17:40 20.01.2021
3515 Clouds 12 1010 82 10000 4.63 220 17:19 20.01.2021
3516 Clouds 12 1010 82 10000 4.63 230 16:41 20.01.2021
3517 Clouds 13 1011 82 10000 6.17 220 15:55 20.01.2021
3518 Clouds 13 1011 76 10000 6.17 210 15:36 20.01.2021
3519 Clouds 13 1012 76 10000 6.17 220 14:51 20.01.2021
3520 Clouds 13 1012 76 10000 6.17 220 14:51 20.01.2021
3521 Clouds 13 1012 76 10000 6.69 220 14:25 20.01.2021
3522 Clouds 13 1013 76 10000 6.17 220 13:50 20.01.2021
3523 Clouds 13 1013 76 10000 6.17 220 13:31 20.01.2021
3524 Clouds 13 1014 76 10000 5.66 210 12:45 20.01.2021
3525 Clouds 12 1014 76 10000 1.54 250 12:21 20.01.2021
3526 Clouds 11 1015 76 10000 1.03 0 11:39 20.01.2021
3527 Clouds 11 1015 76 10000 1.03 0 11:18 20.01.2021
3528 Clouds 11 1015 81 10000 2.06 330 10:43 20.01.2021
3529 Clouds 10 1015 81 10000 2.57 330 10:18 20.01.2021
3530 Clouds 9 1016 81 10000 3.6 310 09:31 20.01.2021
3531 Clouds 9 1016 81 10000 2.57 320 08:59 20.01.2021
3532 Clouds 9 1016 81 10000 2.06 320 08:34 20.01.2021
3533 Clouds 9 1016 81 10000 3.09 320 07:59 20.01.2021
3534 Clouds 9 1016 81 10000 3.09 330 07:37 20.01.2021
3535 Clouds 9 1016 81 10000 3.6 330 06:56 20.01.2021
3536 Clouds 9 1019 81 10000 3.09 330 03:34 20.01.2021
3537 Clouds 8 1019 81 10000 2.06 330 01:51 20.01.2021
3538 Clouds 8 1020 87 10000 1.54 320 00:49 20.01.2021
3539 Clouds 9 1021 81 10000 2.69 263 23:50 19.01.2021
3540 Clouds 9 1021 87 10000 1.54 330 23:32 19.01.2021
3541 Clouds 9 1021 87 10000 1.54 320 22:58 19.01.2021
3542 Clouds 9 1021 87 10000 1.54 310 22:38 19.01.2021
3543 Clouds 9 1021 87 10000 1.54 300 22:20 19.01.2021
3544 Clouds 9 1021 87 10000 1.54 300 21:54 19.01.2021
3545 Clouds 9 1022 87 10000 1.54 270 21:32 19.01.2021
3546 Clouds 10 1022 87 10000 3.6 250 20:49 19.01.2021
3547 Clouds 10 1022 87 10000 4.12 250 20:27 19.01.2021
3548 Clouds 11 1022 87 10000 5.14 230 19:56 19.01.2021
3549 Clouds 11 1022 87 10000 3.6 240 19:34 19.01.2021
3550 Clouds 11 1022 87 10000 4.63 250 18:59 19.01.2021
3551 Clouds 11 1022 82 10000 5.14 240 18:38 19.01.2021
3552 Clouds 12 1022 82 10000 5.14 240 18:20 19.01.2021
3553 Clouds 12 1022 82 10000 4.63 230 17:42 19.01.2021
3554 Clouds 13 1022 87 10000 5.14 230 17:19 19.01.2021
3555 Clouds 13 1022 82 10000 5.66 230 16:39 19.01.2021
3556 Clouds 13 1022 82 10000 5.66 230 16:18 19.01.2021
3557 Clouds 14 1022 82 10000 5.66 230 15:48 19.01.2021
3558 Clouds 14 1022 82 10000 5.66 230 15:29 19.01.2021
3559 Clouds 14 1023 77 10000 6.17 240 14:43 19.01.2021
3560 Clouds 14 1023 77 10000 6.69 240 14:25 19.01.2021
3561 Clouds 13 1024 77 10000 6.69 240 13:49 19.01.2021
3562 Clouds 13 1024 77 10000 6.69 250 13:23 19.01.2021
3563 Clear 12 1024 71 10000 4.12 260 12:49 19.01.2021
3564 Clouds 11 1025 71 10000 2.06 310 12:30 19.01.2021
3565 Clouds 11 1025 71 10000 3.09 330 11:52 19.01.2021
3566 Clouds 10 1026 76 10000 4.12 330 11:29 19.01.2021
3567 Clouds 8 1026 81 10000 4.63 330 10:53 19.01.2021
3568 Clouds 8 1025 81 10000 4.63 330 10:33 19.01.2021
3569 Clouds 7 1025 87 10000 5.14 330 09:59 19.01.2021
3570 Clouds 7 1025 87 10000 5.14 330 09:41 19.01.2021
3571 Clouds 6 1025 87 10000 5.14 320 09:19 19.01.2021
3572 Clouds 7 1025 87 10000 4.12 320 08:31 19.01.2021
3573 Clouds 7 1025 87 10000 4.63 320 07:51 19.01.2021
3574 Clear 7 1025 87 10000 4.63 320 06:58 19.01.2021
3575 Clouds 8 1026 87 10000 4.12 320 03:34 19.01.2021
3576 Clouds 8 1026 87 10000 4.12 320 02:21 19.01.2021
3577 Clouds 9 1027 81 10000 3.6 320 00:23 19.01.2021
3578 Clouds 9 1027 81 10000 3.09 320 23:41 18.01.2021
3579 Clouds 9 1027 81 10000 3.09 320 23:22 18.01.2021
3580 Clouds 9 1027 81 10000 1.54 320 22:41 18.01.2021
3581 Clouds 9 1027 81 10000 1.54 320 22:20 18.01.2021
3582 Clouds 9 1027 87 10000 2.06 330 21:43 18.01.2021
3583 Clouds 10 1027 87 10000 2.06 330 21:22 18.01.2021
3584 Clouds 10 1027 87 10000 1.54 320 20:53 18.01.2021
3585 Clouds 10 1027 87 10000 1.03 310 20:33 18.01.2021
3586 Clouds 10 1027 87 10000 1.54 270 19:52 18.01.2021
3587 Clouds 10 1027 82 10000 2.06 260 19:34 18.01.2021
3588 Clouds 11 1027 82 10000 2.06 240 18:48 18.01.2021
3589 Clouds 12 1026 82 10000 2.06 250 18:25 18.01.2021
3590 Clouds 12 1026 82 10000 3.09 230 17:46 18.01.2021
3591 Drizzle 12 1026 82 10000 2.06 220 17:26 18.01.2021
3592 Clouds 12 1026 82 10000 2.57 230 16:49 18.01.2021
3593 Clouds 12 1026 87 10000 2.06 0 16:25 18.01.2021
3594 Clouds 12 1026 82 10000 1.54 210 15:52 18.01.2021
3595 Drizzle 12 1026 76 10000 3.09 220 15:27 18.01.2021
3596 Clouds 12 1026 76 10000 3.09 240 14:56 18.01.2021
3597 Clouds 12 1027 76 10000 1.54 180 14:38 18.01.2021
3598 Clouds 12 1027 76 10000 1.54 180 14:19 18.01.2021
3599 Clouds 12 1027 71 10000 4.48 245 13:44 18.01.2021
3600 Clouds 12 1027 71 10000 1.54 320 13:20 18.01.2021
3601 Clouds 12 1027 71 10000 1.54 320 12:45 18.01.2021
3602 Clouds 11 1028 76 10000 2.06 330 12:18 18.01.2021
3603 Clouds 10 1028 71 10000 2.57 320 11:42 18.01.2021
3604 Clouds 10 1028 71 10000 2.57 320 11:23 18.01.2021
3605 Clouds 10 1028 76 10000 3.09 320 10:47 18.01.2021
3606 Clouds 9 1027 76 10000 5.14 320 10:21 18.01.2021
3607 Clouds 9 1027 87 10000 2.06 320 09:39 18.01.2021
3608 Clouds 8 1027 87 10000 2.06 320 09:18 18.01.2021
3609 Clouds 9 1027 81 10000 4.12 330 08:26 18.01.2021
3610 Clouds 8 1026 81 10000 3.6 320 07:48 18.01.2021
3611 Clouds 8 1026 81 10000 2.57 0 06:35 18.01.2021
3612 Clouds 8 1026 81 10000 2.57 0 06:35 18.01.2021
3613 Clear 9 1025 87 10000 1.54 330 04:43 18.01.2021
3614 Clear 9 1025 87 10000 1.54 330 04:24 18.01.2021
3615 Clear 9 1025 81 10000 1.03 0 03:47 18.01.2021
3616 Clear 8 1025 81 10000 1.54 360 03:26 18.01.2021
3617 Clouds 9 1025 76 10000 1.54 320 02:57 18.01.2021
3618 Clouds 9 1025 87 10000 4.12 330 02:19 18.01.2021
3619 Clear 9 1026 87 10000 3.09 320 00:41 18.01.2021
3620 Clear 9 1025 81 10000 3.09 320 23:52 17.01.2021
3621 Clear 9 1025 87 10000 1.03 0 23:27 17.01.2021
3622 Clear 9 1025 81 10000 2.06 290 22:55 17.01.2021
3623 Clear 10 1024 81 10000 1.03 0 22:23 17.01.2021
3624 Clear 10 1024 81 10000 1.03 0 21:44 17.01.2021
3625 Clear 10 1024 81 10000 1.03 0 21:26 17.01.2021
3626 Clear 10 1023 81 10000 1.54 40 20:54 17.01.2021
3627 Clear 11 1023 76 10000 1.03 0 20:36 17.01.2021
3628 Clear 11 1023 76 10000 1.03 0 20:18 17.01.2021
3629 Clear 12 1022 71 10000 3.06 77 19:40 17.01.2021
3630 Clear 11 1022 66 10000 0.51 40 18:57 17.01.2021
3631 Clear 13 1021 62 10000 1.54 80 18:30 17.01.2021
3632 Clear 13 1021 58 10000 2.06 110 17:52 17.01.2021
3633 Clear 13 1020 58 10000 3.09 100 17:34 17.01.2021
3634 Clear 14 1020 58 10000 2.06 130 16:56 17.01.2021
3635 Clear 14 1020 54 10000 3.09 120 16:37 17.01.2021
3636 Clear 14 1020 54 10000 3.09 120 16:37 17.01.2021
3637 Clear 14 1020 54 10000 3.09 120 16:18 17.01.2021
3638 Clear 15 1020 50 10000 2.57 160 15:37 17.01.2021
3639 Clear 14 1020 50 10000 2.57 160 15:19 17.01.2021
3640 Clear 15 1020 44 10000 3.09 180 14:42 17.01.2021
3641 Clear 14 1020 44 10000 3.09 180 14:23 17.01.2021
3642 Clear 14 1021 41 10000 2.06 290 13:43 17.01.2021
3643 Clear 14 1021 41 10000 2.06 290 13:24 17.01.2021
3644 Clear 13 1022 44 10000 3.6 300 12:46 17.01.2021
3645 Clear 13 1022 43 10000 3.6 320 12:25 17.01.2021
3646 Clear 11 1023 50 10000 6.17 330 11:26 17.01.2021
3647 Clear 10 1023 53 10000 7.2 340 10:57 17.01.2021
3648 Clear 9 1023 53 10000 4.63 350 10:37 17.01.2021
3649 Clear 8 1023 53 10000 4.63 350 10:18 17.01.2021
3650 Clear 7 1022 57 10000 5.66 350 09:18 17.01.2021
3651 Clouds 7 1022 53 10000 4.63 350 08:41 17.01.2021
3652 Clouds 7 1023 75 10000 3.6 310 04:45 17.01.2021
3653 Clouds 7 1023 75 10000 4.63 320 04:27 17.01.2021
3654 Clouds 7 1025 70 10000 4.12 320 01:38 17.01.2021
3655 Clouds 7 1025 70 10000 4.63 320 00:37 17.01.2021
3656 Clouds 7 1025 65 10000 4.12 340 00:18 17.01.2021
3657 Clouds 7 1025 65 10000 4.12 340 23:46 16.01.2021
3658 Clouds 7 1026 70 10000 4.63 320 23:18 16.01.2021
3659 Clouds 8 1026 61 10000 3.6 300 22:27 16.01.2021
3660 Clear 8 1026 70 10000 5.14 320 21:58 16.01.2021
3661 Clear 9 1026 66 10000 5.14 330 21:24 16.01.2021
3662 Clear 8 1026 66 10000 4.63 330 20:53 16.01.2021
3663 Clear 9 1026 61 10000 2.57 330 20:29 16.01.2021
3664 Clear 9 1026 57 10000 3.09 350 19:50 16.01.2021
3665 Clear 9 1026 57 10000 3.09 350 19:31 16.01.2021
3666 Clear 10 1025 58 10000 0.51 0 18:49 16.01.2021
3667 Clear 10 1025 58 10000 0.51 0 18:28 16.01.2021
3668 Clear 10 1025 62 10000 2.38 292 17:59 16.01.2021
3669 Clear 11 1025 58 10000 1.03 220 17:40 16.01.2021
3670 Clear 11 1025 58 10000 1.03 220 17:21 16.01.2021
3671 Clear 11 1025 62 10000 2.57 200 16:44 16.01.2021
3672 Clear 12 1024 62 10000 4.12 220 16:21 16.01.2021
3673 Clear 12 1024 50 10000 2.57 240 15:43 16.01.2021
3674 Clear 12 1024 54 10000 3.6 310 14:53 16.01.2021
3675 Clear 11 1024 50 10000 2.57 310 14:18 16.01.2021
3676 Clear 11 1025 54 10000 2.57 310 13:47 16.01.2021
3677 Clear 10 1025 54 10000 4.12 310 13:19 16.01.2021
3678 Clear 10 1025 61 10000 5.14 330 12:38 16.01.2021
3679 Clear 9 1026 61 10000 5.66 330 12:20 16.01.2021
3680 Clear 9 1026 61 10000 5.66 330 11:46 16.01.2021
3681 Clear 7 1026 65 10000 6.17 330 11:24 16.01.2021
3682 Clear 7 1025 75 10000 5.66 320 10:43 16.01.2021
3683 Clear 6 1025 75 10000 6.69 320 09:59 16.01.2021
3684 Clear 6 1024 81 10000 6.17 320 09:31 16.01.2021
3685 Clear 5 1024 81 10000 6.17 330 08:32 16.01.2021
3686 Clear 5 1023 81 10000 6.17 320 07:28 16.01.2021
3687 Clear 5 1023 81 10000 5.14 330 06:43 16.01.2021
3688 Clouds 6 1022 87 10000 5.66 320 04:39 16.01.2021
3689 Clear 6 1021 81 10000 2.57 320 02:55 16.01.2021
3690 Clear 6 1021 87 10000 5.14 310 00:49 16.01.2021
3691 Clear 7 1021 87 10000 5.14 310 00:26 16.01.2021
3692 Clear 7 1021 87 10000 2.57 330 23:55 15.01.2021
3693 Clouds 7 1021 93 10000 3.09 320 22:56 15.01.2021
3694 Clouds 7 1021 93 10000 3.6 320 22:24 15.01.2021
3695 Clouds 6 1021 87 10000 3.09 330 21:46 15.01.2021
3696 Clouds 8 1021 87 10000 3.09 310 20:59 15.01.2021
3697 Clouds 7 1021 81 10000 1.03 0 20:40 15.01.2021
3698 Clouds 8 1021 81 10000 1.03 0 20:21 15.01.2021
3699 Clouds 8 1020 81 10000 3.09 70 19:40 15.01.2021
3700 Clouds 9 1020 81 10000 3.09 70 19:22 15.01.2021
3701 Clouds 9 1020 81 10000 4.12 70 18:43 15.01.2021
3702 Clouds 10 1020 76 10000 4.12 70 18:19 15.01.2021
3703 Clouds 11 1020 76 10000 5.14 60 17:51 15.01.2021
3704 Clouds 11 1020 71 10000 5.14 60 17:25 15.01.2021
3705 Clouds 11 1020 54 10000 3.09 20 16:54 15.01.2021
3706 Clouds 12 1020 54 10000 4.12 340 16:25 15.01.2021
3707 Clouds 11 1020 58 10000 4.63 310 15:43 15.01.2021
3708 Clouds 11 1020 58 10000 4.63 310 15:23 15.01.2021
3709 Clouds 11 1019 62 10000 3.6 340 14:51 15.01.2021
3710 Clouds 10 1020 62 10000 5.14 330 14:28 15.01.2021
3711 Clear 10 1020 57 10000 6.17 320 13:46 15.01.2021
3712 Clear 10 1021 61 10000 5.66 320 13:24 15.01.2021
3713 Clear 10 1021 66 10000 5.66 340 12:59 15.01.2021
3714 Clear 10 1021 61 10000 5.14 340 12:37 15.01.2021
3715 Clear 9 1021 61 10000 4.63 330 12:19 15.01.2021
3716 Clear 9 1021 61 10000 4.63 330 11:42 15.01.2021
3717 Clear 7 1021 65 10000 5.66 320 10:58 15.01.2021
3718 Clear 6 1021 70 10000 7.72 320 10:39 15.01.2021
3719 Clear 6 1021 70 10000 7.72 320 10:19 15.01.2021
3720 Clear 6 1021 75 10000 6.69 330 09:47 15.01.2021
3721 Clear 6 1021 81 10000 6.69 330 09:27 15.01.2021
3722 Clear 5 1020 75 10000 5.66 300 08:27 15.01.2021
3723 Clear 5 1021 81 10000 6.69 320 07:44 15.01.2021
3724 Clear 4 1020 75 10000 6.17 310 07:22 15.01.2021
3725 Clouds 5 1020 81 10000 7.2 300 06:35 15.01.2021
3726 Clear 5 1020 81 10000 5.14 330 02:43 15.01.2021
3727 Clear 6 1021 75 10000 5.66 310 00:41 15.01.2021
3728 Clear 6 1021 75 10000 4.12 290 23:30 14.01.2021
3729 Clear 6 1021 75 10000 5.66 310 22:57 14.01.2021
3730 Clear 6 1021 75 10000 5.14 300 22:37 14.01.2021
3731 Clear 6 1021 75 10000 5.14 300 22:19 14.01.2021
3732 Clear 6 1021 75 10000 6.17 330 21:39 14.01.2021
3733 Clear 6 1021 75 10000 6.17 330 21:20 14.01.2021
3734 Clear 6 1021 75 10000 4.12 330 20:47 14.01.2021
3735 Clear 6 1021 75 10000 3.6 320 20:18 14.01.2021
3736 Clear 6 1021 75 10000 3.6 320 20:18 14.01.2021
3737 Clear 6 1022 70 10000 4.12 320 19:38 14.01.2021
3738 Clear 6 1022 70 10000 4.12 320 19:18 14.01.2021
3739 Clear 6 1022 70 10000 3.09 300 18:45 14.01.2021
3740 Clear 7 1021 66 10000 4.63 330 17:59 14.01.2021
3741 Clear 7 1021 66 10000 4.63 330 17:41 14.01.2021
3742 Clear 8 1022 61 10000 6.17 330 17:23 14.01.2021
3743 Clear 9 1021 61 10000 7.72 330 16:39 14.01.2021
3744 Clear 9 1022 57 10000 7.2 330 15:56 14.01.2021
3745 Clear 10 1022 57 10000 7.72 330 15:38 14.01.2021
3746 Clear 10 1022 57 10000 7.2 320 14:58 14.01.2021
3747 Clear 10 1022 57 10000 6.69 330 14:36 14.01.2021
3748 Clear 10 1022 57 10000 6.69 330 14:18 14.01.2021
3749 Clear 10 1022 61 10000 7.72 330 13:47 14.01.2021
3750 Clear 10 1023 61 10000 8.23 330 13:19 14.01.2021
3751 Clear 8 1024 66 10000 8.23 320 12:38 14.01.2021
3752 Clear 8 1024 66 10000 8.23 320 12:18 14.01.2021
3753 Clear 8 1024 66 10000 8.75 330 11:41 14.01.2021
3754 Clear 7 1024 70 10000 8.75 330 11:20 14.01.2021
3755 Clear 7 1024 70 10000 8.75 330 10:49 14.01.2021
3756 Clear 6 1024 75 10000 8.75 330 10:22 14.01.2021
3757 Clear 5 1023 75 10000 8.75 330 09:44 14.01.2021
3758 Clear 5 1023 81 10000 8.75 330 09:22 14.01.2021
3759 Clear 5 1023 81 10000 8.75 330 08:48 14.01.2021
3760 Clear 5 1023 81 10000 7.72 320 08:22 14.01.2021
3761 Clear 5 1023 81 10000 7.72 320 07:45 14.01.2021
3762 Clouds 5 1023 81 10000 7.72 320 06:52 14.01.2021
3763 Clouds 5 1024 81 10000 8.23 320 05:46 14.01.2021
3764 Clear 7 1026 70 10000 8.23 310 00:45 14.01.2021
3765 Clear 7 1026 75 10000 8.23 320 23:54 13.01.2021
3766 Clear 7 1025 70 10000 7.72 320 23:23 13.01.2021
3767 Clear 7 1026 75 10000 8.23 320 22:29 13.01.2021
3768 Clear 7 1025 70 10000 8.23 320 21:57 13.01.2021
3769 Clear 7 1025 70 10000 9.26 320 21:38 13.01.2021
3770 Clear 8 1025 70 10000 7.72 320 20:59 13.01.2021
3771 Clear 7 1025 70 10000 7.2 320 20:37 13.01.2021
3772 Clear 7 1025 70 10000 7.2 320 20:18 13.01.2021
3773 Clear 8 1025 66 10000 8.75 320 19:42 13.01.2021
3774 Clear 8 1025 66 10000 8.75 320 19:20 13.01.2021
3775 Clear 8 1025 66 10000 9.26 320 18:41 13.01.2021
3776 Clear 9 1025 61 10000 7.2 310 17:51 13.01.2021
3777 Clear 10 1025 57 10000 6.69 320 17:26 13.01.2021
3778 Clear 10 1025 62 10000 6.17 330 16:58 13.01.2021
3779 Clear 11 1025 58 10000 6.69 330 16:22 13.01.2021
3780 Clear 11 1025 58 10000 7.2 330 16:22 13.01.2021
3781 Clear 11 1025 58 10000 6.69 330 15:59 13.01.2021
3782 Clear 11 1025 54 10000 6.69 330 15:39 13.01.2021
3783 Clear 11 1025 57 10000 6.69 330 14:49 13.01.2021
3784 Clear 10 1025 57 10000 6.69 340 13:58 13.01.2021
3785 Clear 10 1026 57 10000 7.72 340 13:37 13.01.2021
3786 Clear 10 1026 57 10000 7.72 340 13:18 13.01.2021
3787 Clear 9 1027 66 10000 7.2 320 12:43 13.01.2021
3788 Clear 8 1027 66 10000 7.2 320 12:22 13.01.2021
3789 Clear 8 1027 61 10000 7.72 330 11:47 13.01.2021
3790 Clear 7 1026 65 10000 7.2 320 11:26 13.01.2021
3791 Clear 6 1026 65 10000 7.2 320 10:43 13.01.2021
3792 Clear 6 1026 70 10000 7.2 320 10:24 13.01.2021
3793 Clear 5 1025 75 10000 6.69 320 09:38 13.01.2021
3794 Clear 4 1025 75 10000 5.66 320 08:57 13.01.2021
3795 Clear 4 1025 75 10000 6.69 310 08:33 13.01.2021
3796 Clear 4 1025 75 10000 6.17 320 07:53 13.01.2021
3797 Clear 4 1025 75 10000 6.17 310 07:24 13.01.2021
3798 Clear 4 1025 75 10000 5.66 310 04:21 13.01.2021
3799 Clear 4 1025 75 10000 5.66 330 03:52 13.01.2021
3800 Clear 4 1026 81 10000 5.14 340 03:31 13.01.2021
3801 Clear 4 1025 75 10000 6.17 330 02:53 13.01.2021
3802 Clear 4 1026 75 10000 5.14 320 00:38 13.01.2021
3803 Clear 4 1026 70 10000 5.14 320 23:33 12.01.2021
3804 Clear 4 1026 70 10000 6.17 330 22:47 12.01.2021
3805 Clear 4 1026 70 10000 6.69 330 22:26 12.01.2021
3806 Clear 4 1026 70 10000 6.17 340 21:58 12.01.2021
3807 Clear 4 1026 70 10000 6.69 340 21:40 12.01.2021
3808 Clear 4 1026 70 10000 6.69 340 21:20 12.01.2021
3809 Clear 4 1025 70 10000 5.66 330 20:44 12.01.2021
3810 Clear 4 1026 70 10000 6.69 340 20:25 12.01.2021
3811 Clear 5 1025 60 10000 5.66 330 19:39 12.01.2021
3812 Clear 5 1025 60 10000 5.66 340 18:54 12.01.2021
3813 Clear 6 1025 56 10000 5.14 340 18:25 12.01.2021
3814 Clear 6 1025 56 10000 6.17 330 17:57 12.01.2021
3815 Clear 6 1025 53 10000 5.14 330 17:33 12.01.2021
3816 Clear 7 1024 49 10000 6.17 340 16:45 12.01.2021
3817 Clear 8 1024 46 10000 6.17 340 16:27 12.01.2021
3818 Clear 8 1024 49 10000 7.2 340 15:50 12.01.2021
3819 Clear 8 1024 49 10000 7.2 340 15:27 12.01.2021
3820 Clear 8 1024 53 10000 7.72 350 14:55 12.01.2021
3821 Clear 8 1024 53 10000 7.72 340 14:36 12.01.2021
3822 Clear 7 1024 53 10000 7.72 340 14:18 12.01.2021
3823 Clear 8 1025 49 10000 8.23 340 13:43 12.01.2021
3824 Clear 7 1025 52 10000 6.69 330 12:38 12.01.2021
3825 Clear 6 1025 56 10000 6.69 330 11:55 12.01.2021
3826 Clear 5 1025 56 10000 8.23 330 11:36 12.01.2021
3827 Clear 4 1025 60 10000 7.2 320 10:44 12.01.2021
3828 Clear 3 1024 65 10000 6.69 310 10:20 12.01.2021
3829 Clear 3 1024 60 10000 8.75 320 09:54 12.01.2021
3830 Clear 2 1024 64 10000 9.77 310 09:24 12.01.2021
3831 Clear 2 1023 64 10000 9.26 320 08:39 12.01.2021
3832 Clear 2 1023 64 10000 9.26 320 08:20 12.01.2021
3833 Clear 2 1023 64 10000 6.69 320 07:34 12.01.2021
3834 Clear 3 1023 64 10000 8.23 310 06:20 12.01.2021
3835 Clear 3 1023 69 10000 7.2 310 05:26 12.01.2021
3836 Clear 2 1023 69 10000 6.69 320 03:24 12.01.2021
3837 Clear 2 1023 69 10000 8.23 320 02:18 12.01.2021
3838 Clear 2 1023 69 10000 8.75 320 01:25 12.01.2021
3839 Clear 2 1022 75 10000 7.72 310 23:46 11.01.2021
3840 Clear 2 1022 75 10000 7.72 330 23:23 11.01.2021
3841 Clear 2 1022 70 10000 7.72 320 22:52 11.01.2021
3842 Clear 2 1022 70 10000 7.72 330 22:33 11.01.2021
3843 Clear 2 1022 70 10000 7.2 330 21:56 11.01.2021
3844 Clear 2 1022 75 10000 7.2 320 21:37 11.01.2021
3845 Clear 2 1022 75 10000 7.2 320 21:18 11.01.2021
3846 Clear 2 1021 70 10000 6.17 330 20:40 11.01.2021
3847 Clear 2 1021 70 10000 6.17 330 20:22 11.01.2021
3848 Clear 2 1021 65 10000 6.17 320 19:53 11.01.2021
3849 Clear 4 1021 65 10000 6.17 320 19:24 11.01.2021
3850 Clear 4 1021 65 10000 5.66 320 18:45 11.01.2021
3851 Clear 4 1020 65 10000 5.14 330 18:25 11.01.2021
3852 Clear 6 1020 61 10000 5.14 310 17:44 11.01.2021
3853 Clear 6 1020 61 10000 5.14 310 17:25 11.01.2021
3854 Clear 7 1020 61 10000 4.63 320 16:55 11.01.2021
3855 Clouds 7 1020 57 10000 4.63 330 16:35 11.01.2021
3856 Clouds 8 1019 61 10000 5.14 320 15:59 11.01.2021
3857 Clouds 8 1019 61 10000 4.63 330 15:39 11.01.2021
3858 Clouds 8 1019 61 10000 4.12 320 15:19 11.01.2021
3859 Clouds 8 1019 61 10000 4.63 330 14:39 11.01.2021
3860 Clouds 8 1020 57 10000 4.63 340 13:49 11.01.2021
3861 Clouds 7 1020 65 10000 5.14 320 13:25 11.01.2021
3862 Clouds 7 1020 65 10000 5.14 320 12:46 11.01.2021
3863 Clouds 7 1021 70 10000 5.14 310 12:27 11.01.2021
3864 Clouds 7 1021 65 10000 4.63 330 11:56 11.01.2021
3865 Clouds 6 1021 70 10000 4.63 330 11:26 11.01.2021
3866 Clouds 5 1020 70 10000 4.12 330 10:47 11.01.2021
3867 Clouds 4 1020 75 10000 5.14 330 10:24 11.01.2021
3868 Clouds 3 1019 75 10000 4.63 320 09:42 11.01.2021
3869 Clouds 4 1019 75 10000 5.14 340 09:21 11.01.2021
3870 Clouds 3 1018 75 10000 4.63 340 08:44 11.01.2021
3871 Clouds 4 1018 75 10000 3.09 330 08:18 11.01.2021
3872 Clouds 4 1018 81 10000 4.63 340 07:27 11.01.2021
3873 Clouds 4 1017 81 10000 4.63 340 06:58 11.01.2021
3874 Clouds 5 1017 81 10000 5.14 330 03:57 11.01.2021
3875 Clouds 5 1016 81 10000 5.66 350 01:33 11.01.2021
3876 Clouds 5 1016 81 10000 5.14 350 00:34 11.01.2021
3877 Clouds 5 1016 81 10000 4.63 340 23:36 10.01.2021
3878 Clouds 5 1016 81 10000 3.09 340 22:49 10.01.2021
3879 Clouds 5 1016 87 10000 4.12 340 22:27 10.01.2021
3880 Clouds 5 1015 87 10000 4.63 340 21:46 10.01.2021
3881 Clouds 5 1015 81 10000 3.6 340 21:21 10.01.2021
3882 Clouds 6 1015 81 10000 4.12 330 20:57 10.01.2021
3883 Clouds 6 1014 87 10000 4.12 340 20:33 10.01.2021
3884 Clouds 7 1014 87 10000 3.6 340 19:58 10.01.2021
3885 Clouds 7 1014 93 10000 3.09 340 19:36 10.01.2021
3886 Clouds 7 1014 93 10000 3.09 340 19:18 10.01.2021
3887 Clouds 7 1013 87 10000 2.06 350 18:41 10.01.2021
3888 Clouds 7 1013 87 10000 2.06 350 18:19 10.01.2021
3889 Clouds 7 1013 93 10000 3.09 50 17:22 10.01.2021
3890 Clouds 7 1012 87 10000 2.57 340 16:43 10.01.2021
3891 Rain 7 1012 87 10000 2.57 340 16:25 10.01.2021
3892 Clouds 7 1011 87 10000 2.57 350 15:26 10.01.2021
3893 Clouds 7 1011 87 10000 3.09 360 14:52 10.01.2021
3894 Clouds 7 1011 87 10000 3.6 360 14:34 10.01.2021
3895 Clouds 7 1011 87 10000 3.09 350 13:55 10.01.2021
3896 Clouds 7 1011 87 10000 2.57 350 13:37 10.01.2021
3897 Clouds 7 1011 87 10000 2.57 350 13:37 10.01.2021
3898 Clouds 7 1011 87 10000 2.57 350 13:19 10.01.2021
3899 Rain 8 1011 93 10000 3.6 350 12:50 10.01.2021
3900 Rain 7 1011 93 10000 3.09 340 12:32 10.01.2021
3901 Clouds 8 1011 87 9000 3.09 340 11:48 10.01.2021
3902 Clouds 7 1011 87 10000 3.6 330 11:20 10.01.2021
3903 Rain 7 1010 87 10000 3.6 340 10:45 10.01.2021
3904 Rain 7 1010 87 10000 4.63 350 10:22 10.01.2021
3905 Rain 7 1009 76 10000 2.57 10 09:36 10.01.2021
3906 Clouds 7 1008 76 10000 4.12 30 08:23 10.01.2021
3907 Clouds 7 1007 66 10000 6.69 30 07:38 10.01.2021
3908 Clouds 7 1007 66 10000 5.66 20 06:21 10.01.2021
3909 Clouds 7 1007 70 10000 5.14 10 05:42 10.01.2021
3910 Clouds 7 1007 66 10000 6.69 30 03:57 10.01.2021
3911 Rain 6 1006 81 10000 7.2 20 01:30 10.01.2021
3912 Rain 7 1007 76 9000 8.75 50 23:59 09.01.2021
3913 Clouds 7 1006 71 10000 12.35 50 23:41 09.01.2021
3914 Rain 7 1006 71 10000 14.4 50 22:59 09.01.2021
3915 Clouds 7 1006 71 10000 12.86 50 22:20 09.01.2021
3916 Clouds 7 1006 71 10000 12.86 50 21:58 09.01.2021
3917 Clouds 7 1007 71 10000 12.86 50 21:39 09.01.2021
3918 Clouds 7 1007 71 10000 12.86 50 21:20 09.01.2021
3919 Clouds 7 1006 71 10000 13.38 60 20:54 09.01.2021
3920 Clouds 7 1005 76 10000 16.98 50 20:29 09.01.2021
3921 Clouds 7 1006 71 10000 14.4 50 19:39 09.01.2021
3922 Clouds 7 1006 71 10000 14.4 50 19:20 09.01.2021
3923 Clouds 7 1006 76 10000 13.38 50 18:37 09.01.2021
3924 Clouds 7 1005 76 10000 13.89 50 17:54 09.01.2021
3925 Clouds 7 1005 76 10000 13.38 60 17:34 09.01.2021
3926 Clouds 7 1006 81 10000 11.32 40 16:57 09.01.2021
3927 Clouds 7 1005 81 10000 11.83 50 16:23 09.01.2021
3928 Clouds 7 1005 76 10000 12.35 50 15:41 09.01.2021
3929 Clouds 7 1005 81 10000 13.38 50 15:21 09.01.2021
3930 Clouds 7 1005 81 9000 13.38 50 14:37 09.01.2021
3931 Rain 7 1005 81 9000 13.38 50 14:19 09.01.2021
3932 Clouds 6 1005 81 9000 13.38 50 13:44 09.01.2021
3933 Rain 6 1006 81 8000 11.83 50 13:25 09.01.2021
3934 Rain 7 1007 81 10000 11.83 50 12:28 09.01.2021
3935 Rain 7 1007 81 10000 11.32 50 11:58 09.01.2021
3936 Rain 6 1008 87 10000 7.72 40 11:38 09.01.2021
3937 Clouds 6 1008 87 10000 7.72 40 11:18 09.01.2021
3938 Rain 6 1007 87 7000 7.72 40 10:43 09.01.2021
3939 Rain 6 1007 87 7000 7.72 40 10:23 09.01.2021
3940 Rain 6 1007 87 7000 8.75 40 09:44 09.01.2021
3941 Rain 6 1007 87 7000 8.75 40 09:44 09.01.2021
3942 Rain 6 1007 87 7000 10.8 50 09:20 09.01.2021
3943 Rain 6 1006 87 10000 8.75 40 08:19 09.01.2021
3944 Rain 5 1006 93 9000 4.63 10 06:54 09.01.2021
3945 Rain 4 1006 93 9000 6.17 10 06:34 09.01.2021
3946 Rain 5 1008 87 10000 6.69 10 04:25 09.01.2021
3947 Rain 6 1008 65 10000 4.63 360 02:46 09.01.2021
3948 Drizzle 6 1009 60 10000 5.14 360 02:27 09.01.2021
3949 Clouds 5 1010 42 10000 5.66 20 01:25 09.01.2021
3950 Clouds 6 1011 42 10000 5.14 20 00:34 09.01.2021
3951 Clouds 6 1011 45 10000 5.66 20 23:49 08.01.2021
3952 Clouds 6 1011 65 10000 5.14 50 22:48 08.01.2021
3953 Clouds 6 1012 65 10000 3.09 20 21:54 08.01.2021
3954 Clouds 6 1011 65 10000 4.12 20 21:26 08.01.2021
3955 Clear 6 1012 65 10000 3.09 340 20:38 08.01.2021
3956 Clear 6 1012 65 10000 3.6 340 19:59 08.01.2021
3957 Clear 6 1012 65 10000 3.6 320 19:25 08.01.2021
3958 Clear 6 1012 65 10000 4.12 320 18:59 08.01.2021
3959 Clear 6 1011 65 10000 2.57 310 18:34 08.01.2021
3960 Clear 6 1011 65 10000 2.06 320 17:55 08.01.2021
3961 Clear 6 1011 61 10000 2.06 320 17:28 08.01.2021
3962 Clear 6 1012 61 10000 3.09 310 16:50 08.01.2021
3963 Clear 7 1012 57 10000 2.57 320 15:55 08.01.2021
3964 Clear 7 1012 57 10000 2.57 330 15:33 08.01.2021
3965 Clear 7 1012 61 10000 4.12 320 14:41 08.01.2021
3966 Clear 7 1012 61 10000 4.12 320 14:20 08.01.2021
3967 Clear 6 1013 60 10000 4.63 320 13:22 08.01.2021
3968 Clear 6 1014 60 10000 4.63 320 12:52 08.01.2021
3969 Clear 5 1014 65 10000 5.14 320 12:23 08.01.2021
3970 Clear 5 1014 65 10000 5.14 320 12:23 08.01.2021
3971 Clear 5 1015 65 10000 5.14 320 11:59 08.01.2021
3972 Clear 4 1015 70 10000 5.66 330 11:39 08.01.2021
3973 Clear 4 1015 70 10000 5.66 330 11:20 08.01.2021
3974 Clear 3 1015 80 10000 6.17 330 10:45 08.01.2021
3975 Clouds 2 1014 80 9000 6.17 320 09:57 08.01.2021
3976 Clouds 2 1014 80 9000 6.17 330 09:38 08.01.2021
3977 Clouds 1 1014 80 9000 6.17 330 09:19 08.01.2021
3978 Clear 2 1013 80 10000 6.17 330 07:43 08.01.2021
3979 Clear 2 1013 80 10000 5.66 330 07:24 08.01.2021
3980 Clear 2 1013 80 10000 5.66 330 07:24 08.01.2021
3981 Clouds 3 1013 75 10000 6.17 320 04:18 08.01.2021
3982 Clouds 5 1014 60 10000 5.66 340 23:43 07.01.2021
3983 Clouds 5 1014 65 9000 5.66 330 22:55 07.01.2021
3984 Clouds 5 1014 65 9000 3.6 320 22:36 07.01.2021
3985 Clouds 5 1014 70 9000 3.09 330 21:52 07.01.2021
3986 Clouds 5 1014 65 9000 5.14 330 21:33 07.01.2021
3987 Clouds 6 1014 70 9000 4.63 330 20:56 07.01.2021
3988 Clouds 6 1014 75 9000 3.09 340 20:37 07.01.2021
3989 Clouds 6 1014 75 9000 2.57 320 19:50 07.01.2021
3990 Clouds 6 1013 75 9000 0.51 360 19:30 07.01.2021
3991 Clouds 6 1013 65 9000 1.03 50 18:50 07.01.2021
3992 Clouds 7 1013 65 9000 1.03 50 18:21 07.01.2021
3993 Clouds 7 1013 65 10000 2.06 70 17:36 07.01.2021
3994 Clouds 7 1013 65 10000 2.06 70 17:18 07.01.2021
3995 Clouds 7 1012 65 10000 3.09 90 16:42 07.01.2021
3996 Clouds 7 1012 65 10000 3.6 80 16:18 07.01.2021
3997 Clouds 7 1012 61 10000 3.09 70 15:31 07.01.2021
3998 Clouds 7 1012 65 10000 4.12 60 14:39 07.01.2021
3999 Clouds 7 1012 65 10000 4.12 60 14:20 07.01.2021
4000 Clouds 7 1013 75 10000 3.09 50 13:31 07.01.2021
4001 Clouds 7 1012 69 10000 0.45 136 12:57 07.01.2021
4002 Clouds 7 1014 75 10000 3.6 330 12:29 07.01.2021
4003 Clouds 6 1014 75 10000 3.6 330 11:51 07.01.2021
4004 Clouds 6 1015 80 10000 3.6 330 11:30 07.01.2021
4005 Clouds 5 1015 80 10000 4.1 330 10:47 07.01.2021
4006 Clouds 5 1015 80 10000 3.6 330 10:19 07.01.2021
4007 Clouds 4 1014 86 10000 3.6 330 09:44 07.01.2021
4008 Drizzle 4 1014 86 10000 4.6 330 09:18 07.01.2021
4009 Drizzle 4 1014 86 10000 3.6 330 08:26 07.01.2021
4010 Drizzle 4 1014 86 8000 4.6 330 07:45 07.01.2021
4011 Drizzle 4 1014 86 7000 4.6 320 06:59 07.01.2021
4012 Clouds 5 1015 69 10000 5.1 330 03:35 07.01.2021
4013 Clouds 4 1015 69 10000 4.6 330 00:27 07.01.2021
4014 Clouds 4 1016 64 10000 4.1 330 23:36 06.01.2021
4015 Clouds 5 1016 64 10000 5.7 330 22:37 06.01.2021
4016 Clouds 5 1016 60 10000 5.1 320 21:43 06.01.2021
4017 Clouds 5 1015 65 10000 4.1 330 21:23 06.01.2021
4018 Clouds 5 1015 65 10000 4.1 330 20:51 06.01.2021
4019 Clouds 5 1015 80 10000 3.1 320 20:24 06.01.2021
4020 Clouds 6 1015 80 10000 3.1 320 19:49 06.01.2021
4021 Clouds 6 1015 80 10000 2.6 310 19:30 06.01.2021
4022 Clouds 6 1014 59 10000 2.6 290 18:59 06.01.2021
4023 Clouds 6 1014 65 10000 1 270 18:39 06.01.2021
4024 Clouds 7 1014 61 10000 1 250 18:18 06.01.2021
4025 Clouds 8 1014 57 10000 1 0 17:42 06.01.2021
4026 Clouds 9 1014 57 10000 1 0 17:21 06.01.2021
4027 Clouds 9 1014 57 10000 1.5 180 16:41 06.01.2021
4028 Clouds 9 1014 57 10000 1.5 180 16:19 06.01.2021
4029 Clouds 9 1013 53 10000 1.5 170 15:50 06.01.2021
4030 Clouds 9 1013 54 10000 1.5 170 15:28 06.01.2021
4031 Clouds 9 1014 57 10000 0.65 296 14:44 06.01.2021
4032 Clouds 9 1014 57 10000 1.1 319 14:20 06.01.2021
4033 Clouds 8 1014 56 10000 3.6 320 13:42 06.01.2021
4034 Clouds 7 1014 56 10000 3.6 320 13:21 06.01.2021
4035 Clouds 6 1014 60 10000 4.1 330 12:47 06.01.2021
4036 Clouds 5 1015 64 10000 6.2 330 11:51 06.01.2021
4037 Clouds 5 1015 69 10000 6.2 330 11:25 06.01.2021
4038 Clouds 4 1015 74 10000 7.2 320 10:56 06.01.2021
4039 Clouds 3 1014 80 10000 7.2 330 10:18 06.01.2021
4040 Clouds 2 1014 80 10000 7.2 330 09:47 06.01.2021
4041 Clouds 1 1013 69 10000 7.7 330 08:57 06.01.2021
4042 Clouds 1 1013 69 10000 7.7 320 08:26 06.01.2021
4043 Clouds 1 1013 70 10000 6.7 330 07:54 06.01.2021
4044 Clouds 1 1013 70 10000 5.7 320 06:46 06.01.2021
4045 Clouds 1 1012 69 10000 6.2 330 05:32 06.01.2021
4046 Clouds 1 1012 68 10000 6.2 330 04:34 06.01.2021
4047 Clouds 1 1012 80 10000 5.1 340 02:46 06.01.2021
4048 Clouds 1 1012 80 10000 5.7 330 02:23 06.01.2021
4049 Clouds 3 1012 74 10000 6.2 340 00:31 06.01.2021
4050 Clouds 3 1012 74 10000 6.2 330 23:28 05.01.2021
4051 Clouds 3 1012 74 10000 5.7 340 22:41 05.01.2021
4052 Clouds 4 1012 74 10000 5.7 340 22:20 05.01.2021
4053 Clouds 4 1012 74 10000 5.1 340 21:52 05.01.2021
4054 Clouds 4 1011 60 10000 2.6 320 20:49 05.01.2021
4055 Clouds 5 1011 59 10000 2.6 320 20:25 05.01.2021
4056 Clouds 5 1011 75 10000 3.6 280 19:44 05.01.2021
4057 Clouds 6 1011 75 10000 3.6 280 19:21 05.01.2021
4058 Clouds 7 1011 65 10000 1.5 170 18:43 05.01.2021
4059 Clouds 7 1011 65 10000 2.6 180 18:24 05.01.2021
4060 Drizzle 7 1010 70 10000 2.6 200 17:50 05.01.2021
4061 Drizzle 7 1010 70 10000 2.6 200 17:27 05.01.2021
4062 Clouds 7 1010 65 10000 3.1 200 16:53 05.01.2021
4063 Clouds 8 1010 61 10000 2.6 170 16:22 05.01.2021
4064 Clouds 8 1010 61 10000 3.1 170 15:50 05.01.2021
4065 Clouds 8 1010 58 10000 2.1 180 15:25 05.01.2021
4066 Clouds 8 1010 58 10000 2.1 120 14:41 05.01.2021
4067 Clouds 8 1010 59 10000 0.67 252 13:51 05.01.2021
4068 Clouds 8 1010 56 10000 3.6 330 13:30 05.01.2021
4069 Clouds 7 1010 56 10000 3.6 330 12:50 05.01.2021
4070 Clouds 7 1011 56 10000 4.6 320 12:28 05.01.2021
4071 Clouds 6 1011 65 10000 5.7 330 11:40 05.01.2021
4072 Clouds 5 1011 65 10000 5.7 330 11:22 05.01.2021
4073 Clouds 5 1011 65 10000 5.7 330 11:21 05.01.2021
4074 Clouds 4 1010 80 10000 5.1 320 10:44 05.01.2021
4075 Clouds 3 1010 80 10000 5.1 330 09:58 05.01.2021
4076 Clouds 3 1010 80 10000 5.7 330 09:38 05.01.2021
4077 Clouds 3 1009 80 10000 5.1 330 08:42 05.01.2021
4078 Clouds 3 1009 80 10000 6.2 330 08:18 05.01.2021
4079 Clouds 3 1009 80 10000 4.1 320 05:29 05.01.2021
4080 Clouds 4 1009 74 10000 1.5 330 02:56 05.01.2021
4081 Clouds 4 1009 74 10000 3.1 310 00:23 05.01.2021
4082 Clouds 5 1009 74 10000 2.1 340 23:40 04.01.2021
4083 Clouds 5 1009 74 10000 2.1 340 23:21 04.01.2021
4084 Clouds 5 1009 64 10000 2.1 330 22:45 04.01.2021
4085 Clouds 5 1009 56 10000 1 0 21:58 04.01.2021
4086 Clouds 6 1008 56 10000 1 0 21:39 04.01.2021
4087 Clouds 6 1008 52 10000 0.5 0 20:58 04.01.2021
4088 Clouds 6 1008 56 10000 2.1 360 20:34 04.01.2021
4089 Clouds 7 1008 52 10000 4.08 309 19:59 04.01.2021
4090 Clouds 7 1008 56 10000 1 0 19:40 04.01.2021
4091 Clouds 7 1008 52 10000 2.1 240 19:19 04.01.2021
4092 Clouds 7 1008 52 10000 4.1 260 18:40 04.01.2021
4093 Clouds 8 1007 42 10000 3.6 290 17:48 04.01.2021
4094 Clouds 9 1007 42 10000 3.6 290 17:28 04.01.2021
4095 Clouds 9 1007 39 10000 5.1 290 16:58 04.01.2021
4096 Clouds 10 1007 37 10000 5.1 310 16:39 04.01.2021
4097 Clouds 10 1007 37 10000 6.2 290 16:21 04.01.2021
4098 Clouds 10 1007 37 10000 4.6 300 15:47 04.01.2021
4099 Clouds 9 1007 39 10000 4.6 310 14:55 04.01.2021
4100 Clouds 9 1008 51 10000 4.6 330 13:57 04.01.2021
4101 Clouds 8 1008 54 10000 5.1 340 13:35 04.01.2021
4102 Clouds 8 1009 55 10000 5.1 330 12:53 04.01.2021
4103 Clouds 7 1009 58 10000 4.1 330 12:27 04.01.2021
4104 Clouds 6 1010 58 10000 4.6 320 11:40 04.01.2021
4105 Clouds 6 1010 62 10000 4.6 320 11:18 04.01.2021
4106 Clouds 5 1010 74 10000 5.1 330 10:44 04.01.2021
4107 Clouds 4 1010 74 10000 5.1 330 10:22 04.01.2021
4108 Clouds 3 1010 74 10000 6.7 330 09:36 04.01.2021
4109 Clouds 3 1010 74 10000 6.7 330 09:18 04.01.2021
4110 Clouds 4 1010 74 10000 5.1 330 08:22 04.01.2021
4111 Clouds 3 1010 74 10000 5.1 320 07:47 04.01.2021
4112 Clouds 3 1010 74 10000 5.7 330 05:37 04.01.2021
4113 Clouds 2 1010 74 10000 3.6 340 05:19 04.01.2021
4114 Clouds 2 1010 80 10000 4.6 310 02:26 04.01.2021
4115 Clouds 3 1011 74 10000 4.6 340 00:24 04.01.2021
4116 Clouds 3 1011 69 10000 4.6 330 23:38 03.01.2021
4117 Clouds 4 1011 69 10000 3.6 330 22:58 03.01.2021
4118 Clouds 3 1011 64 10000 3.6 330 22:39 03.01.2021
4119 Clouds 5 1011 64 10000 3.6 330 22:21 03.01.2021
4120 Clouds 4 1010 74 10000 2.6 330 21:41 03.01.2021
4121 Clouds 4 1010 74 10000 2.6 330 21:23 03.01.2021
4122 Clouds 5 1010 69 10000 2.1 320 20:41 03.01.2021
4123 Clouds 5 1010 69 10000 2.1 320 20:19 03.01.2021
4124 Clouds 5 1010 50 10000 1 350 19:47 03.01.2021
4125 Clouds 5 1010 49 10000 1 350 19:28 03.01.2021
4126 Clouds 7 1010 52 10000 2.81 306 18:50 03.01.2021
4127 Clouds 7 1010 49 10000 2.1 250 18:30 03.01.2021
4128 Clear 8 1009 45 10000 2.6 210 17:53 03.01.2021
4129 Clear 8 1009 45 10000 2.6 210 17:29 03.01.2021
4130 Clear 9 1009 45 10000 3.1 190 16:57 03.01.2021
4131 Clear 9 1009 45 10000 3.6 210 16:38 03.01.2021
4132 Clear 9 1009 45 10000 3.6 210 16:18 03.01.2021
4133 Clear 9 1009 45 10000 4.1 220 15:41 03.01.2021
4134 Clear 9 1009 49 10000 3.6 200 15:19 03.01.2021
4135 Clear 9 1009 42 10000 3.6 200 14:41 03.01.2021
4136 Clear 8 1010 39 10000 3.1 210 13:57 03.01.2021
4137 Clear 8 1010 42 10000 3.1 320 13:37 03.01.2021
4138 Clear 8 1010 42 10000 3.1 320 13:19 03.01.2021
4139 Clear 6 1011 48 10000 5.7 330 11:46 03.01.2021
4140 Clear 5 1011 48 10000 5.7 330 11:27 03.01.2021
4141 Clear 4 1011 51 10000 5.1 320 10:57 03.01.2021
4142 Clear 4 1011 51 10000 4.6 310 10:32 03.01.2021
4143 Clear 4 1010 51 10000 4.6 340 09:49 03.01.2021
4144 Clear 4 1010 51 10000 4.6 340 09:25 03.01.2021
4145 Clear 4 1010 51 10000 4.6 330 08:29 03.01.2021
4146 Clouds 4 1009 51 10000 4.6 330 06:57 03.01.2021
4147 Clouds 5 1008 48 10000 6.2 330 03:29 03.01.2021
4148 Clouds 6 1008 48 10000 5.1 330 02:26 03.01.2021
4149 Clouds 7 1008 70 10000 2.6 330 00:27 03.01.2021
4150 Clouds 7 1008 70 10000 2.1 330 23:52 02.01.2021
4151 Clouds 7 1007 60 10000 2.6 340 23:19 02.01.2021
4152 Clouds 7 1007 60 10000 2.1 330 22:47 02.01.2021
4153 Clouds 7 1007 56 10000 2.1 330 22:28 02.01.2021
4154 Clouds 6 1007 56 10000 2.6 310 21:48 02.01.2021
4155 Clouds 6 1007 53 10000 2.6 310 21:28 02.01.2021
4156 Clouds 7 1007 53 10000 3.1 290 20:45 02.01.2021
4157 Clouds 7 1007 51 10000 3.1 290 20:25 02.01.2021
4158 Clear 7 1006 51 10000 2.1 310 19:46 02.01.2021
4159 Clear 7 1006 49 10000 2.1 310 19:20 02.01.2021
4160 Clear 7 1006 49 10000 2.1 310 19:20 02.01.2021
4161 Clear 7 1006 49 10000 3.6 330 18:47 02.01.2021
4162 Clear 7 1006 49 10000 3.6 330 18:29 02.01.2021
4163 Clear 7 1006 49 10000 4.6 330 17:46 02.01.2021
4164 Clear 8 1006 48 10000 4.6 330 17:28 02.01.2021
4165 Clear 8 1005 61 10000 5.1 330 16:44 02.01.2021
4166 Clear 8 1005 61 10000 5.1 330 16:21 02.01.2021
4167 Clear 9 1005 49 10000 3.6 310 15:44 02.01.2021
4168 Clear 9 1005 50 10000 3.6 310 15:25 02.01.2021
4169 Clear 9 1005 50 10000 4.6 330 14:39 02.01.2021
4170 Clear 9 1005 52 10000 4.6 330 14:21 02.01.2021
4171 Clear 8 1006 52 10000 5.7 320 13:40 02.01.2021
4172 Clear 7 1006 54 10000 6.2 330 12:54 02.01.2021
4173 Clear 7 1006 65 10000 6.7 330 12:32 02.01.2021
4174 Clear 6 1006 57 10000 5.7 320 11:59 02.01.2021
4175 Clear 6 1006 61 10000 6.7 310 11:26 02.01.2021
4176 Clear 5 1006 61 10000 7.2 320 10:59 02.01.2021
4177 Clear 4 1006 69 10000 6.7 310 10:35 02.01.2021
4178 Clear 4 1005 69 10000 6.2 320 09:59 02.01.2021
4179 Clear 4 1005 74 10000 6.7 310 09:39 02.01.2021
4180 Clear 3 1005 74 10000 6.7 310 09:19 02.01.2021
4181 Clouds 4 1005 74 10000 5.1 300 08:41 02.01.2021
4182 Clouds 4 1005 74 10000 5.1 300 08:19 02.01.2021
4183 Clouds 3 1005 74 10000 3.6 300 07:24 02.01.2021
4184 Clouds 3 1005 74 10000 3.6 310 06:57 02.01.2021
4185 Clouds 3 1005 74 10000 3.1 290 05:55 02.01.2021
4186 Clouds 6 1005 61 10000 2.1 340 01:58 02.01.2021
4187 Clouds 7 1005 56 10000 4.1 290 00:38 02.01.2021
4188 Clouds 7 1005 65 10000 4.6 290 23:58 01.01.2021
4189 Clouds 8 1005 70 10000 1.5 300 23:24 01.01.2021
4190 Clouds 7 1005 70 10000 1.5 300 22:57 01.01.2021
4191 Clouds 7 1005 70 10000 1.5 300 22:57 01.01.2021
4192 Clouds 7 1005 70 10000 0.5 0 22:37 01.01.2021
4193 Clouds 8 1005 70 10000 0.5 0 22:18 01.01.2021
4194 Clouds 8 1005 75 10000 2.1 300 21:42 01.01.2021
4195 Clouds 8 1005 75 10000 2.1 320 21:20 01.01.2021
4196 Clouds 8 1005 75 10000 2.6 330 20:50 01.01.2021
4197 Clouds 8 1005 75 10000 3.6 330 20:18 01.01.2021
4198 Clouds 8 1005 75 10000 2.6 350 19:42 01.01.2021
4199 Clouds 8 1005 75 10000 2.6 350 19:22 01.01.2021
4200 Clouds 8 1005 75 10000 2.6 310 18:46 01.01.2021
4201 Clouds 8 1005 75 10000 2.6 310 18:27 01.01.2021
4202 Clouds 8 1005 75 10000 3.6 300 17:48 01.01.2021
4203 Clouds 8 1004 75 10000 3.6 300 17:23 01.01.2021
4204 Clouds 9 1004 81 10000 1.5 280 16:51 01.01.2021
4205 Clouds 9 1004 81 10000 1.5 280 16:26 01.01.2021
4206 Clouds 9 1004 81 10000 3.1 330 15:42 01.01.2021
4207 Clouds 8 1004 81 10000 2.6 340 14:50 01.01.2021
4208 Clouds 9 1003 75 10000 2.6 300 14:31 01.01.2021
4209 Clouds 8 1004 81 10000 4.1 330 13:40 01.01.2021
4210 Clouds 8 1004 81 10000 4.1 330 13:20 01.01.2021
4211 Rain 8 1005 87 6000 4.1 340 12:36 01.01.2021
4212 Rain 8 1005 87 6000 4.1 340 12:18 01.01.2021
4213 Rain 8 1005 81 4000 2.6 340 11:39 01.01.2021
4214 Clouds 8 1005 75 10000 5.7 320 11:18 01.01.2021
4215 Clouds 7 1005 70 10000 5.1 310 10:34 01.01.2021
4216 Clouds 7 1005 81 10000 4.6 340 09:46 01.01.2021
4217 Clouds 7 1005 81 10000 3.6 330 08:54 01.01.2021
4218 Clouds 7 1005 75 10000 3.6 330 08:25 01.01.2021
4219 Clouds 7 1005 81 10000 3.6 340 04:52 01.01.2021
4220 Clouds 8 1006 70 10000 1 310 02:26 01.01.2021
4221 Clouds 9 1007 66 10000 1 330 00:41 01.01.2021
4222 Clouds 9 1007 66 10000 1.5 320 00:21 01.01.2021
4223 Clear 10 1008 61 10000 3.6 280 23:22 31.12.2020
4224 Clear 10 1008 61 10000 3.6 280 22:58 31.12.2020
4225 Clear 10 1008 61 10000 2.6 300 22:38 31.12.2020
4226 Clear 10 1008 61 10000 2.6 300 22:19 31.12.2020
4227 Clear 10 1008 61 10000 2.1 320 21:47 31.12.2020
4228 Clear 10 1008 61 10000 2.1 300 21:47 31.12.2020
4229 Clear 10 1008 61 10000 2.1 300 21:23 31.12.2020
4230 Clear 10 1009 66 10000 3.1 300 20:49 31.12.2020
4231 Clear 10 1009 66 10000 3.1 300 20:18 31.12.2020
4232 Clear 10 1009 57 10000 2.1 260 19:46 31.12.2020
4233 Clear 10 1009 57 10000 2.1 260 19:24 31.12.2020
4234 Clouds 11 1009 53 10000 3.6 250 18:44 31.12.2020
4235 Clouds 11 1009 53 10000 3.6 250 18:24 31.12.2020
4236 Clouds 11 1009 54 10000 7.2 240 17:44 31.12.2020
4237 Clouds 11 1009 54 10000 7.2 240 17:23 31.12.2020
4238 Clouds 12 1009 50 10000 8.2 240 16:43 31.12.2020
4239 Clouds 12 1009 50 10000 8.2 240 16:22 31.12.2020
4240 Clouds 12 1010 54 10000 7.2 230 15:46 31.12.2020
4241 Clouds 12 1010 54 10000 8.2 230 15:22 31.12.2020
4242 Clouds 12 1010 54 10000 8.2 230 14:56 31.12.2020
4243 Clear 12 1010 54 10000 8.2 220 14:38 31.12.2020
4244 Clear 12 1011 43 10000 6.2 240 14:20 31.12.2020
4245 Clear 12 1011 47 10000 5.7 250 13:39 31.12.2020
4246 Clouds 12 1012 50 10000 5.7 230 13:20 31.12.2020
4247 Clouds 11 1012 50 10000 5.7 230 12:53 31.12.2020
4248 Clear 11 1012 50 10000 3.6 240 12:35 31.12.2020
4249 Clear 10 1013 53 10000 3.1 280 11:52 31.12.2020
4250 Clear 10 1013 57 10000 2.6 280 11:32 31.12.2020
4251 Clear 8 1013 70 10000 3.6 310 10:50 31.12.2020
4252 Clear 8 1013 70 10000 3.6 310 10:29 31.12.2020
4253 Clear 7 1013 70 10000 4.1 250 09:58 31.12.2020
4254 Clear 6 1013 75 10000 3.6 320 09:36 31.12.2020
4255 Clear 6 1013 64 10000 2.1 300 08:51 31.12.2020
4256 Clear 6 1013 65 10000 2.1 300 08:33 31.12.2020
4257 Clear 6 1013 80 10000 1.5 320 07:59 31.12.2020
4258 Clouds 5 1013 80 10000 1.5 290 07:33 31.12.2020
4259 Clear 6 1013 75 10000 3.6 330 06:29 31.12.2020
4260 Clear 5 1013 75 10000 2.6 340 05:29 31.12.2020
4261 Clear 6 1014 70 10000 2.1 300 02:57 31.12.2020
4262 Clear 6 1014 70 10000 3.1 310 02:25 31.12.2020
4263 Clouds 7 1014 61 10000 2.6 320 01:48 31.12.2020
4264 Clouds 7 1014 61 10000 2.6 320 01:27 31.12.2020
4265 Clouds 7 1014 61 10000 3.6 330 00:48 31.12.2020
4266 Clouds 8 1014 61 10000 2.6 320 23:53 30.12.2020
4267 Clouds 8 1014 61 10000 2.6 310 23:20 30.12.2020
4268 Clouds 8 1014 61 10000 2.1 300 22:51 30.12.2020
4269 Clouds 8 1014 57 10000 1.5 290 22:31 30.12.2020
4270 Clouds 9 1013 53 10000 1 0 21:47 30.12.2020
4271 Clouds 9 1013 53 10000 1 0 21:25 30.12.2020
4272 Clouds 9 1013 53 10000 2.6 180 20:51 30.12.2020
4273 Clouds 9 1013 57 10000 4.1 310 20:22 30.12.2020
4274 Clouds 10 1012 50 10000 2.6 300 19:41 30.12.2020
4275 Clouds 10 1012 50 10000 2.6 300 19:23 30.12.2020
4276 Clouds 10 1012 50 10000 3.6 290 18:49 30.12.2020
4277 Clouds 10 1012 50 10000 3.6 290 18:30 30.12.2020
4278 Clouds 10 1011 54 10000 8.2 320 17:52 30.12.2020
4279 Clouds 11 1011 51 10000 8.2 320 17:33 30.12.2020
4280 Clouds 11 1011 51 10000 9.3 310 16:59 30.12.2020
4281 Clouds 11 1011 47 10000 9.3 300 16:35 30.12.2020
4282 Clouds 11 1011 47 10000 7.7 310 15:48 30.12.2020
4283 Clouds 11 1010 43 10000 6.2 310 15:26 30.12.2020
4284 Clouds 12 1010 43 10000 9.3 310 14:44 30.12.2020
4285 Clouds 12 1010 44 10000 9.3 310 14:25 30.12.2020
4286 Clear 12 1010 44 10000 8.2 320 13:52 30.12.2020
4287 Clear 11 1010 50 10000 8.7 320 12:47 30.12.2020
4288 Clear 9 1010 51 10000 9.8 320 12:22 30.12.2020
4289 Clear 8 1010 51 10000 10.8 320 11:39 30.12.2020
4290 Clear 8 1010 56 10000 10.8 320 11:20 30.12.2020
4291 Clear 8 1010 56 10000 9.3 320 10:54 30.12.2020
4292 Clear 7 1010 56 10000 9.3 310 10:35 30.12.2020
4293 Clear 6 1010 60 10000 6.7 310 09:53 30.12.2020
4294 Clouds 6 1009 60 10000 5.7 310 09:35 30.12.2020
4295 Clouds 5 1008 64 10000 3.6 320 08:35 30.12.2020
4296 Clouds 6 1007 60 10000 5.1 290 07:32 30.12.2020
4297 Clouds 6 1007 56 10000 2.1 250 06:54 30.12.2020
4298 Clouds 6 1006 60 10000 4.6 320 06:35 30.12.2020
4299 Clouds 6 1006 56 10000 8.2 320 05:46 30.12.2020
4300 Clouds 6 1005 56 10000 9.8 310 05:27 30.12.2020
4301 Clouds 6 1005 56 10000 5.7 310 03:29 30.12.2020
4302 Clouds 7 1005 56 10000 6.7 310 02:47 30.12.2020
4303 Clouds 7 1005 52 10000 6.2 300 02:28 30.12.2020
4304 Clouds 7 1005 52 10000 4.1 290 01:42 30.12.2020
4305 Clouds 7 1005 52 10000 4.1 290 01:23 30.12.2020
4306 Clouds 7 1004 61 10000 5.1 290 00:37 30.12.2020
4307 Clouds 7 1004 59 10000 5.7 300 23:59 29.12.2020
4308 Clouds 7 1004 52 10000 4.6 310 23:40 29.12.2020
4309 Clouds 8 1004 52 10000 4.6 310 23:22 29.12.2020
4310 Clouds 8 1004 52 10000 0.5 100 22:44 29.12.2020
4311 Clouds 8 1004 52 10000 0.5 100 22:23 29.12.2020
4312 Clouds 8 1003 49 10000 1 0 21:52 29.12.2020
4313 Clouds 9 1003 49 10000 3.1 300 21:34 29.12.2020
4314 Clouds 9 1003 46 10000 5.1 290 20:55 29.12.2020
4315 Clouds 9 1003 54 10000 7.2 270 20:36 29.12.2020
4316 Clouds 9 1002 53 10000 4.1 280 20:18 29.12.2020
4317 Clouds 10 1002 53 10000 6.2 280 19:38 29.12.2020
4318 Clouds 10 1002 54 10000 6.2 280 19:20 29.12.2020
4319 Clouds 10 1001 53 10000 6.2 270 18:46 29.12.2020
4320 Clouds 11 1001 51 10000 6.2 270 18:27 29.12.2020
4321 Clouds 11 1001 40 10000 8.2 280 17:44 29.12.2020
4322 Clouds 11 1001 40 10000 8.2 280 17:20 29.12.2020
4323 Clouds 11 1000 47 10000 9.8 290 16:46 29.12.2020
4324 Clouds 12 1000 45 10000 9.8 290 16:24 29.12.2020
4325 Clear 12 1000 37 10000 10.3 270 15:37 29.12.2020
4326 Clear 12 1000 35 10000 8.7 280 15:18 29.12.2020
4327 Clear 12 1000 35 10000 9.3 270 14:37 29.12.2020
4328 Clear 12 1000 35 10000 9.3 270 14:19 29.12.2020
4329 Clear 12 1000 46 10000 8.7 290 13:48 29.12.2020
4330 Clear 11 1000 53 10000 6.2 250 13:23 29.12.2020
4331 Clear 11 1000 49 10000 6.2 280 12:42 29.12.2020
4332 Clear 10 1000 55 10000 6.2 280 12:23 29.12.2020
4333 Clear 10 1001 55 10000 4.6 290 11:56 29.12.2020
4334 Clear 10 1001 55 10000 4.1 270 11:31 29.12.2020
4335 Clear 9 1000 53 10000 5.7 270 10:37 29.12.2020
4336 Clouds 8 1000 61 10000 6.2 280 09:50 29.12.2020
4337 Clouds 8 999 61 10000 4.1 260 09:28 29.12.2020
4338 Clouds 8 999 61 10000 4.1 260 08:55 29.12.2020
4339 Clouds 8 999 61 10000 5.1 270 08:36 29.12.2020
4340 Clear 8 999 60 10000 0.5 0 07:30 29.12.2020
4341 Clear 9 999 60 10000 4.1 310 06:48 29.12.2020
4342 Clear 9 998 59 10000 7.2 270 05:33 29.12.2020
4343 Clear 10 999 43 10000 8.2 260 01:27 29.12.2020
4344 Clouds 10 998 43 10000 9.8 260 00:24 29.12.2020
4345 Clouds 11 998 43 10000 9.3 260 23:36 28.12.2020
4346 Clouds 11 998 43 10000 8.2 260 22:30 28.12.2020
4347 Clouds 11 997 51 10000 8.7 250 21:47 28.12.2020
4348 Clouds 11 997 49 10000 8.7 250 21:29 28.12.2020
4349 Clouds 11 997 43 10000 8.7 230 20:46 28.12.2020
4350 Clouds 11 997 43 10000 8.7 230 20:28 28.12.2020
4351 Clouds 11 997 43 10000 5.7 230 19:58 28.12.2020
4352 Clouds 11 996 46 10000 8.2 260 19:38 28.12.2020
4353 Clouds 11 996 45 10000 8.2 260 19:20 28.12.2020
4354 Clouds 11 996 43 10000 6.7 230 18:43 28.12.2020
4355 Clouds 11 996 40 10000 7.7 260 18:21 28.12.2020
4356 Clouds 11 996 40 10000 8.2 270 17:39 28.12.2020
4357 Clouds 12 996 37 10000 7.2 270 17:18 28.12.2020
4358 Clouds 12 995 35 10000 10.8 270 16:32 28.12.2020
4359 Clouds 12 995 37 10000 7.2 280 15:58 28.12.2020
4360 Clear 12 994 35 10000 8.7 290 15:38 28.12.2020
4361 Clouds 12 994 37 10000 6.7 300 14:43 28.12.2020
4362 Clouds 12 994 37 10000 8.2 300 13:51 28.12.2020
4363 Clouds 11 994 40 10000 10.3 300 13:23 28.12.2020
4364 Clear 11 994 37 10000 10.8 310 12:38 28.12.2020
4365 Clear 11 994 40 10000 10.3 310 12:19 28.12.2020
4366 Clear 10 994 53 10000 6.7 310 11:44 28.12.2020
4367 Clouds 9 993 57 10000 6.2 310 11:18 28.12.2020
4368 Clouds 9 993 53 10000 7.7 300 10:42 28.12.2020
4369 Clouds 9 993 53 10000 7.7 300 10:23 28.12.2020
4370 Clouds 8 993 57 10000 3.1 300 09:45 28.12.2020
4371 Clouds 8 992 57 10000 0.5 90 09:18 28.12.2020
4372 Clouds 9 990 57 10000 8.2 260 06:55 28.12.2020
4373 Clouds 10 990 61 10000 4.6 270 05:57 28.12.2020
4374 Clear 9 991 49 10000 1.5 20 04:22 28.12.2020
4375 Clear 9 993 39 10000 2.6 310 01:57 28.12.2020
4376 Clear 8 995 48 10000 1 0 00:30 28.12.2020
4377 Clear 9 996 56 10000 3.6 340 23:45 27.12.2020
4378 Clear 8 997 48 10000 4.1 310 23:18 27.12.2020
4379 Clear 8 998 65 10000 4.1 300 21:56 27.12.2020
4380 Clear 8 998 70 10000 4.1 280 21:25 27.12.2020
4381 Clear 8 1000 70 10000 4.6 240 20:42 27.12.2020
4382 Clear 8 1001 70 10000 5.1 260 19:25 27.12.2020
4383 Clear 8 1002 66 10000 5.1 250 18:57 27.12.2020
4384 Clear 9 1003 61 10000 6.2 250 18:38 27.12.2020
4385 Clear 9 1003 57 10000 7.7 250 18:18 27.12.2020
4386 Clear 9 1004 57 10000 6.2 260 17:43 27.12.2020
4387 Clear 9 1004 57 10000 6.2 260 17:22 27.12.2020
4388 Clear 9 1005 53 10000 5.7 250 16:32 27.12.2020
4389 Clear 9 1006 53 10000 4.6 240 15:50 27.12.2020
4390 Clear 10 1008 50 10000 8.2 260 14:59 27.12.2020
4391 Clear 10 1008 50 10000 7.7 250 14:38 27.12.2020
4392 Clear 9 1009 50 10000 7.7 250 13:55 27.12.2020
4393 Clear 9 1010 57 10000 2.1 290 13:22 27.12.2020
4394 Clear 8 1012 52 10000 2.1 320 12:43 27.12.2020
4395 Clear 7 1013 56 10000 3.6 330 11:56 27.12.2020
4396 Clouds 6 1014 56 10000 4.1 320 11:35 27.12.2020
4397 Clouds 6 1014 59 10000 5.1 330 10:51 27.12.2020
4398 Clouds 4 1014 74 10000 4.1 330 10:24 27.12.2020
4399 Clouds 4 1015 80 10000 4.6 330 09:47 27.12.2020
4400 Clouds 3 1015 74 10000 5.1 340 08:39 27.12.2020
4401 Clouds 4 1016 74 10000 5.1 330 08:20 27.12.2020
4402 Clouds 4 1016 74 10000 6.2 330 07:26 27.12.2020
4403 Clouds 4 1017 69 10000 5.7 330 05:44 27.12.2020
4404 Clouds 4 1018 69 10000 6.2 320 04:25 27.12.2020
4405 Clouds 4 1019 69 10000 7.2 330 03:20 27.12.2020
4406 Clouds 5 1020 64 10000 5.1 340 01:34 27.12.2020
4407 Clouds 6 1021 64 10000 4.6 330 00:24 27.12.2020
4408 Clouds 6 1021 60 10000 4.6 340 23:32 26.12.2020
4409 Clouds 6 1021 60 10000 4.1 330 22:57 26.12.2020
4410 Clear 6 1021 64 10000 1.5 280 22:36 26.12.2020
4411 Clear 7 1021 64 10000 1.5 280 22:18 26.12.2020
4412 Clear 7 1022 60 10000 1.5 260 22:18 26.12.2020
4413 Clear 6 1022 60 10000 1.5 260 21:43 26.12.2020
4414 Clear 7 1022 60 10000 1.5 260 21:22 26.12.2020
4415 Clear 7 1022 52 10000 2.1 290 20:42 26.12.2020
4416 Clear 7 1022 52 10000 2.1 290 20:19 26.12.2020
4417 Clear 8 1022 45 10000 4.1 310 19:27 26.12.2020
4418 Clear 8 1022 39 10000 3.6 330 18:53 26.12.2020
4419 Clear 8 1021 39 10000 6.2 320 18:29 26.12.2020
4420 Clear 9 1021 42 10000 5.1 330 17:42 26.12.2020
4421 Clear 9 1021 42 10000 5.1 330 17:21 26.12.2020
4422 Clear 10 1021 29 10000 4.1 300 16:37 26.12.2020
4423 Clear 11 1021 30 10000 2.6 210 15:52 26.12.2020
4424 Clear 12 1021 30 10000 2.6 210 15:19 26.12.2020
4425 Clear 12 1021 24 10000 2.1 250 14:29 26.12.2020
4426 Clear 12 1022 22 10000 2.1 330 13:54 26.12.2020
4427 Clear 12 1022 27 10000 4.6 320 13:32 26.12.2020
4428 Clear 10 1022 31 10000 5.7 330 12:53 26.12.2020
4429 Clear 9 1022 31 10000 5.7 330 12:30 26.12.2020
4430 Clouds 9 1023 31 10000 5.7 330 11:58 26.12.2020
4431 Clouds 9 1023 31 10000 6.2 320 11:39 26.12.2020
4432 Clouds 8 1023 31 10000 6.2 320 11:18 26.12.2020
4433 Clouds 7 1023 31 10000 6.7 320 10:42 26.12.2020
4434 Clouds 7 1023 31 10000 6.7 320 10:22 26.12.2020
4435 Clear 6 1022 35 10000 6.2 310 09:39 26.12.2020
4436 Clear 5 1022 38 10000 2.6 310 08:41 26.12.2020
4437 Clear 6 1022 38 10000 2.6 310 08:18 26.12.2020
4438 Clear 6 1021 35 10000 5.1 300 07:20 26.12.2020
4439 Clear 7 1021 41 10000 2.6 320 03:54 26.12.2020
4440 Clear 7 1020 45 10000 5.1 310 02:34 26.12.2020
4441 Clear 7 1021 39 10000 5.1 320 00:34 26.12.2020
4442 Clear 7 1022 33 10000 5.1 310 23:49 25.12.2020
4443 Clear 7 1022 33 10000 5.1 310 23:28 25.12.2020
4444 Clear 7 1022 33 10000 9.3 310 22:51 25.12.2020
4445 Clouds 7 1022 28 10000 6.2 310 22:26 25.12.2020
4446 Clouds 7 1022 28 10000 5.1 300 21:42 25.12.2020
4447 Clouds 8 1022 28 10000 5.1 300 21:23 25.12.2020
4448 Clouds 8 1022 24 10000 5.1 330 20:44 25.12.2020
4449 Clouds 8 1022 24 10000 5.1 330 20:26 25.12.2020
4450 Clear 8 1021 28 10000 7.2 320 19:42 25.12.2020
4451 Clear 8 1021 26 10000 6.2 320 18:47 25.12.2020
4452 Clear 9 1021 26 10000 4.1 320 18:29 25.12.2020
4453 Clear 10 1020 25 10000 7.7 320 17:35 25.12.2020
4454 Clear 11 1020 23 10000 5.1 330 16:51 25.12.2020
4455 Clear 11 1020 23 10000 5.1 330 16:24 25.12.2020
4456 Clouds 12 1019 22 10000 6.2 340 15:50 25.12.2020
4457 Clouds 12 1019 22 10000 8.2 360 15:31 25.12.2020
4458 Clouds 12 1019 27 10000 6.2 330 14:32 25.12.2020
4459 Clouds 12 1019 32 10000 8.2 330 13:57 25.12.2020
4460 Clouds 12 1019 30 10000 8.7 330 13:37 25.12.2020
4461 Clouds 11 1019 40 10000 6.7 330 13:18 25.12.2020
4462 Clouds 11 1020 43 10000 7.2 340 12:28 25.12.2020
4463 Clouds 10 1020 50 10000 5.7 340 11:50 25.12.2020
4464 Clouds 9 1020 57 10000 4.6 330 11:25 25.12.2020
4465 Clouds 9 1019 65 10000 6.7 320 10:49 25.12.2020
4466 Clouds 8 1020 70 10000 6.2 310 10:21 25.12.2020
4467 Clouds 8 1019 75 10000 6.2 330 09:27 25.12.2020
4468 Clouds 8 1019 75 10000 6.2 330 09:27 25.12.2020
4469 Clouds 7 1019 81 10000 5.1 330 08:45 25.12.2020
4470 Clouds 7 1019 81 10000 7.2 320 07:45 25.12.2020
4471 Clouds 7 1018 75 10000 5.1 330 06:44 25.12.2020
4472 Clouds 8 1018 66 10000 4.1 330 02:47 25.12.2020
4473 Clouds 9 1019 70 10000 3.6 310 00:48 25.12.2020
4474 Clouds 9 1019 66 10000 3.1 300 23:58 24.12.2020
4475 Clouds 10 1020 70 10000 4.1 310 23:22 24.12.2020
4476 Clouds 10 1020 62 10000 3.6 300 22:37 24.12.2020
4477 Clouds 11 1020 62 10000 3.6 300 22:18 24.12.2020
4478 Clouds 11 1020 66 10000 2.6 290 21:32 24.12.2020
4479 Clouds 11 1020 71 10000 3.1 350 20:20 24.12.2020
4480 Clouds 12 1020 71 10000 2.6 290 18:39 24.12.2020
4481 Clouds 12 1020 71 10000 2.6 290 18:18 24.12.2020
4482 Clouds 12 1020 82 10000 3.1 250 17:36 24.12.2020
4483 Clouds 13 1020 76 10000 3.1 220 16:28 24.12.2020
4484 Clouds 13 1020 71 10000 3.6 220 15:59 24.12.2020
4485 Clouds 13 1021 71 10000 3.1 210 15:41 24.12.2020
4486 Clouds 14 1021 71 10000 2.6 190 15:19 24.12.2020
4487 Clouds 14 1021 71 10000 2.6 160 14:42 24.12.2020
4488 Clouds 13 1021 71 10000 2.6 160 14:23 24.12.2020
4489 Clouds 14 1022 71 10000 2.6 140 13:41 24.12.2020
4490 Clouds 14 1022 71 10000 2.1 150 13:21 24.12.2020
4491 Clouds 13 1022 76 10000 0.5 310 12:41 24.12.2020
4492 Clouds 13 1022 76 10000 0.5 310 12:21 24.12.2020
4493 Clouds 13 1023 76 10000 1.5 290 11:39 24.12.2020
4494 Clouds 13 1023 76 10000 1.5 290 11:20 24.12.2020
4495 Clouds 13 1023 76 10000 1.5 290 11:20 24.12.2020
4496 Clouds 13 1022 87 8000 0.5 280 10:51 24.12.2020
4497 Clouds 12 1022 81 8000 2.6 100 10:32 24.12.2020
4498 Clouds 12 1022 87 8000 2.6 90 09:52 24.12.2020
4499 Clouds 12 1022 87 8000 3.6 40 09:24 24.12.2020
4500 Clouds 11 1021 93 10000 2.1 350 08:20 24.12.2020
4501 Clouds 11 1021 87 10000 2.6 340 07:39 24.12.2020
4502 Clouds 11 1021 87 10000 2.6 340 07:18 24.12.2020
4503 Clouds 11 1020 87 9000 4.6 340 04:28 24.12.2020
4504 Fog 11 1020 100 750 2.6 340 01:56 24.12.2020
4505 Fog 11 1020 100 750 2.6 340 01:56 24.12.2020
4506 Fog 11 1020 100 750 2.6 330 01:36 24.12.2020
4507 Clouds 11 1021 93 6000 3.1 330 01:18 24.12.2020
4508 Clouds 11 1021 93 7000 1.5 320 00:21 24.12.2020
4509 Clouds 11 1021 93 9000 3.1 300 23:46 23.12.2020
4510 Clouds 11 1021 93 9000 3.1 300 23:26 23.12.2020
4511 Clouds 11 1021 93 10000 3.6 240 22:55 23.12.2020
4512 Clouds 12 1021 93 10000 2.6 250 22:30 23.12.2020
4513 Clouds 13 1021 93 10000 4.1 250 21:52 23.12.2020
4514 Clouds 13 1021 87 10000 1.5 290 21:27 23.12.2020
4515 Clouds 13 1021 87 9000 3.1 240 20:54 23.12.2020
4516 Clouds 13 1021 87 9000 3.6 240 20:36 23.12.2020
4517 Clouds 13 1021 87 9000 4.1 230 20:18 23.12.2020
4518 Clouds 13 1021 93 10000 4.1 250 19:39 23.12.2020
4519 Clouds 13 1021 87 10000 5.1 250 19:20 23.12.2020
4520 Clouds 14 1021 87 10000 5.7 230 18:48 23.12.2020
4521 Clouds 14 1021 87 10000 5.7 230 18:24 23.12.2020
4522 Clouds 14 1021 87 10000 5.7 230 17:39 23.12.2020
4523 Clouds 14 1021 87 10000 5.7 230 17:39 23.12.2020
4524 Clouds 14 1021 87 10000 5.7 230 17:39 23.12.2020
4525 Clouds 15 1021 82 10000 6.7 230 17:20 23.12.2020
4526 Clouds 15 1021 82 10000 6.2 230 16:47 23.12.2020
4527 Clouds 15 1021 82 10000 6.2 230 16:29 23.12.2020
4528 Clouds 15 1021 82 10000 5.7 230 15:56 23.12.2020
4529 Clouds 16 1021 87 10000 6.2 220 15:30 23.12.2020
4530 Clouds 16 1022 82 10000 5.7 220 14:59 23.12.2020
4531 Clouds 16 1022 82 10000 6.2 240 14:39 23.12.2020
4532 Clouds 16 1022 77 10000 6.2 230 14:20 23.12.2020
4533 Clouds 15 1023 82 10000 5.1 220 13:44 23.12.2020
4534 Clouds 15 1023 82 10000 5.1 220 13:20 23.12.2020
4535 Clouds 15 1023 82 10000 4.6 240 12:54 23.12.2020
4536 Clouds 14 1023 82 10000 4.6 240 12:30 23.12.2020
4537 Clouds 14 1024 82 10000 6.2 230 11:54 23.12.2020
4538 Clouds 14 1024 82 10000 1.5 320 11:27 23.12.2020
4539 Clouds 13 1024 82 10000 1.5 320 10:52 23.12.2020
4540 Mist 12 1023 93 4500 2.6 240 10:33 23.12.2020
4541 Clouds 12 1023 87 10000 1.5 310 09:37 23.12.2020
4542 Clouds 11 1023 87 10000 2.1 310 08:52 23.12.2020
4543 Clouds 11 1023 87 10000 2.1 310 08:23 23.12.2020
4544 Clouds 11 1023 87 10000 3.1 270 07:48 23.12.2020
4545 Clouds 11 1023 93 10000 2.6 270 06:42 23.12.2020
4546 Clouds 11 1023 93 9000 3.1 290 05:58 23.12.2020
4547 Clouds 10 1023 93 9000 3.1 290 05:22 23.12.2020
4548 Clear 11 1024 93 10000 1.5 300 01:57 23.12.2020
4549 Clear 12 1025 87 10000 2.1 270 00:32 23.12.2020
4550 Clear 12 1025 87 10000 5.1 230 23:43 22.12.2020
4551 Clear 12 1025 87 10000 5.1 230 23:22 22.12.2020
4552 Clear 12 1025 87 10000 3.6 240 22:42 22.12.2020
4553 Clear 12 1025 87 10000 3.6 240 22:24 22.12.2020
4554 Clear 12 1025 87 10000 4.1 240 21:52 22.12.2020
4555 Clear 12 1025 87 10000 4.6 230 21:21 22.12.2020
4556 Clear 13 1025 87 10000 5.1 230 20:54 22.12.2020
4557 Clear 13 1025 87 10000 4.6 220 20:35 22.12.2020
4558 Clear 13 1025 82 10000 5.1 220 19:59 22.12.2020
4559 Clouds 13 1025 76 10000 4.6 220 19:41 22.12.2020
4560 Clouds 13 1025 82 10000 4.6 230 19:20 22.12.2020
4561 Clouds 14 1025 82 10000 5.1 220 18:44 22.12.2020
4562 Clouds 14 1025 82 10000 5.1 220 18:24 22.12.2020
4563 Clouds 15 1025 82 10000 5.7 230 17:41 22.12.2020
4564 Clear 16 1025 77 10000 6.7 230 17:18 22.12.2020
4565 Clear 16 1025 77 10000 6.7 230 16:47 22.12.2020
4566 Clear 16 1025 72 10000 6.7 230 16:21 22.12.2020
4567 Clear 16 1025 72 10000 6.7 230 15:48 22.12.2020
4568 Clear 16 1025 72 10000 6.7 230 15:48 22.12.2020
4569 Clear 16 1025 72 10000 7.7 220 15:29 22.12.2020
4570 Clear 16 1025 77 10000 6.7 230 14:58 22.12.2020
4571 Clear 16 1026 77 10000 5.7 230 14:40 22.12.2020
4572 Clear 16 1026 77 10000 5.7 230 14:21 22.12.2020
4573 Clear 16 1026 77 10000 5.7 230 13:45 22.12.2020
4574 Clear 15 1027 72 10000 4.1 240 13:19 22.12.2020
4575 Clear 15 1027 72 10000 4.1 240 12:53 22.12.2020
4576 Clear 15 1027 71 10000 1.5 260 12:34 22.12.2020
4577 Clear 13 1028 71 10000 2.1 330 11:58 22.12.2020
4578 Clear 13 1028 71 10000 3.1 320 11:39 22.12.2020
4579 Clear 12 1028 71 10000 3.1 320 11:20 22.12.2020
4580 Clear 12 1027 76 10000 4.1 320 10:53 22.12.2020
4581 Clear 11 1027 81 10000 4.1 320 10:24 22.12.2020
4582 Clear 11 1027 87 10000 4.1 320 09:57 22.12.2020
4583 Clear 10 1027 81 10000 4.1 320 09:24 22.12.2020
4584 Clear 10 1027 81 10000 4.1 320 08:53 22.12.2020
4585 Clear 10 1027 81 10000 4.1 320 08:53 22.12.2020
4586 Clear 10 1027 81 10000 4.6 320 08:32 22.12.2020
4587 Clear 10 1027 87 10000 4.1 320 07:56 22.12.2020
4588 Clear 10 1027 87 10000 4.1 320 07:56 22.12.2020
4589 Clear 10 1027 87 10000 5.1 320 07:19 22.12.2020
4590 Clear 10 1027 87 10000 5.1 320 05:51 22.12.2020
4591 Clear 10 1028 87 10000 4.6 320 03:46 22.12.2020
4592 Clear 11 1028 76 10000 4.6 330 01:44 22.12.2020
4593 Clear 11 1028 81 10000 3.1 330 23:56 21.12.2020
4594 Clear 11 1028 81 10000 3.6 340 23:38 21.12.2020
4595 Clear 11 1028 76 10000 3.1 330 23:18 21.12.2020
4596 Clear 11 1028 76 10000 3.1 330 22:36 21.12.2020
4597 Clear 11 1028 76 10000 3.1 330 22:18 21.12.2020
4598 Clear 12 1028 81 10000 3.1 320 21:42 21.12.2020
4599 Clear 12 1027 81 10000 2.1 330 21:24 21.12.2020
4600 Clear 12 1027 87 10000 2.6 330 20:43 21.12.2020
4601 Clear 12 1027 87 10000 2.6 330 20:20 21.12.2020
4602 Clear 12 1027 87 10000 1.5 310 19:46 21.12.2020
4603 Clear 13 1027 87 10000 2.6 270 19:20 21.12.2020
4604 Clear 13 1027 87 10000 2.6 270 18:57 21.12.2020
4605 Clear 13 1026 87 10000 4.1 260 18:39 21.12.2020
4606 Clear 13 1026 87 10000 4.1 260 18:20 21.12.2020
4607 Clear 14 1026 82 10000 6.2 250 17:42 21.12.2020
4608 Clear 14 1026 82 10000 6.2 250 17:22 21.12.2020
4609 Clear 15 1026 76 10000 7.2 240 16:41 21.12.2020
4610 Clear 15 1026 77 10000 7.2 240 16:19 21.12.2020
4611 Clear 15 1026 72 10000 7.2 230 15:41 21.12.2020
4612 Clear 15 1025 67 10000 6.2 230 14:58 21.12.2020
4613 Clear 15 1026 67 10000 6.7 220 14:23 21.12.2020
4614 Clear 15 1026 62 10000 7.7 220 13:55 21.12.2020
4615 Clear 15 1026 67 10000 6.7 220 13:37 21.12.2020
4616 Clear 15 1026 67 10000 7.2 230 13:18 21.12.2020
4617 Clear 14 1027 71 10000 1.5 290 12:42 21.12.2020
4618 Clear 13 1027 71 10000 1.5 290 12:19 21.12.2020
4619 Clear 12 1027 76 10000 3.1 320 11:43 21.12.2020
4620 Clear 12 1027 76 10000 3.1 320 11:22 21.12.2020
4621 Clear 12 1027 81 10000 3.1 310 10:57 21.12.2020
4622 Clear 12 1027 81 10000 3.1 310 10:39 21.12.2020
4623 Clear 10 1027 87 10000 3.1 320 09:56 21.12.2020
4624 Clear 10 1027 87 10000 2.6 320 09:38 21.12.2020
4625 Clear 10 1027 87 10000 2.6 320 09:20 21.12.2020
4626 Clear 10 1026 93 10000 3.6 310 08:26 21.12.2020
4627 Clouds 10 1026 87 10000 3.1 330 07:19 21.12.2020
4628 Clear 10 1026 87 10000 2.6 330 05:39 21.12.2020
4629 Clear 10 1027 87 10000 4.6 330 04:30 21.12.2020
4630 Clouds 11 1027 81 10000 4.1 340 00:37 21.12.2020
4631 Clouds 11 1027 81 10000 4.1 330 23:50 20.12.2020
4632 Clouds 11 1027 87 10000 4.6 330 23:21 20.12.2020
4633 Clouds 12 1026 81 10000 4.1 330 22:45 20.12.2020
4634 Clouds 12 1026 81 10000 4.1 330 22:25 20.12.2020
4635 Clouds 12 1026 81 10000 4.1 330 21:58 20.12.2020
4636 Clouds 12 1025 81 10000 4.1 330 21:38 20.12.2020
4637 Clouds 12 1025 81 10000 4.1 330 21:18 20.12.2020
4638 Clouds 12 1025 76 10000 3.1 340 20:44 20.12.2020
4639 Clouds 12 1025 76 10000 3.1 340 20:21 20.12.2020
4640 Clouds 13 1024 81 10000 2.6 320 19:43 20.12.2020
4641 Clouds 13 1024 81 10000 2.6 320 19:24 20.12.2020
4642 Clouds 13 1024 82 10000 0.5 320 18:54 20.12.2020
4643 Clouds 13 1024 82 10000 1 70 18:36 20.12.2020
4644 Clouds 14 1023 76 10000 2.6 60 17:55 20.12.2020
4645 Clouds 14 1023 72 10000 2.1 80 17:36 20.12.2020
4646 Clouds 14 1023 72 10000 2.6 60 17:18 20.12.2020
4647 Clouds 14 1022 67 10000 2.6 60 16:43 20.12.2020
4648 Clouds 14 1022 67 10000 2.6 60 16:23 20.12.2020
4649 Clouds 15 1022 63 10000 3.1 20 15:40 20.12.2020
4650 Clouds 15 1022 63 10000 3.1 20 15:22 20.12.2020
4651 Clouds 15 1021 67 10000 5.1 320 14:45 20.12.2020
4652 Clouds 15 1021 67 10000 5.1 320 14:27 20.12.2020
4653 Clouds 15 1021 67 10000 5.7 320 13:44 20.12.2020
4654 Clouds 15 1021 67 10000 5.7 320 13:23 20.12.2020
4655 Clouds 15 1021 67 10000 6.2 310 12:51 20.12.2020
4656 Clouds 14 1022 71 10000 5.7 330 12:23 20.12.2020
4657 Clouds 13 1022 81 10000 4.1 320 11:51 20.12.2020
4658 Clouds 13 1022 81 10000 4.1 320 11:26 20.12.2020
4659 Clouds 13 1022 81 10000 4.1 320 10:49 20.12.2020
4660 Clouds 12 1021 81 10000 3.1 310 10:22 20.12.2020
4661 Clear 11 1021 87 10000 3.1 310 09:57 20.12.2020
4662 Clear 11 1020 87 10000 3.1 320 09:37 20.12.2020
4663 Clear 11 1020 87 10000 3.1 320 09:19 20.12.2020
4664 Clouds 11 1020 87 10000 3.6 320 08:48 20.12.2020
4665 Clouds 11 1020 87 10000 3.6 320 08:29 20.12.2020
4666 Clouds 11 1019 93 10000 3.1 340 07:22 20.12.2020
4667 Clouds 12 1019 93 9000 3.1 330 04:42 20.12.2020
4668 Clouds 12 1020 93 9000 1 0 01:30 20.12.2020
4669 Clouds 11 1020 93 10000 2.6 320 00:20 20.12.2020
4670 Clouds 11 1020 93 10000 1 310 23:18 19.12.2020
4671 Clouds 12 1020 93 10000 1 310 22:44 19.12.2020
4672 Clouds 12 1020 93 10000 1 320 22:25 19.12.2020
4673 Clouds 12 1020 93 10000 1 320 21:58 19.12.2020
4674 Clouds 13 1020 87 10000 2.45 247 21:40 19.12.2020
4675 Clouds 13 1020 87 10000 2.59 250 21:21 19.12.2020
4676 Clouds 13 1020 87 10000 0.5 0 20:40 19.12.2020
4677 Clouds 13 1020 87 10000 1 0 20:18 19.12.2020
4678 Clouds 13 1020 87 10000 1 0 19:50 19.12.2020
4679 Clouds 13 1019 87 10000 2.1 230 19:29 19.12.2020
4680 Clouds 13 1019 87 10000 3.6 230 18:38 19.12.2020
4681 Clouds 13 1019 87 10000 4.1 240 18:20 19.12.2020
4682 Clouds 14 1019 82 10000 5.1 230 17:45 19.12.2020
4683 Clouds 14 1019 82 10000 5.1 230 17:23 19.12.2020
4684 Clouds 15 1019 77 10000 5.1 220 16:44 19.12.2020
4685 Clouds 15 1019 77 10000 5.1 220 16:26 19.12.2020
4686 Clouds 15 1019 77 10000 5.7 230 15:55 19.12.2020
4687 Clouds 15 1019 77 10000 6.7 230 15:34 19.12.2020
4688 Clouds 16 1019 77 10000 6.7 240 14:43 19.12.2020
4689 Clouds 15 1019 77 10000 7.2 230 14:22 19.12.2020
4690 Clouds 15 1019 77 10000 8.7 230 13:41 19.12.2020
4691 Clouds 15 1019 77 10000 8.7 230 13:20 19.12.2020
4692 Clouds 14 1020 82 10000 6.2 230 12:44 19.12.2020
4693 Clouds 14 1020 82 10000 6.2 230 12:26 19.12.2020
4694 Clouds 13 1020 87 10000 2.6 270 11:58 19.12.2020
4695 Clouds 13 1021 87 7000 2.1 290 11:40 19.12.2020
4696 Mist 12 1020 100 3500 1.5 320 10:45 19.12.2020
4697 Mist 12 1020 100 3500 1.5 320 10:27 19.12.2020
4698 Fog 11 1020 100 2700 2.1 320 09:56 19.12.2020
4699 Mist 11 1020 100 2700 1.5 320 09:38 19.12.2020
4700 Mist 11 1020 100 3300 1 310 08:37 19.12.2020
4701 Mist 11 1020 93 3500 0.5 0 07:53 19.12.2020
4702 Mist 11 1020 100 3500 2.1 340 07:18 19.12.2020
4703 Mist 11 1020 100 3100 1 320 06:39 19.12.2020
4704 Mist 12 1020 100 1600 0.5 0 05:19 19.12.2020
4705 Mist 12 1020 100 2500 2.1 320 03:28 19.12.2020
4706 Mist 13 1021 93 5000 0.5 0 00:41 19.12.2020
4707 Mist 13 1021 100 5000 2.1 320 00:18 19.12.2020
4708 Mist 13 1021 100 5000 1.5 300 23:48 18.12.2020
4709 Mist 13 1021 100 5000 1.5 300 23:24 18.12.2020
4710 Clouds 13 1021 93 6000 2.1 310 22:47 18.12.2020
4711 Clouds 13 1021 93 7000 2.1 320 22:24 18.12.2020
4712 Clouds 13 1021 100 7000 1 310 21:51 18.12.2020
4713 Clouds 13 1022 93 9000 1.5 310 21:31 18.12.2020
4714 Clouds 14 1022 100 9000 1 0 20:43 18.12.2020
4715 Clouds 14 1022 100 9000 1 0 20:23 18.12.2020
4716 Clouds 14 1021 93 10000 1 170 19:46 18.12.2020
4717 Clouds 14 1021 93 10000 1 170 19:22 18.12.2020
4718 Clouds 14 1021 93 10000 1.5 150 18:45 18.12.2020
4719 Clouds 14 1021 93 10000 1.5 150 18:26 18.12.2020
4720 Clouds 14 1021 87 10000 2.6 150 17:36 18.12.2020
4721 Clouds 15 1021 87 10000 3.1 150 16:59 18.12.2020
4722 Clouds 15 1021 87 10000 2.6 140 16:40 18.12.2020
4723 Clouds 15 1021 93 10000 2.6 140 16:20 18.12.2020
4724 Clouds 15 1021 93 10000 2.6 140 15:51 18.12.2020
4725 Clouds 15 1021 93 10000 2.6 130 15:33 18.12.2020
4726 Clouds 15 1021 87 10000 1.5 140 14:57 18.12.2020
4727 Clouds 15 1022 93 10000 2.1 160 14:26 18.12.2020
4728 Clouds 15 1023 93 10000 0.5 0 13:53 18.12.2020
4729 Clouds 15 1023 93 10000 0.5 0 13:32 18.12.2020
4730 Clouds 15 1023 93 10000 2.1 330 12:58 18.12.2020
4731 Clouds 14 1023 100 8000 2.1 330 12:38 18.12.2020
4732 Clouds 14 1024 93 8000 1 20 11:29 18.12.2020
4733 Clouds 14 1024 93 8000 0.5 340 10:45 18.12.2020
4734 Clouds 14 1023 100 8000 1 0 10:24 18.12.2020
4735 Clouds 14 1023 93 8000 2.6 360 09:59 18.12.2020
4736 Clouds 14 1023 100 8000 3.6 300 09:37 18.12.2020
4737 Clouds 14 1023 100 8000 3.1 330 09:19 18.12.2020
4738 Clouds 13 1023 100 8000 3.1 330 08:46 18.12.2020
4739 Clouds 13 1023 93 7000 2.6 330 08:20 18.12.2020
4740 Clouds 14 1023 93 6000 2.6 330 07:20 18.12.2020
4741 Clouds 14 1023 93 6000 2.6 330 06:59 18.12.2020
4742 Clouds 13 1023 100 6000 3.6 300 05:45 18.12.2020
4743 Clouds 13 1023 100 6000 3.6 300 05:26 18.12.2020
4744 Clouds 13 1023 100 4000 3.6 310 04:42 18.12.2020
4745 Clouds 13 1023 93 10000 2.6 340 01:47 18.12.2020
4746 Clouds 14 1023 87 10000 2.6 350 00:38 18.12.2020
4747 Clouds 14 1023 93 10000 2.6 360 23:54 17.12.2020
4748 Clouds 14 1023 93 10000 3.1 50 23:25 17.12.2020
4749 Clouds 14 1023 93 10000 3.1 50 22:49 17.12.2020
4750 Clouds 14 1023 93 10000 3.6 60 22:28 17.12.2020
4751 Clouds 14 1023 87 10000 3.6 50 21:47 17.12.2020
4752 Clouds 14 1023 87 10000 3.6 50 21:47 17.12.2020
4753 Clouds 14 1023 87 10000 3.6 50 21:47 17.12.2020
4754 Clouds 14 1023 87 10000 3.6 50 21:22 17.12.2020
4755 Clouds 14 1023 87 10000 4.1 60 20:55 17.12.2020
4756 Clouds 14 1023 87 10000 4.6 60 20:37 17.12.2020
4757 Clouds 14 1023 82 10000 4.6 60 20:18 17.12.2020
4758 Clouds 14 1023 82 10000 4.1 70 19:44 17.12.2020
4759 Clouds 15 1023 82 10000 4.1 70 19:22 17.12.2020
4760 Clouds 15 1022 87 10000 4.1 60 18:41 17.12.2020
4761 Clouds 15 1022 87 10000 4.1 60 18:22 17.12.2020
4762 Clouds 15 1022 87 10000 4.6 70 18:22 17.12.2020
4763 Clouds 15 1022 87 10000 5.1 70 17:51 17.12.2020
4764 Clouds 15 1022 87 10000 5.1 70 17:32 17.12.2020
4765 Clouds 15 1022 87 10000 5.7 60 16:44 17.12.2020
4766 Clouds 16 1022 87 10000 5.7 60 16:24 17.12.2020
4767 Clouds 15 1022 82 10000 5.1 60 15:52 17.12.2020
4768 Clouds 16 1022 82 10000 5.7 60 15:30 17.12.2020
4769 Clouds 15 1022 87 10000 6.2 60 14:54 17.12.2020
4770 Clouds 15 1022 87 10000 4.6 50 14:31 17.12.2020
4771 Clouds 15 1022 77 10000 4.6 60 13:52 17.12.2020
4772 Clouds 15 1022 72 10000 2.6 350 13:33 17.12.2020
4773 Clouds 15 1022 71 10000 3.1 320 12:48 17.12.2020
4774 Clouds 15 1022 67 10000 3.6 330 12:25 17.12.2020
4775 Clouds 14 1022 66 10000 3.6 330 11:45 17.12.2020
4776 Clouds 14 1022 66 10000 3.6 330 11:25 17.12.2020
4777 Clouds 13 1022 66 10000 3.1 320 10:55 17.12.2020
4778 Clouds 13 1022 66 10000 4.6 330 10:21 17.12.2020
4779 Clouds 11 1021 71 10000 5.7 330 09:29 17.12.2020
4780 Clouds 11 1021 76 10000 5.1 330 07:54 17.12.2020
4781 Clouds 11 1020 76 10000 5.7 330 07:35 17.12.2020
4782 Clouds 11 1020 71 10000 5.1 330 06:54 17.12.2020
4783 Clouds 11 1020 81 10000 5.1 330 06:33 17.12.2020
4784 Clouds 10 1020 76 10000 4.6 330 05:59 17.12.2020
4785 Clouds 11 1019 81 10000 5.1 330 00:40 17.12.2020
4786 Clouds 11 1019 87 10000 4.1 330 23:57 16.12.2020
4787 Clouds 11 1019 81 10000 3.1 320 23:22 16.12.2020
4788 Clouds 11 1019 81 10000 4.1 320 22:57 16.12.2020
4789 Clouds 11 1019 81 10000 2.6 320 22:36 16.12.2020
4790 Clouds 11 1019 87 10000 1.5 320 21:54 16.12.2020
4791 Clouds 12 1019 87 10000 2.1 330 21:36 16.12.2020
4792 Clouds 12 1018 93 10000 2.1 320 20:56 16.12.2020
4793 Clear 11 1018 93 10000 1.5 300 20:37 16.12.2020
4794 Clear 12 1018 87 10000 0.5 300 20:18 16.12.2020
4795 Clear 12 1018 87 10000 1 300 19:20 16.12.2020
4796 Clear 13 1018 82 10000 1.5 160 18:57 16.12.2020
4797 Clear 13 1017 82 10000 1.5 170 18:31 16.12.2020
4798 Clear 14 1017 72 10000 1.5 180 17:57 16.12.2020
4799 Clear 15 1017 72 10000 1.5 180 17:31 16.12.2020
4800 Clear 15 1017 72 10000 2.6 230 16:42 16.12.2020
4801 Clear 16 1017 67 10000 3.6 220 16:22 16.12.2020
4802 Clear 16 1017 67 10000 3.6 220 15:51 16.12.2020
4803 Clear 16 1017 72 10000 3.6 210 15:30 16.12.2020
4804 Clear 16 1017 67 10000 3.6 210 14:51 16.12.2020
4805 Clear 16 1017 63 10000 3.1 230 14:29 16.12.2020
4806 Clear 16 1017 59 10000 3.1 220 13:50 16.12.2020
4807 Clear 16 1017 59 10000 2.1 250 13:31 16.12.2020
4808 Clear 16 1018 58 10000 1 0 12:56 16.12.2020
4809 Clear 15 1018 62 10000 2.1 310 12:37 16.12.2020
4810 Clear 13 1018 71 10000 3.1 320 11:43 16.12.2020
4811 Clear 13 1018 71 10000 3.1 320 11:22 16.12.2020
4812 Clear 12 1018 81 10000 4.1 320 10:50 16.12.2020
4813 Clear 11 1018 81 10000 4.1 320 10:27 16.12.2020
4814 Clear 10 1017 81 10000 5.1 320 09:49 16.12.2020
4815 Clear 10 1017 87 10000 4.1 320 09:18 16.12.2020
4816 Clear 10 1017 87 10000 4.1 320 07:59 16.12.2020
4817 Clouds 10 1017 81 10000 4.1 320 07:39 16.12.2020
4818 Clouds 10 1016 81 10000 3.6 320 07:19 16.12.2020
4819 Clouds 10 1017 87 10000 3.6 310 03:35 16.12.2020
4820 Clear 11 1017 81 10000 2.6 320 01:31 16.12.2020
4821 Clear 12 1017 76 10000 5.1 340 23:46 15.12.2020
4822 Clear 12 1016 66 10000 5.1 330 22:59 15.12.2020
4823 Clear 12 1016 71 10000 4.6 340 22:38 15.12.2020
4824 Clear 12 1016 66 10000 3.6 330 22:19 15.12.2020
4825 Clear 13 1016 71 10000 4.1 330 21:43 15.12.2020
4826 Clear 12 1016 71 10000 4.1 290 21:21 15.12.2020
4827 Clear 13 1016 66 10000 3.1 310 20:45 15.12.2020
4828 Clear 13 1015 76 10000 3.1 310 20:26 15.12.2020
4829 Clear 13 1015 76 10000 3.1 310 19:55 15.12.2020
4830 Clear 13 1015 87 10000 1 0 19:30 15.12.2020
4831 Clear 14 1014 87 10000 2.6 250 18:40 15.12.2020
4832 Clear 14 1014 87 10000 2.6 250 18:22 15.12.2020
4833 Clouds 15 1014 87 10000 2.6 220 17:56 15.12.2020
4834 Clouds 15 1014 93 10000 3.6 240 17:37 15.12.2020
4835 Clouds 16 1014 93 10000 3.6 240 17:18 15.12.2020
4836 Clouds 17 1013 87 10000 4.6 240 16:32 15.12.2020
4837 Clouds 17 1013 77 10000 4.6 250 15:50 15.12.2020
4838 Clouds 17 1013 77 10000 4.6 250 15:28 15.12.2020
4839 Clouds 17 1013 77 10000 5.7 220 14:44 15.12.2020
4840 Clouds 17 1013 77 10000 5.7 220 14:21 15.12.2020
4841 Clouds 17 1014 77 10000 6.2 230 13:51 15.12.2020
4842 Clouds 17 1014 77 10000 6.2 230 13:32 15.12.2020
4843 Clouds 16 1014 77 10000 3.1 220 12:47 15.12.2020
4844 Clouds 16 1014 82 10000 2.1 210 12:22 15.12.2020
4845 Clouds 16 1014 82 10000 1.5 290 11:56 15.12.2020
4846 Clouds 15 1014 82 10000 2.1 300 11:26 15.12.2020
4847 Clouds 14 1014 82 9000 1 0 10:55 15.12.2020
4848 Clouds 13 1014 87 9000 3.1 330 10:34 15.12.2020
4849 Clouds 13 1014 93 9000 2.1 320 09:52 15.12.2020
4850 Clouds 12 1013 93 8000 2.6 330 09:32 15.12.2020
4851 Clouds 12 1013 93 8000 1 320 08:54 15.12.2020
4852 Clouds 12 1013 93 8000 1 320 08:29 15.12.2020
4853 Clouds 12 1013 87 8000 3.1 340 07:50 15.12.2020
4854 Clouds 12 1013 93 8000 2.6 330 07:26 15.12.2020
4855 Clouds 12 1012 93 8000 3.6 320 06:37 15.12.2020
4856 Clouds 12 1013 93 7000 3.1 330 04:18 15.12.2020
4857 Clouds 12 1013 93 7000 1 320 00:36 15.12.2020
4858 Clouds 13 1013 93 8000 1.07 299 23:27 14.12.2020
4859 Clouds 13 1013 93 8000 1.5 320 22:58 14.12.2020
4860 Clouds 13 1013 93 9000 0.5 20 22:36 14.12.2020
4861 Clouds 13 1013 87 8000 1 0 21:54 14.12.2020
4862 Clouds 13 1013 87 8000 1 0 21:54 14.12.2020
4863 Clouds 13 1013 87 8000 1.02 197 21:35 14.12.2020
4864 Clouds 13 1013 93 8000 2.1 20 20:52 14.12.2020
4865 Clouds 13 1013 93 8000 1.5 80 20:30 14.12.2020
4866 Clouds 13 1013 93 8000 1.5 60 19:55 14.12.2020
4867 Clouds 14 1013 87 8000 1.5 30 19:30 14.12.2020
4868 Clouds 14 1013 87 8000 0.35 186 18:53 14.12.2020
4869 Clouds 13 1013 87 8000 0.35 186 18:32 14.12.2020
4870 Clouds 13 1012 87 8000 1.55 110 17:52 14.12.2020
4871 Clouds 14 1012 87 9000 1.5 110 17:31 14.12.2020
4872 Clouds 14 1012 82 9000 1 0 16:53 14.12.2020
4873 Clouds 14 1012 76 9000 1 0 16:29 14.12.2020
4874 Clouds 14 1012 71 9000 1 0 15:50 14.12.2020
4875 Clouds 15 1012 71 9000 1 0 15:25 14.12.2020
4876 Clouds 14 1013 71 9000 1 0 14:45 14.12.2020
4877 Clouds 14 1013 71 9000 1 0 14:26 14.12.2020
4878 Clouds 14 1013 71 9000 3.6 330 13:47 14.12.2020
4879 Clouds 14 1013 71 9000 3.6 330 13:27 14.12.2020
4880 Clouds 14 1013 71 9000 4.1 330 12:54 14.12.2020
4881 Clouds 13 1013 71 9000 3.6 330 12:30 14.12.2020
4882 Clouds 12 1014 76 10000 3.6 320 11:37 14.12.2020
4883 Clouds 11 1014 76 10000 4.1 320 10:48 14.12.2020
4884 Clouds 11 1014 76 10000 4.1 320 10:27 14.12.2020
4885 Clouds 10 1013 81 10000 4.1 330 09:45 14.12.2020
4886 Clouds 9 1013 81 10000 4.6 330 08:50 14.12.2020
4887 Clouds 10 1013 81 10000 4.6 330 08:30 14.12.2020
4888 Clouds 10 1013 81 10000 4.6 320 07:52 14.12.2020
4889 Clouds 10 1012 87 10000 3.6 320 06:59 14.12.2020
4890 Clouds 8 1012 87 10000 3.1 320 05:55 14.12.2020
4891 Clouds 10 1013 81 10000 3.6 320 03:55 14.12.2020
4892 Clouds 10 1014 87 10000 2.6 310 00:57 14.12.2020
4893 Clouds 10 1014 87 10000 3.1 330 00:37 14.12.2020
4894 Clouds 10 1014 87 10000 3.1 330 00:18 14.12.2020
4895 Clouds 10 1014 81 10000 3.1 330 23:42 13.12.2020
4896 Clouds 9 1015 81 10000 4.1 310 22:52 13.12.2020
4897 Clouds 9 1014 81 10000 2.6 320 22:21 13.12.2020
4898 Clouds 9 1015 81 10000 2.6 320 21:56 13.12.2020
4899 Clouds 10 1015 87 10000 1 0 21:36 13.12.2020
4900 Clouds 10 1015 81 10000 2.1 300 20:49 13.12.2020
4901 Clouds 11 1015 81 10000 2.1 300 20:25 13.12.2020
4902 Clouds 11 1014 81 10000 1.5 250 19:46 13.12.2020
4903 Clouds 11 1014 81 10000 1.5 250 19:23 13.12.2020
4904 Clear 12 1015 76 10000 2.6 200 18:54 13.12.2020
4905 Clear 12 1015 76 10000 2.6 200 18:36 13.12.2020
4906 Clear 12 1015 76 10000 2.6 200 18:18 13.12.2020
4907 Clear 13 1014 67 10000 1.5 160 17:43 13.12.2020
4908 Clear 13 1014 67 10000 1.5 160 17:18 13.12.2020
4909 Clear 13 1014 62 10000 2.1 140 16:46 13.12.2020
4910 Clear 14 1014 62 10000 2.1 140 16:28 13.12.2020
4911 Clouds 14 1014 54 10000 0.48 37 15:45 13.12.2020
4912 Clouds 14 1014 54 10000 1.1 40 15:26 13.12.2020
4913 Clouds 14 1014 54 10000 2.6 310 14:47 13.12.2020
4914 Clouds 14 1014 54 10000 2.6 310 14:28 13.12.2020
4915 Clear 14 1014 54 10000 4.1 340 13:48 13.12.2020
4916 Clear 14 1014 54 10000 4.1 340 13:30 13.12.2020
4917 Clear 13 1015 62 10000 4.1 320 12:56 13.12.2020
4918 Clouds 12 1015 62 10000 5.1 330 12:24 13.12.2020
4919 Clouds 12 1015 66 10000 4.6 330 11:58 13.12.2020
4920 Clouds 11 1015 66 10000 6.2 330 11:31 13.12.2020
4921 Clouds 9 1015 66 10000 6.2 320 10:43 13.12.2020
4922 Clouds 10 1015 66 10000 6.2 320 10:21 13.12.2020
4923 Clear 8 1014 75 10000 6.2 330 09:39 13.12.2020
4924 Clear 7 1014 75 10000 6.2 330 08:48 13.12.2020
4925 Clear 7 1014 75 10000 5.7 330 08:30 13.12.2020
4926 Clear 9 1013 75 10000 5.1 330 07:20 13.12.2020
4927 Clear 9 1012 66 10000 6.2 310 02:44 13.12.2020
4928 Clear 9 1012 61 10000 4.1 330 02:20 13.12.2020
4929 Clear 9 1012 61 10000 4.6 350 01:36 13.12.2020
4930 Clear 11 1012 61 10000 3.1 350 00:44 13.12.2020
4931 Clear 11 1011 53 10000 1.5 70 23:40 12.12.2020
4932 Clear 11 1011 53 10000 1.5 70 23:40 12.12.2020
4933 Clear 11 1011 53 10000 1.5 70 23:20 12.12.2020
4934 Clear 12 1011 50 10000 3.6 310 22:34 12.12.2020
4935 Clouds 12 1010 50 10000 2.1 330 21:47 12.12.2020
4936 Clouds 13 1010 47 10000 0.5 130 21:20 12.12.2020
4937 Clouds 13 1009 47 10000 3.6 330 20:46 12.12.2020
4938 Clouds 13 1009 47 10000 3.6 330 20:21 12.12.2020
4939 Clear 13 1009 47 10000 5.1 310 19:53 12.12.2020
4940 Clear 14 1008 44 10000 4.6 280 19:34 12.12.2020
4941 Clear 14 1008 47 10000 4.1 270 18:58 12.12.2020
4942 Clear 15 1008 44 10000 4.1 280 18:38 12.12.2020
4943 Clear 14 1008 44 10000 4.1 280 18:20 12.12.2020
4944 Clouds 15 1007 48 10000 2.6 280 17:41 12.12.2020
4945 Clouds 15 1006 48 10000 5.1 290 16:45 12.12.2020
4946 Clouds 16 1006 48 10000 5.7 300 15:58 12.12.2020
4947 Clouds 16 1006 48 10000 5.7 300 15:58 12.12.2020
4948 Clouds 16 1006 48 10000 4.1 280 15:40 12.12.2020
4949 Clouds 16 1006 48 10000 4.1 290 14:54 12.12.2020
4950 Clouds 16 1006 51 10000 4.1 300 14:35 12.12.2020
4951 Clear 16 1005 51 10000 9.8 310 13:46 12.12.2020
4952 Clear 15 1005 51 10000 9.8 310 13:26 12.12.2020
4953 Clouds 14 1005 54 10000 9.3 310 12:37 12.12.2020
4954 Clouds 13 1005 54 10000 9.8 330 11:28 12.12.2020
4955 Clouds 13 1004 58 10000 10.8 320 10:46 12.12.2020
4956 Clear 12 1002 62 10000 10.8 320 09:25 12.12.2020
4957 Clear 12 1002 58 10000 10.3 320 08:41 12.12.2020
4958 Clear 11 1003 81 10000 3.1 300 01:59 12.12.2020
4959 Clear 11 1002 76 10000 1.5 320 23:31 11.12.2020
4960 Clear 11 1002 87 10000 5.1 330 22:21 11.12.2020
4961 Clear 11 1001 93 10000 1 300 19:57 11.12.2020
4962 Clear 13 1002 82 10000 1 0 17:30 11.12.2020
4963 Clouds 13 1002 87 10000 2.6 330 14:40 11.12.2020
4964 Clouds 12 1002 81 10000 3.6 320 13:57 11.12.2020
4965 Clouds 11 1003 87 10000 3.6 310 12:36 11.12.2020
4966 Clouds 11 1003 93 8000 3.1 330 11:57 11.12.2020
4967 Drizzle 10 1004 93 6000 3.6 340 11:38 11.12.2020
4968 Drizzle 9 1004 93 2800 5.7 330 10:41 11.12.2020
4969 Rain 9 1004 87 10000 4.1 320 08:43 11.12.2020
4970 Clouds 9 1006 81 10000 4.6 330 05:40 11.12.2020
4971 Clouds 10 1007 81 10000 3.6 320 04:49 11.12.2020
4972 Clouds 9 1009 87 10000 1.5 310 01:32 11.12.2020
4973 Clouds 9 1009 81 10000 1.5 320 23:38 10.12.2020
4974 Clouds 9 1009 76 10000 2.6 320 22:24 10.12.2020
4975 Clouds 10 1008 76 10000 2.1 340 21:35 10.12.2020
4976 Clouds 11 1007 66 10000 2.6 360 20:39 10.12.2020
4977 Clouds 11 1006 66 10000 1.5 50 19:37 10.12.2020
4978 Clouds 12 1006 71 10000 2.1 60 18:53 10.12.2020
4979 Clouds 12 1005 58 10000 1 0 17:50 10.12.2020
4980 Clouds 14 1004 51 10000 5.1 300 16:25 10.12.2020
4981 Clouds 14 1003 51 10000 5.7 310 15:26 10.12.2020
4982 Clouds 14 1004 51 10000 6.2 300 14:50 10.12.2020
4983 Clouds 14 1004 51 10000 6.2 300 14:25 10.12.2020
4984 Clouds 12 1004 54 10000 6.7 300 12:40 10.12.2020
4985 Clouds 11 1005 62 10000 1.5 30 11:33 10.12.2020
4986 Clouds 9 1005 61 10000 5.1 250 08:51 10.12.2020
4987 Clouds 9 1006 66 10000 6.2 270 07:38 10.12.2020
4988 Clouds 9 1007 57 10000 6.2 270 06:41 10.12.2020
4989 Clouds 8 1010 75 10000 3.1 330 02:53 10.12.2020
4990 Clear 8 1011 70 10000 3.1 320 01:58 10.12.2020
4991 Clear 9 1012 66 10000 3.6 340 23:50 09.12.2020
4992 Clear 10 1012 53 10000 5.1 300 20:59 09.12.2020
4993 Clear 10 1011 57 10000 6.7 320 20:28 09.12.2020
4994 Clear 11 1011 53 10000 6.2 300 19:21 09.12.2020
4995 Clear 11 1010 50 10000 7.2 310 17:43 09.12.2020
4996 Clear 12 1010 43 10000 6.2 310 16:41 09.12.2020
4997 Clear 12 1010 43 10000 6.2 310 16:20 09.12.2020
4998 Clear 12 1010 43 10000 6.2 310 16:20 09.12.2020
4999 Clear 13 1010 40 10000 6.7 310 15:18 09.12.2020
5000 Clear 13 1010 47 10000 2.1 240 14:27 09.12.2020
5001 Clear 12 1011 50 10000 2.6 230 13:58 09.12.2020
5002 Clear 12 1011 50 10000 2.1 290 13:19 09.12.2020
5003 Clear 10 1012 57 10000 4.6 340 12:44 09.12.2020
5004 Clear 9 1012 57 10000 6.2 340 11:49 09.12.2020
5005 Clear 8 1011 61 10000 4.6 310 10:39 09.12.2020
5006 Clear 6 1010 70 10000 7.2 330 08:46 09.12.2020
5007 Clear 6 1009 65 10000 2.6 0 07:43 09.12.2020
5008 Clouds 7 1008 54 10000 9.3 320 05:48 09.12.2020
5009 Clouds 8 1007 45 10000 12.3 320 03:26 09.12.2020
5010 Clouds 8 1007 49 10000 8.7 320 01:49 09.12.2020
5011 Clouds 9 1007 49 10000 6.7 330 23:42 08.12.2020
5012 Clouds 9 1006 49 10000 7.7 330 22:43 08.12.2020
5013 Clouds 9 1006 61 10000 3.1 310 20:54 08.12.2020
5014 Clouds 10 1005 61 10000 1.5 270 19:33 08.12.2020
5015 Clouds 10 1005 70 10000 2.43 274 18:58 08.12.2020
5016 Clouds 10 1004 66 10000 2.1 320 17:33 08.12.2020
5017 Clouds 11 1002 62 10000 6.7 310 15:44 08.12.2020
5018 Clouds 10 1001 61 10000 6.2 320 14:18 08.12.2020
5019 Clouds 10 1001 61 10000 7.7 320 13:24 08.12.2020
5020 Clouds 10 1001 66 10000 8.2 320 12:26 08.12.2020
5021 Clouds 10 1000 61 10000 3.1 330 11:42 08.12.2020
5022 Clouds 9 1000 61 10000 4.1 320 10:45 08.12.2020
5023 Clouds 8 1000 81 10000 7.09 311 09:50 08.12.2020
5024 Clouds 7 999 75 10000 0.5 40 07:59 08.12.2020
5025 Clouds 7 999 81 10000 2.6 310 06:36 08.12.2020
5026 Clouds 8 1001 81 10000 1 0 03:29 08.12.2020
5027 Clouds 9 1001 81 10000 1 0 00:46 08.12.2020
5028 Clouds 10 1000 71 10000 3.1 240 23:51 07.12.2020
5029 Clouds 9 1000 81 10000 4.6 280 22:37 07.12.2020
5030 Clouds 10 1000 76 10000 5.7 300 21:51 07.12.2020
5031 Clouds 11 1000 71 10000 1.5 310 19:52 07.12.2020
5032 Clouds 12 1001 76 10000 3.6 260 18:40 07.12.2020
5033 Clouds 12 1001 71 10000 5.1 240 17:26 07.12.2020
5034 Clouds 12 1001 71 10000 5.1 250 16:54 07.12.2020
5035 Clouds 12 1001 62 10000 7.2 250 15:26 07.12.2020
5036 Clouds 12 1001 58 10000 8.7 250 14:48 07.12.2020
5037 Clouds 12 1002 58 10000 9.3 250 13:54 07.12.2020
5038 Clouds 11 1003 66 10000 8.2 250 13:20 07.12.2020
5039 Clouds 10 1004 66 10000 2.1 300 11:43 07.12.2020
5040 Clouds 10 1004 66 10000 2.1 300 11:19 07.12.2020
5041 Clouds 8 1004 61 10000 2.6 330 09:42 07.12.2020
5042 Clouds 8 1004 66 10000 2.1 360 08:21 07.12.2020
5043 Clouds 8 1005 66 10000 3.6 290 06:36 07.12.2020
5044 Clouds 8 1005 61 10000 4.6 280 04:48 07.12.2020
5045 Clouds 8 1005 57 10000 2.1 220 01:55 07.12.2020
5046 Clouds 9 1005 53 10000 4.1 330 00:27 07.12.2020
5047 Clouds 9 1005 57 10000 3.1 320 22:25 06.12.2020
5048 Clouds 9 1004 57 10000 4.6 320 20:58 06.12.2020
5049 Clouds 9 1004 57 10000 4.1 330 20:34 06.12.2020
5050 Clouds 10 1004 53 10000 1 0 19:55 06.12.2020
5051 Clouds 11 1003 53 10000 1.5 0 18:33 06.12.2020
5052 Clouds 12 1002 47 10000 7.7 280 16:56 06.12.2020
5053 Clouds 12 1002 47 10000 9.3 310 15:21 06.12.2020
5054 Clouds 11 1002 46 10000 7.2 320 13:49 06.12.2020
5055 Clouds 11 1003 46 10000 7.2 310 12:52 06.12.2020
5056 Clouds 9 1003 66 10000 3.1 320 11:59 06.12.2020
5057 Clouds 8 1003 70 10000 4.1 310 11:34 06.12.2020
5058 Clouds 7 1003 65 10000 3.6 330 10:47 06.12.2020
5059 Clouds 7 1003 70 10000 5.1 320 09:59 06.12.2020
5060 Clear 5 1002 70 10000 3.6 290 08:30 06.12.2020
5061 Clear 5 1002 70 10000 4.1 300 06:47 06.12.2020
5062 Clouds 7 1001 70 10000 2.6 330 01:47 06.12.2020
5063 Clear 7 1001 65 10000 1 0 00:41 06.12.2020
5064 Clouds 8 1001 65 10000 2.6 270 00:23 06.12.2020
5065 Clouds 8 1001 65 10000 5.1 250 22:47 05.12.2020
5066 Clouds 8 1001 65 10000 5.7 260 22:20 05.12.2020
5067 Clouds 8 1001 57 10000 7.2 270 21:50 05.12.2020
5068 Clouds 8 1001 57 10000 7.2 270 21:26 05.12.2020
5069 Clouds 9 1000 52 10000 4.6 270 19:43 05.12.2020
5070 Clouds 9 1000 46 10000 5.7 290 18:40 05.12.2020
5071 Clouds 9 999 53 10000 4.1 280 17:34 05.12.2020
5072 Clouds 10 999 46 10000 4.6 310 16:33 05.12.2020
5073 Clouds 10 999 46 10000 5.7 300 15:57 05.12.2020
5074 Clouds 11 999 48 10000 4.1 310 14:28 05.12.2020
5075 Clouds 9 999 57 10000 5.1 330 12:24 05.12.2020
5076 Clouds 8 999 61 10000 6.2 330 11:47 05.12.2020
5077 Clouds 6 998 58 10000 5.1 330 10:31 05.12.2020
5078 Clear 4 997 74 10000 5.1 320 07:49 05.12.2020
5079 Clear 4 996 74 10000 5.7 330 07:24 05.12.2020
5080 Clear 2 996 53 10000 3.6 320 03:55 05.12.2020
5081 Clear 6 995 75 10000 2.1 310 23:56 04.12.2020
5082 Clear 5 994 45 10000 3.1 280 22:32 04.12.2020
5083 Clear 9 994 43 10000 3.1 240 20:26 04.12.2020
5084 Clouds 10 993 43 10000 5.1 290 18:53 04.12.2020
5085 Clouds 10 993 43 10000 3.1 280 18:19 04.12.2020
5086 Clouds 11 992 53 10000 3.6 270 17:37 04.12.2020
5087 Clouds 12 992 43 10000 6.7 300 15:50 04.12.2020
5088 Clouds 12 992 47 10000 5.7 280 13:57 04.12.2020
5089 Clouds 11 992 47 10000 4.6 280 13:29 04.12.2020
5090 Clouds 11 992 54 10000 5.7 270 12:54 04.12.2020
5091 Clear 12 992 58 10000 3.6 290 10:42 04.12.2020
5092 Clear 12 992 58 10000 3.6 290 10:23 04.12.2020
5093 Clouds 9 992 81 10000 3.1 300 07:29 04.12.2020
5094 Clouds 9 993 75 10000 2.6 300 06:39 04.12.2020
5095 Clouds 11 996 76 10000 3.1 290 02:25 04.12.2020
5096 Clouds 10 1000 81 10000 1.5 340 23:49 03.12.2020
5097 Clouds 9 1001 76 10000 1 0 22:45 03.12.2020
5098 Clouds 10 1003 66 10000 2.6 270 20:59 03.12.2020
5099 Clouds 11 1004 66 10000 4.1 250 19:38 03.12.2020
5100 Clouds 11 1004 66 10000 4.1 250 19:19 03.12.2020
5101 Clouds 11 1005 66 10000 4.1 250 18:39 03.12.2020
5102 Clouds 11 1006 62 10000 4.6 250 17:20 03.12.2020
5103 Clear 12 1007 54 10000 7.2 240 15:59 03.12.2020
5104 Clear 12 1007 54 10000 6.2 240 15:31 03.12.2020
5105 Clear 12 1008 54 10000 5.1 240 14:48 03.12.2020
5106 Clear 11 1009 54 10000 3.6 200 13:50 03.12.2020
5107 Clear 10 1011 57 10000 3.1 330 12:33 03.12.2020
5108 Clear 9 1012 61 10000 4.6 330 11:55 03.12.2020
5109 Clear 8 1012 70 10000 6.2 340 10:36 03.12.2020
5110 Clouds 6 1012 53 10000 3.1 280 08:38 03.12.2020
5111 Clear 5 1013 52 10000 4.1 310 03:42 03.12.2020
5112 Clear 7 1013 56 10000 4.6 320 01:41 03.12.2020
5113 Clear 8 1014 55 10000 4.1 340 23:51 02.12.2020
5114 Clear 9 1013 61 10000 2.1 340 22:41 02.12.2020
5115 Clear 10 1013 57 10000 0.5 0 21:43 02.12.2020
5116 Clear 11 1012 53 10000 3.1 330 20:49 02.12.2020
5117 Clear 11 1012 53 10000 3.1 330 20:31 02.12.2020
5118 Clear 11 1012 41 10000 4.1 320 19:40 02.12.2020
5119 Clear 12 1011 39 10000 4.1 300 17:49 02.12.2020
5120 Clear 12 1011 38 10000 4.1 300 17:30 02.12.2020
5121 Clouds 14 1011 44 10000 4.1 320 15:43 02.12.2020
5122 Clouds 13 1011 54 10000 7.2 230 13:41 02.12.2020
5123 Clouds 11 1012 66 10000 2.6 310 11:33 02.12.2020
5124 Clouds 9 1012 76 10000 5.7 310 10:25 02.12.2020
5125 Clouds 9 1011 81 10000 5.7 330 07:46 02.12.2020
5126 Clouds 11 1014 76 10000 3.6 330 23:40 01.12.2020
5127 Clouds 11 1014 76 10000 4.6 340 22:20 01.12.2020
5128 Clouds 10 1014 92 10000 1.29 13 19:43 01.12.2020
5129 Clouds 11 1015 76 10000 5.7 330 18:56 01.12.2020
5130 Clouds 13 1016 71 10000 5.1 330 16:48 01.12.2020
5131 Clouds 14 1017 67 10000 4.1 350 14:53 01.12.2020
5132 Clouds 13 1019 71 10000 4.6 320 12:48 01.12.2020
5133 Clouds 12 1020 76 10000 5.7 320 11:41 01.12.2020
5134 Clouds 11 1021 81 10000 5.1 330 10:54 01.12.2020
5135 Clouds 11 1021 87 10000 6.7 320 10:31 01.12.2020
5136 Clouds 8 1021 87 10000 4.6 340 07:47 01.12.2020
5137 Clouds 8 1021 87 10000 6.7 340 06:25 01.12.2020
5138 Clear 11 1023 87 10000 4.1 330 01:36 01.12.2020
5139 Clouds 11 1023 87 10000 3.6 330 00:50 01.12.2020
5140 Clouds 12 1023 93 10000 4.1 340 23:20 30.11.2020
5141 Clouds 12 1023 93 10000 3.1 330 22:42 30.11.2020
5142 Clouds 12 1023 93 10000 3.1 330 22:22 30.11.2020
5143 Clouds 13 1023 93 10000 1.28 40 20:34 30.11.2020
5144 Clouds 14 1022 87 10000 1 120 19:41 30.11.2020
5145 Clouds 14 1022 82 10000 1 110 18:21 30.11.2020
5146 Clouds 14 1022 82 10000 1 120 17:46 30.11.2020
5147 Clear 15 1022 77 10000 1.5 100 16:53 30.11.2020
5148 Clear 16 1022 77 10000 3.1 120 14:53 30.11.2020
5149 Clear 16 1022 77 10000 2.6 110 13:55 30.11.2020
5150 Clouds 16 1023 72 10000 2.6 110 13:22 30.11.2020
5151 Clouds 15 1023 67 10000 1.5 100 12:26 30.11.2020
5152 Clouds 15 1023 71 10000 2.6 330 11:46 30.11.2020
5153 Clouds 13 1023 81 10000 4.1 340 10:25 30.11.2020
5154 Clear 12 1022 81 10000 5.1 330 09:33 30.11.2020
5155 Clouds 13 1019 81 10000 5.1 320 01:29 30.11.2020
5156 Clouds 13 1019 81 10000 4.1 330 23:28 29.11.2020
5157 Clear 13 1018 87 10000 3.1 320 21:45 29.11.2020
5158 Clear 13 1018 87 10000 3.1 320 21:26 29.11.2020
5159 Clear 14 1017 71 10000 1.5 300 19:20 29.11.2020
5160 Clear 16 1016 59 10000 2.1 210 17:34 29.11.2020
5161 Clear 18 1015 39 10000 2.1 150 14:46 29.11.2020
5162 Clear 18 1016 59 10000 3.1 310 12:45 29.11.2020
5163 Clear 15 1016 72 10000 5.1 330 11:37 29.11.2020
5164 Clouds 13 1014 81 10000 4.1 330 08:54 29.11.2020
5165 Clouds 13 1013 87 10000 4.6 330 08:35 29.11.2020
5166 Clouds 13 1011 87 10000 3.1 40 02:32 29.11.2020
5167 Clouds 14 1009 87 10000 3.6 360 22:59 28.11.2020
5168 Clouds 14 1009 77 10000 5.7 30 22:27 28.11.2020
5169 Clouds 14 1008 82 10000 7.2 40 20:24 28.11.2020
5170 Clouds 14 1007 82 10000 6.7 40 19:28 28.11.2020
5171 Clouds 14 1006 82 10000 7.7 30 18:57 28.11.2020
5172 Clouds 15 1005 82 10000 7.7 40 18:22 28.11.2020
5173 Clouds 15 1005 82 10000 9.8 50 16:58 28.11.2020
5174 Clouds 14 1004 82 10000 5.7 20 14:59 28.11.2020
5175 Rain 14 1005 87 10000 7.2 30 13:55 28.11.2020
5176 Clouds 13 1005 82 10000 7.7 30 11:29 28.11.2020
5177 Rain 12 1006 93 10000 3.1 10 09:27 28.11.2020
5178 Rain 12 1007 93 10000 2.1 20 03:48 28.11.2020
5179 Rain 13 1007 87 10000 9.8 50 01:54 28.11.2020
5180 Clouds 14 1008 82 10000 9.3 60 23:23 27.11.2020
5181 Clouds 14 1008 82 10000 9.3 60 22:45 27.11.2020
5182 Thunderstorm 14 1009 82 8000 10.8 70 20:41 27.11.2020
5183 Rain 14 1009 82 8000 10.8 70 20:23 27.11.2020
5184 Rain 16 1010 87 10000 11.8 60 19:19 27.11.2020
5185 Clouds 16 1010 82 10000 10.8 60 16:58 27.11.2020
5186 Clouds 16 1011 88 10000 9.3 60 14:45 27.11.2020
5187 Clouds 17 1012 88 10000 9.3 70 13:21 27.11.2020
5188 Clouds 17 1013 93 10000 8.7 60 12:47 27.11.2020
5189 Clouds 16 1014 88 10000 9.3 60 11:34 27.11.2020
5190 Clouds 17 1014 88 10000 8.7 60 10:49 27.11.2020
5191 Clouds 16 1014 93 10000 9.3 60 09:53 27.11.2020
5192 Clouds 15 1015 87 10000 5.1 50 05:47 27.11.2020
5193 Rain 16 1016 88 10000 1.34 47 22:27 26.11.2020
5194 Clouds 16 1017 88 10000 6.2 60 21:56 26.11.2020
5195 Clouds 16 1017 88 10000 6.2 60 20:50 26.11.2020
5196 Clouds 16 1017 82 10000 5.7 60 18:41 26.11.2020
5197 Clouds 16 1016 82 10000 5.7 60 17:50 26.11.2020
5198 Clouds 18 1017 77 10000 3.1 100 14:49 26.11.2020
5199 Clouds 17 1017 68 10000 4.1 120 13:20 26.11.2020
5200 Clouds 17 1017 77 10000 1.5 350 12:42 26.11.2020
5201 Clouds 16 1018 77 10000 3.6 340 11:35 26.11.2020
5202 Clouds 14 1017 82 10000 3.1 340 10:27 26.11.2020
5203 Clouds 14 1017 87 10000 3.1 340 09:41 26.11.2020
5204 Clouds 13 1017 87 10000 3.1 340 09:21 26.11.2020
5205 Clouds 13 1017 87 10000 4.1 330 08:38 26.11.2020
5206 Clouds 13 1017 87 10000 4.1 340 02:19 26.11.2020
5207 Clouds 12 1017 87 10000 3.1 330 22:32 25.11.2020
5208 Clouds 13 1017 87 10000 2.6 340 20:38 25.11.2020
5209 Clouds 14 1017 87 10000 2.6 320 19:44 25.11.2020
5210 Clouds 16 1017 72 10000 1.5 190 18:23 25.11.2020
5211 Clouds 17 1016 77 10000 4.1 190 16:34 25.11.2020
5212 Clouds 16 1016 68 10000 4.6 190 15:36 25.11.2020
5213 Clouds 17 1016 74 10000 3.16 195 13:56 25.11.2020
5214 Rain 16 1018 75 10000 3.29 199 13:37 25.11.2020
5215 Clouds 15 1019 71 10000 3.6 340 11:44 25.11.2020
5216 Clouds 14 1019 76 10000 3.6 330 11:18 25.11.2020
5217 Clouds 12 1019 81 10000 4.1 330 09:18 25.11.2020
5218 Clouds 12 1018 81 10000 3.6 330 08:41 25.11.2020
5219 Clouds 11 1019 81 10000 3.6 340 03:59 25.11.2020
5220 Clouds 10 1020 93 10000 4.1 340 01:52 25.11.2020
5221 Clouds 11 1020 93 10000 3.6 340 00:23 25.11.2020
5222 Clouds 11 1020 87 10000 2.1 340 23:37 24.11.2020
5223 Clouds 11 1021 87 10000 2.1 340 22:58 24.11.2020
5224 Clouds 12 1021 81 10000 2.1 330 21:51 24.11.2020
5225 Clouds 12 1021 81 10000 1.5 320 21:29 24.11.2020
5226 Clouds 12 1021 87 10000 2.99 227 20:40 24.11.2020
5227 Clouds 14 1021 76 10000 2.1 230 18:40 24.11.2020
5228 Clouds 15 1021 72 10000 2.6 230 17:30 24.11.2020
5229 Clouds 16 1021 72 10000 3.6 230 16:45 24.11.2020
5230 Clouds 16 1021 72 10000 3.6 230 16:27 24.11.2020
5231 Clouds 16 1021 67 10000 4.1 220 15:54 24.11.2020
5232 Clouds 16 1022 63 10000 4.1 220 15:18 24.11.2020
5233 Clouds 16 1022 63 10000 4.1 230 14:33 24.11.2020
5234 Clouds 15 1023 63 10000 1 0 12:45 24.11.2020
5235 Clouds 14 1024 62 10000 1.5 310 12:22 24.11.2020
5236 Clouds 14 1025 62 10000 3.1 320 11:39 24.11.2020
5237 Clouds 12 1025 70 10000 5.1 330 10:41 24.11.2020
5238 Clouds 10 1025 70 10000 5.1 330 10:22 24.11.2020
5239 Clouds 9 1025 75 10000 5.1 320 09:35 24.11.2020
5240 Clouds 7 1024 75 10000 5.1 320 07:57 24.11.2020
5241 Clouds 8 1025 75 10000 5.1 320 04:21 24.11.2020
5242 Clouds 12 1027 81 10000 3.1 310 22:34 23.11.2020
5243 Clouds 12 1027 81 10000 1.5 320 21:37 23.11.2020
5244 Clouds 11 1027 81 10000 1 310 20:54 23.11.2020
5245 Clouds 12 1027 76 10000 1 290 20:27 23.11.2020
5246 Clouds 13 1027 81 10000 2.1 260 19:24 23.11.2020
5247 Clear 15 1026 67 10000 4.6 230 17:26 23.11.2020
5248 Clouds 16 1026 63 10000 6.7 220 16:28 23.11.2020
5249 Clouds 16 1027 59 10000 5.7 230 14:49 23.11.2020
5250 Clear 16 1028 59 10000 1.5 280 13:33 23.11.2020
5251 Clouds 14 1028 58 10000 4.6 340 12:38 23.11.2020
5252 Clouds 13 1029 62 10000 4.6 330 11:49 23.11.2020
5253 Clouds 12 1029 66 10000 5.7 330 11:21 23.11.2020
5254 Clouds 9 1028 75 10000 6.7 330 09:32 23.11.2020
5255 Clouds 8 1028 81 10000 6.7 330 08:49 23.11.2020
5256 Clouds 8 1028 81 10000 6.7 330 07:29 23.11.2020
5257 Clouds 9 1028 81 10000 4.1 330 00:39 23.11.2020
5258 Clouds 9 1028 87 10000 3.1 330 23:38 22.11.2020
5259 Clouds 9 1028 87 10000 2.6 330 22:18 22.11.2020
5260 Clouds 9 1028 81 10000 1.5 330 20:54 22.11.2020
5261 Clouds 10 1028 81 10000 1 320 19:58 22.11.2020
5262 Clouds 12 1027 71 10000 1 50 18:56 22.11.2020
5263 Clouds 13 1027 67 10000 1 0 17:33 22.11.2020
5264 Clear 14 1027 58 10000 2.6 190 15:58 22.11.2020
5265 Clear 14 1027 54 10000 2.6 150 14:54 22.11.2020
5266 Clouds 14 1028 50 10000 1 350 12:50 22.11.2020
5267 Clear 13 1029 54 10000 2.6 310 12:18 22.11.2020
5268 Clear 12 1029 61 10000 4.1 330 11:36 22.11.2020
5269 Clear 10 1029 65 10000 6.2 330 10:47 22.11.2020
5270 Clear 10 1029 65 10000 6.2 330 10:29 22.11.2020
5271 Clear 7 1029 81 10000 4.6 330 01:50 22.11.2020
5272 Clear 8 1030 70 10000 5.1 330 23:54 21.11.2020
5273 Clear 8 1030 70 10000 4.1 330 22:40 21.11.2020
5274 Clear 8 1029 70 10000 1.5 310 21:30 21.11.2020
5275 Clear 9 1030 61 10000 0.5 0 20:49 21.11.2020
5276 Clear 9 1030 61 10000 0.5 0 20:18 21.11.2020
5277 Clear 11 1029 61 10000 0.5 0 19:39 21.11.2020
5278 Clear 11 1029 53 10000 0.5 0 18:50 21.11.2020
5279 Clear 14 1029 38 10000 3.1 80 17:30 21.11.2020
5280 Clouds 15 1029 36 10000 4.1 60 16:44 21.11.2020
5281 Clouds 15 1029 41 10000 4.6 80 15:40 21.11.2020
5282 Clouds 15 1029 41 10000 4.6 80 15:19 21.11.2020
5283 Clouds 15 1029 44 10000 4.1 70 14:39 21.11.2020
5284 Clouds 13 1030 50 10000 3.1 340 12:44 21.11.2020
5285 Clouds 13 1030 50 10000 3.1 340 12:21 21.11.2020
5286 Clouds 12 1030 50 10000 4.6 330 11:36 21.11.2020
5287 Clouds 11 1030 57 10000 6.7 330 10:28 21.11.2020
5288 Clouds 8 1029 70 10000 4.1 360 08:52 21.11.2020
5289 Clear 6 1028 70 10000 7.7 330 07:58 21.11.2020
5290 Clear 7 1027 70 10000 6.2 340 05:42 21.11.2020
5291 Clear 8 1027 75 10000 4.1 330 01:59 21.11.2020
5292 Clear 8 1027 75 10000 4.1 330 00:21 21.11.2020
5293 Clear 10 1027 66 10000 3.6 330 22:45 20.11.2020
5294 Clear 11 1027 62 10000 0.5 0 21:44 20.11.2020
5295 Clear 11 1027 62 10000 0.5 0 21:21 20.11.2020
5296 Clear 13 1026 62 10000 2.6 340 19:55 20.11.2020
5297 Clear 13 1025 66 10000 2.1 300 18:54 20.11.2020
5298 Clear 14 1025 58 10000 2.6 250 17:59 20.11.2020
5299 Clear 15 1025 58 10000 2.6 200 17:29 20.11.2020
5300 Clear 16 1025 55 10000 3.6 250 16:47 20.11.2020
5301 Clear 16 1025 59 10000 3.1 190 15:59 20.11.2020
5302 Clear 16 1025 59 10000 3.1 190 15:59 20.11.2020
5303 Clear 16 1026 55 10000 1 0 15:34 20.11.2020
5304 Clear 15 1027 51 10000 3.6 340 13:51 20.11.2020
5305 Clear 14 1028 58 10000 4.6 340 13:19 20.11.2020
5306 Clear 13 1028 62 10000 5.1 330 12:40 20.11.2020
5307 Clear 12 1028 62 10000 6.7 330 11:48 20.11.2020
5308 Clouds 12 1028 62 10000 6.2 320 11:21 20.11.2020
5309 Clear 11 1028 66 10000 5.7 340 09:45 20.11.2020
5310 Clear 11 1028 66 10000 5.7 340 08:27 20.11.2020
5311 Clear 11 1027 66 10000 5.7 340 07:35 20.11.2020
5312 Clouds 12 1028 66 10000 6.2 350 03:45 20.11.2020
5313 Clouds 15 1029 76 10000 2.6 330 23:31 19.11.2020
5314 Clouds 15 1028 76 10000 2.1 340 22:27 19.11.2020
5315 Clouds 15 1028 72 10000 3.6 330 21:49 19.11.2020
5316 Clear 16 1028 67 10000 5.1 330 20:41 19.11.2020
5317 Clear 16 1028 67 10000 5.1 330 20:19 19.11.2020
5318 Clear 17 1027 67 10000 3.6 350 19:25 19.11.2020
5319 Clear 18 1027 63 10000 4.1 340 18:35 19.11.2020
5320 Clear 19 1026 68 10000 1.5 220 17:18 19.11.2020
5321 Clear 20 1027 64 10000 5.7 220 16:25 19.11.2020
5322 Clear 20 1027 64 10000 4.6 230 15:28 19.11.2020
5323 Clear 19 1028 60 10000 2.1 280 13:47 19.11.2020
5324 Clear 19 1028 60 10000 2.1 280 13:27 19.11.2020
5325 Clear 19 1029 63 10000 3.6 310 12:51 19.11.2020
5326 Clear 18 1029 63 10000 5.1 310 12:28 19.11.2020
5327 Clear 17 1030 72 10000 6.7 320 11:40 19.11.2020
5328 Clear 17 1030 72 10000 6.7 320 11:40 19.11.2020
5329 Clear 16 1029 76 10000 6.7 310 11:20 19.11.2020
5330 Clear 14 1030 82 10000 6.2 320 10:29 19.11.2020
5331 Clear 13 1029 87 10000 7.2 330 09:47 19.11.2020
5332 Clear 13 1029 87 10000 7.2 330 09:26 19.11.2020
5333 Clouds 12 1029 87 10000 6.2 320 08:20 19.11.2020
5334 Clouds 12 1028 93 10000 6.2 330 07:30 19.11.2020
5335 Clouds 13 1028 87 10000 3.6 330 01:46 19.11.2020
5336 Clouds 14 1028 87 10000 3.1 330 00:32 19.11.2020
5337 Clouds 14 1028 87 10000 2.6 330 23:31 18.11.2020
5338 Clouds 13 1028 87 10000 3.1 310 22:58 18.11.2020
5339 Clouds 14 1028 93 10000 2.1 330 22:27 18.11.2020
5340 Clear 14 1028 87 10000 2.1 330 21:43 18.11.2020
5341 Clear 14 1028 87 10000 2.1 330 21:24 18.11.2020
5342 Clear 15 1028 87 10000 1.04 222 20:31 18.11.2020
5343 Clear 16 1027 87 10000 2.1 260 19:37 18.11.2020
5344 Clear 16 1027 82 10000 2.1 240 18:58 18.11.2020
5345 Clouds 16 1027 82 10000 2.6 230 18:39 18.11.2020
5346 Clouds 17 1027 77 10000 3.1 210 17:41 18.11.2020
5347 Clouds 18 1026 72 10000 3.6 210 16:26 18.11.2020
5348 Clouds 18 1026 72 10000 3.1 200 15:57 18.11.2020
5349 Clouds 18 1027 72 10000 3.1 180 14:41 18.11.2020
5350 Clouds 18 1027 68 10000 1.5 140 13:46 18.11.2020
5351 Clouds 18 1027 68 10000 1.5 140 13:46 18.11.2020
5352 Clouds 17 1027 68 10000 1.5 140 13:21 18.11.2020
5353 Clouds 17 1028 72 10000 1.16 162 12:42 18.11.2020
5354 Clouds 16 1028 77 10000 3.1 330 11:42 18.11.2020
5355 Clouds 15 1028 76 10000 4.6 330 10:54 18.11.2020
5356 Clouds 15 1028 82 10000 5.1 320 10:27 18.11.2020
5357 Clouds 11 1028 87 10000 5.1 330 08:23 18.11.2020
5358 Clouds 12 1027 87 10000 4.6 330 06:37 18.11.2020
5359 Clouds 13 1027 87 10000 4.6 330 02:51 18.11.2020
5360 Clouds 14 1027 87 10000 3.1 330 00:18 18.11.2020
5361 Clouds 14 1027 82 10000 2.6 330 23:21 17.11.2020
5362 Clouds 14 1027 87 10000 2.6 330 22:29 17.11.2020
5363 Clouds 14 1027 87 10000 2.6 330 22:29 17.11.2020
5364 Clear 14 1027 87 10000 1 310 21:58 17.11.2020
5365 Clear 13 1027 93 10000 2.1 320 21:39 17.11.2020
5366 Clear 14 1027 93 10000 1 0 20:58 17.11.2020
5367 Clear 15 1027 87 10000 0.5 320 20:40 17.11.2020
5368 Clear 15 1027 87 10000 2.04 117 20:22 17.11.2020
5369 Clear 16 1026 82 10000 1.5 210 18:36 17.11.2020
5370 Clear 17 1026 77 10000 1.5 180 17:47 17.11.2020
5371 Clear 17 1026 72 10000 1.5 180 16:59 17.11.2020
5372 Clouds 18 1026 72 10000 2.1 160 16:29 17.11.2020
5373 Clouds 18 1026 72 10000 2.1 130 15:51 17.11.2020
5374 Clouds 18 1026 72 10000 2.6 150 15:33 17.11.2020
5375 Clouds 18 1026 72 10000 2.6 130 14:57 17.11.2020
5376 Clouds 18 1026 68 10000 2.6 120 14:28 17.11.2020
5377 Clouds 18 1027 59 10000 1.5 110 13:41 17.11.2020
5378 Clouds 18 1027 59 10000 1.5 310 13:19 17.11.2020
5379 Clouds 17 1027 63 10000 3.1 320 12:40 17.11.2020
5380 Clouds 16 1027 67 10000 5.7 330 11:44 17.11.2020
5381 Clouds 15 1027 71 10000 5.1 330 10:50 17.11.2020
5382 Clouds 14 1027 71 10000 6.2 330 10:29 17.11.2020
5383 Clouds 13 1027 81 10000 6.2 330 09:51 17.11.2020
5384 Clouds 13 1026 76 10000 5.1 330 09:29 17.11.2020
5385 Clouds 12 1026 81 10000 5.7 320 08:24 17.11.2020
5386 Clouds 12 1025 81 10000 4.6 330 07:46 17.11.2020
5387 Clouds 12 1025 76 10000 5.1 330 06:40 17.11.2020
5388 Clouds 14 1024 76 10000 4.6 340 04:20 17.11.2020
5389 Clouds 14 1024 87 10000 3.6 330 02:54 17.11.2020
5390 Clouds 15 1025 87 9000 2.1 320 01:25 17.11.2020
5391 Clouds 15 1025 87 9000 2.1 320 01:25 17.11.2020
5392 Clouds 15 1025 93 9000 2.6 320 00:56 17.11.2020
5393 Mist 16 1025 87 5000 1.5 270 23:50 16.11.2020
5394 Drizzle 16 1026 87 9000 2.6 310 23:29 16.11.2020
5395 Clouds 16 1025 77 10000 2.1 210 22:48 16.11.2020
5396 Clouds 16 1025 77 10000 1.5 230 22:21 16.11.2020
5397 Clouds 16 1025 77 10000 1.5 230 21:47 16.11.2020
5398 Clouds 16 1024 77 10000 2.6 220 21:25 16.11.2020
5399 Clouds 16 1024 77 10000 2.1 210 20:50 16.11.2020
5400 Clouds 16 1024 77 10000 2.1 200 20:24 16.11.2020
5401 Clouds 16 1024 77 10000 3.6 220 19:38 16.11.2020
5402 Clouds 16 1023 72 10000 3.1 220 19:19 16.11.2020
5403 Clouds 16 1023 72 10000 2.6 220 18:41 16.11.2020
5404 Clouds 17 1023 72 10000 2.1 210 17:51 16.11.2020
5405 Clouds 17 1023 72 10000 3.1 220 17:22 16.11.2020
5406 Clouds 17 1022 68 10000 3.1 210 16:54 16.11.2020
5407 Clouds 17 1022 68 10000 3.6 220 16:29 16.11.2020
5408 Clouds 17 1022 68 10000 4.1 210 15:57 16.11.2020
5409 Clouds 17 1022 68 10000 4.6 210 15:37 16.11.2020
5410 Clouds 17 1022 68 10000 4.6 210 15:19 16.11.2020
5411 Clouds 17 1022 63 10000 3.1 190 14:29 16.11.2020
5412 Clouds 18 1022 63 10000 2.6 140 13:33 16.11.2020
5413 Clouds 17 1022 68 10000 3.6 120 12:34 16.11.2020
5414 Clouds 17 1022 68 10000 3.6 90 11:44 16.11.2020
5415 Drizzle 17 1022 77 10000 3.6 90 11:25 16.11.2020
5416 Clouds 17 1021 82 10000 3.1 110 10:51 16.11.2020
5417 Clouds 17 1021 82 10000 3.1 110 10:27 16.11.2020
5418 Clouds 17 1021 77 10000 3.6 120 09:59 16.11.2020
5419 Clouds 17 1020 77 10000 3.1 130 09:40 16.11.2020
5420 Clouds 16 1020 82 10000 1 140 08:53 16.11.2020
5421 Clouds 16 1020 82 10000 2.1 300 08:34 16.11.2020
5422 Clouds 16 1019 82 10000 1.5 350 07:43 16.11.2020
5423 Clouds 16 1018 82 10000 4.1 60 06:47 16.11.2020
5424 Clouds 16 1018 82 10000 3.1 50 05:53 16.11.2020
5425 Clouds 16 1017 77 10000 3.1 340 04:36 16.11.2020
5426 Clouds 17 1017 72 10000 4.1 310 01:48 16.11.2020
5427 Clouds 18 1017 72 10000 4.1 310 01:21 16.11.2020
5428 Clouds 17 1017 72 10000 1 290 23:49 15.11.2020
5429 Clouds 17 1017 77 10000 1.5 240 23:21 15.11.2020
5430 Clouds 17 1017 77 10000 1.5 240 23:21 15.11.2020
5431 Clear 17 1017 82 10000 3.47 260 22:40 15.11.2020
5432 Clear 17 1017 82 10000 3.58 250 22:18 15.11.2020
5433 Clear 17 1017 82 10000 2.6 240 21:43 15.11.2020
5434 Clear 17 1017 82 10000 2.6 240 21:24 15.11.2020
5435 Clear 17 1017 77 10000 5.1 230 20:41 15.11.2020
5436 Clear 18 1017 77 10000 5.1 230 20:18 15.11.2020
5437 Clear 18 1017 68 10000 4.6 250 19:48 15.11.2020
5438 Clear 18 1017 68 10000 6.2 240 19:22 15.11.2020
5439 Clear 18 1017 68 10000 6.2 240 18:56 15.11.2020
5440 Clear 18 1017 77 10000 4.1 240 18:38 15.11.2020
5441 Clear 19 1017 77 10000 4.1 240 18:19 15.11.2020
5442 Clear 19 1017 82 10000 7.2 250 17:44 15.11.2020
5443 Clouds 19 1017 82 10000 5.1 240 17:23 15.11.2020
5444 Clear 20 1017 82 10000 8.7 230 16:45 15.11.2020
5445 Clear 20 1016 82 10000 10.3 240 16:20 15.11.2020
5446 Clouds 20 1016 77 10000 9.8 230 15:50 15.11.2020
5447 Clouds 21 1016 72 10000 8.7 230 15:26 15.11.2020
5448 Clouds 21 1016 72 10000 8.7 230 14:56 15.11.2020
5449 Clouds 21 1017 68 10000 7.7 220 14:29 15.11.2020
5450 Clouds 21 1017 68 10000 7.7 220 13:56 15.11.2020
5451 Clouds 21 1017 64 10000 9.3 230 13:36 15.11.2020
5452 Clear 20 1018 72 10000 8.7 230 12:50 15.11.2020
5453 Clear 19 1018 77 10000 5.7 220 12:22 15.11.2020
5454 Clear 19 1018 82 10000 5.1 210 11:46 15.11.2020
5455 Clouds 18 1019 82 9000 5.1 240 11:19 15.11.2020
5456 Clouds 18 1019 82 9000 5.1 240 10:53 15.11.2020
5457 Clear 17 1019 88 9000 2.1 260 10:32 15.11.2020
5458 Clear 17 1019 82 8000 2.1 300 09:57 15.11.2020
5459 Clear 16 1019 87 8000 3.1 310 09:37 15.11.2020
5460 Clear 15 1019 93 6000 3.1 320 09:18 15.11.2020
5461 Clear 15 1019 93 6000 3.1 320 08:45 15.11.2020
5462 Mist 14 1018 93 5000 2.6 310 07:47 15.11.2020
5463 Mist 14 1018 93 5000 2.6 310 07:47 15.11.2020
5464 Mist 15 1018 87 5000 2.6 320 06:50 15.11.2020
5465 Clouds 15 1018 93 6000 2.1 290 04:57 15.11.2020
5466 Clouds 15 1019 87 10000 1.5 310 02:31 15.11.2020
5467 Clouds 15 1020 87 10000 1.5 310 00:42 15.11.2020
5468 Clouds 15 1020 87 10000 1.5 310 00:24 15.11.2020
5469 Clouds 15 1020 87 10000 0.5 0 23:30 14.11.2020
5470 Clouds 15 1020 87 10000 0.5 0 22:46 14.11.2020
5471 Clouds 16 1020 87 10000 1 280 22:27 14.11.2020
5472 Clouds 16 1020 93 10000 3.1 250 21:40 14.11.2020
5473 Clouds 16 1020 93 10000 3.1 250 21:21 14.11.2020
5474 Clouds 16 1020 93 10000 3.1 240 20:48 14.11.2020
5475 Clouds 17 1020 88 10000 2.6 240 20:26 14.11.2020
5476 Clouds 17 1020 88 10000 3.1 240 19:46 14.11.2020
5477 Clouds 17 1020 88 10000 3.1 230 19:28 14.11.2020
5478 Clear 17 1019 88 10000 4.1 220 18:43 14.11.2020
5479 Clear 17 1019 88 10000 4.1 220 18:23 14.11.2020
5480 Clear 17 1019 82 10000 4.1 220 17:49 14.11.2020
5481 Clear 18 1019 82 10000 3.6 210 17:31 14.11.2020
5482 Clouds 18 1019 72 10000 3.1 210 16:57 14.11.2020
5483 Clouds 18 1019 72 10000 3.1 210 16:36 14.11.2020
5484 Clouds 19 1019 72 10000 3.1 210 16:18 14.11.2020
5485 Clouds 19 1020 72 10000 2.6 190 15:50 14.11.2020
5486 Clouds 19 1020 68 10000 3.1 170 15:21 14.11.2020
5487 Clouds 19 1020 68 10000 2.6 170 14:38 14.11.2020
5488 Clouds 20 1020 60 10000 1 0 14:20 14.11.2020
5489 Clouds 19 1021 64 10000 0.5 260 13:40 14.11.2020
5490 Clouds 19 1021 64 10000 0.5 260 13:22 14.11.2020
5491 Clouds 18 1021 63 10000 2.6 310 12:45 14.11.2020
5492 Clouds 18 1021 63 10000 2.6 330 12:27 14.11.2020
5493 Clouds 17 1022 63 10000 3.6 330 11:41 14.11.2020
5494 Clouds 16 1022 71 10000 5.1 330 11:22 14.11.2020
5495 Clouds 15 1022 76 10000 5.7 330 10:42 14.11.2020
5496 Clouds 15 1022 76 10000 5.7 330 10:23 14.11.2020
5497 Clouds 14 1022 76 10000 5.1 330 09:46 14.11.2020
5498 Clouds 13 1022 76 10000 6.2 330 09:28 14.11.2020
5499 Clouds 12 1021 81 10000 5.7 330 08:49 14.11.2020
5500 Clouds 13 1021 81 10000 6.2 330 08:26 14.11.2020
5501 Clouds 13 1021 76 10000 6.7 330 07:44 14.11.2020
5502 Clouds 13 1021 76 10000 6.7 330 07:25 14.11.2020
5503 Clouds 13 1021 81 10000 5.7 330 06:31 14.11.2020
5504 Clouds 13 1021 81 10000 5.7 330 05:29 14.11.2020
5505 Clouds 14 1021 87 10000 6.2 330 03:52 14.11.2020
5506 Clouds 15 1022 87 10000 4.6 330 00:54 14.11.2020
5507 Clouds 15 1022 87 10000 4.1 330 23:46 13.11.2020
5508 Clouds 15 1022 87 10000 3.6 330 23:23 13.11.2020
5509 Clouds 15 1022 87 10000 3.6 330 22:44 13.11.2020
5510 Clouds 15 1022 87 10000 3.6 330 22:25 13.11.2020
5511 Clouds 16 1022 82 10000 3.1 340 21:51 13.11.2020
5512 Clouds 15 1022 87 10000 2.6 340 21:33 13.11.2020
5513 Clouds 15 1022 87 10000 1 310 20:59 13.11.2020
5514 Clouds 15 1022 87 10000 2.1 340 20:40 13.11.2020
5515 Clouds 16 1022 87 10000 2.1 340 20:20 13.11.2020
5516 Clouds 16 1021 82 10000 0.39 52 19:45 13.11.2020
5517 Clouds 16 1021 82 10000 1.02 139 19:23 13.11.2020
5518 Clouds 16 1021 82 10000 1.02 139 18:54 13.11.2020
5519 Clouds 17 1021 77 10000 0.5 140 18:21 13.11.2020
5520 Clouds 17 1021 77 10000 1 150 17:41 13.11.2020
5521 Clouds 17 1021 77 10000 1 150 17:18 13.11.2020
5522 Clouds 18 1020 72 10000 2.1 140 16:48 13.11.2020
5523 Clouds 18 1020 72 10000 2.1 140 16:23 13.11.2020
5524 Clouds 19 1020 68 10000 1.5 140 15:47 13.11.2020
5525 Clouds 19 1021 68 10000 1.5 130 15:27 13.11.2020
5526 Clouds 19 1021 56 10000 2.1 190 14:45 13.11.2020
5527 Clouds 19 1021 60 10000 1 0 14:22 13.11.2020
5528 Clouds 19 1021 63 10000 1 0 13:47 13.11.2020
5529 Clouds 18 1021 63 10000 1 0 13:23 13.11.2020
5530 Clouds 18 1022 63 10000 1.5 320 12:46 13.11.2020
5531 Clouds 17 1022 67 10000 2.1 330 12:24 13.11.2020
5532 Clouds 17 1022 67 10000 2.6 320 11:48 13.11.2020
5533 Clouds 16 1022 72 10000 3.1 320 11:27 13.11.2020
5534 Clouds 16 1022 72 10000 3.6 330 10:55 13.11.2020
5535 Clouds 16 1022 76 10000 4.1 330 10:34 13.11.2020
5536 Clouds 14 1022 76 10000 5.1 320 09:56 13.11.2020
5537 Clouds 14 1022 81 10000 5.1 320 09:38 13.11.2020
5538 Clouds 13 1022 87 10000 5.1 330 09:19 13.11.2020
5539 Clouds 13 1022 87 10000 5.1 330 09:19 13.11.2020
5540 Clouds 13 1022 81 10000 5.1 320 09:19 13.11.2020
5541 Clouds 12 1022 87 10000 5.1 330 08:36 13.11.2020
5542 Clouds 12 1021 87 10000 5.7 330 07:58 13.11.2020
5543 Clouds 12 1021 87 10000 4.6 330 07:40 13.11.2020
5544 Clouds 12 1021 87 10000 4.6 330 07:21 13.11.2020
5545 Clouds 12 1021 87 10000 5.7 330 06:48 13.11.2020
5546 Clouds 12 1021 87 10000 4.1 330 05:43 13.11.2020
5547 Clouds 12 1021 87 10000 4.1 330 05:43 13.11.2020
5548 Clouds 12 1021 87 10000 4.1 330 05:23 13.11.2020
5549 Clouds 12 1022 87 9000 4.1 330 01:45 13.11.2020
5550 Clouds 12 1023 87 10000 3.1 330 00:51 13.11.2020
5551 Clouds 12 1023 87 10000 3.1 330 00:31 13.11.2020
5552 Clouds 12 1023 93 10000 2.1 330 23:38 12.11.2020
5553 Clouds 13 1023 93 10000 2.1 340 23:19 12.11.2020
5554 Clouds 13 1023 93 10000 2.1 340 23:19 12.11.2020
5555 Clouds 13 1023 93 10000 2.1 340 22:50 12.11.2020
5556 Clouds 13 1023 93 10000 2.6 320 22:32 12.11.2020
5557 Clouds 13 1023 93 10000 2.1 310 21:56 12.11.2020
5558 Clouds 14 1022 87 10000 1.5 310 21:36 12.11.2020
5559 Clouds 14 1022 87 10000 1.5 310 21:18 12.11.2020
5560 Clouds 14 1022 93 10000 0.5 290 20:39 12.11.2020
5561 Clouds 14 1022 93 10000 0.5 290 20:21 12.11.2020
5562 Clouds 16 1022 82 10000 1.05 213 19:47 12.11.2020
5563 Clouds 16 1022 82 10000 1.01 193 19:29 12.11.2020
5564 Clouds 16 1022 87 10000 1.5 210 18:52 12.11.2020
5565 Clouds 16 1022 87 10000 1.5 220 18:24 12.11.2020
5566 Clouds 16 1022 87 10000 1.5 220 18:24 12.11.2020
5567 Clouds 17 1022 82 10000 2.1 210 17:48 12.11.2020
5568 Clouds 17 1022 82 10000 2.1 210 17:29 12.11.2020
5569 Clouds 17 1022 77 10000 2.6 220 16:57 12.11.2020
5570 Clouds 18 1022 77 10000 3.6 210 16:39 12.11.2020
5571 Clouds 18 1022 77 10000 3.6 210 16:21 12.11.2020
5572 Clouds 18 1022 77 10000 3.6 220 15:42 12.11.2020
5573 Clouds 18 1022 77 10000 3.6 220 15:23 12.11.2020
5574 Clouds 19 1022 68 10000 3.6 220 14:46 12.11.2020
5575 Clouds 19 1023 77 10000 3.6 220 14:26 12.11.2020
5576 Clouds 18 1023 77 10000 3.6 220 13:55 12.11.2020
5577 Clouds 18 1023 72 10000 1.5 290 13:37 12.11.2020
5578 Clouds 17 1023 68 10000 2.1 320 13:18 12.11.2020
5579 Clouds 16 1024 67 10000 3.1 300 12:42 12.11.2020
5580 Clouds 16 1024 67 10000 3.6 320 12:19 12.11.2020
5581 Clouds 16 1024 72 10000 3.6 330 11:47 12.11.2020
5582 Clouds 15 1024 76 10000 4.1 320 11:27 12.11.2020
5583 Clouds 15 1024 76 10000 5.1 330 10:43 12.11.2020
5584 Clouds 15 1024 76 10000 5.1 330 10:24 12.11.2020
5585 Clouds 14 1023 87 10000 5.1 320 09:47 12.11.2020
5586 Clouds 14 1023 81 10000 4.6 320 09:23 12.11.2020
5587 Clouds 13 1023 81 10000 4.6 330 08:57 12.11.2020
5588 Clouds 13 1023 87 10000 4.6 330 08:39 12.11.2020
5589 Clouds 13 1023 87 10000 4.6 330 08:19 12.11.2020
5590 Clear 13 1023 87 10000 4.6 330 07:48 12.11.2020
5591 Clear 12 1023 87 10000 4.6 330 07:22 12.11.2020
5592 Clouds 12 1022 87 10000 2.1 320 06:49 12.11.2020
5593 Clouds 13 1022 87 10000 1 60 06:49 12.11.2020
5594 Clouds 13 1022 87 10000 5.1 320 05:31 12.11.2020
5595 Clouds 14 1023 87 9000 3.6 330 03:22 12.11.2020
5596 Clouds 14 1023 87 9000 3.1 320 02:41 12.11.2020
5597 Clouds 14 1023 87 10000 2.6 270 23:59 11.11.2020
5598 Clouds 15 1023 82 10000 1.5 250 23:25 11.11.2020
5599 Clouds 15 1023 87 10000 1.5 260 22:59 11.11.2020
5600 Clouds 15 1023 87 10000 0.5 0 22:39 11.11.2020
5601 Clouds 15 1023 87 10000 0.5 0 22:21 11.11.2020
5602 Clouds 15 1023 87 10000 1 0 21:43 11.11.2020
5603 Clouds 15 1023 87 10000 1 0 21:25 11.11.2020
5604 Clouds 15 1023 82 10000 3.1 250 20:59 11.11.2020
5605 Clouds 16 1023 87 10000 5.7 240 20:40 11.11.2020
5606 Clouds 16 1023 87 10000 5.7 240 20:21 11.11.2020
5607 Clouds 16 1023 82 10000 5.7 240 19:49 11.11.2020
5608 Clouds 16 1023 82 10000 5.7 240 19:31 11.11.2020
5609 Clouds 16 1023 82 10000 6.2 230 18:54 11.11.2020
5610 Clouds 17 1023 82 10000 6.2 240 18:33 11.11.2020
5611 Clouds 18 1023 72 10000 6.7 230 17:43 11.11.2020
5612 Clear 18 1023 72 10000 7.2 230 17:23 11.11.2020
5613 Clear 18 1023 72 10000 7.2 230 16:56 11.11.2020
5614 Clear 18 1023 72 10000 7.7 230 16:35 11.11.2020
5615 Clouds 19 1023 63 10000 7.7 230 15:53 11.11.2020
5616 Clouds 19 1023 63 10000 7.2 230 15:27 11.11.2020
5617 Clouds 19 1023 63 10000 7.7 240 15:00 11.11.2020
5618 Clouds 20 1023 63 10000 8.2 230 14:39 11.11.2020
5619 Clouds 20 1023 63 10000 8.2 230 14:18 11.11.2020
5620 Clouds 19 1024 63 10000 7.7 230 13:43 11.11.2020
5621 Clear 19 1024 59 10000 6.7 230 12:55 11.11.2020
5622 Clear 18 1025 59 10000 1.5 220 12:21 11.11.2020
5623 Clear 18 1025 67 10000 1 0 11:51 11.11.2020
5624 Clear 17 1025 67 10000 2.6 330 11:33 11.11.2020
5625 Clear 15 1026 76 10000 4.6 320 10:45 11.11.2020
5626 Clear 15 1026 76 10000 4.6 320 10:27 11.11.2020
5627 Clear 14 1026 81 10000 5.1 320 09:55 11.11.2020
5628 Clear 13 1026 87 10000 5.1 320 09:37 11.11.2020
5629 Clear 13 1026 87 10000 5.1 320 09:19 11.11.2020
5630 Clear 13 1026 87 10000 5.1 330 08:41 11.11.2020
5631 Clear 13 1026 87 10000 5.1 330 08:22 11.11.2020
5632 Clear 12 1025 87 10000 4.6 320 07:41 11.11.2020
5633 Clear 13 1026 87 10000 5.1 330 06:30 11.11.2020
5634 Clouds 13 1026 81 10000 5.1 330 04:49 11.11.2020
5635 Clouds 14 1027 82 10000 4.1 330 01:37 11.11.2020
5636 Clouds 14 1027 82 10000 3.6 330 00:56 11.11.2020
5637 Clouds 14 1027 82 10000 3.6 330 00:24 11.11.2020
5638 Clouds 14 1027 87 10000 2.6 330 23:37 10.11.2020
5639 Clouds 13 1027 87 10000 3.1 320 23:18 10.11.2020
5640 Clouds 14 1027 87 10000 3.1 320 22:43 10.11.2020
5641 Clouds 14 1027 87 10000 3.1 320 22:24 10.11.2020
5642 Clouds 15 1026 82 10000 2.6 320 21:41 10.11.2020
5643 Clouds 15 1026 82 10000 2.6 320 21:23 10.11.2020
5644 Clouds 15 1026 87 10000 1.5 300 20:55 10.11.2020
5645 Clouds 15 1026 82 10000 0.5 310 20:37 10.11.2020
5646 Clouds 16 1026 82 10000 1.64 195 20:19 10.11.2020
5647 Clear 16 1026 77 10000 1.64 195 19:42 10.11.2020
5648 Clear 16 1026 77 10000 1.72 196 19:23 10.11.2020
5649 Clear 17 1026 77 10000 1 0 18:43 10.11.2020
5650 Clear 17 1026 77 10000 1 0 18:24 10.11.2020
5651 Clear 17 1025 72 10000 1.5 210 17:57 10.11.2020
5652 Clear 17 1025 72 10000 1.5 220 17:38 10.11.2020
5653 Clear 18 1025 68 10000 2.1 200 17:20 10.11.2020
5654 Clear 18 1025 63 10000 2.6 200 16:41 10.11.2020
5655 Clear 19 1025 63 10000 2.6 200 16:22 10.11.2020
5656 Clouds 19 1025 63 10000 3.1 200 15:48 10.11.2020
5657 Clouds 19 1025 68 10000 2.6 210 15:27 10.11.2020
5658 Clouds 19 1025 68 10000 2.6 200 14:56 10.11.2020
5659 Clouds 19 1025 63 10000 2.1 190 14:37 10.11.2020
5660 Clouds 19 1025 63 10000 2.1 190 14:37 10.11.2020
5661 Clouds 19 1025 63 10000 2.1 180 14:18 10.11.2020
5662 Clouds 19 1025 60 10000 2.01 211 13:38 10.11.2020
5663 Clouds 18 1025 60 10000 1.54 219 13:19 10.11.2020
5664 Clouds 18 1026 63 10000 3.1 320 12:46 10.11.2020
5665 Clouds 18 1026 63 10000 3.1 320 12:25 10.11.2020
5666 Clear 17 1026 77 10000 5.1 320 11:43 10.11.2020
5667 Clear 17 1026 77 10000 5.1 320 11:43 10.11.2020
5668 Clear 16 1026 77 10000 5.1 320 11:22 10.11.2020
5669 Clear 15 1026 77 10000 5.1 320 10:57 10.11.2020
5670 Clear 15 1026 76 10000 5.7 330 10:38 10.11.2020
5671 Clear 15 1025 82 10000 5.1 330 10:20 10.11.2020
5672 Clear 14 1025 81 10000 5.1 330 09:45 10.11.2020
5673 Clear 13 1025 81 10000 5.1 330 09:25 10.11.2020
5674 Clouds 12 1025 87 10000 5.7 330 08:55 10.11.2020
5675 Clouds 13 1024 87 10000 5.1 330 08:27 10.11.2020
5676 Clouds 13 1024 87 10000 6.2 330 07:45 10.11.2020
5677 Clouds 12 1024 87 10000 5.7 330 07:24 10.11.2020
5678 Clouds 12 1023 87 10000 4.6 330 06:41 10.11.2020
5679 Clouds 12 1023 87 10000 5.1 330 05:49 10.11.2020
5680 Clouds 12 1023 81 10000 5.1 330 04:59 10.11.2020
5681 Clear 13 1023 82 10000 4.6 330 02:37 10.11.2020
5682 Clear 13 1023 82 10000 4.1 340 01:31 10.11.2020
5683 Clear 14 1023 87 10000 3.1 320 00:22 10.11.2020
5684 Clear 14 1023 87 10000 3.1 340 23:36 09.11.2020
5685 Clear 15 1023 87 10000 1.5 330 22:49 09.11.2020
5686 Clear 15 1022 87 10000 3.1 320 22:25 09.11.2020
5687 Clear 15 1022 87 10000 2.6 320 21:59 09.11.2020
5688 Clear 15 1022 87 10000 2.1 310 21:38 09.11.2020
5689 Clear 16 1022 82 10000 2.1 300 21:19 09.11.2020
5690 Clear 16 1022 87 10000 2.1 300 20:39 09.11.2020
5691 Clear 16 1022 87 10000 2.1 270 20:20 09.11.2020
5692 Clear 16 1021 87 10000 3.6 250 19:42 09.11.2020
5693 Clear 16 1021 87 10000 3.6 250 19:22 09.11.2020
5694 Clouds 17 1021 82 10000 4.1 240 18:46 09.11.2020
5695 Clouds 18 1021 82 10000 3.6 220 18:21 09.11.2020
5696 Clouds 17 1021 82 10000 3.6 220 17:58 09.11.2020
5697 Clear 18 1021 72 10000 4.6 220 17:39 09.11.2020
5698 Clear 19 1021 72 10000 4.6 210 17:21 09.11.2020
5699 Clear 20 1021 68 10000 4.6 220 16:38 09.11.2020
5700 Clear 20 1020 63 10000 4.6 220 16:19 09.11.2020
5701 Clear 19 1021 72 10000 4.1 220 15:42 09.11.2020
5702 Clear 19 1021 72 10000 4.1 220 15:24 09.11.2020
5703 Clouds 20 1021 68 10000 4.1 220 14:44 09.11.2020
5704 Clouds 19 1021 68 10000 4.1 220 14:26 09.11.2020
5705 Clouds 19 1021 68 10000 3.6 220 13:51 09.11.2020
5706 Clear 18 1021 77 10000 2.6 220 13:21 09.11.2020
5707 Clear 18 1022 72 10000 2.1 230 12:50 09.11.2020
5708 Clouds 18 1022 68 10000 1.5 300 12:26 09.11.2020
5709 Clear 17 1022 72 10000 3.6 320 11:59 09.11.2020
5710 Clear 17 1022 77 10000 3.1 320 11:41 09.11.2020
5711 Clear 16 1022 72 10000 4.6 320 11:22 09.11.2020
5712 Clear 15 1022 82 10000 5.1 330 10:43 09.11.2020
5713 Clear 15 1022 82 10000 5.1 330 10:24 09.11.2020
5714 Clear 14 1022 81 10000 5.7 330 09:51 09.11.2020
5715 Clear 12 1022 87 10000 5.1 320 09:25 09.11.2020
5716 Clear 12 1021 93 10000 6.2 330 08:44 09.11.2020
5717 Clear 12 1021 93 10000 6.2 330 08:26 09.11.2020
5718 Clear 11 1021 93 10000 5.7 320 07:41 09.11.2020
5719 Clear 11 1021 93 10000 5.7 320 07:41 09.11.2020
5720 Clear 11 1021 93 10000 5.7 320 07:21 09.11.2020
5721 Clear 12 1021 87 10000 5.1 320 06:42 09.11.2020
5722 Clear 12 1021 87 10000 3.6 320 03:32 09.11.2020
5723 Clear 13 1021 87 10000 4.1 320 01:55 09.11.2020
5724 Clear 13 1021 93 10000 3.6 320 01:37 09.11.2020
5725 Clear 14 1022 87 10000 3.1 320 23:55 08.11.2020
5726 Clear 15 1022 82 10000 3.1 320 23:37 08.11.2020
5727 Clear 15 1022 82 10000 3.1 320 23:18 08.11.2020
5728 Clear 15 1022 82 10000 3.1 320 22:41 08.11.2020
5729 Clear 15 1022 82 10000 3.1 320 22:20 08.11.2020
5730 Clear 15 1022 82 10000 2.6 310 21:42 08.11.2020
5731 Clear 15 1021 82 10000 1.5 310 21:20 08.11.2020
5732 Clear 15 1021 82 10000 1.5 310 20:55 08.11.2020
5733 Clear 16 1021 82 10000 1.5 280 20:37 08.11.2020
5734 Clear 16 1021 82 10000 1.5 250 20:18 08.11.2020
5735 Clear 17 1021 82 10000 1 0 19:43 08.11.2020
5736 Clear 17 1021 82 10000 1 0 19:21 08.11.2020
5737 Clear 17 1021 77 10000 2.1 230 18:49 08.11.2020
5738 Clear 18 1021 77 10000 3.6 250 18:22 08.11.2020
5739 Clear 18 1021 77 10000 3.6 250 17:59 08.11.2020
5740 Clouds 19 1021 72 10000 3.6 230 17:41 08.11.2020
5741 Clouds 19 1021 68 10000 4.6 220 17:20 08.11.2020
5742 Clouds 20 1021 68 10000 4.6 220 16:56 08.11.2020
5743 Clouds 19 1021 72 10000 4.6 210 16:37 08.11.2020
5744 Clouds 20 1021 72 10000 4.6 210 16:18 08.11.2020
5745 Clouds 20 1021 64 10000 2.6 200 15:43 08.11.2020
5746 Clouds 20 1021 64 10000 2.6 200 15:23 08.11.2020
5747 Clouds 20 1022 72 10000 2.6 240 14:42 08.11.2020
5748 Clouds 20 1022 72 10000 2.6 240 14:23 08.11.2020
5749 Clouds 19 1022 82 10000 3.1 210 13:47 08.11.2020
5750 Clouds 19 1023 77 10000 3.1 220 13:24 08.11.2020
5751 Clouds 19 1023 72 10000 1 0 12:47 08.11.2020
5752 Clouds 19 1023 72 10000 1 0 12:29 08.11.2020
5753 Clouds 18 1024 77 10000 2.1 320 11:58 08.11.2020
5754 Clouds 18 1024 77 10000 2.6 310 11:40 08.11.2020
5755 Clear 17 1024 82 10000 3.1 330 11:21 08.11.2020
5756 Clear 17 1024 82 10000 3.1 330 10:51 08.11.2020
5757 Clear 15 1023 87 10000 3.1 320 10:20 08.11.2020
5758 Clear 15 1023 87 10000 3.1 320 09:59 08.11.2020
5759 Clear 15 1023 93 10000 3.6 320 09:40 08.11.2020
5760 Clear 15 1023 87 10000 3.6 320 09:18 08.11.2020
5761 Clear 15 1023 93 10000 3.6 320 08:41 08.11.2020
5762 Clear 14 1023 93 10000 3.1 320 08:20 08.11.2020
5763 Clear 14 1023 93 10000 3.1 320 07:52 08.11.2020
5764 Clear 14 1023 93 9000 3.1 320 07:29 08.11.2020
5765 Fog 14 1022 93 8000 3.1 320 06:24 08.11.2020
5766 Fog 14 1022 93 8000 3.1 320 05:53 08.11.2020
5767 Fog 14 1022 93 8000 2.6 310 04:50 08.11.2020
5768 Clouds 14 1023 93 10000 3.6 320 01:54 08.11.2020
5769 Clouds 14 1023 93 10000 3.6 320 01:19 08.11.2020
5770 Clouds 14 1023 100 10000 2.1 320 00:30 08.11.2020
5771 Clouds 14 1023 93 10000 1.5 330 23:50 07.11.2020
5772 Clouds 15 1023 93 10000 2.1 320 23:30 07.11.2020
5773 Clear 15 1022 100 10000 1 290 22:47 07.11.2020
5774 Clouds 15 1022 93 9000 1.5 330 22:28 07.11.2020
5775 Clouds 15 1022 93 9000 1.5 330 21:56 07.11.2020
5776 Clear 15 1022 100 10000 2.19 264 21:38 07.11.2020
5777 Clear 15 1022 93 10000 2.69 256 21:19 07.11.2020
5778 Clear 16 1022 93 10000 1 10 20:45 07.11.2020
5779 Clear 16 1022 93 10000 1 10 20:26 07.11.2020
5780 Clear 17 1021 93 10000 0.5 30 19:45 07.11.2020
5781 Clear 17 1021 93 10000 1 250 19:27 07.11.2020
5782 Clouds 17 1020 88 10000 2.1 230 18:43 07.11.2020
5783 Clouds 18 1020 88 10000 3.6 240 18:25 07.11.2020
5784 Clouds 18 1020 88 10000 2.6 230 17:48 07.11.2020
5785 Clouds 18 1020 88 10000 2.6 230 17:29 07.11.2020
5786 Clouds 18 1020 82 10000 2.1 220 16:46 07.11.2020
5787 Clouds 19 1020 88 9000 2.6 180 16:26 07.11.2020
5788 Clouds 19 1020 88 9000 2.6 210 15:58 07.11.2020
5789 Clouds 19 1020 88 8000 2.1 210 15:39 07.11.2020
5790 Clouds 19 1020 88 8000 2.1 210 15:20 07.11.2020
5791 Clouds 18 1020 88 8000 2.6 200 14:42 07.11.2020
5792 Clouds 18 1020 88 8000 2.6 200 14:24 07.11.2020
5793 Clouds 18 1020 88 8000 4.1 180 13:52 07.11.2020
5794 Clouds 17 1020 93 8000 1.5 180 13:30 07.11.2020
5795 Rain 17 1021 93 6000 5.1 210 12:44 07.11.2020
5796 Rain 18 1021 93 1500 8.2 220 12:20 07.11.2020
5797 Clouds 18 1021 82 7000 6.2 190 11:41 07.11.2020
5798 Clouds 19 1021 82 7000 6.2 190 11:22 07.11.2020
5799 Clouds 19 1020 93 8000 7.2 80 10:45 07.11.2020
5800 Rain 18 1020 93 8000 7.2 80 10:25 07.11.2020
5801 Clouds 18 1021 88 8000 9.3 80 09:52 07.11.2020
5802 Clouds 18 1020 93 8000 7.2 90 09:34 07.11.2020
5803 Clouds 18 1020 88 8000 9.8 70 08:53 07.11.2020
5804 Clouds 18 1020 82 10000 9.8 70 08:34 07.11.2020
5805 Clouds 18 1020 88 10000 9.8 60 07:51 07.11.2020
5806 Clouds 18 1020 88 10000 11.3 60 07:28 07.11.2020
5807 Clouds 17 1020 82 10000 12.9 60 06:47 07.11.2020
5808 Clouds 17 1021 88 10000 11.3 60 05:24 07.11.2020
5809 Clouds 18 1021 88 10000 10.8 60 03:24 07.11.2020
5810 Clouds 18 1023 82 10000 8.7 60 01:29 07.11.2020
5811 Clouds 18 1023 82 10000 9.3 60 00:59 07.11.2020
5812 Clouds 18 1023 82 10000 9.8 60 23:56 06.11.2020
5813 Clouds 18 1023 88 10000 8.7 60 23:22 06.11.2020
5814 Clouds 18 1023 88 10000 8.7 60 22:44 06.11.2020
5815 Clouds 18 1023 88 10000 8.2 60 22:19 06.11.2020
5816 Clouds 18 1023 88 10000 9.3 60 21:47 06.11.2020
5817 Clouds 18 1023 82 10000 8.7 60 21:22 06.11.2020
5818 Clouds 18 1023 82 10000 8.7 60 20:59 06.11.2020
5819 Clouds 18 1023 82 10000 8.2 60 20:41 06.11.2020
5820 Clouds 18 1023 82 10000 8.2 60 20:19 06.11.2020
5821 Clouds 18 1023 88 10000 8.7 60 19:45 06.11.2020
5822 Clouds 18 1023 88 10000 8.7 60 19:26 06.11.2020
5823 Clouds 18 1023 82 10000 9.3 60 18:46 06.11.2020
5824 Clouds 18 1023 82 10000 8.7 60 18:24 06.11.2020
5825 Clouds 18 1023 82 10000 8.7 60 17:51 06.11.2020
5826 Clouds 18 1023 82 10000 8.2 60 17:31 06.11.2020
5827 Clouds 18 1024 82 10000 8.7 60 16:50 06.11.2020
5828 Clouds 18 1024 82 10000 8.7 60 16:32 06.11.2020
5829 Clouds 18 1024 82 10000 8.7 60 16:32 06.11.2020
5830 Clouds 18 1024 82 10000 9.3 60 15:55 06.11.2020
5831 Clouds 19 1024 82 10000 8.2 60 15:33 06.11.2020
5832 Clouds 19 1024 77 10000 8.7 60 14:54 06.11.2020
5833 Clouds 19 1025 77 10000 8.7 60 14:28 06.11.2020
5834 Clouds 18 1025 82 10000 9.8 60 13:49 06.11.2020
5835 Clouds 18 1025 82 10000 9.3 60 13:26 06.11.2020
5836 Clouds 18 1026 82 10000 9.3 60 12:55 06.11.2020
5837 Clouds 18 1026 88 10000 8.2 60 12:36 06.11.2020
5838 Clouds 18 1026 88 10000 8.2 60 12:18 06.11.2020
5839 Clouds 18 1026 82 10000 7.7 60 11:36 06.11.2020
5840 Clouds 18 1026 82 10000 8.7 60 10:52 06.11.2020
5841 Clouds 18 1026 82 10000 9.3 60 10:32 06.11.2020
5842 Clouds 17 1026 82 10000 8.2 50 09:50 06.11.2020
5843 Clouds 17 1026 88 10000 7.7 50 09:27 06.11.2020
5844 Clouds 17 1026 88 10000 8.2 60 08:58 06.11.2020
5845 Clouds 17 1026 88 10000 8.2 50 08:40 06.11.2020
5846 Clouds 17 1026 88 10000 8.2 50 08:18 06.11.2020
5847 Clouds 17 1025 82 10000 8.2 60 07:40 06.11.2020
5848 Clouds 17 1025 82 10000 8.2 60 07:18 06.11.2020
5849 Clouds 17 1025 82 10000 9.3 50 06:39 06.11.2020
5850 Clouds 17 1025 88 10000 8.2 60 05:37 06.11.2020
5851 Clouds 17 1025 82 10000 7.2 70 01:56 06.11.2020
5852 Clouds 17 1025 82 10000 8.7 60 00:24 06.11.2020
5853 Clouds 18 1025 82 10000 7.7 60 23:50 05.11.2020
5854 Clouds 17 1025 82 10000 8.2 60 23:20 05.11.2020
5855 Clouds 18 1026 82 10000 9.3 60 22:44 05.11.2020
5856 Clouds 18 1025 77 10000 9.8 60 22:25 05.11.2020
5857 Clouds 17 1025 77 10000 9.8 60 21:56 05.11.2020
5858 Clouds 17 1025 77 10000 9.3 60 21:38 05.11.2020
5859 Clouds 17 1025 77 10000 9.3 60 21:18 05.11.2020
5860 Clouds 17 1026 77 10000 8.7 70 20:42 05.11.2020
5861 Clouds 17 1026 72 10000 8.2 60 20:22 05.11.2020
5862 Clouds 17 1026 72 10000 8.2 60 19:44 05.11.2020
5863 Clouds 17 1026 72 10000 8.2 60 19:26 05.11.2020
5864 Clouds 17 1026 72 10000 7.2 60 18:56 05.11.2020
5865 Clouds 17 1026 72 10000 7.2 60 18:38 05.11.2020
5866 Clouds 17 1025 72 10000 7.2 60 18:20 05.11.2020
5867 Clouds 17 1025 72 10000 7.7 60 17:43 05.11.2020
5868 Clouds 17 1025 72 10000 7.7 60 17:25 05.11.2020
5869 Clouds 18 1025 68 10000 7.7 60 16:46 05.11.2020
5870 Clouds 18 1025 68 10000 7.7 60 16:27 05.11.2020
5871 Clouds 18 1025 68 10000 6.7 60 15:51 05.11.2020
5872 Clouds 18 1025 68 10000 8.7 60 15:27 05.11.2020
5873 Clouds 18 1026 68 10000 8.7 60 14:55 05.11.2020
5874 Clouds 18 1026 68 10000 8.7 60 14:36 05.11.2020
5875 Clouds 17 1026 68 10000 9.3 50 14:18 05.11.2020
5876 Clouds 17 1026 68 10000 9.3 60 13:40 05.11.2020
5877 Clouds 17 1027 68 10000 9.8 60 12:56 05.11.2020
5878 Clouds 17 1027 68 10000 9.8 60 12:38 05.11.2020
5879 Clouds 17 1027 68 10000 10.3 70 12:19 05.11.2020
5880 Clouds 17 1027 72 10000 9.3 70 11:41 05.11.2020
5881 Clouds 17 1027 72 10000 9.3 70 11:22 05.11.2020
5882 Clouds 17 1027 67 10000 9.3 60 10:48 05.11.2020
5883 Clouds 16 1027 67 10000 9.3 60 10:26 05.11.2020
5884 Clouds 16 1027 71 10000 3.1 350 09:49 05.11.2020
5885 Clouds 14 1027 71 10000 3.6 330 09:24 05.11.2020
5886 Clouds 14 1026 76 10000 3.1 340 08:49 05.11.2020
5887 Clouds 14 1026 76 10000 3.1 340 08:31 05.11.2020
5888 Clouds 14 1026 71 10000 4.1 330 07:55 05.11.2020
5889 Clouds 14 1026 71 10000 4.6 320 07:27 05.11.2020
5890 Clouds 13 1026 71 10000 3.6 330 06:43 05.11.2020
5891 Clouds 13 1026 81 10000 4.1 330 06:20 05.11.2020
5892 Clouds 12 1026 81 10000 3.1 330 03:27 05.11.2020
5893 Clouds 13 1025 76 10000 3.1 340 00:37 05.11.2020
5894 Clouds 13 1025 76 10000 3.1 330 23:53 04.11.2020
5895 Clouds 13 1025 71 10000 3.1 320 23:27 04.11.2020
5896 Clouds 13 1025 71 10000 4.6 320 22:57 04.11.2020
5897 Clouds 14 1025 71 10000 3.6 320 22:38 04.11.2020
5898 Clouds 14 1025 71 10000 3.6 320 22:19 04.11.2020
5899 Clouds 14 1024 82 10000 3.1 330 21:46 04.11.2020
5900 Clouds 14 1024 82 10000 3.1 330 21:27 04.11.2020
5901 Clear 14 1024 87 10000 1.5 340 20:53 04.11.2020
5902 Clear 14 1023 87 10000 3.6 330 20:35 04.11.2020
5903 Clear 14 1023 87 10000 3.6 320 19:59 04.11.2020
5904 Clear 15 1023 76 10000 3.1 330 19:40 04.11.2020
5905 Clear 15 1023 76 10000 3.1 330 19:40 04.11.2020
5906 Clouds 15 1023 82 10000 3.6 320 19:22 04.11.2020
5907 Clouds 15 1022 76 10000 3.1 320 18:41 04.11.2020
5908 Clouds 15 1022 76 10000 3.1 320 18:22 04.11.2020
5909 Clouds 15 1022 76 10000 3.1 330 17:47 04.11.2020
5910 Clouds 15 1022 76 10000 3.1 330 17:27 04.11.2020
5911 Clouds 15 1022 76 10000 3.1 340 16:46 04.11.2020
5912 Clouds 15 1022 76 10000 3.6 320 16:27 04.11.2020
5913 Clouds 15 1022 82 10000 4.1 330 15:59 04.11.2020
5914 Clouds 15 1022 76 10000 3.1 320 15:40 04.11.2020
5915 Clouds 15 1022 76 10000 3.1 320 15:20 04.11.2020
5916 Clouds 15 1022 76 10000 4.1 330 14:44 04.11.2020
5917 Clouds 15 1022 76 10000 4.1 330 14:24 04.11.2020
5918 Clouds 15 1022 82 10000 4.6 330 13:51 04.11.2020
5919 Clouds 15 1022 82 10000 4.1 320 13:21 04.11.2020
5920 Clouds 15 1023 82 10000 4.6 320 12:58 04.11.2020
5921 Clouds 15 1023 82 10000 4.1 320 12:40 04.11.2020
5922 Clouds 15 1023 82 10000 4.1 320 12:22 04.11.2020
5923 Clouds 14 1023 87 10000 4.6 340 11:45 04.11.2020
5924 Clouds 14 1023 87 10000 5.1 340 11:21 04.11.2020
5925 Clouds 13 1024 82 10000 5.1 330 10:49 04.11.2020
5926 Clouds 14 1024 87 10000 5.1 330 10:24 04.11.2020
5927 Clouds 14 1023 87 10000 4.1 330 10:24 04.11.2020
5928 Clouds 13 1023 87 10000 4.1 330 09:55 04.11.2020
5929 Clouds 13 1023 87 10000 4.6 330 09:28 04.11.2020
5930 Clouds 13 1023 87 10000 5.1 330 08:49 04.11.2020
5931 Clouds 13 1022 87 10000 4.1 320 08:23 04.11.2020
5932 Clouds 13 1022 87 10000 4.1 320 07:57 04.11.2020
5933 Drizzle 13 1022 87 10000 4.1 350 07:37 04.11.2020
5934 Drizzle 13 1022 87 10000 4.1 350 07:18 04.11.2020
5935 Clouds 13 1022 87 10000 5.7 340 06:39 04.11.2020
5936 Clouds 14 1023 93 10000 5.1 330 04:59 04.11.2020
5937 Clouds 14 1024 100 8000 4.1 320 02:31 04.11.2020
5938 Rain 14 1024 93 9000 3.6 360 01:38 04.11.2020
5939 Rain 15 1024 93 4000 5.1 340 00:25 04.11.2020
5940 Clouds 16 1024 82 10000 6.2 340 23:28 03.11.2020
5941 Clouds 16 1025 82 10000 5.1 340 22:57 03.11.2020
5942 Clouds 17 1025 82 10000 3.6 340 22:38 03.11.2020
5943 Clouds 17 1025 77 10000 1 320 22:19 03.11.2020
5944 Clouds 17 1025 77 10000 3.25 206 21:43 03.11.2020
5945 Clouds 17 1025 77 10000 4.58 217 21:24 03.11.2020
5946 Clouds 17 1025 77 10000 1 0 20:49 03.11.2020
5947 Clouds 17 1025 77 10000 2.1 100 20:27 03.11.2020
5948 Clouds 17 1025 77 10000 1.5 110 19:57 03.11.2020
5949 Clouds 18 1025 77 10000 2.1 110 19:38 03.11.2020
5950 Clouds 18 1025 77 10000 2.6 100 19:19 03.11.2020
5951 Clouds 17 1025 77 10000 3.1 100 18:41 03.11.2020
5952 Clouds 18 1025 77 10000 3.1 100 18:19 03.11.2020
5953 Clouds 18 1025 77 10000 3.6 100 17:47 03.11.2020
5954 Clouds 18 1025 77 10000 3.6 100 17:29 03.11.2020
5955 Clouds 18 1024 77 10000 4.6 80 16:51 03.11.2020
5956 Clouds 18 1024 77 10000 4.6 80 16:31 03.11.2020
5957 Clouds 18 1024 77 9000 4.6 80 15:58 03.11.2020
5958 Clouds 18 1024 82 8000 3.1 140 15:40 03.11.2020
5959 Clouds 18 1024 77 9000 5.1 70 15:19 03.11.2020
5960 Clouds 19 1024 77 9000 5.7 70 14:43 03.11.2020
5961 Clouds 19 1024 77 9000 5.7 70 14:25 03.11.2020
5962 Clouds 19 1025 68 9000 4.6 70 13:42 03.11.2020
5963 Clouds 19 1025 72 8000 3.6 40 13:21 03.11.2020
5964 Clouds 19 1025 77 8000 2.1 30 12:47 03.11.2020
5965 Clouds 19 1025 77 8000 2.1 30 12:26 03.11.2020
5966 Clouds 19 1025 82 8000 2.6 80 11:47 03.11.2020
5967 Clouds 18 1025 88 7000 2.6 60 11:26 03.11.2020
5968 Clouds 18 1025 88 7000 2.6 60 10:59 03.11.2020
5969 Clouds 18 1025 88 7000 2.1 70 10:38 03.11.2020
5970 Clouds 17 1025 88 7000 1.5 30 10:18 03.11.2020
5971 Clouds 17 1025 88 7000 1.5 30 09:45 03.11.2020
5972 Mist 17 1024 93 5000 2.1 30 09:24 03.11.2020
5973 Mist 17 1024 93 5000 2.1 30 08:49 03.11.2020
5974 Mist 17 1024 93 5000 2.1 30 08:30 03.11.2020
5975 Clouds 17 1023 88 7000 1.5 40 07:41 03.11.2020
5976 Clouds 17 1023 88 7000 2.6 40 07:20 03.11.2020
5977 Clouds 17 1023 88 7000 2.6 40 06:34 03.11.2020
5978 Clouds 17 1023 88 7000 2.1 20 04:37 03.11.2020
5979 Clouds 18 1023 82 7000 0.5 0 00:46 03.11.2020
5980 Clouds 18 1023 82 7000 0.5 0 00:24 03.11.2020
5981 Clouds 17 1023 88 7000 0.5 310 23:46 02.11.2020
5982 Clouds 17 1023 88 10000 1 340 23:28 02.11.2020
5983 Clouds 17 1023 82 10000 1.5 320 22:44 02.11.2020
5984 Clouds 17 1023 82 10000 1.5 320 22:25 02.11.2020
5985 Clouds 17 1023 82 10000 2.1 220 21:56 02.11.2020
5986 Clouds 18 1023 82 10000 2.6 220 21:36 02.11.2020
5987 Clouds 18 1022 82 10000 2.6 220 21:18 02.11.2020
5988 Clouds 18 1022 82 10000 3.1 240 20:38 02.11.2020
5989 Clouds 18 1022 88 10000 3.1 220 20:19 02.11.2020
5990 Clouds 18 1022 88 10000 3.1 220 19:44 02.11.2020
5991 Clouds 18 1022 88 10000 4.1 220 19:25 02.11.2020
5992 Clouds 18 1021 82 10000 5.1 220 18:43 02.11.2020
5993 Clouds 18 1021 82 10000 5.1 220 18:43 02.11.2020
5994 Clouds 18 1021 82 10000 5.1 220 18:22 02.11.2020
5995 Clouds 19 1021 82 10000 5.7 220 17:59 02.11.2020
5996 Clouds 19 1021 82 10000 6.7 220 17:40 02.11.2020
5997 Clouds 19 1020 82 10000 6.7 220 17:20 02.11.2020
5998 Clouds 20 1020 77 10000 8.2 220 16:48 02.11.2020
5999 Clear 20 1020 77 10000 7.7 220 16:24 02.11.2020
6000 Clear 21 1020 77 10000 7.7 220 15:46 02.11.2020
6001 Clear 21 1020 77 10000 7.7 220 15:25 02.11.2020
6002 Clear 21 1021 77 10000 8.7 220 14:59 02.11.2020
6003 Clear 21 1021 77 10000 9.3 220 14:40 02.11.2020
6004 Clear 21 1021 77 10000 9.3 220 14:18 02.11.2020
6005 Clouds 21 1021 72 10000 8.7 230 13:44 02.11.2020
6006 Clouds 21 1022 72 10000 8.7 230 13:21 02.11.2020
6007 Clouds 21 1022 77 10000 8.2 230 12:43 02.11.2020
6008 Clouds 21 1022 72 10000 8.2 230 12:21 02.11.2020
6009 Clouds 20 1022 72 10000 8.2 230 11:45 02.11.2020
6010 Clouds 20 1022 77 10000 8.2 240 11:20 02.11.2020
6011 Clouds 19 1022 88 7000 7.2 240 10:45 02.11.2020
6012 Clouds 19 1022 88 7000 7.2 240 10:24 02.11.2020
6013 Clouds 18 1022 88 7000 2.6 300 09:55 02.11.2020
6014 Clouds 17 1022 82 7000 3.1 310 09:26 02.11.2020
6015 Clear 16 1022 87 7000 3.1 300 08:48 02.11.2020
6016 Clear 16 1021 87 7000 3.1 300 08:29 02.11.2020
6017 Clear 14 1021 87 8000 2.1 300 07:55 02.11.2020
6018 Clouds 13 1021 87 10000 3.1 300 07:32 02.11.2020
6019 Clouds 13 1021 82 10000 2.6 300 06:44 02.11.2020
6020 Clouds 13 1021 87 10000 3.1 310 04:56 02.11.2020
6021 Clouds 15 1022 87 10000 2.1 280 01:26 02.11.2020
6022 Clouds 15 1023 87 10000 3.6 320 00:37 02.11.2020
6023 Clouds 15 1023 87 10000 2.1 320 23:56 01.11.2020
6024 Clouds 15 1023 93 10000 1.5 290 23:37 01.11.2020
6025 Clear 15 1023 87 10000 2.1 290 23:19 01.11.2020
6026 Clear 16 1023 87 10000 1.5 290 22:41 01.11.2020
6027 Clear 16 1023 87 10000 1.5 290 22:18 01.11.2020
6028 Clear 17 1022 93 10000 1.5 270 21:41 01.11.2020
6029 Clear 17 1022 93 10000 2.1 250 21:23 01.11.2020
6030 Clear 18 1022 93 10000 1 240 20:46 01.11.2020
6031 Clear 18 1022 93 10000 1 240 20:25 01.11.2020
6032 Clear 18 1022 88 10000 3.1 230 19:46 01.11.2020
6033 Clear 18 1022 88 10000 3.1 250 19:28 01.11.2020
6034 Clouds 18 1022 88 10000 5.7 230 18:58 01.11.2020
6035 Clear 19 1021 88 10000 6.2 220 18:38 01.11.2020
6036 Clear 19 1021 88 10000 6.7 230 18:19 01.11.2020
6037 Clear 19 1021 88 10000 6.7 230 18:19 01.11.2020
6038 Clear 20 1021 88 10000 6.7 230 17:45 01.11.2020
6039 Clear 20 1021 88 10000 7.2 220 17:27 01.11.2020
6040 Clear 21 1022 82 10000 7.7 220 16:45 01.11.2020
6041 Clear 21 1022 82 10000 7.7 220 16:26 01.11.2020
6042 Clear 22 1022 77 10000 7.2 220 15:58 01.11.2020
6043 Clear 22 1022 82 10000 7.7 230 15:38 01.11.2020
6044 Clear 22 1022 82 10000 7.7 230 15:19 01.11.2020
6045 Clear 22 1022 82 10000 8.2 220 14:46 01.11.2020
6046 Clear 21 1022 82 10000 8.2 220 14:22 01.11.2020
6047 Clear 21 1022 77 10000 7.7 220 13:57 01.11.2020
6048 Clear 21 1022 77 10000 6.7 220 13:39 01.11.2020
6049 Clear 21 1023 77 10000 5.1 230 13:21 01.11.2020
6050 Clear 21 1023 46 10000 2.1 140 12:42 01.11.2020
6051 Clear 21 1023 88 10000 5.1 230 12:19 01.11.2020
6052 Clear 20 1023 82 10000 4.6 230 11:48 01.11.2020
6053 Clear 20 1023 82 10000 5.1 220 11:18 01.11.2020
6054 Clear 19 1023 72 10000 2.6 300 10:42 01.11.2020
6055 Clear 18 1023 72 10000 2.6 300 10:24 01.11.2020
6056 Clouds 16 1023 76 10000 3.1 320 09:49 01.11.2020
6057 Clouds 15 1023 76 10000 4.1 320 09:26 01.11.2020
6058 Clouds 13 1023 81 10000 3.6 320 08:40 01.11.2020
6059 Clouds 13 1022 76 10000 4.1 320 07:57 01.11.2020
6060 Clouds 13 1022 81 10000 2.6 310 07:21 01.11.2020
6061 Mist 14 1023 93 4000 3.6 0 02:32 01.11.2020
6062 Clouds 14 1024 93 8000 3.1 320 01:42 01.11.2020
6063 Clouds 15 1024 87 10000 3.1 330 00:22 01.11.2020
6064 Clouds 15 1024 82 10000 2.1 350 23:24 31.10.2020
6065 Clouds 15 1024 82 10000 2.1 350 22:45 31.10.2020
6066 Clouds 15 1024 87 10000 1.5 300 22:24 31.10.2020
6067 Clouds 16 1024 87 10000 1.5 300 21:47 31.10.2020
6068 Clouds 16 1024 87 10000 1.5 300 21:47 31.10.2020
6069 Clouds 16 1023 93 10000 2.6 260 21:23 31.10.2020
6070 Clouds 17 1023 93 10000 2.6 260 20:59 31.10.2020
6071 Clouds 17 1023 93 10000 4.6 250 20:38 31.10.2020
6072 Clouds 17 1023 88 10000 5.7 240 20:18 31.10.2020
6073 Clouds 17 1022 88 10000 6.7 230 19:38 31.10.2020
6074 Clouds 18 1022 93 10000 5.7 230 19:19 31.10.2020
6075 Clouds 18 1021 93 10000 5.7 220 18:45 31.10.2020
6076 Clouds 19 1021 82 10000 5.7 220 17:56 31.10.2020
6077 Clouds 20 1021 82 10000 7.7 220 17:37 31.10.2020
6078 Clear 21 1021 77 10000 7.7 220 17:18 31.10.2020
6079 Clear 20 1021 72 10000 7.7 220 16:41 31.10.2020
6080 Clear 21 1021 72 10000 7.7 220 16:20 31.10.2020
6081 Clear 22 1022 72 10000 8.2 220 15:42 31.10.2020
6082 Clear 22 1022 72 10000 8.2 220 15:22 31.10.2020
6083 Clear 22 1022 68 10000 8.7 220 14:46 31.10.2020
6084 Clear 22 1022 68 10000 8.7 220 14:46 31.10.2020
6085 Clear 22 1022 68 10000 8.7 220 14:27 31.10.2020
6086 Clear 22 1023 72 10000 7.2 220 13:50 31.10.2020
6087 Clear 22 1023 72 10000 7.2 220 13:24 31.10.2020
6088 Clear 21 1024 72 10000 6.2 230 12:42 31.10.2020
6089 Clear 20 1024 77 10000 6.2 220 11:48 31.10.2020
6090 Clear 20 1024 77 10000 5.1 230 11:29 31.10.2020
6091 Clear 19 1024 72 10000 2.1 280 10:57 31.10.2020
6092 Clear 19 1024 63 10000 3.1 310 10:35 31.10.2020
6093 Clear 15 1024 71 10000 3.6 320 09:43 31.10.2020
6094 Clear 15 1024 71 10000 3.6 320 09:25 31.10.2020
6095 Clear 13 1024 76 10000 3.6 330 08:40 31.10.2020
6096 Clear 13 1024 76 10000 4.1 310 07:59 31.10.2020
6097 Clear 12 1024 76 10000 4.6 320 07:27 31.10.2020
6098 Clear 13 1024 76 10000 4.1 320 06:42 31.10.2020
6099 Clear 13 1024 76 10000 4.1 320 06:19 31.10.2020
6100 Clear 13 1024 76 10000 3.6 310 03:46 31.10.2020
6101 Clouds 15 1024 82 10000 2.6 320 01:30 31.10.2020
6102 Clouds 16 1025 77 10000 2.1 280 00:47 31.10.2020
6103 Clouds 16 1025 87 10000 2.1 310 23:53 30.10.2020
6104 Clouds 16 1025 87 10000 2.1 310 23:26 30.10.2020
6105 Clouds 16 1024 87 10000 1 300 22:53 30.10.2020
6106 Clouds 16 1024 87 10000 2.38 270 22:27 30.10.2020
6107 Clouds 16 1024 87 10000 1 280 21:59 30.10.2020
6108 Clouds 16 1024 87 10000 1 0 21:40 30.10.2020
6109 Clouds 17 1024 87 10000 1 0 21:21 30.10.2020
6110 Clouds 17 1024 88 10000 3.1 240 20:42 30.10.2020
6111 Clouds 17 1024 88 10000 3.1 240 20:24 30.10.2020
6112 Clouds 17 1024 88 10000 2.1 240 19:52 30.10.2020
6113 Clear 18 1024 88 10000 3.6 220 19:19 30.10.2020
6114 Clear 18 1024 88 10000 3.6 220 18:52 30.10.2020
6115 Clear 18 1024 88 10000 4.6 210 18:33 30.10.2020
6116 Clear 19 1024 88 10000 4.6 220 17:56 30.10.2020
6117 Clear 20 1024 77 10000 5.7 220 17:36 30.10.2020
6118 Clear 20 1024 77 10000 5.1 220 17:18 30.10.2020
6119 Clear 21 1024 77 10000 5.1 220 16:49 30.10.2020
6120 Clear 21 1024 77 10000 5.1 220 16:19 30.10.2020
6121 Clear 21 1024 72 10000 5.1 220 15:41 30.10.2020
6122 Clear 22 1024 68 10000 4.6 220 15:20 30.10.2020
6123 Clear 22 1024 68 10000 4.6 220 14:45 30.10.2020
6124 Clear 22 1024 68 10000 5.7 220 14:26 30.10.2020
6125 Clear 21 1024 60 10000 4.1 210 13:55 30.10.2020
6126 Clear 21 1025 60 10000 3.1 220 13:37 30.10.2020
6127 Clear 21 1025 60 10000 3.1 220 13:18 30.10.2020
6128 Clear 20 1026 60 10000 1.5 220 12:40 30.10.2020
6129 Clear 20 1026 60 10000 1.5 220 12:21 30.10.2020
6130 Clear 19 1026 59 10000 2.1 310 11:43 30.10.2020
6131 Clear 18 1026 63 10000 3.1 310 11:20 30.10.2020
6132 Clear 19 1026 63 10000 3.1 310 10:47 30.10.2020
6133 Clear 18 1026 67 10000 4.1 320 10:23 30.10.2020
6134 Clear 16 1026 76 10000 4.6 320 09:46 30.10.2020
6135 Clear 16 1026 76 10000 4.6 320 09:24 30.10.2020
6136 Clouds 15 1025 81 10000 4.1 320 08:46 30.10.2020
6137 Clouds 15 1025 81 10000 4.6 330 08:26 30.10.2020
6138 Clouds 15 1025 81 10000 4.6 330 07:51 30.10.2020
6139 Clouds 15 1025 81 10000 4.1 330 07:33 30.10.2020
6140 Clouds 14 1025 76 10000 5.7 330 06:47 30.10.2020
6141 Clouds 14 1025 81 10000 5.1 320 05:22 30.10.2020
6142 Clouds 15 1026 76 10000 4.6 320 02:28 30.10.2020
6143 Clouds 16 1026 77 10000 3.1 320 00:46 30.10.2020
6144 Clouds 16 1026 82 10000 3.6 320 23:54 29.10.2020
6145 Clouds 16 1026 82 10000 2.6 320 23:36 29.10.2020
6146 Clouds 16 1026 82 10000 2.6 320 23:18 29.10.2020
6147 Clouds 17 1026 77 10000 1.5 330 22:41 29.10.2020
6148 Clear 17 1026 72 10000 1.5 320 22:23 29.10.2020
6149 Clear 17 1025 67 10000 1.5 290 21:40 29.10.2020
6150 Clear 17 1025 67 10000 1.5 290 21:20 29.10.2020
6151 Clear 17 1025 72 10000 3.6 250 20:42 29.10.2020
6152 Clear 17 1025 72 10000 4.6 230 20:20 29.10.2020
6153 Clear 17 1025 77 10000 4.6 220 19:43 29.10.2020
6154 Clear 18 1025 77 10000 4.6 220 19:22 29.10.2020
6155 Clear 18 1025 77 10000 4.6 220 18:56 29.10.2020
6156 Clear 18 1025 82 10000 3.1 220 18:37 29.10.2020
6157 Clear 19 1025 82 10000 3.1 220 18:18 29.10.2020
6158 Clear 19 1024 82 10000 4.1 210 17:41 29.10.2020
6159 Clouds 20 1025 77 10000 5.1 230 17:21 29.10.2020
6160 Clouds 20 1025 77 10000 5.1 230 16:46 29.10.2020
6161 Clouds 21 1024 72 10000 5.1 230 16:20 29.10.2020
6162 Clouds 21 1024 72 10000 5.1 230 15:57 29.10.2020
6163 Clouds 21 1024 77 10000 5.1 220 15:38 29.10.2020
6164 Clouds 21 1025 77 10000 5.1 220 15:19 29.10.2020
6165 Clouds 20 1025 77 10000 5.1 220 14:45 29.10.2020
6166 Clouds 20 1025 82 10000 5.1 220 14:23 29.10.2020
6167 Clouds 20 1025 82 10000 5.1 220 13:48 29.10.2020
6168 Clouds 20 1026 77 10000 3.6 200 13:28 29.10.2020
6169 Clouds 20 1026 72 10000 3.1 200 12:57 29.10.2020
6170 Clouds 20 1026 72 10000 1.5 260 12:39 29.10.2020
6171 Clouds 19 1027 68 10000 1.5 290 12:18 29.10.2020
6172 Clouds 19 1027 68 10000 3.1 330 11:42 29.10.2020
6173 Clouds 17 1026 67 10000 3.1 330 11:24 29.10.2020
6174 Clouds 17 1026 77 10000 3.6 330 10:37 29.10.2020
6175 Clouds 17 1026 77 10000 3.6 330 10:19 29.10.2020
6176 Clouds 16 1026 76 10000 4.1 320 09:50 29.10.2020
6177 Clouds 15 1026 76 10000 5.1 330 09:28 29.10.2020
6178 Clouds 14 1026 76 10000 4.6 330 08:52 29.10.2020
6179 Clouds 13 1025 81 10000 4.1 330 08:26 29.10.2020
6180 Clouds 13 1025 81 10000 4.1 330 07:53 29.10.2020
6181 Clouds 14 1025 81 10000 5.1 330 07:24 29.10.2020
6182 Clouds 14 1025 81 10000 4.6 330 06:55 29.10.2020
6183 Clouds 13 1024 81 10000 3.6 340 04:51 29.10.2020
6184 Clouds 13 1024 82 10000 3.1 340 02:51 29.10.2020
6185 Clear 16 1024 99 10000 2.58 77 00:51 29.10.2020
6186 Clear 15 1022 75 10000 2.5 65 00:30 29.10.2020
6187 Clear 16 1022 74 10000 2.5 65 23:45 28.10.2020
6188 Clear 16 1022 73 10000 2.56 54 23:21 28.10.2020
6189 Clouds 16 1023 77 10000 2.6 20 22:44 28.10.2020
6190 Clouds 17 1023 77 10000 2.6 20 22:26 28.10.2020
6191 Clouds 16 1023 77 10000 2.6 20 22:26 28.10.2020
6192 Clouds 17 1023 77 10000 2.6 20 21:58 28.10.2020
6193 Clouds 17 1022 77 10000 3.1 20 21:39 28.10.2020
6194 Clouds 17 1022 67 10000 2.6 30 21:18 28.10.2020
6195 Clouds 17 1021 67 10000 1.5 30 20:41 28.10.2020
6196 Clouds 17 1021 67 10000 1.06 303 20:20 28.10.2020
6197 Clouds 17 1021 67 10000 1.5 270 19:49 28.10.2020
6198 Clouds 17 1021 67 10000 1.5 270 19:28 28.10.2020
6199 Clouds 18 1020 72 10000 3.6 230 18:47 28.10.2020
6200 Clouds 18 1019 68 10000 5.1 240 18:21 28.10.2020
6201 Clear 19 1019 72 10000 6.2 240 17:44 28.10.2020
6202 Clear 19 1019 72 10000 6.2 240 17:25 28.10.2020
6203 Clear 20 1019 63 10000 6.7 230 16:56 28.10.2020
6204 Clear 19 1019 63 10000 7.2 220 16:38 28.10.2020
6205 Clear 20 1019 68 10000 6.7 230 16:19 28.10.2020
6206 Clear 20 1019 63 10000 6.2 230 15:37 28.10.2020
6207 Clouds 20 1018 61 10000 0.45 262 15:18 28.10.2020
6208 Clear 20 1019 52 10000 7.2 230 14:42 28.10.2020
6209 Clouds 20 1018 60 10000 3.71 233 14:22 28.10.2020
6210 Clouds 20 1019 52 10000 2.48 239 12:41 28.10.2020
6211 Clouds 20 1019 52 10000 2.05 261 12:22 28.10.2020
6212 Clouds 19 1019 54 10000 2.05 261 11:56 28.10.2020
6213 Clouds 19 1019 55 10000 2.05 261 11:36 28.10.2020
6214 Clouds 17 1019 57 10000 1.65 285 11:18 28.10.2020
6215 Clouds 16 1020 62 10000 4.6 320 10:44 28.10.2020
6216 Clouds 15 1020 62 10000 4.6 320 10:26 28.10.2020
6217 Clouds 15 1020 66 10000 4.6 330 09:43 28.10.2020
6218 Clouds 15 1020 66 10000 4.6 330 09:43 28.10.2020
6219 Clouds 14 1020 66 10000 4.6 330 09:23 28.10.2020
6220 Clouds 14 1019 66 10000 6.2 330 08:50 28.10.2020
6221 Clouds 14 1019 66 10000 6.7 330 08:29 28.10.2020
6222 Clouds 14 1018 66 10000 5.7 320 07:52 28.10.2020
6223 Clouds 13 1018 66 10000 4.6 330 07:31 28.10.2020
6224 Clouds 13 1018 66 10000 6.2 320 06:42 28.10.2020
6225 Clouds 13 1018 66 10000 6.2 320 06:23 28.10.2020
6226 Clouds 13 1017 66 10000 5.1 340 05:22 28.10.2020
6227 Clouds 13 1017 66 10000 5.1 330 04:30 28.10.2020
6228 Clouds 14 1017 66 10000 2.6 310 02:26 28.10.2020
6229 Clouds 14 1017 66 10000 2.6 310 02:26 28.10.2020
6230 Clouds 14 1017 62 10000 3.1 320 01:53 28.10.2020
6231 Clouds 15 1017 66 10000 0.5 300 00:31 28.10.2020
6232 Clouds 15 1017 66 10000 0.5 360 23:47 27.10.2020
6233 Clouds 15 1017 66 10000 2.1 310 23:21 27.10.2020
6234 Clouds 14 1017 67 10000 2.6 280 22:44 27.10.2020
6235 Clouds 13 1017 67 10000 2.6 280 22:19 27.10.2020
6236 Clouds 13 1017 67 10000 1 260 21:57 27.10.2020
6237 Clear 14 1017 71 10000 3.1 260 21:37 27.10.2020
6238 Clear 14 1017 71 10000 3.1 260 21:19 27.10.2020
6239 Clear 15 1017 67 10000 4.1 260 20:50 27.10.2020
6240 Clear 15 1017 67 10000 4.6 260 20:24 27.10.2020
6241 Clear 16 1017 62 10000 4.1 250 19:57 27.10.2020
6242 Clear 16 1016 55 10000 1.5 270 19:37 27.10.2020
6243 Clear 16 1016 55 10000 1.5 270 19:18 27.10.2020
6244 Clear 17 1016 51 10000 3.6 250 18:44 27.10.2020
6245 Clear 17 1016 51 10000 3.6 250 18:24 27.10.2020
6246 Clear 17 1015 48 10000 5.7 250 17:59 27.10.2020
6247 Clear 17 1015 48 10000 1 0 17:40 27.10.2020
6248 Clear 18 1015 45 10000 1.5 280 17:18 27.10.2020
6249 Clouds 18 1015 42 10000 5.1 320 16:42 27.10.2020
6250 Clouds 18 1015 42 10000 5.1 320 16:23 27.10.2020
6251 Clouds 18 1015 42 10000 6.2 340 15:42 27.10.2020
6252 Clouds 18 1015 42 10000 6.2 340 15:24 27.10.2020
6253 Clouds 17 1015 39 10000 4.6 360 14:50 27.10.2020
6254 Clouds 17 1015 42 10000 2.1 20 14:30 27.10.2020
6255 Clouds 17 1016 48 10000 1.5 170 13:58 27.10.2020
6256 Clouds 17 1016 48 10000 0.5 230 13:29 27.10.2020
6257 Clouds 16 1017 48 10000 0.5 310 12:46 27.10.2020
6258 Clouds 16 1017 48 10000 0.5 310 12:27 27.10.2020
6259 Clouds 16 1017 51 10000 1 0 11:59 27.10.2020
6260 Clouds 16 1017 51 10000 3.6 350 11:41 27.10.2020
6261 Clouds 15 1017 51 10000 3.6 350 11:21 27.10.2020
6262 Clouds 14 1017 54 10000 3.6 330 10:43 27.10.2020
6263 Clouds 14 1017 54 10000 3.6 330 10:20 27.10.2020
6264 Clouds 13 1017 58 10000 3.6 330 09:28 27.10.2020
6265 Clouds 12 1017 62 10000 3.6 340 08:59 27.10.2020
6266 Clouds 12 1016 58 10000 3.6 340 08:33 27.10.2020
6267 Clouds 12 1016 58 10000 4.1 340 07:54 27.10.2020
6268 Clouds 12 1015 58 10000 3.6 350 07:36 27.10.2020
6269 Clouds 12 1015 58 10000 2.6 330 06:55 27.10.2020
6270 Clouds 12 1015 58 10000 1.5 340 06:20 27.10.2020
6271 Clouds 12 1015 58 10000 3.1 360 05:46 27.10.2020
6272 Clouds 12 1015 58 10000 3.6 360 05:27 27.10.2020
6273 Clouds 13 1015 58 10000 2.6 270 03:20 27.10.2020
6274 Clouds 13 1015 54 10000 3.6 330 01:22 27.10.2020
6275 Clouds 13 1015 50 10000 4.1 320 00:42 27.10.2020
6276 Clouds 14 1015 50 10000 0.5 330 23:39 26.10.2020
6277 Clouds 14 1015 50 10000 3.1 330 23:18 26.10.2020
6278 Clouds 14 1014 47 10000 3.1 300 22:44 26.10.2020
6279 Clouds 14 1014 47 10000 3.1 300 22:19 26.10.2020
6280 Clouds 14 1014 47 10000 4.1 300 21:41 26.10.2020
6281 Clouds 15 1014 47 10000 4.1 300 21:19 26.10.2020
6282 Clouds 15 1014 47 10000 2.1 280 20:49 26.10.2020
6283 Clouds 15 1014 47 10000 2.1 280 20:27 26.10.2020
6284 Clouds 15 1014 47 10000 2.1 280 20:27 26.10.2020
6285 Clouds 15 1013 44 10000 3.6 270 19:58 26.10.2020
6286 Clouds 16 1013 44 10000 3.1 290 19:40 26.10.2020
6287 Clouds 16 1013 44 10000 3.1 290 19:20 26.10.2020
6288 Clouds 16 1012 55 10000 1 100 18:42 26.10.2020
6289 Clouds 16 1012 55 10000 1 100 18:22 26.10.2020
6290 Clouds 17 1011 55 10000 3.6 110 17:44 26.10.2020
6291 Clouds 17 1011 52 10000 3.6 80 17:24 26.10.2020
6292 Clouds 17 1011 52 10000 3.6 80 16:57 26.10.2020
6293 Clouds 17 1010 45 10000 5.1 100 16:38 26.10.2020
6294 Clouds 17 1010 55 10000 5.7 130 16:19 26.10.2020
6295 Clouds 17 1010 39 10000 4.6 340 15:39 26.10.2020
6296 Clouds 17 1010 39 10000 4.1 320 15:19 26.10.2020
6297 Clouds 18 1010 42 10000 5.1 310 14:46 26.10.2020
6298 Clouds 18 1010 42 10000 5.1 310 14:21 26.10.2020
6299 Clouds 18 1010 45 10000 5.1 320 13:42 26.10.2020
6300 Clouds 18 1010 45 10000 5.1 310 13:23 26.10.2020
6301 Clouds 17 1010 45 10000 5.1 310 12:47 26.10.2020
6302 Clouds 17 1010 48 10000 5.1 310 12:27 26.10.2020
6303 Clouds 16 1010 48 10000 5.1 320 11:55 26.10.2020
6304 Clouds 16 1010 51 10000 4.6 320 11:37 26.10.2020
6305 Clouds 16 1010 51 10000 4.6 320 11:19 26.10.2020
6306 Clouds 15 1010 51 10000 6.7 290 10:43 26.10.2020
6307 Clouds 15 1010 51 10000 4.6 320 10:25 26.10.2020
6308 Clouds 14 1010 51 10000 4.6 320 09:48 26.10.2020
6309 Clouds 14 1010 51 10000 4.6 320 09:48 26.10.2020
6310 Clouds 14 1010 58 10000 6.7 320 09:25 26.10.2020
6311 Clear 13 1009 54 10000 5.1 320 08:31 26.10.2020
6312 Clear 14 1008 54 10000 3.1 340 07:58 26.10.2020
6313 Clear 15 1008 54 10000 4.6 320 07:38 26.10.2020
6314 Clear 15 1008 63 10000 2.6 350 06:58 26.10.2020
6315 Clear 16 1007 63 10000 4.1 290 04:48 26.10.2020
6316 Clear 16 1006 67 10000 3.1 300 04:18 26.10.2020
6317 Clear 17 1006 63 10000 6.2 310 03:20 26.10.2020
6318 Clear 17 1006 63 10000 6.2 310 03:20 26.10.2020
6319 Clear 17 1006 63 10000 6.2 310 03:20 26.10.2020
6320 Clear 17 1006 63 10000 6.2 310 03:20 26.10.2020
6321 Clear 17 1007 77 10000 1.5 270 01:34 26.10.2020
6322 Clear 16 1007 72 10000 2.6 300 00:33 26.10.2020
6323 Clear 16 1007 72 10000 2.6 300 00:33 26.10.2020
6324 Clear 16 1007 77 10000 3.1 320 23:43 25.10.2020
6325 Clear 16 1007 77 10000 3.1 320 23:22 25.10.2020
6326 Clear 16 1008 72 10000 2.6 330 22:44 25.10.2020
6327 Clear 16 1008 72 10000 2.6 330 22:25 25.10.2020
6328 Clear 17 1009 77 10000 1 290 21:49 25.10.2020
6329 Clear 17 1009 77 10000 1 290 21:29 25.10.2020
6330 Clear 17 1009 82 10000 2.1 300 20:58 25.10.2020
6331 Clear 17 1009 77 10000 3.6 250 20:39 25.10.2020
6332 Clear 17 1010 77 10000 3.1 240 20:19 25.10.2020
6333 Clear 17 1010 77 10000 3.1 250 19:49 25.10.2020
6334 Clear 18 1010 77 10000 3.1 250 19:25 25.10.2020
6335 Clear 18 1010 72 10000 4.6 240 18:57 25.10.2020
6336 Clear 18 1010 72 10000 5.1 230 18:39 25.10.2020
6337 Clear 18 1010 72 10000 5.1 230 18:20 25.10.2020
6338 Clear 19 1011 59 10000 7.2 230 17:40 25.10.2020
6339 Clear 20 1011 52 10000 8.7 230 17:21 25.10.2020
6340 Clear 20 1011 52 10000 8.7 230 16:59 25.10.2020
6341 Clear 21 1011 49 10000 8.7 230 16:39 25.10.2020
6342 Clear 21 1011 56 10000 8.7 230 16:20 25.10.2020
6343 Clear 21 1011 56 10000 8.7 230 15:47 25.10.2020
6344 Clear 21 1011 60 10000 7.7 220 15:26 25.10.2020
6345 Clear 21 1011 60 10000 7.7 220 15:26 25.10.2020
6346 Clear 21 1011 60 10000 9.3 220 14:49 25.10.2020
6347 Clear 22 1012 49 10000 7.2 220 14:28 25.10.2020
6348 Clear 22 1012 43 10000 4.6 280 13:44 25.10.2020
6349 Clear 21 1012 43 10000 4.6 280 13:22 25.10.2020
6350 Clear 21 1013 46 10000 6.2 270 12:49 25.10.2020
6351 Clear 20 1014 46 10000 4.6 260 12:27 25.10.2020
6352 Clear 20 1014 49 10000 6.7 250 11:58 25.10.2020
6353 Clear 20 1014 49 10000 5.7 260 11:39 25.10.2020
6354 Clear 19 1015 49 10000 0.5 290 11:19 25.10.2020
6355 Clear 18 1015 52 10000 2.6 340 10:44 25.10.2020
6356 Clear 18 1015 52 10000 2.6 340 10:25 25.10.2020
6357 Clear 17 1015 63 10000 3.6 320 09:48 25.10.2020
6358 Clear 17 1015 63 10000 3.6 320 09:21 25.10.2020
6359 Clear 16 1015 62 10000 3.1 310 08:56 25.10.2020
6360 Clear 16 1015 67 10000 3.1 300 08:37 25.10.2020
6361 Clear 16 1015 67 10000 3.1 300 08:19 25.10.2020
6362 Clear 15 1014 62 10000 2.1 310 07:42 25.10.2020
6363 Clear 16 1015 62 10000 3.1 310 06:52 25.10.2020
6364 Clear 16 1015 67 10000 4.6 320 06:26 25.10.2020
6365 Clear 16 1015 67 10000 5.1 310 05:19 25.10.2020
6366 Clear 16 1015 71 10000 3.1 310 04:23 25.10.2020
6367 Clear 17 1017 72 10000 5.1 250 02:24 25.10.2020
6368 Clear 17 1018 72 10000 5.7 250 00:53 25.10.2020
6369 Clear 17 1018 72 10000 5.7 250 00:28 25.10.2020
6370 Clear 17 1019 77 10000 4.1 250 23:54 24.10.2020
6371 Clear 17 1019 72 10000 5.7 250 23:31 24.10.2020
6372 Clear 17 1019 72 10000 5.7 250 22:58 24.10.2020
6373 Clear 17 1019 72 10000 5.7 240 22:40 24.10.2020
6374 Clear 17 1019 72 10000 5.7 240 22:21 24.10.2020
6375 Clear 17 1019 72 10000 5.7 250 21:54 24.10.2020
6376 Clear 17 1019 67 10000 6.7 240 21:36 24.10.2020
6377 Clear 17 1019 67 10000 6.2 250 21:18 24.10.2020
6378 Clear 18 1019 67 10000 5.1 250 20:42 24.10.2020
6379 Clear 18 1019 67 10000 5.1 250 20:20 24.10.2020
6380 Clear 18 1019 72 10000 7.2 240 19:40 24.10.2020
6381 Clear 19 1019 72 10000 7.2 240 19:22 24.10.2020
6382 Clear 19 1019 63 10000 8.7 240 18:51 24.10.2020
6383 Clear 20 1019 63 10000 8.7 240 18:30 24.10.2020
6384 Clear 21 1020 56 10000 8.2 230 17:44 24.10.2020
6385 Clear 21 1020 56 10000 8.2 230 17:25 24.10.2020
6386 Clear 21 1020 56 10000 9.8 230 16:53 24.10.2020
6387 Clear 21 1020 56 10000 9.3 230 16:35 24.10.2020
6388 Clear 21 1020 37 10000 5.1 230 15:58 24.10.2020
6389 Clear 21 1020 52 10000 6.7 210 15:38 24.10.2020
6390 Clear 21 1020 52 10000 6.7 210 15:18 24.10.2020
6391 Clear 21 1021 52 10000 5.7 240 14:39 24.10.2020
6392 Clear 21 1021 52 10000 5.7 240 14:21 24.10.2020
6393 Clear 20 1022 52 10000 6.2 240 13:44 24.10.2020
6394 Clear 20 1022 49 10000 1 200 13:20 24.10.2020
6395 Clear 18 1023 55 10000 2.1 340 12:41 24.10.2020
6396 Clear 18 1023 59 10000 3.6 320 12:20 24.10.2020
6397 Clear 17 1023 59 10000 3.6 320 11:50 24.10.2020
6398 Clear 16 1023 62 10000 4.6 340 11:24 24.10.2020
6399 Clear 16 1023 62 10000 4.6 340 10:48 24.10.2020
6400 Clear 15 1023 67 10000 5.1 330 10:29 24.10.2020
6401 Clear 13 1023 71 10000 4.6 330 09:50 24.10.2020
6402 Clouds 12 1022 76 10000 5.1 330 09:27 24.10.2020
6403 Clouds 12 1022 76 10000 5.1 340 08:58 24.10.2020
6404 Clouds 11 1022 76 10000 4.1 330 08:19 24.10.2020
6405 Clouds 11 1022 76 10000 4.1 330 07:53 24.10.2020
6406 Clouds 12 1022 71 10000 4.6 320 07:22 24.10.2020
6407 Clouds 13 1022 71 10000 4.6 330 06:52 24.10.2020
6408 Clouds 13 1022 71 10000 4.6 310 05:47 24.10.2020
6409 Clear 15 1021 67 10000 0.5 310 02:28 24.10.2020
6410 Clear 17 1021 55 10000 2.6 240 00:59 24.10.2020
6411 Clear 17 1021 55 10000 2.1 260 00:39 24.10.2020
6412 Clear 17 1021 55 10000 2.1 260 00:21 24.10.2020
6413 Clear 18 1021 45 10000 3.6 240 23:43 23.10.2020
6414 Clear 18 1021 45 10000 3.6 240 23:23 23.10.2020
6415 Clear 18 1020 52 10000 1.5 280 22:56 23.10.2020
6416 Clear 18 1020 52 10000 2.1 330 22:37 23.10.2020
6417 Clear 18 1020 52 10000 2.1 330 22:18 23.10.2020
6418 Clear 18 1019 52 10000 4.1 250 21:42 23.10.2020
6419 Clear 19 1019 52 10000 4.1 250 21:23 23.10.2020
6420 Clear 19 1019 48 10000 3.6 260 20:40 23.10.2020
6421 Clear 20 1019 48 10000 3.6 260 20:22 23.10.2020
6422 Clear 20 1018 45 10000 4.6 270 19:50 23.10.2020
6423 Clear 21 1018 43 10000 3.6 280 19:32 23.10.2020
6424 Clear 21 1018 37 10000 5.7 270 18:55 23.10.2020
6425 Clear 22 1017 35 10000 5.7 300 18:31 23.10.2020
6426 Clouds 23 1017 36 10000 5.7 280 17:50 23.10.2020
6427 Clouds 23 1017 36 10000 5.7 280 17:24 23.10.2020
6428 Clouds 23 1017 38 10000 6.2 300 16:56 23.10.2020
6429 Clouds 23 1017 38 10000 6.2 300 16:56 23.10.2020
6430 Clouds 23 1017 38 10000 6.2 300 16:56 23.10.2020
6431 Clouds 23 1017 41 10000 6.2 300 16:37 23.10.2020
6432 Clouds 23 1017 41 10000 6.2 300 16:18 23.10.2020
6433 Clouds 23 1017 64 10000 6.7 240 15:42 23.10.2020
6434 Clouds 23 1017 64 10000 6.7 240 15:23 23.10.2020
6435 Clouds 23 1017 73 10000 7.2 220 14:51 23.10.2020
6436 Clouds 23 1017 64 10000 5.7 220 14:33 23.10.2020
6437 Clouds 23 1017 68 10000 5.7 220 13:56 23.10.2020
6438 Clouds 23 1017 73 10000 6.2 220 13:37 23.10.2020
6439 Clouds 23 1017 73 10000 6.2 220 13:37 23.10.2020
6440 Clouds 22 1017 73 10000 6.2 220 13:18 23.10.2020
6441 Clouds 22 1017 77 10000 5.1 220 12:42 23.10.2020
6442 Clouds 21 1017 77 10000 5.1 220 12:23 23.10.2020
6443 Clouds 21 1018 82 10000 5.7 230 11:46 23.10.2020
6444 Clouds 20 1017 88 10000 2.6 260 11:21 23.10.2020
6445 Clouds 19 1017 88 10000 2.6 300 10:43 23.10.2020
6446 Clouds 19 1017 88 10000 2.6 300 10:25 23.10.2020
6447 Clouds 18 1017 93 10000 3.1 300 09:44 23.10.2020
6448 Clouds 18 1017 93 10000 3.1 290 09:26 23.10.2020
6449 Clouds 17 1016 93 10000 3.1 300 08:52 23.10.2020
6450 Clouds 17 1016 93 10000 3.1 300 08:30 23.10.2020
6451 Clouds 17 1016 93 10000 2.6 320 07:33 23.10.2020
6452 Clouds 17 1016 93 10000 3.1 320 06:59 23.10.2020
6453 Clouds 17 1016 88 10000 3.1 320 06:20 23.10.2020
6454 Clouds 17 1015 93 10000 3.1 320 05:34 23.10.2020
6455 Clouds 17 1016 93 10000 3.1 330 02:32 23.10.2020
6456 Clouds 17 1016 93 10000 4.6 320 01:24 23.10.2020
6457 Clouds 18 1015 88 10000 3.6 330 00:42 23.10.2020
6458 Clouds 18 1015 88 10000 3.1 340 23:45 22.10.2020
6459 Clouds 18 1015 88 10000 3.1 340 23:24 22.10.2020
6460 Clouds 18 1015 93 10000 2.6 330 22:48 22.10.2020
6461 Clouds 18 1015 93 10000 2.6 330 22:27 22.10.2020
6462 Clouds 19 1015 88 10000 2.6 20 21:59 22.10.2020
6463 Clouds 19 1016 88 9000 1.5 290 21:41 22.10.2020
6464 Rain 19 1016 88 9000 1.5 290 21:21 22.10.2020
6465 Rain 20 1015 88 10000 1 0 20:45 22.10.2020
6466 Rain 20 1015 88 10000 1 0 20:26 22.10.2020
6467 Clouds 20 1014 94 10000 1.5 20 19:58 22.10.2020
6468 Rain 20 1014 94 10000 2.6 40 19:39 22.10.2020
6469 Rain 20 1014 94 10000 2.6 40 19:18 22.10.2020
6470 Clouds 21 1014 88 9000 4.1 70 18:42 22.10.2020
6471 Clouds 21 1014 88 9000 4.1 70 18:19 22.10.2020
6472 Clouds 21 1014 83 10000 5.1 60 17:45 22.10.2020
6473 Clouds 21 1014 83 10000 5.1 60 17:22 22.10.2020
6474 Clouds 21 1013 78 10000 6.2 50 16:46 22.10.2020
6475 Clouds 22 1014 78 10000 6.7 70 16:25 22.10.2020
6476 Clouds 22 1014 78 10000 6.7 70 15:56 22.10.2020
6477 Clouds 22 1014 73 10000 6.7 60 15:38 22.10.2020
6478 Clouds 22 1014 73 10000 6.7 60 15:19 22.10.2020
6479 Clouds 22 1014 73 8000 5.7 60 14:42 22.10.2020
6480 Clouds 22 1014 73 8000 5.7 60 14:23 22.10.2020
6481 Clouds 21 1015 73 8000 4.1 50 13:45 22.10.2020
6482 Clouds 21 1015 73 8000 4.1 50 13:23 22.10.2020
6483 Clouds 21 1015 77 8000 5.1 50 12:44 22.10.2020
6484 Clouds 21 1015 77 8000 5.1 50 12:22 22.10.2020
6485 Clouds 20 1016 77 8000 3.1 350 11:47 22.10.2020
6486 Clouds 20 1016 77 9000 3.1 340 11:19 22.10.2020
6487 Clouds 20 1015 82 8000 4.1 320 10:49 22.10.2020
6488 Clouds 20 1015 82 8000 4.1 320 10:49 22.10.2020
6489 Clouds 19 1015 82 7000 4.1 330 10:27 22.10.2020
6490 Clouds 19 1015 88 7000 3.6 330 09:46 22.10.2020
6491 Clouds 19 1015 88 7000 3.6 330 09:26 22.10.2020
6492 Clouds 19 1014 88 7000 3.1 350 08:49 22.10.2020
6493 Clouds 19 1014 88 7000 3.1 360 08:27 22.10.2020
6494 Clouds 18 1015 88 8000 2.6 340 07:51 22.10.2020
6495 Clouds 19 1015 93 8000 3.6 340 07:32 22.10.2020
6496 Clouds 18 1015 88 7000 3.6 340 06:46 22.10.2020
6497 Clouds 19 1015 93 7000 3.1 340 06:25 22.10.2020
6498 Clouds 19 1015 93 7000 2.6 340 05:40 22.10.2020
6499 Clouds 18 1015 88 8000 1 0 03:46 22.10.2020
6500 Clouds 18 1015 88 8000 1 0 01:43 22.10.2020
6501 Clouds 18 1014 88 9000 2.1 200 00:25 22.10.2020
6502 Clouds 18 1014 88 9000 0.35 257 23:50 21.10.2020
6503 Clouds 19 1014 82 10000 0.45 268 23:31 21.10.2020
6504 Clouds 19 1013 88 8000 1 350 22:40 21.10.2020
6505 Clouds 19 1013 82 8000 1.5 350 22:19 21.10.2020
6506 Clouds 19 1013 82 8000 1.5 350 22:19 21.10.2020
6507 Clouds 20 1013 82 8000 1.5 350 21:56 21.10.2020
6508 Clouds 20 1013 82 8000 1.5 320 21:37 21.10.2020
6509 Clouds 20 1013 88 8000 2.1 270 21:18 21.10.2020
6510 Clouds 20 1013 94 7000 3.6 250 20:47 21.10.2020
6511 Clouds 20 1013 94 6000 3.1 230 20:19 21.10.2020
6512 Clouds 21 1012 94 7000 2.6 200 19:44 21.10.2020
6513 Clouds 21 1012 94 7000 2.6 200 19:26 21.10.2020
6514 Clouds 21 1012 94 7000 2.6 200 19:26 21.10.2020
6515 Clouds 21 1012 83 7000 1.5 170 18:54 21.10.2020
6516 Clouds 22 1012 83 7000 1.5 170 18:33 21.10.2020
6517 Clouds 22 1012 83 7000 1.5 170 18:33 21.10.2020
6518 Clouds 23 1011 83 7000 2.6 140 17:55 21.10.2020
6519 Clouds 23 1011 83 8000 2.1 140 17:37 21.10.2020
6520 Clouds 23 1011 83 8000 2.1 140 17:18 21.10.2020
6521 Clouds 23 1011 73 9000 2.1 170 16:40 21.10.2020
6522 Clouds 23 1011 73 9000 3.1 160 16:21 21.10.2020
6523 Clouds 23 1011 73 9000 3.1 160 16:21 21.10.2020
6524 Clouds 23 1011 83 8000 3.1 130 15:49 21.10.2020
6525 Clouds 23 1011 83 8000 3.1 130 15:29 21.10.2020
6526 Clouds 23 1011 73 9000 2.6 140 14:58 21.10.2020
6527 Clouds 23 1012 73 9000 3.1 110 14:40 21.10.2020
6528 Clouds 23 1012 73 9000 1.5 100 14:21 21.10.2020
6529 Clouds 23 1012 73 9000 1.5 130 13:42 21.10.2020
6530 Clouds 23 1012 69 9000 1.5 110 13:23 21.10.2020
6531 Clouds 22 1012 69 9000 2.6 90 12:42 21.10.2020
6532 Clouds 21 1012 78 8000 2.1 90 12:23 21.10.2020
6533 Clouds 21 1012 73 10000 2.1 90 11:48 21.10.2020
6534 Clouds 21 1012 73 10000 2.1 90 11:23 21.10.2020
6535 Clouds 21 1012 73 10000 2.1 90 10:59 21.10.2020
6536 Clouds 21 1012 73 10000 1.5 100 10:40 21.10.2020
6537 Clouds 20 1012 77 8000 3.1 70 10:21 21.10.2020
6538 Clouds 20 1011 88 8000 2.6 90 09:49 21.10.2020
6539 Clouds 20 1011 88 8000 2.6 90 09:28 21.10.2020
6540 Clouds 20 1010 82 10000 3.6 60 08:42 21.10.2020
6541 Clouds 20 1011 88 10000 3.1 70 08:23 21.10.2020
6542 Clouds 20 1011 83 10000 3.1 20 07:56 21.10.2020
6543 Clouds 19 1011 88 10000 3.1 70 07:56 21.10.2020
6544 Clouds 20 1011 88 10000 4.1 60 07:24 21.10.2020
6545 Clouds 20 1011 88 10000 3.6 70 06:47 21.10.2020
6546 Clouds 20 1011 94 10000 3.1 50 06:25 21.10.2020
6547 Clouds 20 1012 94 10000 3.6 70 03:48 21.10.2020
6548 Clouds 20 1013 88 10000 4.1 100 00:49 21.10.2020
6549 Clouds 20 1013 88 10000 4.6 100 23:37 20.10.2020
6550 Clouds 20 1014 83 10000 5.1 100 22:49 20.10.2020
6551 Clouds 20 1014 83 10000 4.1 110 22:25 20.10.2020
6552 Clouds 20 1014 83 10000 4.6 100 21:48 20.10.2020
6553 Clouds 20 1015 83 10000 4.6 110 21:20 20.10.2020
6554 Clouds 20 1015 83 10000 4.1 120 20:44 20.10.2020
6555 Clouds 20 1014 77 10000 4.1 110 20:25 20.10.2020
6556 Clouds 20 1014 77 10000 4.6 110 19:57 20.10.2020
6557 Clouds 20 1014 77 10000 4.6 110 19:39 20.10.2020
6558 Clouds 20 1015 77 10000 4.1 100 19:20 20.10.2020
6559 Clouds 20 1015 77 10000 4.6 110 18:45 20.10.2020
6560 Clouds 20 1015 77 10000 4.6 110 18:26 20.10.2020
6561 Clouds 20 1016 73 10000 4.6 70 17:42 20.10.2020
6562 Clouds 20 1017 73 10000 3.6 90 17:23 20.10.2020
6563 Clouds 20 1017 73 10000 4.6 90 16:47 20.10.2020
6564 Clouds 20 1017 73 10000 5.7 90 16:26 20.10.2020
6565 Clouds 21 1017 73 10000 4.6 110 15:50 20.10.2020
6566 Clouds 21 1017 73 10000 4.6 110 15:31 20.10.2020
6567 Clouds 21 1018 68 10000 3.6 130 14:55 20.10.2020
6568 Clouds 21 1019 68 10000 4.1 130 14:37 20.10.2020
6569 Clouds 21 1019 73 10000 4.6 120 14:19 20.10.2020
6570 Clouds 21 1019 68 10000 3.6 140 13:42 20.10.2020
6571 Clouds 21 1019 73 10000 4.1 140 13:21 20.10.2020
6572 Clouds 21 1019 68 10000 3.6 140 12:54 20.10.2020
6573 Clouds 21 1019 68 10000 3.6 140 12:36 20.10.2020
6574 Clouds 20 1019 68 10000 3.1 150 12:18 20.10.2020
6575 Clouds 20 1019 68 10000 3.1 130 11:36 20.10.2020
6576 Clouds 20 1019 77 10000 0.5 100 11:18 20.10.2020
6577 Clouds 18 1019 82 10000 1 0 10:29 20.10.2020
6578 Clouds 17 1019 87 10000 1.5 320 09:50 20.10.2020
6579 Clouds 17 1018 87 10000 2.6 340 09:21 20.10.2020
6580 Clouds 16 1018 87 10000 2.6 340 08:58 20.10.2020
6581 Clouds 16 1018 87 10000 2.1 340 08:31 20.10.2020
6582 Clouds 16 1019 87 10000 1.5 340 07:51 20.10.2020
6583 Clouds 16 1019 87 10000 1.5 340 07:25 20.10.2020
6584 Clouds 16 1019 87 10000 1 0 06:29 20.10.2020
6585 Clouds 16 1019 87 10000 1.5 330 05:22 20.10.2020
6586 Clouds 16 1020 87 10000 1 0 02:44 20.10.2020
6587 Clouds 16 1020 87 10000 2.1 330 02:18 20.10.2020
6588 Clouds 16 1020 82 10000 1 0 00:58 20.10.2020
6589 Clouds 16 1020 82 10000 1 0 00:39 20.10.2020
6590 Clouds 17 1020 82 10000 0.5 350 00:19 20.10.2020
6591 Clouds 17 1020 82 10000 1.5 350 23:40 19.10.2020
6592 Clouds 17 1020 82 10000 2.1 230 23:19 19.10.2020
6593 Clouds 17 1020 77 10000 3.1 210 22:43 19.10.2020
6594 Clouds 17 1020 77 10000 3.1 220 22:21 19.10.2020
6595 Clouds 17 1020 77 10000 3.1 230 21:43 19.10.2020
6596 Clouds 17 1020 77 10000 3.1 220 21:21 19.10.2020
6597 Clouds 18 1020 72 10000 4.1 220 20:46 19.10.2020
6598 Clouds 18 1020 72 10000 4.1 220 20:27 19.10.2020
6599 Clouds 18 1020 68 10000 4.6 220 19:48 19.10.2020
6600 Clouds 19 1020 68 10000 5.1 210 19:24 19.10.2020
6601 Clouds 19 1020 68 10000 5.7 210 18:54 19.10.2020
6602 Clouds 19 1020 68 10000 5.7 210 18:36 19.10.2020
6603 Clouds 19 1020 68 10000 5.7 220 18:18 19.10.2020
6604 Clouds 20 1020 72 10000 3.1 210 17:43 19.10.2020
6605 Clouds 20 1020 72 10000 3.6 200 17:23 19.10.2020
6606 Clouds 20 1020 64 10000 4.1 200 16:43 19.10.2020
6607 Clouds 20 1020 68 10000 5.1 190 16:24 19.10.2020
6608 Clear 20 1020 73 10000 0.45 268 15:43 19.10.2020
6609 Clear 20 1019 76 10000 4.41 206 15:24 19.10.2020
6610 Clear 20 1020 74 10000 0.89 172 14:51 19.10.2020
6611 Clouds 20 1020 74 10000 1.34 176 14:26 19.10.2020
6612 Clouds 20 1021 73 10000 0.89 171 13:52 19.10.2020
6613 Clouds 19 1021 73 10000 1.34 184 13:33 19.10.2020
6614 Clouds 18 1021 70 10000 0.45 161 12:52 19.10.2020
6615 Clouds 18 1023 72 10000 2.88 214 12:33 19.10.2020
6616 Clouds 17 1021 71 10000 1.86 226 11:51 19.10.2020
6617 Clouds 16 1022 76 10000 5.1 330 11:26 19.10.2020
6618 Clouds 15 1022 76 10000 5.1 330 10:59 19.10.2020
6619 Clouds 15 1022 76 10000 5.1 330 10:39 19.10.2020
6620 Clouds 14 1022 76 10000 5.1 330 10:20 19.10.2020
6621 Clouds 14 1022 81 10000 5.1 330 09:43 19.10.2020
6622 Clouds 12 1021 76 10000 4.6 330 09:19 19.10.2020
6623 Clouds 12 1021 76 10000 4.6 330 08:48 19.10.2020
6624 Clouds 11 1021 76 10000 5.1 330 08:23 19.10.2020
6625 Clouds 12 1021 81 10000 5.1 330 07:44 19.10.2020
6626 Clouds 12 1021 81 10000 5.1 330 07:19 19.10.2020
6627 Clouds 12 1021 81 10000 5.1 330 06:19 19.10.2020
6628 Clouds 11 1022 81 10000 4.6 330 04:29 19.10.2020
6629 Clouds 13 1022 81 10000 4.6 330 03:42 19.10.2020
6630 Clouds 13 1022 82 10000 3.6 330 00:59 19.10.2020
6631 Clouds 13 1022 82 10000 3.1 320 00:25 19.10.2020
6632 Clouds 14 1022 82 10000 2.6 320 23:48 18.10.2020
6633 Clouds 14 1022 82 10000 3.1 320 23:25 18.10.2020
6634 Clouds 14 1022 82 10000 3.1 320 22:53 18.10.2020
6635 Clouds 14 1022 82 10000 1.5 310 22:23 18.10.2020
6636 Clouds 15 1022 82 10000 2.6 300 21:56 18.10.2020
6637 Clouds 15 1022 77 10000 2.6 310 21:37 18.10.2020
6638 Clouds 16 1021 77 10000 1.5 290 21:18 18.10.2020
6639 Clouds 16 1021 72 10000 1.5 250 20:40 18.10.2020
6640 Clouds 17 1021 72 10000 1.5 240 20:21 18.10.2020
6641 Clouds 17 1021 68 10000 2.6 220 19:47 18.10.2020
6642 Clouds 17 1021 68 10000 2.6 220 19:26 18.10.2020
6643 Clouds 18 1021 68 10000 2.1 210 18:50 18.10.2020
6644 Clouds 18 1021 59 10000 2.6 220 18:29 18.10.2020
6645 Clouds 19 1021 63 10000 2.1 180 17:45 18.10.2020
6646 Clouds 18 1021 63 10000 2.1 180 17:25 18.10.2020
6647 Clouds 19 1021 60 10000 3.1 70 16:58 18.10.2020
6648 Clouds 19 1021 63 10000 3.1 140 16:39 18.10.2020
6649 C